<?xml version="1.0" encoding="UTF-8" standalone="no" ?>
<gpx xmlns="http://www.topografix.com/GPX/1/1" xmlns:xsi="http://www.w3.org/2001/XMLSchema-instance" xsi:schemaLocation="http://www.topografix.com/GPX/1/1 http://www.topografix.com/GPX/1/1/gpx.xsd" version="1.1" creator="VisuGPX - https://www.visugpx.com">
  <metadata>
    <name>Rando vtt Les Monts d'Ambazac 2019</name>
    <desc><![CDATA[Superbe rando,très physique!]]></desc>
  </metadata>
  <trk>
    <name><![CDATA[Rando vtt Les Monts d'Ambazac 2019]]></name>
    <trkseg>
      <trkpt lat="45.95861" lon="1.39739">
        <ele>465.63</ele>
        <time>2019-11-24T07:55:11.601Z</time>
      </trkpt>
      <trkpt lat="45.95852" lon="1.39735">
        <ele>443.92</ele>
        <time>2019-11-24T07:57:03.999Z</time>
      </trkpt>
      <trkpt lat="45.95859" lon="1.39744">
        <ele>437.87</ele>
        <time>2019-11-24T08:00:21.999Z</time>
      </trkpt>
      <trkpt lat="45.95862" lon="1.39757">
        <ele>439.31</ele>
        <time>2019-11-24T08:00:55.999Z</time>
      </trkpt>
      <trkpt lat="45.95853" lon="1.39751">
        <ele>440.15</ele>
        <time>2019-11-24T08:01:33.999Z</time>
      </trkpt>
      <trkpt lat="45.95861" lon="1.39759">
        <ele>437.28</ele>
        <time>2019-11-24T08:03:11.999Z</time>
      </trkpt>
      <trkpt lat="45.95853" lon="1.39769">
        <ele>437.78</ele>
        <time>2019-11-24T08:04:11.999Z</time>
      </trkpt>
      <trkpt lat="45.95843" lon="1.39773">
        <ele>438.87</ele>
        <time>2019-11-24T08:04:18.999Z</time>
      </trkpt>
      <trkpt lat="45.95833" lon="1.39773">
        <ele>439.4</ele>
        <time>2019-11-24T08:04:22.999Z</time>
      </trkpt>
      <trkpt lat="45.95822" lon="1.39773">
        <ele>439.77</ele>
        <time>2019-11-24T08:04:26.999Z</time>
      </trkpt>
      <trkpt lat="45.95811" lon="1.39772">
        <ele>440.15</ele>
        <time>2019-11-24T08:04:30.999Z</time>
      </trkpt>
      <trkpt lat="45.95802" lon="1.39772">
        <ele>440.58</ele>
        <time>2019-11-24T08:04:34.999Z</time>
      </trkpt>
      <trkpt lat="45.95791" lon="1.39771">
        <ele>440.89</ele>
        <time>2019-11-24T08:04:38.999Z</time>
      </trkpt>
      <trkpt lat="45.9578" lon="1.39769">
        <ele>440.98</ele>
        <time>2019-11-24T08:04:42.999Z</time>
      </trkpt>
      <trkpt lat="45.95775" lon="1.39756">
        <ele>440.77</ele>
        <time>2019-11-24T08:04:46.999Z</time>
      </trkpt>
      <trkpt lat="45.95775" lon="1.3974">
        <ele>440.5</ele>
        <time>2019-11-24T08:04:49.999Z</time>
      </trkpt>
      <trkpt lat="45.95775" lon="1.39726">
        <ele>440.28</ele>
        <time>2019-11-24T08:04:52.999Z</time>
      </trkpt>
      <trkpt lat="45.95774" lon="1.3971">
        <ele>440.19</ele>
        <time>2019-11-24T08:04:56.999Z</time>
      </trkpt>
      <trkpt lat="45.95772" lon="1.39694">
        <ele>440.31</ele>
        <time>2019-11-24T08:05:00.999Z</time>
      </trkpt>
      <trkpt lat="45.95772" lon="1.39681">
        <ele>440.43</ele>
        <time>2019-11-24T08:05:03.999Z</time>
      </trkpt>
      <trkpt lat="45.95772" lon="1.39665">
        <ele>440.46</ele>
        <time>2019-11-24T08:05:06.999Z</time>
      </trkpt>
      <trkpt lat="45.95772" lon="1.39649">
        <ele>440.38</ele>
        <time>2019-11-24T08:05:10.999Z</time>
      </trkpt>
      <trkpt lat="45.95772" lon="1.39633">
        <ele>440.13</ele>
        <time>2019-11-24T08:05:13.999Z</time>
      </trkpt>
      <trkpt lat="45.95771" lon="1.3962">
        <ele>439.86</ele>
        <time>2019-11-24T08:05:16.999Z</time>
      </trkpt>
      <trkpt lat="45.9577" lon="1.39604">
        <ele>439.46</ele>
        <time>2019-11-24T08:05:20.999Z</time>
      </trkpt>
      <trkpt lat="45.95768" lon="1.3959">
        <ele>439.12</ele>
        <time>2019-11-24T08:05:23.999Z</time>
      </trkpt>
      <trkpt lat="45.95768" lon="1.39575">
        <ele>438.81</ele>
        <time>2019-11-24T08:05:26.999Z</time>
      </trkpt>
      <trkpt lat="45.95769" lon="1.39562">
        <ele>438.5</ele>
        <time>2019-11-24T08:05:29.999Z</time>
      </trkpt>
      <trkpt lat="45.95768" lon="1.39548">
        <ele>438.28</ele>
        <time>2019-11-24T08:05:32.999Z</time>
      </trkpt>
      <trkpt lat="45.95766" lon="1.39532">
        <ele>438.11</ele>
        <time>2019-11-24T08:05:36.999Z</time>
      </trkpt>
      <trkpt lat="45.95763" lon="1.39514">
        <ele>438.1</ele>
        <time>2019-11-24T08:05:40.999Z</time>
      </trkpt>
      <trkpt lat="45.95761" lon="1.39497">
        <ele>438.34</ele>
        <time>2019-11-24T08:05:44.999Z</time>
      </trkpt>
      <trkpt lat="45.95761" lon="1.39482">
        <ele>438.49</ele>
        <time>2019-11-24T08:05:47.999Z</time>
      </trkpt>
      <trkpt lat="45.95761" lon="1.39466">
        <ele>438.73</ele>
        <time>2019-11-24T08:05:51.999Z</time>
      </trkpt>
      <trkpt lat="45.95762" lon="1.39452">
        <ele>438.82</ele>
        <time>2019-11-24T08:05:54.999Z</time>
      </trkpt>
      <trkpt lat="45.95763" lon="1.39438">
        <ele>438.86</ele>
        <time>2019-11-24T08:05:57.999Z</time>
      </trkpt>
      <trkpt lat="45.95764" lon="1.39423">
        <ele>438.93</ele>
        <time>2019-11-24T08:06:00.999Z</time>
      </trkpt>
      <trkpt lat="45.95763" lon="1.39408">
        <ele>439.15</ele>
        <time>2019-11-24T08:06:04.999Z</time>
      </trkpt>
      <trkpt lat="45.95763" lon="1.39394">
        <ele>439.49</ele>
        <time>2019-11-24T08:06:07.999Z</time>
      </trkpt>
      <trkpt lat="45.95764" lon="1.39377">
        <ele>440</ele>
        <time>2019-11-24T08:06:11.999Z</time>
      </trkpt>
      <trkpt lat="45.95767" lon="1.39361">
        <ele>440.53</ele>
        <time>2019-11-24T08:06:15.999Z</time>
      </trkpt>
      <trkpt lat="45.9577" lon="1.39344">
        <ele>441.09</ele>
        <time>2019-11-24T08:06:19.999Z</time>
      </trkpt>
      <trkpt lat="45.95772" lon="1.39331">
        <ele>441.52</ele>
        <time>2019-11-24T08:06:22.999Z</time>
      </trkpt>
      <trkpt lat="45.95775" lon="1.39318">
        <ele>441.95</ele>
        <time>2019-11-24T08:06:25.999Z</time>
      </trkpt>
      <trkpt lat="45.95779" lon="1.39305">
        <ele>442.28</ele>
        <time>2019-11-24T08:06:28.999Z</time>
      </trkpt>
      <trkpt lat="45.95783" lon="1.3929">
        <ele>442.65</ele>
        <time>2019-11-24T08:06:32.999Z</time>
      </trkpt>
      <trkpt lat="45.95786" lon="1.39277">
        <ele>443.03</ele>
        <time>2019-11-24T08:06:35.999Z</time>
      </trkpt>
      <trkpt lat="45.95791" lon="1.39265">
        <ele>443.52</ele>
        <time>2019-11-24T08:06:38.999Z</time>
      </trkpt>
      <trkpt lat="45.95795" lon="1.39253">
        <ele>444.02</ele>
        <time>2019-11-24T08:06:41.999Z</time>
      </trkpt>
      <trkpt lat="45.958" lon="1.39241">
        <ele>444.53</ele>
        <time>2019-11-24T08:06:44.999Z</time>
      </trkpt>
      <trkpt lat="45.95805" lon="1.39228">
        <ele>444.99</ele>
        <time>2019-11-24T08:06:47.999Z</time>
      </trkpt>
      <trkpt lat="45.95809" lon="1.39215">
        <ele>445.56</ele>
        <time>2019-11-24T08:06:50.999Z</time>
      </trkpt>
      <trkpt lat="45.95814" lon="1.39203">
        <ele>446.23</ele>
        <time>2019-11-24T08:06:53.999Z</time>
      </trkpt>
      <trkpt lat="45.95821" lon="1.39191">
        <ele>447.25</ele>
        <time>2019-11-24T08:06:57.999Z</time>
      </trkpt>
      <trkpt lat="45.95829" lon="1.39179">
        <ele>448.4</ele>
        <time>2019-11-24T08:07:01.999Z</time>
      </trkpt>
      <trkpt lat="45.95838" lon="1.3917">
        <ele>449.68</ele>
        <time>2019-11-24T08:07:05.999Z</time>
      </trkpt>
      <trkpt lat="45.95846" lon="1.3916">
        <ele>450.82</ele>
        <time>2019-11-24T08:07:09.999Z</time>
      </trkpt>
      <trkpt lat="45.95854" lon="1.39149">
        <ele>451.44</ele>
        <time>2019-11-24T08:07:12.999Z</time>
      </trkpt>
      <trkpt lat="45.95864" lon="1.39136">
        <ele>456.73</ele>
        <time>2019-11-24T08:07:15.999Z</time>
      </trkpt>
      <trkpt lat="45.95872" lon="1.39124">
        <ele>458.13</ele>
        <time>2019-11-24T08:07:18.999Z</time>
      </trkpt>
      <trkpt lat="45.95873" lon="1.3911">
        <ele>456.21</ele>
        <time>2019-11-24T08:07:21.999Z</time>
      </trkpt>
      <trkpt lat="45.95868" lon="1.39095">
        <ele>453.32</ele>
        <time>2019-11-24T08:07:24.999Z</time>
      </trkpt>
      <trkpt lat="45.95863" lon="1.39082">
        <ele>451.33</ele>
        <time>2019-11-24T08:07:27.999Z</time>
      </trkpt>
      <trkpt lat="45.95858" lon="1.39069">
        <ele>450.5</ele>
        <time>2019-11-24T08:07:30.999Z</time>
      </trkpt>
      <trkpt lat="45.95853" lon="1.39057">
        <ele>450.33</ele>
        <time>2019-11-24T08:07:33.999Z</time>
      </trkpt>
      <trkpt lat="45.95849" lon="1.39043">
        <ele>450.22</ele>
        <time>2019-11-24T08:07:37.999Z</time>
      </trkpt>
      <trkpt lat="45.95845" lon="1.3903">
        <ele>450.29</ele>
        <time>2019-11-24T08:07:41.999Z</time>
      </trkpt>
      <trkpt lat="45.95842" lon="1.39017">
        <ele>450.45</ele>
        <time>2019-11-24T08:07:44.999Z</time>
      </trkpt>
      <trkpt lat="45.95842" lon="1.39001">
        <ele>450.69</ele>
        <time>2019-11-24T08:07:47.999Z</time>
      </trkpt>
      <trkpt lat="45.95846" lon="1.38988">
        <ele>451</ele>
        <time>2019-11-24T08:07:50.999Z</time>
      </trkpt>
      <trkpt lat="45.95851" lon="1.38973">
        <ele>451.49</ele>
        <time>2019-11-24T08:07:54.999Z</time>
      </trkpt>
      <trkpt lat="45.95857" lon="1.38961">
        <ele>452.46</ele>
        <time>2019-11-24T08:07:59.999Z</time>
      </trkpt>
      <trkpt lat="45.95863" lon="1.38949">
        <ele>453.63</ele>
        <time>2019-11-24T08:08:04.999Z</time>
      </trkpt>
      <trkpt lat="45.95868" lon="1.38935">
        <ele>455.03</ele>
        <time>2019-11-24T08:08:09.999Z</time>
      </trkpt>
      <trkpt lat="45.95874" lon="1.38924">
        <ele>456.38</ele>
        <time>2019-11-24T08:08:13.999Z</time>
      </trkpt>
      <trkpt lat="45.95882" lon="1.38914">
        <ele>457.73</ele>
        <time>2019-11-24T08:08:17.999Z</time>
      </trkpt>
      <trkpt lat="45.9589" lon="1.38903">
        <ele>459.39</ele>
        <time>2019-11-24T08:08:22.999Z</time>
      </trkpt>
      <trkpt lat="45.95897" lon="1.38893">
        <ele>460.31</ele>
        <time>2019-11-24T08:08:25.999Z</time>
      </trkpt>
      <trkpt lat="45.95906" lon="1.38883">
        <ele>461.43</ele>
        <time>2019-11-24T08:08:29.999Z</time>
      </trkpt>
      <trkpt lat="45.95914" lon="1.38875">
        <ele>462.5</ele>
        <time>2019-11-24T08:08:33.999Z</time>
      </trkpt>
      <trkpt lat="45.95922" lon="1.38868">
        <ele>463.73</ele>
        <time>2019-11-24T08:08:38.999Z</time>
      </trkpt>
      <trkpt lat="45.95929" lon="1.38859">
        <ele>465.42</ele>
        <time>2019-11-24T08:08:45.999Z</time>
      </trkpt>
      <trkpt lat="45.95931" lon="1.38845">
        <ele>468.09</ele>
        <time>2019-11-24T08:08:54.999Z</time>
      </trkpt>
      <trkpt lat="45.95937" lon="1.38833">
        <ele>470.31</ele>
        <time>2019-11-24T08:09:00.999Z</time>
      </trkpt>
      <trkpt lat="45.95946" lon="1.38822">
        <ele>472.03</ele>
        <time>2019-11-24T08:09:06.999Z</time>
      </trkpt>
      <trkpt lat="45.95952" lon="1.38809">
        <ele>472.72</ele>
        <time>2019-11-24T08:09:11.999Z</time>
      </trkpt>
      <trkpt lat="45.95959" lon="1.38799">
        <ele>472.69</ele>
        <time>2019-11-24T08:09:16.999Z</time>
      </trkpt>
      <trkpt lat="45.95964" lon="1.38787">
        <ele>472.32</ele>
        <time>2019-11-24T08:09:21.999Z</time>
      </trkpt>
      <trkpt lat="45.9597" lon="1.38772">
        <ele>471.95</ele>
        <time>2019-11-24T08:09:26.999Z</time>
      </trkpt>
      <trkpt lat="45.95975" lon="1.3876">
        <ele>471.89</ele>
        <time>2019-11-24T08:09:30.999Z</time>
      </trkpt>
      <trkpt lat="45.95981" lon="1.38747">
        <ele>472.2</ele>
        <time>2019-11-24T08:09:34.999Z</time>
      </trkpt>
      <trkpt lat="45.95986" lon="1.38736">
        <ele>472.72</ele>
        <time>2019-11-24T08:09:38.999Z</time>
      </trkpt>
      <trkpt lat="45.95993" lon="1.38724">
        <ele>473.26</ele>
        <time>2019-11-24T08:09:42.999Z</time>
      </trkpt>
      <trkpt lat="45.95998" lon="1.38707">
        <ele>473.54</ele>
        <time>2019-11-24T08:09:46.999Z</time>
      </trkpt>
      <trkpt lat="45.96002" lon="1.38693">
        <ele>473.5</ele>
        <time>2019-11-24T08:09:50.999Z</time>
      </trkpt>
      <trkpt lat="45.96007" lon="1.38682">
        <ele>473.38</ele>
        <time>2019-11-24T08:09:54.999Z</time>
      </trkpt>
      <trkpt lat="45.96012" lon="1.38668">
        <ele>473.29</ele>
        <time>2019-11-24T08:09:58.999Z</time>
      </trkpt>
      <trkpt lat="45.96017" lon="1.38657">
        <ele>473.24</ele>
        <time>2019-11-24T08:10:02.999Z</time>
      </trkpt>
      <trkpt lat="45.96024" lon="1.38643">
        <ele>473.34</ele>
        <time>2019-11-24T08:10:06.999Z</time>
      </trkpt>
      <trkpt lat="45.96029" lon="1.38629">
        <ele>473.51</ele>
        <time>2019-11-24T08:10:10.999Z</time>
      </trkpt>
      <trkpt lat="45.96034" lon="1.38615">
        <ele>473.56</ele>
        <time>2019-11-24T08:10:14.999Z</time>
      </trkpt>
      <trkpt lat="45.96026" lon="1.38609">
        <ele>474.04</ele>
        <time>2019-11-24T08:10:20.999Z</time>
      </trkpt>
      <trkpt lat="45.96017" lon="1.38609">
        <ele>474.39</ele>
        <time>2019-11-24T08:10:23.999Z</time>
      </trkpt>
      <trkpt lat="45.96007" lon="1.38612">
        <ele>474.67</ele>
        <time>2019-11-24T08:10:26.999Z</time>
      </trkpt>
      <trkpt lat="45.95997" lon="1.38617">
        <ele>474.84</ele>
        <time>2019-11-24T08:10:29.999Z</time>
      </trkpt>
      <trkpt lat="45.95988" lon="1.38625">
        <ele>474.98</ele>
        <time>2019-11-24T08:10:33.999Z</time>
      </trkpt>
      <trkpt lat="45.95979" lon="1.38633">
        <ele>474.81</ele>
        <time>2019-11-24T08:10:37.999Z</time>
      </trkpt>
      <trkpt lat="45.95971" lon="1.3864">
        <ele>474.65</ele>
        <time>2019-11-24T08:10:40.999Z</time>
      </trkpt>
      <trkpt lat="45.95961" lon="1.38646">
        <ele>474.45</ele>
        <time>2019-11-24T08:10:44.999Z</time>
      </trkpt>
      <trkpt lat="45.95951" lon="1.38655">
        <ele>474.41</ele>
        <time>2019-11-24T08:10:48.999Z</time>
      </trkpt>
      <trkpt lat="45.95943" lon="1.38664">
        <ele>474.37</ele>
        <time>2019-11-24T08:10:52.999Z</time>
      </trkpt>
      <trkpt lat="45.95936" lon="1.38671">
        <ele>474.42</ele>
        <time>2019-11-24T08:10:56.999Z</time>
      </trkpt>
      <trkpt lat="45.95928" lon="1.38678">
        <ele>474.46</ele>
        <time>2019-11-24T08:10:59.999Z</time>
      </trkpt>
      <trkpt lat="45.95919" lon="1.38687">
        <ele>474.44</ele>
        <time>2019-11-24T08:11:02.999Z</time>
      </trkpt>
      <trkpt lat="45.9591" lon="1.38695">
        <ele>474.43</ele>
        <time>2019-11-24T08:11:05.999Z</time>
      </trkpt>
      <trkpt lat="45.95904" lon="1.38705">
        <ele>474.38</ele>
        <time>2019-11-24T08:11:08.999Z</time>
      </trkpt>
      <trkpt lat="45.95895" lon="1.38712">
        <ele>474.37</ele>
        <time>2019-11-24T08:11:11.999Z</time>
      </trkpt>
      <trkpt lat="45.95886" lon="1.38722">
        <ele>474.19</ele>
        <time>2019-11-24T08:11:14.999Z</time>
      </trkpt>
      <trkpt lat="45.95877" lon="1.38732">
        <ele>474.16</ele>
        <time>2019-11-24T08:11:17.999Z</time>
      </trkpt>
      <trkpt lat="45.95869" lon="1.38741">
        <ele>474.21</ele>
        <time>2019-11-24T08:11:20.999Z</time>
      </trkpt>
      <trkpt lat="45.95858" lon="1.38748">
        <ele>475.56</ele>
        <time>2019-11-24T08:11:23.999Z</time>
      </trkpt>
      <trkpt lat="45.95847" lon="1.38759">
        <ele>477.38</ele>
        <time>2019-11-24T08:11:26.999Z</time>
      </trkpt>
      <trkpt lat="45.9584" lon="1.3877">
        <ele>476.91</ele>
        <time>2019-11-24T08:11:28.999Z</time>
      </trkpt>
      <trkpt lat="45.95834" lon="1.38781">
        <ele>475.97</ele>
        <time>2019-11-24T08:11:30.999Z</time>
      </trkpt>
      <trkpt lat="45.95824" lon="1.38794">
        <ele>474.51</ele>
        <time>2019-11-24T08:11:33.999Z</time>
      </trkpt>
      <trkpt lat="45.95816" lon="1.38806">
        <ele>473.88</ele>
        <time>2019-11-24T08:11:36.999Z</time>
      </trkpt>
      <trkpt lat="45.95809" lon="1.3882">
        <ele>473.59</ele>
        <time>2019-11-24T08:11:39.999Z</time>
      </trkpt>
      <trkpt lat="45.95802" lon="1.38831">
        <ele>473.22</ele>
        <time>2019-11-24T08:11:42.999Z</time>
      </trkpt>
      <trkpt lat="45.95794" lon="1.38845">
        <ele>473.37</ele>
        <time>2019-11-24T08:11:45.999Z</time>
      </trkpt>
      <trkpt lat="45.95788" lon="1.38856">
        <ele>473</ele>
        <time>2019-11-24T08:11:47.999Z</time>
      </trkpt>
      <trkpt lat="45.95781" lon="1.38869">
        <ele>472.69</ele>
        <time>2019-11-24T08:11:49.999Z</time>
      </trkpt>
      <trkpt lat="45.95773" lon="1.38881">
        <ele>472.32</ele>
        <time>2019-11-24T08:11:51.999Z</time>
      </trkpt>
      <trkpt lat="45.95763" lon="1.38887">
        <ele>471.82</ele>
        <time>2019-11-24T08:11:53.999Z</time>
      </trkpt>
      <trkpt lat="45.95749" lon="1.38895">
        <ele>472.38</ele>
        <time>2019-11-24T08:11:55.999Z</time>
      </trkpt>
      <trkpt lat="45.95736" lon="1.38904">
        <ele>472.26</ele>
        <time>2019-11-24T08:11:57.999Z</time>
      </trkpt>
      <trkpt lat="45.95728" lon="1.38912">
        <ele>472.13</ele>
        <time>2019-11-24T08:12:00.999Z</time>
      </trkpt>
      <trkpt lat="45.95721" lon="1.38921">
        <ele>471.74</ele>
        <time>2019-11-24T08:12:05.000Z</time>
      </trkpt>
      <trkpt lat="45.95713" lon="1.3893">
        <ele>471.55</ele>
        <time>2019-11-24T08:12:07.000Z</time>
      </trkpt>
      <trkpt lat="45.95703" lon="1.38939">
        <ele>471.33</ele>
        <time>2019-11-24T08:12:09.000Z</time>
      </trkpt>
      <trkpt lat="45.95693" lon="1.38949">
        <ele>471.03</ele>
        <time>2019-11-24T08:12:11.000Z</time>
      </trkpt>
      <trkpt lat="45.95685" lon="1.38957">
        <ele>470.68</ele>
        <time>2019-11-24T08:12:13.000Z</time>
      </trkpt>
      <trkpt lat="45.95676" lon="1.38964">
        <ele>470.33</ele>
        <time>2019-11-24T08:12:15.000Z</time>
      </trkpt>
      <trkpt lat="45.95666" lon="1.38968">
        <ele>469.76</ele>
        <time>2019-11-24T08:12:18.000Z</time>
      </trkpt>
      <trkpt lat="45.95655" lon="1.38973">
        <ele>467.49</ele>
        <time>2019-11-24T08:12:21.000Z</time>
      </trkpt>
      <trkpt lat="45.95645" lon="1.38979">
        <ele>467.11</ele>
        <time>2019-11-24T08:12:25.000Z</time>
      </trkpt>
      <trkpt lat="45.95636" lon="1.38985">
        <ele>466.61</ele>
        <time>2019-11-24T08:12:28.000Z</time>
      </trkpt>
      <trkpt lat="45.95628" lon="1.3899">
        <ele>465.93</ele>
        <time>2019-11-24T08:12:31.000Z</time>
      </trkpt>
      <trkpt lat="45.95616" lon="1.38996">
        <ele>464.93</ele>
        <time>2019-11-24T08:12:36.000Z</time>
      </trkpt>
      <trkpt lat="45.95607" lon="1.39005">
        <ele>464.62</ele>
        <time>2019-11-24T08:12:39.000Z</time>
      </trkpt>
      <trkpt lat="45.95597" lon="1.39011">
        <ele>464.51</ele>
        <time>2019-11-24T08:12:43.000Z</time>
      </trkpt>
      <trkpt lat="45.95585" lon="1.39016">
        <ele>464.4</ele>
        <time>2019-11-24T08:12:46.000Z</time>
      </trkpt>
      <trkpt lat="45.95574" lon="1.39021">
        <ele>464.17</ele>
        <time>2019-11-24T08:12:50.000Z</time>
      </trkpt>
      <trkpt lat="45.95566" lon="1.39031">
        <ele>464.13</ele>
        <time>2019-11-24T08:12:53.000Z</time>
      </trkpt>
      <trkpt lat="45.95558" lon="1.3904">
        <ele>464.17</ele>
        <time>2019-11-24T08:12:56.000Z</time>
      </trkpt>
      <trkpt lat="45.95548" lon="1.3905">
        <ele>464.47</ele>
        <time>2019-11-24T08:12:59.000Z</time>
      </trkpt>
      <trkpt lat="45.95539" lon="1.39056">
        <ele>464.32</ele>
        <time>2019-11-24T08:13:01.000Z</time>
      </trkpt>
      <trkpt lat="45.9553" lon="1.39066">
        <ele>462.31</ele>
        <time>2019-11-24T08:13:04.000Z</time>
      </trkpt>
      <trkpt lat="45.95522" lon="1.39075">
        <ele>462.08</ele>
        <time>2019-11-24T08:13:07.000Z</time>
      </trkpt>
      <trkpt lat="45.95512" lon="1.39081">
        <ele>461.9</ele>
        <time>2019-11-24T08:13:10.000Z</time>
      </trkpt>
      <trkpt lat="45.95502" lon="1.3909">
        <ele>461.97</ele>
        <time>2019-11-24T08:13:14.000Z</time>
      </trkpt>
      <trkpt lat="45.95493" lon="1.39096">
        <ele>462.14</ele>
        <time>2019-11-24T08:13:17.000Z</time>
      </trkpt>
      <trkpt lat="45.95481" lon="1.39107">
        <ele>462.33</ele>
        <time>2019-11-24T08:13:20.000Z</time>
      </trkpt>
      <trkpt lat="45.95474" lon="1.39117">
        <ele>463.61</ele>
        <time>2019-11-24T08:13:22.000Z</time>
      </trkpt>
      <trkpt lat="45.95465" lon="1.39129">
        <ele>464.67</ele>
        <time>2019-11-24T08:13:24.000Z</time>
      </trkpt>
      <trkpt lat="45.95458" lon="1.3914">
        <ele>465.49</ele>
        <time>2019-11-24T08:13:26.000Z</time>
      </trkpt>
      <trkpt lat="45.95449" lon="1.39146">
        <ele>465.37</ele>
        <time>2019-11-24T08:13:28.000Z</time>
      </trkpt>
      <trkpt lat="45.95439" lon="1.39155">
        <ele>465.4</ele>
        <time>2019-11-24T08:13:31.000Z</time>
      </trkpt>
      <trkpt lat="45.95429" lon="1.39166">
        <ele>465.39</ele>
        <time>2019-11-24T08:13:34.000Z</time>
      </trkpt>
      <trkpt lat="45.95421" lon="1.39173">
        <ele>465.38</ele>
        <time>2019-11-24T08:13:37.000Z</time>
      </trkpt>
      <trkpt lat="45.95412" lon="1.39179">
        <ele>465.34</ele>
        <time>2019-11-24T08:13:40.000Z</time>
      </trkpt>
      <trkpt lat="45.95402" lon="1.39174">
        <ele>465.18</ele>
        <time>2019-11-24T08:13:44.000Z</time>
      </trkpt>
      <trkpt lat="45.95392" lon="1.39169">
        <ele>463.92</ele>
        <time>2019-11-24T08:13:46.000Z</time>
      </trkpt>
      <trkpt lat="45.95379" lon="1.39159">
        <ele>462.8</ele>
        <time>2019-11-24T08:13:48.000Z</time>
      </trkpt>
      <trkpt lat="45.95367" lon="1.39144">
        <ele>461.07</ele>
        <time>2019-11-24T08:13:50.000Z</time>
      </trkpt>
      <trkpt lat="45.95357" lon="1.39128">
        <ele>459.77</ele>
        <time>2019-11-24T08:13:52.000Z</time>
      </trkpt>
      <trkpt lat="45.95346" lon="1.39113">
        <ele>458.55</ele>
        <time>2019-11-24T08:13:54.000Z</time>
      </trkpt>
      <trkpt lat="45.95338" lon="1.39104">
        <ele>458.23</ele>
        <time>2019-11-24T08:13:55.000Z</time>
      </trkpt>
      <trkpt lat="45.95331" lon="1.39095">
        <ele>457.97</ele>
        <time>2019-11-24T08:13:56.000Z</time>
      </trkpt>
      <trkpt lat="45.95324" lon="1.39085">
        <ele>457.8</ele>
        <time>2019-11-24T08:13:57.000Z</time>
      </trkpt>
      <trkpt lat="45.95318" lon="1.39075">
        <ele>457.73</ele>
        <time>2019-11-24T08:13:58.000Z</time>
      </trkpt>
      <trkpt lat="45.95311" lon="1.39065">
        <ele>457.6</ele>
        <time>2019-11-24T08:13:59.000Z</time>
      </trkpt>
      <trkpt lat="45.95305" lon="1.39054">
        <ele>457.34</ele>
        <time>2019-11-24T08:14:00.000Z</time>
      </trkpt>
      <trkpt lat="45.95298" lon="1.39044">
        <ele>457.07</ele>
        <time>2019-11-24T08:14:01.000Z</time>
      </trkpt>
      <trkpt lat="45.95292" lon="1.39033">
        <ele>456.79</ele>
        <time>2019-11-24T08:14:02.000Z</time>
      </trkpt>
      <trkpt lat="45.95286" lon="1.39023">
        <ele>456.51</ele>
        <time>2019-11-24T08:14:03.000Z</time>
      </trkpt>
      <trkpt lat="45.95276" lon="1.39004">
        <ele>455.8</ele>
        <time>2019-11-24T08:14:05.000Z</time>
      </trkpt>
      <trkpt lat="45.95267" lon="1.38984">
        <ele>455.16</ele>
        <time>2019-11-24T08:14:07.000Z</time>
      </trkpt>
      <trkpt lat="45.95258" lon="1.38964">
        <ele>454.5</ele>
        <time>2019-11-24T08:14:09.000Z</time>
      </trkpt>
      <trkpt lat="45.95252" lon="1.38945">
        <ele>453.72</ele>
        <time>2019-11-24T08:14:11.000Z</time>
      </trkpt>
      <trkpt lat="45.95246" lon="1.3893">
        <ele>452.89</ele>
        <time>2019-11-24T08:14:13.000Z</time>
      </trkpt>
      <trkpt lat="45.95239" lon="1.38918">
        <ele>451.71</ele>
        <time>2019-11-24T08:14:15.000Z</time>
      </trkpt>
      <trkpt lat="45.95231" lon="1.38908">
        <ele>450.52</ele>
        <time>2019-11-24T08:14:17.000Z</time>
      </trkpt>
      <trkpt lat="45.95226" lon="1.38897">
        <ele>449.41</ele>
        <time>2019-11-24T08:14:19.000Z</time>
      </trkpt>
      <trkpt lat="45.95222" lon="1.38881">
        <ele>448.66</ele>
        <time>2019-11-24T08:14:21.000Z</time>
      </trkpt>
      <trkpt lat="45.9522" lon="1.38867">
        <ele>448.21</ele>
        <time>2019-11-24T08:14:23.000Z</time>
      </trkpt>
      <trkpt lat="45.95214" lon="1.3885">
        <ele>448.17</ele>
        <time>2019-11-24T08:14:26.000Z</time>
      </trkpt>
      <trkpt lat="45.95208" lon="1.38837">
        <ele>448.43</ele>
        <time>2019-11-24T08:14:28.000Z</time>
      </trkpt>
      <trkpt lat="45.95203" lon="1.38819">
        <ele>448.36</ele>
        <time>2019-11-24T08:14:30.000Z</time>
      </trkpt>
      <trkpt lat="45.95199" lon="1.38801">
        <ele>448.19</ele>
        <time>2019-11-24T08:14:32.000Z</time>
      </trkpt>
      <trkpt lat="45.95194" lon="1.38783">
        <ele>447.74</ele>
        <time>2019-11-24T08:14:34.000Z</time>
      </trkpt>
      <trkpt lat="45.95189" lon="1.38761">
        <ele>447.14</ele>
        <time>2019-11-24T08:14:36.000Z</time>
      </trkpt>
      <trkpt lat="45.95184" lon="1.38743">
        <ele>446.4</ele>
        <time>2019-11-24T08:14:38.000Z</time>
      </trkpt>
      <trkpt lat="45.95179" lon="1.38726">
        <ele>444.96</ele>
        <time>2019-11-24T08:14:41.000Z</time>
      </trkpt>
      <trkpt lat="45.95172" lon="1.38713">
        <ele>443.85</ele>
        <time>2019-11-24T08:14:44.000Z</time>
      </trkpt>
      <trkpt lat="45.95163" lon="1.38705">
        <ele>443.5</ele>
        <time>2019-11-24T08:14:47.000Z</time>
      </trkpt>
      <trkpt lat="45.95153" lon="1.38697">
        <ele>443.57</ele>
        <time>2019-11-24T08:14:51.000Z</time>
      </trkpt>
      <trkpt lat="45.95155" lon="1.3868">
        <ele>444.23</ele>
        <time>2019-11-24T08:14:58.000Z</time>
      </trkpt>
      <trkpt lat="45.9516" lon="1.38668">
        <ele>444.67</ele>
        <time>2019-11-24T08:15:01.000Z</time>
      </trkpt>
      <trkpt lat="45.95166" lon="1.38657">
        <ele>445.55</ele>
        <time>2019-11-24T08:15:06.000Z</time>
      </trkpt>
      <trkpt lat="45.95171" lon="1.38644">
        <ele>446.55</ele>
        <time>2019-11-24T08:15:11.000Z</time>
      </trkpt>
      <trkpt lat="45.95176" lon="1.38632">
        <ele>447.53</ele>
        <time>2019-11-24T08:15:18.000Z</time>
      </trkpt>
      <trkpt lat="45.95179" lon="1.38619">
        <ele>448.28</ele>
        <time>2019-11-24T08:15:24.000Z</time>
      </trkpt>
      <trkpt lat="45.95182" lon="1.38605">
        <ele>449.27</ele>
        <time>2019-11-24T08:15:29.000Z</time>
      </trkpt>
      <trkpt lat="45.95185" lon="1.38591">
        <ele>449.99</ele>
        <time>2019-11-24T08:15:33.000Z</time>
      </trkpt>
      <trkpt lat="45.95188" lon="1.38579">
        <ele>450.81</ele>
        <time>2019-11-24T08:15:38.000Z</time>
      </trkpt>
      <trkpt lat="45.95185" lon="1.38566">
        <ele>451.93</ele>
        <time>2019-11-24T08:15:45.000Z</time>
      </trkpt>
      <trkpt lat="45.95183" lon="1.38553">
        <ele>453.52</ele>
        <time>2019-11-24T08:15:53.000Z</time>
      </trkpt>
      <trkpt lat="45.95182" lon="1.38538">
        <ele>455.42</ele>
        <time>2019-11-24T08:16:01.000Z</time>
      </trkpt>
      <trkpt lat="45.95179" lon="1.38525">
        <ele>458.15</ele>
        <time>2019-11-24T08:16:08.000Z</time>
      </trkpt>
      <trkpt lat="45.95179" lon="1.38509">
        <ele>459.52</ele>
        <time>2019-11-24T08:16:12.000Z</time>
      </trkpt>
      <trkpt lat="45.95178" lon="1.38494">
        <ele>461.09</ele>
        <time>2019-11-24T08:16:19.000Z</time>
      </trkpt>
      <trkpt lat="45.95176" lon="1.38481">
        <ele>462.34</ele>
        <time>2019-11-24T08:16:25.000Z</time>
      </trkpt>
      <trkpt lat="45.95172" lon="1.38469">
        <ele>463.68</ele>
        <time>2019-11-24T08:16:31.000Z</time>
      </trkpt>
      <trkpt lat="45.95172" lon="1.38454">
        <ele>464.82</ele>
        <time>2019-11-24T08:16:36.000Z</time>
      </trkpt>
      <trkpt lat="45.95174" lon="1.38437">
        <ele>465.74</ele>
        <time>2019-11-24T08:16:40.000Z</time>
      </trkpt>
      <trkpt lat="45.95176" lon="1.38422">
        <ele>466.69</ele>
        <time>2019-11-24T08:16:44.000Z</time>
      </trkpt>
      <trkpt lat="45.95174" lon="1.38409">
        <ele>467.43</ele>
        <time>2019-11-24T08:16:47.000Z</time>
      </trkpt>
      <trkpt lat="45.95171" lon="1.38395">
        <ele>468.49</ele>
        <time>2019-11-24T08:16:51.000Z</time>
      </trkpt>
      <trkpt lat="45.95169" lon="1.3838">
        <ele>469.37</ele>
        <time>2019-11-24T08:16:54.000Z</time>
      </trkpt>
      <trkpt lat="45.95171" lon="1.38361">
        <ele>470.18</ele>
        <time>2019-11-24T08:16:57.000Z</time>
      </trkpt>
      <trkpt lat="45.95171" lon="1.38345">
        <ele>470.7</ele>
        <time>2019-11-24T08:17:00.000Z</time>
      </trkpt>
      <trkpt lat="45.95174" lon="1.38333">
        <ele>470.96</ele>
        <time>2019-11-24T08:17:02.000Z</time>
      </trkpt>
      <trkpt lat="45.95178" lon="1.38319">
        <ele>471.38</ele>
        <time>2019-11-24T08:17:05.000Z</time>
      </trkpt>
      <trkpt lat="45.9518" lon="1.38301">
        <ele>471.84</ele>
        <time>2019-11-24T08:17:08.000Z</time>
      </trkpt>
      <trkpt lat="45.95183" lon="1.38282">
        <ele>471.95</ele>
        <time>2019-11-24T08:17:11.000Z</time>
      </trkpt>
      <trkpt lat="45.95188" lon="1.38265">
        <ele>470.76</ele>
        <time>2019-11-24T08:17:14.000Z</time>
      </trkpt>
      <trkpt lat="45.95194" lon="1.38252">
        <ele>470.59</ele>
        <time>2019-11-24T08:17:16.000Z</time>
      </trkpt>
      <trkpt lat="45.95203" lon="1.38239">
        <ele>470.29</ele>
        <time>2019-11-24T08:17:19.000Z</time>
      </trkpt>
      <trkpt lat="45.95212" lon="1.38232">
        <ele>470.01</ele>
        <time>2019-11-24T08:17:21.000Z</time>
      </trkpt>
      <trkpt lat="45.95222" lon="1.3822">
        <ele>469.44</ele>
        <time>2019-11-24T08:17:24.000Z</time>
      </trkpt>
      <trkpt lat="45.95229" lon="1.38205">
        <ele>467.2</ele>
        <time>2019-11-24T08:17:26.000Z</time>
      </trkpt>
      <trkpt lat="45.95239" lon="1.38193">
        <ele>465.99</ele>
        <time>2019-11-24T08:17:28.000Z</time>
      </trkpt>
      <trkpt lat="45.95252" lon="1.38181">
        <ele>466.33</ele>
        <time>2019-11-24T08:17:30.000Z</time>
      </trkpt>
      <trkpt lat="45.95262" lon="1.3817">
        <ele>467.19</ele>
        <time>2019-11-24T08:17:32.000Z</time>
      </trkpt>
      <trkpt lat="45.95275" lon="1.38165">
        <ele>467.6</ele>
        <time>2019-11-24T08:17:34.000Z</time>
      </trkpt>
      <trkpt lat="45.95286" lon="1.38162">
        <ele>467.28</ele>
        <time>2019-11-24T08:17:36.000Z</time>
      </trkpt>
      <trkpt lat="45.95299" lon="1.38155">
        <ele>466.86</ele>
        <time>2019-11-24T08:17:39.000Z</time>
      </trkpt>
      <trkpt lat="45.95308" lon="1.38149">
        <ele>467.23</ele>
        <time>2019-11-24T08:17:41.000Z</time>
      </trkpt>
      <trkpt lat="45.95316" lon="1.3814">
        <ele>467.88</ele>
        <time>2019-11-24T08:17:43.000Z</time>
      </trkpt>
      <trkpt lat="45.95324" lon="1.38127">
        <ele>468.1</ele>
        <time>2019-11-24T08:17:46.000Z</time>
      </trkpt>
      <trkpt lat="45.95325" lon="1.38113">
        <ele>468.41</ele>
        <time>2019-11-24T08:17:50.000Z</time>
      </trkpt>
      <trkpt lat="45.95325" lon="1.381">
        <ele>468.41</ele>
        <time>2019-11-24T08:17:53.000Z</time>
      </trkpt>
      <trkpt lat="45.95324" lon="1.38086">
        <ele>467.06</ele>
        <time>2019-11-24T08:17:56.000Z</time>
      </trkpt>
      <trkpt lat="45.95323" lon="1.3807">
        <ele>464.43</ele>
        <time>2019-11-24T08:17:58.000Z</time>
      </trkpt>
      <trkpt lat="45.95323" lon="1.38054">
        <ele>461.33</ele>
        <time>2019-11-24T08:18:00.000Z</time>
      </trkpt>
      <trkpt lat="45.95322" lon="1.38038">
        <ele>458.66</ele>
        <time>2019-11-24T08:18:02.000Z</time>
      </trkpt>
      <trkpt lat="45.95321" lon="1.3802">
        <ele>456.62</ele>
        <time>2019-11-24T08:18:04.000Z</time>
      </trkpt>
      <trkpt lat="45.95319" lon="1.38004">
        <ele>455.12</ele>
        <time>2019-11-24T08:18:06.000Z</time>
      </trkpt>
      <trkpt lat="45.95318" lon="1.37989">
        <ele>453.82</ele>
        <time>2019-11-24T08:18:08.000Z</time>
      </trkpt>
      <trkpt lat="45.95315" lon="1.37972">
        <ele>453.04</ele>
        <time>2019-11-24T08:18:11.000Z</time>
      </trkpt>
      <trkpt lat="45.95311" lon="1.37958">
        <ele>453.67</ele>
        <time>2019-11-24T08:18:14.000Z</time>
      </trkpt>
      <trkpt lat="45.95308" lon="1.37943">
        <ele>454.04</ele>
        <time>2019-11-24T08:18:17.000Z</time>
      </trkpt>
      <trkpt lat="45.95304" lon="1.37931">
        <ele>454.02</ele>
        <time>2019-11-24T08:18:20.000Z</time>
      </trkpt>
      <trkpt lat="45.95301" lon="1.37918">
        <ele>453.96</ele>
        <time>2019-11-24T08:18:23.000Z</time>
      </trkpt>
      <trkpt lat="45.95299" lon="1.37903">
        <ele>453.8</ele>
        <time>2019-11-24T08:18:26.000Z</time>
      </trkpt>
      <trkpt lat="45.95296" lon="1.37886">
        <ele>453.8</ele>
        <time>2019-11-24T08:18:29.000Z</time>
      </trkpt>
      <trkpt lat="45.95295" lon="1.37871">
        <ele>454.1</ele>
        <time>2019-11-24T08:18:31.000Z</time>
      </trkpt>
      <trkpt lat="45.95292" lon="1.37857">
        <ele>454.25</ele>
        <time>2019-11-24T08:18:33.000Z</time>
      </trkpt>
      <trkpt lat="45.95291" lon="1.37838">
        <ele>454.17</ele>
        <time>2019-11-24T08:18:35.000Z</time>
      </trkpt>
      <trkpt lat="45.95289" lon="1.37819">
        <ele>454.48</ele>
        <time>2019-11-24T08:18:37.000Z</time>
      </trkpt>
      <trkpt lat="45.95289" lon="1.37804">
        <ele>455.01</ele>
        <time>2019-11-24T08:18:39.000Z</time>
      </trkpt>
      <trkpt lat="45.95288" lon="1.37788">
        <ele>455.71</ele>
        <time>2019-11-24T08:18:41.000Z</time>
      </trkpt>
      <trkpt lat="45.95287" lon="1.37772">
        <ele>456.32</ele>
        <time>2019-11-24T08:18:43.000Z</time>
      </trkpt>
      <trkpt lat="45.95287" lon="1.37756">
        <ele>456.76</ele>
        <time>2019-11-24T08:18:45.000Z</time>
      </trkpt>
      <trkpt lat="45.95287" lon="1.37738">
        <ele>456.83</ele>
        <time>2019-11-24T08:18:47.000Z</time>
      </trkpt>
      <trkpt lat="45.95288" lon="1.37724">
        <ele>456.78</ele>
        <time>2019-11-24T08:18:49.000Z</time>
      </trkpt>
      <trkpt lat="45.95289" lon="1.37706">
        <ele>457.3</ele>
        <time>2019-11-24T08:18:52.000Z</time>
      </trkpt>
      <trkpt lat="45.9529" lon="1.37691">
        <ele>458.33</ele>
        <time>2019-11-24T08:18:55.000Z</time>
      </trkpt>
      <trkpt lat="45.95293" lon="1.37676">
        <ele>460.26</ele>
        <time>2019-11-24T08:18:58.000Z</time>
      </trkpt>
      <trkpt lat="45.95299" lon="1.3766">
        <ele>463.08</ele>
        <time>2019-11-24T08:19:01.000Z</time>
      </trkpt>
      <trkpt lat="45.95305" lon="1.37645">
        <ele>465.68</ele>
        <time>2019-11-24T08:19:04.000Z</time>
      </trkpt>
      <trkpt lat="45.95308" lon="1.37632">
        <ele>465.94</ele>
        <time>2019-11-24T08:19:07.000Z</time>
      </trkpt>
      <trkpt lat="45.95312" lon="1.37617">
        <ele>466.92</ele>
        <time>2019-11-24T08:19:10.000Z</time>
      </trkpt>
      <trkpt lat="45.95316" lon="1.37605">
        <ele>467.23</ele>
        <time>2019-11-24T08:19:13.000Z</time>
      </trkpt>
      <trkpt lat="45.95318" lon="1.37592">
        <ele>467.6</ele>
        <time>2019-11-24T08:19:16.000Z</time>
      </trkpt>
      <trkpt lat="45.95321" lon="1.37577">
        <ele>471.13</ele>
        <time>2019-11-24T08:19:19.000Z</time>
      </trkpt>
      <trkpt lat="45.95325" lon="1.37563">
        <ele>473.27</ele>
        <time>2019-11-24T08:19:22.000Z</time>
      </trkpt>
      <trkpt lat="45.95332" lon="1.3755">
        <ele>474.42</ele>
        <time>2019-11-24T08:19:25.000Z</time>
      </trkpt>
      <trkpt lat="45.95342" lon="1.37538">
        <ele>475.13</ele>
        <time>2019-11-24T08:19:28.000Z</time>
      </trkpt>
      <trkpt lat="45.95351" lon="1.37532">
        <ele>475.42</ele>
        <time>2019-11-24T08:19:30.000Z</time>
      </trkpt>
      <trkpt lat="45.95361" lon="1.37529">
        <ele>475.43</ele>
        <time>2019-11-24T08:19:32.000Z</time>
      </trkpt>
      <trkpt lat="45.95374" lon="1.37527">
        <ele>474.54</ele>
        <time>2019-11-24T08:19:34.000Z</time>
      </trkpt>
      <trkpt lat="45.95386" lon="1.37531">
        <ele>472.07</ele>
        <time>2019-11-24T08:19:36.000Z</time>
      </trkpt>
      <trkpt lat="45.95397" lon="1.37537">
        <ele>469.4</ele>
        <time>2019-11-24T08:19:38.000Z</time>
      </trkpt>
      <trkpt lat="45.95409" lon="1.37544">
        <ele>466.7</ele>
        <time>2019-11-24T08:19:40.000Z</time>
      </trkpt>
      <trkpt lat="45.95421" lon="1.37554">
        <ele>464.03</ele>
        <time>2019-11-24T08:19:42.000Z</time>
      </trkpt>
      <trkpt lat="45.95431" lon="1.37561">
        <ele>461.8</ele>
        <time>2019-11-24T08:19:44.000Z</time>
      </trkpt>
      <trkpt lat="45.95441" lon="1.37571">
        <ele>459.22</ele>
        <time>2019-11-24T08:19:47.000Z</time>
      </trkpt>
      <trkpt lat="45.95452" lon="1.37581">
        <ele>457.6</ele>
        <time>2019-11-24T08:19:50.000Z</time>
      </trkpt>
      <trkpt lat="45.9546" lon="1.37588">
        <ele>456.85</ele>
        <time>2019-11-24T08:19:52.000Z</time>
      </trkpt>
      <trkpt lat="45.95471" lon="1.37598">
        <ele>456.34</ele>
        <time>2019-11-24T08:19:55.000Z</time>
      </trkpt>
      <trkpt lat="45.9548" lon="1.37604">
        <ele>456.21</ele>
        <time>2019-11-24T08:19:58.000Z</time>
      </trkpt>
      <trkpt lat="45.95489" lon="1.37611">
        <ele>455.25</ele>
        <time>2019-11-24T08:20:01.000Z</time>
      </trkpt>
      <trkpt lat="45.95497" lon="1.37619">
        <ele>454.37</ele>
        <time>2019-11-24T08:20:03.000Z</time>
      </trkpt>
      <trkpt lat="45.95504" lon="1.37627">
        <ele>453.44</ele>
        <time>2019-11-24T08:20:05.000Z</time>
      </trkpt>
      <trkpt lat="45.95514" lon="1.37636">
        <ele>452.84</ele>
        <time>2019-11-24T08:20:08.000Z</time>
      </trkpt>
      <trkpt lat="45.95524" lon="1.3764">
        <ele>451.28</ele>
        <time>2019-11-24T08:20:11.000Z</time>
      </trkpt>
      <trkpt lat="45.95534" lon="1.37636">
        <ele>450.59</ele>
        <time>2019-11-24T08:20:14.000Z</time>
      </trkpt>
      <trkpt lat="45.95543" lon="1.37631">
        <ele>450.56</ele>
        <time>2019-11-24T08:20:18.000Z</time>
      </trkpt>
      <trkpt lat="45.95546" lon="1.37615">
        <ele>450.81</ele>
        <time>2019-11-24T08:20:22.000Z</time>
      </trkpt>
      <trkpt lat="45.95546" lon="1.37599">
        <ele>451.37</ele>
        <time>2019-11-24T08:20:27.000Z</time>
      </trkpt>
      <trkpt lat="45.95547" lon="1.37585">
        <ele>451.82</ele>
        <time>2019-11-24T08:20:32.000Z</time>
      </trkpt>
      <trkpt lat="45.95544" lon="1.37573">
        <ele>452.58</ele>
        <time>2019-11-24T08:20:39.000Z</time>
      </trkpt>
      <trkpt lat="45.95542" lon="1.3756">
        <ele>453.9</ele>
        <time>2019-11-24T08:20:49.000Z</time>
      </trkpt>
      <trkpt lat="45.95546" lon="1.37546">
        <ele>454.55</ele>
        <time>2019-11-24T08:20:53.000Z</time>
      </trkpt>
      <trkpt lat="45.95546" lon="1.37531">
        <ele>455.22</ele>
        <time>2019-11-24T08:20:59.000Z</time>
      </trkpt>
      <trkpt lat="45.95546" lon="1.37517">
        <ele>456.25</ele>
        <time>2019-11-24T08:21:04.000Z</time>
      </trkpt>
      <trkpt lat="45.95549" lon="1.37504">
        <ele>457.37</ele>
        <time>2019-11-24T08:21:20.000Z</time>
      </trkpt>
      <trkpt lat="45.95548" lon="1.37491">
        <ele>457.63</ele>
        <time>2019-11-24T08:21:25.000Z</time>
      </trkpt>
      <trkpt lat="45.95549" lon="1.37478">
        <ele>458.13</ele>
        <time>2019-11-24T08:21:33.000Z</time>
      </trkpt>
      <trkpt lat="45.95545" lon="1.37466">
        <ele>458.92</ele>
        <time>2019-11-24T08:21:54.000Z</time>
      </trkpt>
      <trkpt lat="45.95545" lon="1.37451">
        <ele>459.16</ele>
        <time>2019-11-24T08:22:01.000Z</time>
      </trkpt>
      <trkpt lat="45.95547" lon="1.37438">
        <ele>460</ele>
        <time>2019-11-24T08:22:08.000Z</time>
      </trkpt>
      <trkpt lat="45.95542" lon="1.37423">
        <ele>461.28</ele>
        <time>2019-11-24T08:22:20.000Z</time>
      </trkpt>
      <trkpt lat="45.95535" lon="1.37414">
        <ele>461.56</ele>
        <time>2019-11-24T08:22:30.000Z</time>
      </trkpt>
      <trkpt lat="45.95529" lon="1.374">
        <ele>460.88</ele>
        <time>2019-11-24T08:22:37.000Z</time>
      </trkpt>
      <trkpt lat="45.95523" lon="1.3739">
        <ele>460.6</ele>
        <time>2019-11-24T08:22:48.000Z</time>
      </trkpt>
      <trkpt lat="45.95516" lon="1.37378">
        <ele>460.89</ele>
        <time>2019-11-24T08:22:54.000Z</time>
      </trkpt>
      <trkpt lat="45.95511" lon="1.37358">
        <ele>461.14</ele>
        <time>2019-11-24T08:22:57.000Z</time>
      </trkpt>
      <trkpt lat="45.9551" lon="1.37342">
        <ele>461.41</ele>
        <time>2019-11-24T08:22:59.000Z</time>
      </trkpt>
      <trkpt lat="45.95512" lon="1.37329">
        <ele>461.85</ele>
        <time>2019-11-24T08:23:02.000Z</time>
      </trkpt>
      <trkpt lat="45.95513" lon="1.37314">
        <ele>462.46</ele>
        <time>2019-11-24T08:23:06.000Z</time>
      </trkpt>
      <trkpt lat="45.95516" lon="1.37299">
        <ele>463.17</ele>
        <time>2019-11-24T08:23:10.000Z</time>
      </trkpt>
      <trkpt lat="45.95523" lon="1.37286">
        <ele>464.13</ele>
        <time>2019-11-24T08:23:14.000Z</time>
      </trkpt>
      <trkpt lat="45.9553" lon="1.37272">
        <ele>465.29</ele>
        <time>2019-11-24T08:23:18.000Z</time>
      </trkpt>
      <trkpt lat="45.95537" lon="1.37262">
        <ele>466.39</ele>
        <time>2019-11-24T08:23:22.000Z</time>
      </trkpt>
      <trkpt lat="45.95547" lon="1.37258">
        <ele>467.65</ele>
        <time>2019-11-24T08:23:26.000Z</time>
      </trkpt>
      <trkpt lat="45.95556" lon="1.37252">
        <ele>468.96</ele>
        <time>2019-11-24T08:23:30.000Z</time>
      </trkpt>
      <trkpt lat="45.95564" lon="1.37247">
        <ele>470.13</ele>
        <time>2019-11-24T08:23:34.000Z</time>
      </trkpt>
      <trkpt lat="45.95574" lon="1.37245">
        <ele>471.59</ele>
        <time>2019-11-24T08:23:40.000Z</time>
      </trkpt>
      <trkpt lat="45.95582" lon="1.37238">
        <ele>472.8</ele>
        <time>2019-11-24T08:23:45.000Z</time>
      </trkpt>
      <trkpt lat="45.95592" lon="1.37233">
        <ele>474.1</ele>
        <time>2019-11-24T08:23:50.000Z</time>
      </trkpt>
      <trkpt lat="45.95601" lon="1.37228">
        <ele>475.43</ele>
        <time>2019-11-24T08:23:55.000Z</time>
      </trkpt>
      <trkpt lat="45.95609" lon="1.37222">
        <ele>476.42</ele>
        <time>2019-11-24T08:23:59.000Z</time>
      </trkpt>
      <trkpt lat="45.95618" lon="1.37214">
        <ele>477.99</ele>
        <time>2019-11-24T08:24:07.000Z</time>
      </trkpt>
      <trkpt lat="45.95626" lon="1.37207">
        <ele>478.97</ele>
        <time>2019-11-24T08:24:15.000Z</time>
      </trkpt>
      <trkpt lat="45.95633" lon="1.37196">
        <ele>479.22</ele>
        <time>2019-11-24T08:24:23.000Z</time>
      </trkpt>
      <trkpt lat="45.9564" lon="1.37183">
        <ele>479.52</ele>
        <time>2019-11-24T08:24:30.000Z</time>
      </trkpt>
      <trkpt lat="45.95645" lon="1.37171">
        <ele>480.2</ele>
        <time>2019-11-24T08:24:36.000Z</time>
      </trkpt>
      <trkpt lat="45.95651" lon="1.37158">
        <ele>480.98</ele>
        <time>2019-11-24T08:24:40.000Z</time>
      </trkpt>
      <trkpt lat="45.95658" lon="1.37146">
        <ele>481.81</ele>
        <time>2019-11-24T08:24:44.000Z</time>
      </trkpt>
      <trkpt lat="45.95664" lon="1.37135">
        <ele>482.94</ele>
        <time>2019-11-24T08:24:48.000Z</time>
      </trkpt>
      <trkpt lat="45.95672" lon="1.37122">
        <ele>484.96</ele>
        <time>2019-11-24T08:24:53.000Z</time>
      </trkpt>
      <trkpt lat="45.95679" lon="1.37111">
        <ele>486.36</ele>
        <time>2019-11-24T08:24:56.000Z</time>
      </trkpt>
      <trkpt lat="45.95687" lon="1.37101">
        <ele>487.15</ele>
        <time>2019-11-24T08:24:58.000Z</time>
      </trkpt>
      <trkpt lat="45.95695" lon="1.37091">
        <ele>487.9</ele>
        <time>2019-11-24T08:25:00.000Z</time>
      </trkpt>
      <trkpt lat="45.95704" lon="1.37084">
        <ele>488.98</ele>
        <time>2019-11-24T08:25:03.000Z</time>
      </trkpt>
      <trkpt lat="45.95714" lon="1.37076">
        <ele>489.87</ele>
        <time>2019-11-24T08:25:07.000Z</time>
      </trkpt>
      <trkpt lat="45.95726" lon="1.37082">
        <ele>490.1</ele>
        <time>2019-11-24T08:25:10.000Z</time>
      </trkpt>
      <trkpt lat="45.95736" lon="1.37087">
        <ele>490.19</ele>
        <time>2019-11-24T08:25:11.000Z</time>
      </trkpt>
      <trkpt lat="45.95748" lon="1.37086">
        <ele>490.54</ele>
        <time>2019-11-24T08:25:14.000Z</time>
      </trkpt>
      <trkpt lat="45.95761" lon="1.37089">
        <ele>491.09</ele>
        <time>2019-11-24T08:25:18.000Z</time>
      </trkpt>
      <trkpt lat="45.95772" lon="1.3709">
        <ele>491.42</ele>
        <time>2019-11-24T08:25:20.000Z</time>
      </trkpt>
      <trkpt lat="45.95783" lon="1.37091">
        <ele>491.99</ele>
        <time>2019-11-24T08:25:23.000Z</time>
      </trkpt>
      <trkpt lat="45.95793" lon="1.37087">
        <ele>492.79</ele>
        <time>2019-11-24T08:25:27.000Z</time>
      </trkpt>
      <trkpt lat="45.95804" lon="1.37089">
        <ele>493.09</ele>
        <time>2019-11-24T08:25:30.000Z</time>
      </trkpt>
      <trkpt lat="45.95813" lon="1.37094">
        <ele>493.34</ele>
        <time>2019-11-24T08:25:33.000Z</time>
      </trkpt>
      <trkpt lat="45.95824" lon="1.37095">
        <ele>493.47</ele>
        <time>2019-11-24T08:25:36.000Z</time>
      </trkpt>
      <trkpt lat="45.95835" lon="1.371">
        <ele>493.64</ele>
        <time>2019-11-24T08:25:39.000Z</time>
      </trkpt>
      <trkpt lat="45.95846" lon="1.371">
        <ele>494.15</ele>
        <time>2019-11-24T08:25:43.000Z</time>
      </trkpt>
      <trkpt lat="45.95856" lon="1.371">
        <ele>494.7</ele>
        <time>2019-11-24T08:25:46.000Z</time>
      </trkpt>
      <trkpt lat="45.95868" lon="1.37102">
        <ele>495.6</ele>
        <time>2019-11-24T08:25:50.000Z</time>
      </trkpt>
      <trkpt lat="45.95876" lon="1.37109">
        <ele>496.07</ele>
        <time>2019-11-24T08:25:52.000Z</time>
      </trkpt>
      <trkpt lat="45.95888" lon="1.37113">
        <ele>496.35</ele>
        <time>2019-11-24T08:25:54.000Z</time>
      </trkpt>
      <trkpt lat="45.95899" lon="1.3712">
        <ele>496.75</ele>
        <time>2019-11-24T08:25:57.000Z</time>
      </trkpt>
      <trkpt lat="45.95908" lon="1.37127">
        <ele>497.37</ele>
        <time>2019-11-24T08:26:03.000Z</time>
      </trkpt>
      <trkpt lat="45.95916" lon="1.37135">
        <ele>497.43</ele>
        <time>2019-11-24T08:26:06.000Z</time>
      </trkpt>
      <trkpt lat="45.95925" lon="1.37141">
        <ele>497.33</ele>
        <time>2019-11-24T08:26:11.000Z</time>
      </trkpt>
      <trkpt lat="45.95933" lon="1.37151">
        <ele>497.16</ele>
        <time>2019-11-24T08:26:15.000Z</time>
      </trkpt>
      <trkpt lat="45.95943" lon="1.37157">
        <ele>496.91</ele>
        <time>2019-11-24T08:26:19.000Z</time>
      </trkpt>
      <trkpt lat="45.95954" lon="1.37151">
        <ele>496.56</ele>
        <time>2019-11-24T08:26:23.000Z</time>
      </trkpt>
      <trkpt lat="45.95965" lon="1.37159">
        <ele>495.58</ele>
        <time>2019-11-24T08:26:26.000Z</time>
      </trkpt>
      <trkpt lat="45.95971" lon="1.37173">
        <ele>493.53</ele>
        <time>2019-11-24T08:26:29.000Z</time>
      </trkpt>
      <trkpt lat="45.95979" lon="1.37181">
        <ele>492.93</ele>
        <time>2019-11-24T08:26:36.000Z</time>
      </trkpt>
      <trkpt lat="45.9599" lon="1.37181">
        <ele>492.48</ele>
        <time>2019-11-24T08:26:42.000Z</time>
      </trkpt>
      <trkpt lat="45.95999" lon="1.37182">
        <ele>492.41</ele>
        <time>2019-11-24T08:26:45.000Z</time>
      </trkpt>
      <trkpt lat="45.96008" lon="1.37179">
        <ele>493.51</ele>
        <time>2019-11-24T08:26:51.000Z</time>
      </trkpt>
      <trkpt lat="45.96022" lon="1.37182">
        <ele>494.99</ele>
        <time>2019-11-24T08:26:55.000Z</time>
      </trkpt>
      <trkpt lat="45.96034" lon="1.37191">
        <ele>495.99</ele>
        <time>2019-11-24T08:26:57.000Z</time>
      </trkpt>
      <trkpt lat="45.96044" lon="1.37198">
        <ele>498.5</ele>
        <time>2019-11-24T08:27:02.000Z</time>
      </trkpt>
      <trkpt lat="45.96052" lon="1.37207">
        <ele>500.34</ele>
        <time>2019-11-24T08:27:06.000Z</time>
      </trkpt>
      <trkpt lat="45.96059" lon="1.37215">
        <ele>502.33</ele>
        <time>2019-11-24T08:27:11.000Z</time>
      </trkpt>
      <trkpt lat="45.96069" lon="1.37224">
        <ele>503.58</ele>
        <time>2019-11-24T08:27:15.000Z</time>
      </trkpt>
      <trkpt lat="45.9608" lon="1.3723">
        <ele>504.18</ele>
        <time>2019-11-24T08:27:18.000Z</time>
      </trkpt>
      <trkpt lat="45.96089" lon="1.37239">
        <ele>504.48</ele>
        <time>2019-11-24T08:27:21.000Z</time>
      </trkpt>
      <trkpt lat="45.96096" lon="1.3725">
        <ele>504.75</ele>
        <time>2019-11-24T08:27:24.000Z</time>
      </trkpt>
      <trkpt lat="45.96106" lon="1.37256">
        <ele>505.01</ele>
        <time>2019-11-24T08:27:28.000Z</time>
      </trkpt>
      <trkpt lat="45.96111" lon="1.3727">
        <ele>505.44</ele>
        <time>2019-11-24T08:27:34.000Z</time>
      </trkpt>
      <trkpt lat="45.96117" lon="1.37284">
        <ele>505.36</ele>
        <time>2019-11-24T08:27:36.000Z</time>
      </trkpt>
      <trkpt lat="45.96126" lon="1.37297">
        <ele>504.95</ele>
        <time>2019-11-24T08:27:39.000Z</time>
      </trkpt>
      <trkpt lat="45.96131" lon="1.37312">
        <ele>504.31</ele>
        <time>2019-11-24T08:27:42.000Z</time>
      </trkpt>
      <trkpt lat="45.96132" lon="1.37327">
        <ele>503.13</ele>
        <time>2019-11-24T08:27:46.000Z</time>
      </trkpt>
      <trkpt lat="45.96133" lon="1.3734">
        <ele>501.96</ele>
        <time>2019-11-24T08:27:50.000Z</time>
      </trkpt>
      <trkpt lat="45.96134" lon="1.37354">
        <ele>501.16</ele>
        <time>2019-11-24T08:27:53.000Z</time>
      </trkpt>
      <trkpt lat="45.96136" lon="1.37371">
        <ele>500.39</ele>
        <time>2019-11-24T08:27:57.000Z</time>
      </trkpt>
      <trkpt lat="45.96135" lon="1.37384">
        <ele>500.22</ele>
        <time>2019-11-24T08:28:00.000Z</time>
      </trkpt>
      <trkpt lat="45.96136" lon="1.37397">
        <ele>500.34</ele>
        <time>2019-11-24T08:28:03.000Z</time>
      </trkpt>
      <trkpt lat="45.96135" lon="1.37412">
        <ele>500.47</ele>
        <time>2019-11-24T08:28:06.000Z</time>
      </trkpt>
      <trkpt lat="45.96136" lon="1.37427">
        <ele>500.62</ele>
        <time>2019-11-24T08:28:09.000Z</time>
      </trkpt>
      <trkpt lat="45.96136" lon="1.37445">
        <ele>500.73</ele>
        <time>2019-11-24T08:28:12.000Z</time>
      </trkpt>
      <trkpt lat="45.96137" lon="1.37462">
        <ele>500.84</ele>
        <time>2019-11-24T08:28:15.000Z</time>
      </trkpt>
      <trkpt lat="45.96136" lon="1.37478">
        <ele>501.02</ele>
        <time>2019-11-24T08:28:18.000Z</time>
      </trkpt>
      <trkpt lat="45.96135" lon="1.37494">
        <ele>501.11</ele>
        <time>2019-11-24T08:28:21.000Z</time>
      </trkpt>
      <trkpt lat="45.96134" lon="1.37512">
        <ele>501.03</ele>
        <time>2019-11-24T08:28:24.000Z</time>
      </trkpt>
      <trkpt lat="45.96133" lon="1.37527">
        <ele>501.04</ele>
        <time>2019-11-24T08:28:27.000Z</time>
      </trkpt>
      <trkpt lat="45.96131" lon="1.37544">
        <ele>501.73</ele>
        <time>2019-11-24T08:28:31.000Z</time>
      </trkpt>
      <trkpt lat="45.96129" lon="1.37558">
        <ele>502.5</ele>
        <time>2019-11-24T08:28:34.000Z</time>
      </trkpt>
      <trkpt lat="45.96128" lon="1.37572">
        <ele>503.23</ele>
        <time>2019-11-24T08:28:37.000Z</time>
      </trkpt>
      <trkpt lat="45.96128" lon="1.37588">
        <ele>503.72</ele>
        <time>2019-11-24T08:28:41.000Z</time>
      </trkpt>
      <trkpt lat="45.96133" lon="1.37604">
        <ele>503.82</ele>
        <time>2019-11-24T08:28:44.000Z</time>
      </trkpt>
      <trkpt lat="45.96137" lon="1.37617">
        <ele>503.72</ele>
        <time>2019-11-24T08:28:46.000Z</time>
      </trkpt>
      <trkpt lat="45.96146" lon="1.37615">
        <ele>502.17</ele>
        <time>2019-11-24T08:28:59.000Z</time>
      </trkpt>
      <trkpt lat="45.96149" lon="1.37602">
        <ele>502.17</ele>
        <time>2019-11-24T08:29:05.000Z</time>
      </trkpt>
      <trkpt lat="45.96149" lon="1.37587">
        <ele>503.06</ele>
        <time>2019-11-24T08:29:11.000Z</time>
      </trkpt>
      <trkpt lat="45.96147" lon="1.37573">
        <ele>504.26</ele>
        <time>2019-11-24T08:29:16.000Z</time>
      </trkpt>
      <trkpt lat="45.96149" lon="1.37561">
        <ele>505.5</ele>
        <time>2019-11-24T08:29:21.000Z</time>
      </trkpt>
      <trkpt lat="45.96152" lon="1.37549">
        <ele>506.57</ele>
        <time>2019-11-24T08:29:25.000Z</time>
      </trkpt>
      <trkpt lat="45.96159" lon="1.37538">
        <ele>508.21</ele>
        <time>2019-11-24T08:29:32.000Z</time>
      </trkpt>
      <trkpt lat="45.96167" lon="1.3753">
        <ele>509.41</ele>
        <time>2019-11-24T08:29:37.000Z</time>
      </trkpt>
      <trkpt lat="45.96173" lon="1.37521">
        <ele>510.4</ele>
        <time>2019-11-24T08:29:41.000Z</time>
      </trkpt>
      <trkpt lat="45.96178" lon="1.3751">
        <ele>512.29</ele>
        <time>2019-11-24T08:29:48.000Z</time>
      </trkpt>
      <trkpt lat="45.96185" lon="1.375">
        <ele>515.16</ele>
        <time>2019-11-24T08:29:59.000Z</time>
      </trkpt>
      <trkpt lat="45.96193" lon="1.3749">
        <ele>516.15</ele>
        <time>2019-11-24T08:30:03.000Z</time>
      </trkpt>
      <trkpt lat="45.96199" lon="1.37478">
        <ele>517.46</ele>
        <time>2019-11-24T08:30:11.000Z</time>
      </trkpt>
      <trkpt lat="45.96204" lon="1.37467">
        <ele>519.09</ele>
        <time>2019-11-24T08:30:19.000Z</time>
      </trkpt>
      <trkpt lat="45.9621" lon="1.37457">
        <ele>519.9</ele>
        <time>2019-11-24T08:30:23.000Z</time>
      </trkpt>
      <trkpt lat="45.96217" lon="1.37446">
        <ele>520.41</ele>
        <time>2019-11-24T08:30:28.000Z</time>
      </trkpt>
      <trkpt lat="45.96225" lon="1.37437">
        <ele>520.89</ele>
        <time>2019-11-24T08:30:34.000Z</time>
      </trkpt>
      <trkpt lat="45.96232" lon="1.37429">
        <ele>522.92</ele>
        <time>2019-11-24T08:30:44.000Z</time>
      </trkpt>
      <trkpt lat="45.96241" lon="1.37423">
        <ele>523.69</ele>
        <time>2019-11-24T08:30:48.000Z</time>
      </trkpt>
      <trkpt lat="45.9625" lon="1.37417">
        <ele>524.66</ele>
        <time>2019-11-24T08:30:53.000Z</time>
      </trkpt>
      <trkpt lat="45.9626" lon="1.37417">
        <ele>526.32</ele>
        <time>2019-11-24T08:31:00.000Z</time>
      </trkpt>
      <trkpt lat="45.9627" lon="1.37414">
        <ele>527.91</ele>
        <time>2019-11-24T08:31:05.000Z</time>
      </trkpt>
      <trkpt lat="45.9628" lon="1.37412">
        <ele>529.51</ele>
        <time>2019-11-24T08:31:10.000Z</time>
      </trkpt>
      <trkpt lat="45.96289" lon="1.37416">
        <ele>532.51</ele>
        <time>2019-11-24T08:31:19.000Z</time>
      </trkpt>
      <trkpt lat="45.96298" lon="1.37422">
        <ele>534.56</ele>
        <time>2019-11-24T08:31:24.000Z</time>
      </trkpt>
      <trkpt lat="45.96307" lon="1.37419">
        <ele>538.46</ele>
        <time>2019-11-24T08:31:33.000Z</time>
      </trkpt>
      <trkpt lat="45.96317" lon="1.37417">
        <ele>541.73</ele>
        <time>2019-11-24T08:31:40.000Z</time>
      </trkpt>
      <trkpt lat="45.96326" lon="1.37417">
        <ele>545.16</ele>
        <time>2019-11-24T08:31:46.000Z</time>
      </trkpt>
      <trkpt lat="45.96333" lon="1.37408">
        <ele>548.97</ele>
        <time>2019-11-24T08:31:53.000Z</time>
      </trkpt>
      <trkpt lat="45.96342" lon="1.37406">
        <ele>553.25</ele>
        <time>2019-11-24T08:32:05.000Z</time>
      </trkpt>
      <trkpt lat="45.96342" lon="1.37392">
        <ele>554.63</ele>
        <time>2019-11-24T08:32:13.000Z</time>
      </trkpt>
      <trkpt lat="45.96341" lon="1.37378">
        <ele>555.26</ele>
        <time>2019-11-24T08:32:18.000Z</time>
      </trkpt>
      <trkpt lat="45.96344" lon="1.37365">
        <ele>555.99</ele>
        <time>2019-11-24T08:32:23.000Z</time>
      </trkpt>
      <trkpt lat="45.96347" lon="1.37347">
        <ele>556.45</ele>
        <time>2019-11-24T08:32:26.000Z</time>
      </trkpt>
      <trkpt lat="45.96347" lon="1.37332">
        <ele>556.9</ele>
        <time>2019-11-24T08:32:29.000Z</time>
      </trkpt>
      <trkpt lat="45.96349" lon="1.37319">
        <ele>556.45</ele>
        <time>2019-11-24T08:32:35.000Z</time>
      </trkpt>
      <trkpt lat="45.96354" lon="1.37306">
        <ele>556.02</ele>
        <time>2019-11-24T08:32:45.000Z</time>
      </trkpt>
      <trkpt lat="45.96361" lon="1.37298">
        <ele>556.78</ele>
        <time>2019-11-24T08:32:52.000Z</time>
      </trkpt>
      <trkpt lat="45.96367" lon="1.37287">
        <ele>557.55</ele>
        <time>2019-11-24T08:32:58.000Z</time>
      </trkpt>
      <trkpt lat="45.96376" lon="1.37277">
        <ele>559.21</ele>
        <time>2019-11-24T08:33:06.000Z</time>
      </trkpt>
      <trkpt lat="45.96383" lon="1.37269">
        <ele>560.54</ele>
        <time>2019-11-24T08:33:12.000Z</time>
      </trkpt>
      <trkpt lat="45.96391" lon="1.37262">
        <ele>561.72</ele>
        <time>2019-11-24T08:33:18.000Z</time>
      </trkpt>
      <trkpt lat="45.96397" lon="1.3725">
        <ele>562.78</ele>
        <time>2019-11-24T08:33:23.000Z</time>
      </trkpt>
      <trkpt lat="45.96401" lon="1.37239">
        <ele>563.92</ele>
        <time>2019-11-24T08:33:30.000Z</time>
      </trkpt>
      <trkpt lat="45.9641" lon="1.37229">
        <ele>564.63</ele>
        <time>2019-11-24T08:33:35.000Z</time>
      </trkpt>
      <trkpt lat="45.96416" lon="1.37218">
        <ele>565.64</ele>
        <time>2019-11-24T08:33:43.000Z</time>
      </trkpt>
      <trkpt lat="45.96424" lon="1.37212">
        <ele>566.13</ele>
        <time>2019-11-24T08:33:47.000Z</time>
      </trkpt>
      <trkpt lat="45.96431" lon="1.37202">
        <ele>566.15</ele>
        <time>2019-11-24T08:33:53.000Z</time>
      </trkpt>
      <trkpt lat="45.96441" lon="1.37202">
        <ele>566.23</ele>
        <time>2019-11-24T08:34:01.000Z</time>
      </trkpt>
      <trkpt lat="45.9645" lon="1.37202">
        <ele>566.62</ele>
        <time>2019-11-24T08:34:09.000Z</time>
      </trkpt>
      <trkpt lat="45.96458" lon="1.37209">
        <ele>566.97</ele>
        <time>2019-11-24T08:34:15.000Z</time>
      </trkpt>
      <trkpt lat="45.96468" lon="1.37217">
        <ele>569.12</ele>
        <time>2019-11-24T08:34:56.000Z</time>
      </trkpt>
      <trkpt lat="45.96476" lon="1.37204">
        <ele>568.63</ele>
        <time>2019-11-24T08:37:05.000Z</time>
      </trkpt>
      <trkpt lat="45.96466" lon="1.37201">
        <ele>573.88</ele>
        <time>2019-11-24T08:37:42.000Z</time>
      </trkpt>
      <trkpt lat="45.96459" lon="1.37191">
        <ele>574.39</ele>
        <time>2019-11-24T08:37:52.000Z</time>
      </trkpt>
      <trkpt lat="45.96454" lon="1.37179">
        <ele>575.16</ele>
        <time>2019-11-24T08:38:00.000Z</time>
      </trkpt>
      <trkpt lat="45.96453" lon="1.37166">
        <ele>576.1</ele>
        <time>2019-11-24T08:38:07.000Z</time>
      </trkpt>
      <trkpt lat="45.96451" lon="1.37154">
        <ele>577.13</ele>
        <time>2019-11-24T08:38:19.000Z</time>
      </trkpt>
      <trkpt lat="45.96444" lon="1.37145">
        <ele>579.11</ele>
        <time>2019-11-24T08:38:33.000Z</time>
      </trkpt>
      <trkpt lat="45.96435" lon="1.37149">
        <ele>579.73</ele>
        <time>2019-11-24T08:38:37.000Z</time>
      </trkpt>
      <trkpt lat="45.96422" lon="1.37152">
        <ele>582.09</ele>
        <time>2019-11-24T08:38:40.000Z</time>
      </trkpt>
      <trkpt lat="45.96412" lon="1.37148">
        <ele>582.88</ele>
        <time>2019-11-24T08:38:42.000Z</time>
      </trkpt>
      <trkpt lat="45.96399" lon="1.37146">
        <ele>582.89</ele>
        <time>2019-11-24T08:38:45.000Z</time>
      </trkpt>
      <trkpt lat="45.96389" lon="1.37141">
        <ele>582.77</ele>
        <time>2019-11-24T08:38:47.000Z</time>
      </trkpt>
      <trkpt lat="45.96379" lon="1.37137">
        <ele>582.54</ele>
        <time>2019-11-24T08:38:50.000Z</time>
      </trkpt>
      <trkpt lat="45.96374" lon="1.37121">
        <ele>581.97</ele>
        <time>2019-11-24T08:38:54.000Z</time>
      </trkpt>
      <trkpt lat="45.96364" lon="1.37113">
        <ele>581.17</ele>
        <time>2019-11-24T08:38:58.000Z</time>
      </trkpt>
      <trkpt lat="45.96355" lon="1.37108">
        <ele>576.74</ele>
        <time>2019-11-24T08:39:01.000Z</time>
      </trkpt>
      <trkpt lat="45.96347" lon="1.37098">
        <ele>575.26</ele>
        <time>2019-11-24T08:39:04.000Z</time>
      </trkpt>
      <trkpt lat="45.96338" lon="1.37098">
        <ele>572.88</ele>
        <time>2019-11-24T08:39:06.000Z</time>
      </trkpt>
      <trkpt lat="45.96324" lon="1.37099">
        <ele>572.65</ele>
        <time>2019-11-24T08:39:09.000Z</time>
      </trkpt>
      <trkpt lat="45.96315" lon="1.37097">
        <ele>572.38</ele>
        <time>2019-11-24T08:39:11.000Z</time>
      </trkpt>
      <trkpt lat="45.96304" lon="1.37096">
        <ele>571.95</ele>
        <time>2019-11-24T08:39:14.000Z</time>
      </trkpt>
      <trkpt lat="45.96302" lon="1.37078">
        <ele>571.44</ele>
        <time>2019-11-24T08:39:19.000Z</time>
      </trkpt>
      <trkpt lat="45.96303" lon="1.37064">
        <ele>571.18</ele>
        <time>2019-11-24T08:39:21.000Z</time>
      </trkpt>
      <trkpt lat="45.96305" lon="1.3705">
        <ele>570.51</ele>
        <time>2019-11-24T08:39:25.000Z</time>
      </trkpt>
      <trkpt lat="45.96303" lon="1.37031">
        <ele>569.85</ele>
        <time>2019-11-24T08:39:28.000Z</time>
      </trkpt>
      <trkpt lat="45.96304" lon="1.37018">
        <ele>569.5</ele>
        <time>2019-11-24T08:39:30.000Z</time>
      </trkpt>
      <trkpt lat="45.96308" lon="1.37005">
        <ele>568.56</ele>
        <time>2019-11-24T08:39:32.000Z</time>
      </trkpt>
      <trkpt lat="45.96313" lon="1.36988">
        <ele>567.39</ele>
        <time>2019-11-24T08:39:34.000Z</time>
      </trkpt>
      <trkpt lat="45.96317" lon="1.36966">
        <ele>567.34</ele>
        <time>2019-11-24T08:39:36.000Z</time>
      </trkpt>
      <trkpt lat="45.96317" lon="1.36953">
        <ele>567.46</ele>
        <time>2019-11-24T08:39:38.000Z</time>
      </trkpt>
      <trkpt lat="45.96326" lon="1.36958">
        <ele>567.52</ele>
        <time>2019-11-24T08:39:44.000Z</time>
      </trkpt>
      <trkpt lat="45.96335" lon="1.36964">
        <ele>567.12</ele>
        <time>2019-11-24T08:39:48.000Z</time>
      </trkpt>
      <trkpt lat="45.96342" lon="1.36972">
        <ele>566.66</ele>
        <time>2019-11-24T08:39:52.000Z</time>
      </trkpt>
      <trkpt lat="45.96348" lon="1.36984">
        <ele>566.21</ele>
        <time>2019-11-24T08:39:55.000Z</time>
      </trkpt>
      <trkpt lat="45.96357" lon="1.36996">
        <ele>565.17</ele>
        <time>2019-11-24T08:40:00.000Z</time>
      </trkpt>
      <trkpt lat="45.96363" lon="1.37005">
        <ele>564.04</ele>
        <time>2019-11-24T08:40:04.000Z</time>
      </trkpt>
      <trkpt lat="45.96374" lon="1.37008">
        <ele>562.82</ele>
        <time>2019-11-24T08:40:10.000Z</time>
      </trkpt>
      <trkpt lat="45.96383" lon="1.37007">
        <ele>563.47</ele>
        <time>2019-11-24T08:40:23.000Z</time>
      </trkpt>
      <trkpt lat="45.96392" lon="1.37008">
        <ele>565.05</ele>
        <time>2019-11-24T08:40:30.000Z</time>
      </trkpt>
      <trkpt lat="45.964" lon="1.37003">
        <ele>567.73</ele>
        <time>2019-11-24T08:40:38.000Z</time>
      </trkpt>
      <trkpt lat="45.96409" lon="1.36995">
        <ele>570.2</ele>
        <time>2019-11-24T08:40:45.000Z</time>
      </trkpt>
      <trkpt lat="45.9642" lon="1.36994">
        <ele>571.62</ele>
        <time>2019-11-24T08:40:50.000Z</time>
      </trkpt>
      <trkpt lat="45.96429" lon="1.36987">
        <ele>572.2</ele>
        <time>2019-11-24T08:40:55.000Z</time>
      </trkpt>
      <trkpt lat="45.96437" lon="1.36981">
        <ele>572.47</ele>
        <time>2019-11-24T08:41:00.000Z</time>
      </trkpt>
      <trkpt lat="45.96444" lon="1.36972">
        <ele>572.62</ele>
        <time>2019-11-24T08:41:07.000Z</time>
      </trkpt>
      <trkpt lat="45.96453" lon="1.36972">
        <ele>575.03</ele>
        <time>2019-11-24T08:41:16.000Z</time>
      </trkpt>
      <trkpt lat="45.96463" lon="1.36975">
        <ele>577.34</ele>
        <time>2019-11-24T08:41:23.000Z</time>
      </trkpt>
      <trkpt lat="45.96473" lon="1.36974">
        <ele>580.16</ele>
        <time>2019-11-24T08:41:31.000Z</time>
      </trkpt>
      <trkpt lat="45.96484" lon="1.36972">
        <ele>582.19</ele>
        <time>2019-11-24T08:41:37.000Z</time>
      </trkpt>
      <trkpt lat="45.96492" lon="1.36965">
        <ele>584.34</ele>
        <time>2019-11-24T08:41:44.000Z</time>
      </trkpt>
      <trkpt lat="45.96501" lon="1.36959">
        <ele>586.04</ele>
        <time>2019-11-24T08:41:49.000Z</time>
      </trkpt>
      <trkpt lat="45.9651" lon="1.36952">
        <ele>587.22</ele>
        <time>2019-11-24T08:41:52.000Z</time>
      </trkpt>
      <trkpt lat="45.96518" lon="1.36941">
        <ele>588.93</ele>
        <time>2019-11-24T08:41:56.000Z</time>
      </trkpt>
      <trkpt lat="45.96526" lon="1.36932">
        <ele>591.09</ele>
        <time>2019-11-24T08:42:01.000Z</time>
      </trkpt>
      <trkpt lat="45.96536" lon="1.36925">
        <ele>593.1</ele>
        <time>2019-11-24T08:42:06.000Z</time>
      </trkpt>
      <trkpt lat="45.96545" lon="1.36918">
        <ele>594.54</ele>
        <time>2019-11-24T08:42:10.000Z</time>
      </trkpt>
      <trkpt lat="45.96553" lon="1.36909">
        <ele>595.87</ele>
        <time>2019-11-24T08:42:14.000Z</time>
      </trkpt>
      <trkpt lat="45.96562" lon="1.36901">
        <ele>596.88</ele>
        <time>2019-11-24T08:42:18.000Z</time>
      </trkpt>
      <trkpt lat="45.9657" lon="1.36895">
        <ele>598.03</ele>
        <time>2019-11-24T08:42:24.000Z</time>
      </trkpt>
      <trkpt lat="45.96576" lon="1.36884">
        <ele>598.36</ele>
        <time>2019-11-24T08:42:26.000Z</time>
      </trkpt>
      <trkpt lat="45.96584" lon="1.36874">
        <ele>598.6</ele>
        <time>2019-11-24T08:42:28.000Z</time>
      </trkpt>
      <trkpt lat="45.96593" lon="1.36864">
        <ele>598.93</ele>
        <time>2019-11-24T08:42:31.000Z</time>
      </trkpt>
      <trkpt lat="45.966" lon="1.36853">
        <ele>599.35</ele>
        <time>2019-11-24T08:42:35.000Z</time>
      </trkpt>
      <trkpt lat="45.9661" lon="1.36841">
        <ele>599.58</ele>
        <time>2019-11-24T08:42:38.000Z</time>
      </trkpt>
      <trkpt lat="45.96615" lon="1.3683">
        <ele>599.57</ele>
        <time>2019-11-24T08:42:40.000Z</time>
      </trkpt>
      <trkpt lat="45.96621" lon="1.36818">
        <ele>599.65</ele>
        <time>2019-11-24T08:42:42.000Z</time>
      </trkpt>
      <trkpt lat="45.96626" lon="1.36807">
        <ele>599.5</ele>
        <time>2019-11-24T08:42:45.000Z</time>
      </trkpt>
      <trkpt lat="45.96628" lon="1.36792">
        <ele>598.91</ele>
        <time>2019-11-24T08:42:50.000Z</time>
      </trkpt>
      <trkpt lat="45.96626" lon="1.36778">
        <ele>598.76</ele>
        <time>2019-11-24T08:42:53.000Z</time>
      </trkpt>
      <trkpt lat="45.96624" lon="1.36764">
        <ele>598.76</ele>
        <time>2019-11-24T08:42:57.000Z</time>
      </trkpt>
      <trkpt lat="45.96624" lon="1.3675">
        <ele>598.95</ele>
        <time>2019-11-24T08:43:00.000Z</time>
      </trkpt>
      <trkpt lat="45.96624" lon="1.36735">
        <ele>599.31</ele>
        <time>2019-11-24T08:43:04.000Z</time>
      </trkpt>
      <trkpt lat="45.96626" lon="1.36718">
        <ele>599.86</ele>
        <time>2019-11-24T08:43:09.000Z</time>
      </trkpt>
      <trkpt lat="45.96629" lon="1.36704">
        <ele>600.31</ele>
        <time>2019-11-24T08:43:13.000Z</time>
      </trkpt>
      <trkpt lat="45.96632" lon="1.3669">
        <ele>600.36</ele>
        <time>2019-11-24T08:43:17.000Z</time>
      </trkpt>
      <trkpt lat="45.96638" lon="1.36678">
        <ele>600.04</ele>
        <time>2019-11-24T08:43:21.000Z</time>
      </trkpt>
      <trkpt lat="45.96642" lon="1.36665">
        <ele>599.49</ele>
        <time>2019-11-24T08:43:25.000Z</time>
      </trkpt>
      <trkpt lat="45.96646" lon="1.36651">
        <ele>598.8</ele>
        <time>2019-11-24T08:43:29.000Z</time>
      </trkpt>
      <trkpt lat="45.9665" lon="1.36635">
        <ele>597.82</ele>
        <time>2019-11-24T08:43:33.000Z</time>
      </trkpt>
      <trkpt lat="45.96655" lon="1.36623">
        <ele>596.82</ele>
        <time>2019-11-24T08:43:36.000Z</time>
      </trkpt>
      <trkpt lat="45.96658" lon="1.3661">
        <ele>595.96</ele>
        <time>2019-11-24T08:43:39.000Z</time>
      </trkpt>
      <trkpt lat="45.96663" lon="1.36598">
        <ele>595.34</ele>
        <time>2019-11-24T08:43:42.000Z</time>
      </trkpt>
      <trkpt lat="45.96667" lon="1.36585">
        <ele>594.77</ele>
        <time>2019-11-24T08:43:45.000Z</time>
      </trkpt>
      <trkpt lat="45.96672" lon="1.36573">
        <ele>594.37</ele>
        <time>2019-11-24T08:43:49.000Z</time>
      </trkpt>
      <trkpt lat="45.96682" lon="1.36567">
        <ele>594.48</ele>
        <time>2019-11-24T08:43:52.000Z</time>
      </trkpt>
      <trkpt lat="45.96695" lon="1.3657">
        <ele>594.75</ele>
        <time>2019-11-24T08:43:55.000Z</time>
      </trkpt>
      <trkpt lat="45.96706" lon="1.36574">
        <ele>596.1</ele>
        <time>2019-11-24T08:43:57.000Z</time>
      </trkpt>
      <trkpt lat="45.96714" lon="1.36578">
        <ele>596.04</ele>
        <time>2019-11-24T08:43:59.000Z</time>
      </trkpt>
      <trkpt lat="45.96726" lon="1.36583">
        <ele>596.01</ele>
        <time>2019-11-24T08:44:01.000Z</time>
      </trkpt>
      <trkpt lat="45.96737" lon="1.36588">
        <ele>596</ele>
        <time>2019-11-24T08:44:03.000Z</time>
      </trkpt>
      <trkpt lat="45.96749" lon="1.36593">
        <ele>596.34</ele>
        <time>2019-11-24T08:44:05.000Z</time>
      </trkpt>
      <trkpt lat="45.96759" lon="1.366">
        <ele>596.25</ele>
        <time>2019-11-24T08:44:07.000Z</time>
      </trkpt>
      <trkpt lat="45.9677" lon="1.36604">
        <ele>596.54</ele>
        <time>2019-11-24T08:44:10.000Z</time>
      </trkpt>
      <trkpt lat="45.96783" lon="1.36606">
        <ele>597.54</ele>
        <time>2019-11-24T08:44:13.000Z</time>
      </trkpt>
      <trkpt lat="45.96794" lon="1.36605">
        <ele>599.21</ele>
        <time>2019-11-24T08:44:15.000Z</time>
      </trkpt>
      <trkpt lat="45.96806" lon="1.36602">
        <ele>600.8</ele>
        <time>2019-11-24T08:44:17.000Z</time>
      </trkpt>
      <trkpt lat="45.96821" lon="1.366">
        <ele>601.91</ele>
        <time>2019-11-24T08:44:19.000Z</time>
      </trkpt>
      <trkpt lat="45.96835" lon="1.36595">
        <ele>601.89</ele>
        <time>2019-11-24T08:44:21.000Z</time>
      </trkpt>
      <trkpt lat="45.96847" lon="1.3659">
        <ele>602.4</ele>
        <time>2019-11-24T08:44:23.000Z</time>
      </trkpt>
      <trkpt lat="45.96858" lon="1.36588">
        <ele>603.45</ele>
        <time>2019-11-24T08:44:25.000Z</time>
      </trkpt>
      <trkpt lat="45.96867" lon="1.36584">
        <ele>603.98</ele>
        <time>2019-11-24T08:44:27.000Z</time>
      </trkpt>
      <trkpt lat="45.96874" lon="1.36574">
        <ele>604.91</ele>
        <time>2019-11-24T08:44:29.000Z</time>
      </trkpt>
      <trkpt lat="45.96876" lon="1.36562">
        <ele>604.79</ele>
        <time>2019-11-24T08:44:31.000Z</time>
      </trkpt>
      <trkpt lat="45.96879" lon="1.36547">
        <ele>604.08</ele>
        <time>2019-11-24T08:44:33.000Z</time>
      </trkpt>
      <trkpt lat="45.96881" lon="1.36531">
        <ele>603.24</ele>
        <time>2019-11-24T08:44:35.000Z</time>
      </trkpt>
      <trkpt lat="45.96883" lon="1.36514">
        <ele>602.33</ele>
        <time>2019-11-24T08:44:38.000Z</time>
      </trkpt>
      <trkpt lat="45.96879" lon="1.36503">
        <ele>602.39</ele>
        <time>2019-11-24T08:44:40.000Z</time>
      </trkpt>
      <trkpt lat="45.96878" lon="1.36487">
        <ele>602.43</ele>
        <time>2019-11-24T08:44:43.000Z</time>
      </trkpt>
      <trkpt lat="45.96881" lon="1.36475">
        <ele>602.51</ele>
        <time>2019-11-24T08:44:45.000Z</time>
      </trkpt>
      <trkpt lat="45.96882" lon="1.3646">
        <ele>602.68</ele>
        <time>2019-11-24T08:44:47.000Z</time>
      </trkpt>
      <trkpt lat="45.96884" lon="1.36444">
        <ele>602.76</ele>
        <time>2019-11-24T08:44:48.000Z</time>
      </trkpt>
      <trkpt lat="45.96887" lon="1.36428">
        <ele>602.88</ele>
        <time>2019-11-24T08:44:50.000Z</time>
      </trkpt>
      <trkpt lat="45.96889" lon="1.36412">
        <ele>603.08</ele>
        <time>2019-11-24T08:44:53.000Z</time>
      </trkpt>
      <trkpt lat="45.96889" lon="1.36399">
        <ele>603.31</ele>
        <time>2019-11-24T08:44:55.000Z</time>
      </trkpt>
      <trkpt lat="45.96891" lon="1.36386">
        <ele>603.63</ele>
        <time>2019-11-24T08:44:56.000Z</time>
      </trkpt>
      <trkpt lat="45.96901" lon="1.36368">
        <ele>603.65</ele>
        <time>2019-11-24T08:44:58.000Z</time>
      </trkpt>
      <trkpt lat="45.96911" lon="1.36357">
        <ele>603.66</ele>
        <time>2019-11-24T08:45:00.000Z</time>
      </trkpt>
      <trkpt lat="45.96923" lon="1.36351">
        <ele>603.6</ele>
        <time>2019-11-24T08:45:02.000Z</time>
      </trkpt>
      <trkpt lat="45.96936" lon="1.36344">
        <ele>602.5</ele>
        <time>2019-11-24T08:45:04.000Z</time>
      </trkpt>
      <trkpt lat="45.96946" lon="1.36338">
        <ele>601.17</ele>
        <time>2019-11-24T08:45:06.000Z</time>
      </trkpt>
      <trkpt lat="45.96958" lon="1.36333">
        <ele>599.69</ele>
        <time>2019-11-24T08:45:08.000Z</time>
      </trkpt>
      <trkpt lat="45.9697" lon="1.36329">
        <ele>599.58</ele>
        <time>2019-11-24T08:45:10.000Z</time>
      </trkpt>
      <trkpt lat="45.96983" lon="1.36328">
        <ele>600.18</ele>
        <time>2019-11-24T08:45:12.000Z</time>
      </trkpt>
      <trkpt lat="45.96993" lon="1.36328">
        <ele>600.96</ele>
        <time>2019-11-24T08:45:14.000Z</time>
      </trkpt>
      <trkpt lat="45.97003" lon="1.36322">
        <ele>602.02</ele>
        <time>2019-11-24T08:45:16.000Z</time>
      </trkpt>
      <trkpt lat="45.97015" lon="1.36319">
        <ele>602.75</ele>
        <time>2019-11-24T08:45:18.000Z</time>
      </trkpt>
      <trkpt lat="45.97023" lon="1.36334">
        <ele>603.09</ele>
        <time>2019-11-24T08:45:20.000Z</time>
      </trkpt>
      <trkpt lat="45.97036" lon="1.36343">
        <ele>603.34</ele>
        <time>2019-11-24T08:45:22.000Z</time>
      </trkpt>
      <trkpt lat="45.97042" lon="1.36357">
        <ele>603.64</ele>
        <time>2019-11-24T08:45:27.000Z</time>
      </trkpt>
      <trkpt lat="45.97043" lon="1.36371">
        <ele>603.54</ele>
        <time>2019-11-24T08:45:29.000Z</time>
      </trkpt>
      <trkpt lat="45.97044" lon="1.36384">
        <ele>603.37</ele>
        <time>2019-11-24T08:45:31.000Z</time>
      </trkpt>
      <trkpt lat="45.97049" lon="1.36398">
        <ele>603.02</ele>
        <time>2019-11-24T08:45:34.000Z</time>
      </trkpt>
      <trkpt lat="45.97051" lon="1.36411">
        <ele>602.25</ele>
        <time>2019-11-24T08:45:38.000Z</time>
      </trkpt>
      <trkpt lat="45.97051" lon="1.36425">
        <ele>601.08</ele>
        <time>2019-11-24T08:45:43.000Z</time>
      </trkpt>
      <trkpt lat="45.97049" lon="1.36439">
        <ele>599.75</ele>
        <time>2019-11-24T08:45:49.000Z</time>
      </trkpt>
      <trkpt lat="45.97046" lon="1.36453">
        <ele>598.45</ele>
        <time>2019-11-24T08:45:55.000Z</time>
      </trkpt>
      <trkpt lat="45.9705" lon="1.36467">
        <ele>596.43</ele>
        <time>2019-11-24T08:46:04.000Z</time>
      </trkpt>
      <trkpt lat="45.97058" lon="1.3648">
        <ele>595.36</ele>
        <time>2019-11-24T08:46:08.000Z</time>
      </trkpt>
      <trkpt lat="45.97061" lon="1.36495">
        <ele>594.15</ele>
        <time>2019-11-24T08:46:12.000Z</time>
      </trkpt>
      <trkpt lat="45.97065" lon="1.36508">
        <ele>593.44</ele>
        <time>2019-11-24T08:46:15.000Z</time>
      </trkpt>
      <trkpt lat="45.97067" lon="1.36522">
        <ele>592.65</ele>
        <time>2019-11-24T08:46:18.000Z</time>
      </trkpt>
      <trkpt lat="45.9707" lon="1.36535">
        <ele>591.38</ele>
        <time>2019-11-24T08:46:22.000Z</time>
      </trkpt>
      <trkpt lat="45.97075" lon="1.36547">
        <ele>590.3</ele>
        <time>2019-11-24T08:46:25.000Z</time>
      </trkpt>
      <trkpt lat="45.97081" lon="1.36564">
        <ele>589.13</ele>
        <time>2019-11-24T08:46:28.000Z</time>
      </trkpt>
      <trkpt lat="45.97084" lon="1.36581">
        <ele>587.75</ele>
        <time>2019-11-24T08:46:31.000Z</time>
      </trkpt>
      <trkpt lat="45.97089" lon="1.36595">
        <ele>586.45</ele>
        <time>2019-11-24T08:46:34.000Z</time>
      </trkpt>
      <trkpt lat="45.97094" lon="1.36609">
        <ele>585.28</ele>
        <time>2019-11-24T08:46:37.000Z</time>
      </trkpt>
      <trkpt lat="45.97098" lon="1.36621">
        <ele>584.11</ele>
        <time>2019-11-24T08:46:40.000Z</time>
      </trkpt>
      <trkpt lat="45.97104" lon="1.36632">
        <ele>582.54</ele>
        <time>2019-11-24T08:46:44.000Z</time>
      </trkpt>
      <trkpt lat="45.97113" lon="1.36631">
        <ele>580.55</ele>
        <time>2019-11-24T08:46:49.000Z</time>
      </trkpt>
      <trkpt lat="45.97123" lon="1.36632">
        <ele>579.98</ele>
        <time>2019-11-24T08:46:53.000Z</time>
      </trkpt>
      <trkpt lat="45.97135" lon="1.36638">
        <ele>580.18</ele>
        <time>2019-11-24T08:46:56.000Z</time>
      </trkpt>
      <trkpt lat="45.97143" lon="1.36647">
        <ele>580.91</ele>
        <time>2019-11-24T08:47:01.000Z</time>
      </trkpt>
      <trkpt lat="45.97151" lon="1.36656">
        <ele>581.62</ele>
        <time>2019-11-24T08:47:05.000Z</time>
      </trkpt>
      <trkpt lat="45.97159" lon="1.36663">
        <ele>582.95</ele>
        <time>2019-11-24T08:47:11.000Z</time>
      </trkpt>
      <trkpt lat="45.97169" lon="1.36666">
        <ele>584.13</ele>
        <time>2019-11-24T08:47:16.000Z</time>
      </trkpt>
      <trkpt lat="45.97176" lon="1.36675">
        <ele>585.6</ele>
        <time>2019-11-24T08:47:21.000Z</time>
      </trkpt>
      <trkpt lat="45.97184" lon="1.36685">
        <ele>589</ele>
        <time>2019-11-24T08:47:31.000Z</time>
      </trkpt>
      <trkpt lat="45.97194" lon="1.36691">
        <ele>590.7</ele>
        <time>2019-11-24T08:47:36.000Z</time>
      </trkpt>
      <trkpt lat="45.97202" lon="1.36695">
        <ele>592.03</ele>
        <time>2019-11-24T08:47:40.000Z</time>
      </trkpt>
      <trkpt lat="45.97211" lon="1.36698">
        <ele>593.89</ele>
        <time>2019-11-24T08:47:45.000Z</time>
      </trkpt>
      <trkpt lat="45.97222" lon="1.36698">
        <ele>596.09</ele>
        <time>2019-11-24T08:47:51.000Z</time>
      </trkpt>
      <trkpt lat="45.97231" lon="1.36699">
        <ele>597.69</ele>
        <time>2019-11-24T08:47:56.000Z</time>
      </trkpt>
      <trkpt lat="45.9724" lon="1.36703">
        <ele>599.67</ele>
        <time>2019-11-24T08:48:01.000Z</time>
      </trkpt>
      <trkpt lat="45.97249" lon="1.36707">
        <ele>601.57</ele>
        <time>2019-11-24T08:48:06.000Z</time>
      </trkpt>
      <trkpt lat="45.97258" lon="1.36713">
        <ele>603.27</ele>
        <time>2019-11-24T08:48:11.000Z</time>
      </trkpt>
      <trkpt lat="45.97267" lon="1.36713">
        <ele>605.82</ele>
        <time>2019-11-24T08:48:18.000Z</time>
      </trkpt>
      <trkpt lat="45.97274" lon="1.36722">
        <ele>607.53</ele>
        <time>2019-11-24T08:48:22.000Z</time>
      </trkpt>
      <trkpt lat="45.97284" lon="1.36731">
        <ele>608.85</ele>
        <time>2019-11-24T08:48:26.000Z</time>
      </trkpt>
      <trkpt lat="45.97293" lon="1.36734">
        <ele>610.11</ele>
        <time>2019-11-24T08:48:31.000Z</time>
      </trkpt>
      <trkpt lat="45.97303" lon="1.36737">
        <ele>611.33</ele>
        <time>2019-11-24T08:48:36.000Z</time>
      </trkpt>
      <trkpt lat="45.97312" lon="1.36742">
        <ele>612.14</ele>
        <time>2019-11-24T08:48:40.000Z</time>
      </trkpt>
      <trkpt lat="45.97321" lon="1.36735">
        <ele>612.72</ele>
        <time>2019-11-24T08:48:45.000Z</time>
      </trkpt>
      <trkpt lat="45.97332" lon="1.36735">
        <ele>613.43</ele>
        <time>2019-11-24T08:48:49.000Z</time>
      </trkpt>
      <trkpt lat="45.97341" lon="1.36746">
        <ele>614.07</ele>
        <time>2019-11-24T08:48:52.000Z</time>
      </trkpt>
      <trkpt lat="45.97353" lon="1.36751">
        <ele>614.97</ele>
        <time>2019-11-24T08:48:56.000Z</time>
      </trkpt>
      <trkpt lat="45.97362" lon="1.36753">
        <ele>615.56</ele>
        <time>2019-11-24T08:48:58.000Z</time>
      </trkpt>
      <trkpt lat="45.97371" lon="1.36757">
        <ele>616.11</ele>
        <time>2019-11-24T08:49:00.000Z</time>
      </trkpt>
      <trkpt lat="45.97381" lon="1.36759">
        <ele>616.87</ele>
        <time>2019-11-24T08:49:03.000Z</time>
      </trkpt>
      <trkpt lat="45.97393" lon="1.36766">
        <ele>618.12</ele>
        <time>2019-11-24T08:49:07.000Z</time>
      </trkpt>
      <trkpt lat="45.97402" lon="1.3677">
        <ele>618.78</ele>
        <time>2019-11-24T08:49:09.000Z</time>
      </trkpt>
      <trkpt lat="45.97411" lon="1.36771">
        <ele>619.74</ele>
        <time>2019-11-24T08:49:12.000Z</time>
      </trkpt>
      <trkpt lat="45.97421" lon="1.36772">
        <ele>620.63</ele>
        <time>2019-11-24T08:49:15.000Z</time>
      </trkpt>
      <trkpt lat="45.9743" lon="1.36776">
        <ele>621.06</ele>
        <time>2019-11-24T08:49:17.000Z</time>
      </trkpt>
      <trkpt lat="45.97439" lon="1.3678">
        <ele>621.58</ele>
        <time>2019-11-24T08:49:19.000Z</time>
      </trkpt>
      <trkpt lat="45.97447" lon="1.36791">
        <ele>622.21</ele>
        <time>2019-11-24T08:49:21.000Z</time>
      </trkpt>
      <trkpt lat="45.97452" lon="1.36805">
        <ele>622.89</ele>
        <time>2019-11-24T08:49:23.000Z</time>
      </trkpt>
      <trkpt lat="45.97458" lon="1.36818">
        <ele>623.4</ele>
        <time>2019-11-24T08:49:25.000Z</time>
      </trkpt>
      <trkpt lat="45.97464" lon="1.36831">
        <ele>623.86</ele>
        <time>2019-11-24T08:49:28.000Z</time>
      </trkpt>
      <trkpt lat="45.97471" lon="1.36844">
        <ele>625.22</ele>
        <time>2019-11-24T08:49:31.000Z</time>
      </trkpt>
      <trkpt lat="45.97479" lon="1.36857">
        <ele>625.43</ele>
        <time>2019-11-24T08:49:34.000Z</time>
      </trkpt>
      <trkpt lat="45.97484" lon="1.36871">
        <ele>624.38</ele>
        <time>2019-11-24T08:49:36.000Z</time>
      </trkpt>
      <trkpt lat="45.97489" lon="1.36886">
        <ele>622.87</ele>
        <time>2019-11-24T08:49:38.000Z</time>
      </trkpt>
      <trkpt lat="45.97494" lon="1.36905">
        <ele>621.09</ele>
        <time>2019-11-24T08:49:40.000Z</time>
      </trkpt>
      <trkpt lat="45.975" lon="1.36923">
        <ele>618.84</ele>
        <time>2019-11-24T08:49:42.000Z</time>
      </trkpt>
      <trkpt lat="45.97506" lon="1.3694">
        <ele>617.14</ele>
        <time>2019-11-24T08:49:44.000Z</time>
      </trkpt>
      <trkpt lat="45.9751" lon="1.36956">
        <ele>615.99</ele>
        <time>2019-11-24T08:49:46.000Z</time>
      </trkpt>
      <trkpt lat="45.97515" lon="1.3697">
        <ele>615.34</ele>
        <time>2019-11-24T08:49:49.000Z</time>
      </trkpt>
      <trkpt lat="45.97524" lon="1.36971">
        <ele>615.12</ele>
        <time>2019-11-24T08:49:52.000Z</time>
      </trkpt>
      <trkpt lat="45.97536" lon="1.36967">
        <ele>614.22</ele>
        <time>2019-11-24T08:49:55.000Z</time>
      </trkpt>
      <trkpt lat="45.97546" lon="1.36964">
        <ele>614.07</ele>
        <time>2019-11-24T08:49:57.000Z</time>
      </trkpt>
      <trkpt lat="45.97555" lon="1.36958">
        <ele>614.08</ele>
        <time>2019-11-24T08:49:59.000Z</time>
      </trkpt>
      <trkpt lat="45.97566" lon="1.36944">
        <ele>613.81</ele>
        <time>2019-11-24T08:50:01.000Z</time>
      </trkpt>
      <trkpt lat="45.97574" lon="1.36931">
        <ele>613.36</ele>
        <time>2019-11-24T08:50:03.000Z</time>
      </trkpt>
      <trkpt lat="45.97579" lon="1.36914">
        <ele>613.32</ele>
        <time>2019-11-24T08:50:05.000Z</time>
      </trkpt>
      <trkpt lat="45.97585" lon="1.36897">
        <ele>612.98</ele>
        <time>2019-11-24T08:50:07.000Z</time>
      </trkpt>
      <trkpt lat="45.97592" lon="1.36885">
        <ele>612.03</ele>
        <time>2019-11-24T08:50:09.000Z</time>
      </trkpt>
      <trkpt lat="45.97599" lon="1.36875">
        <ele>611.05</ele>
        <time>2019-11-24T08:50:11.000Z</time>
      </trkpt>
      <trkpt lat="45.97609" lon="1.36863">
        <ele>610.07</ele>
        <time>2019-11-24T08:50:14.000Z</time>
      </trkpt>
      <trkpt lat="45.97615" lon="1.36853">
        <ele>608.98</ele>
        <time>2019-11-24T08:50:16.000Z</time>
      </trkpt>
      <trkpt lat="45.97621" lon="1.36843">
        <ele>608.6</ele>
        <time>2019-11-24T08:50:18.000Z</time>
      </trkpt>
      <trkpt lat="45.97629" lon="1.36828">
        <ele>608.63</ele>
        <time>2019-11-24T08:50:21.000Z</time>
      </trkpt>
      <trkpt lat="45.97637" lon="1.36817">
        <ele>609.06</ele>
        <time>2019-11-24T08:50:23.000Z</time>
      </trkpt>
      <trkpt lat="45.97645" lon="1.36805">
        <ele>609.67</ele>
        <time>2019-11-24T08:50:25.000Z</time>
      </trkpt>
      <trkpt lat="45.97654" lon="1.36791">
        <ele>609.62</ele>
        <time>2019-11-24T08:50:27.000Z</time>
      </trkpt>
      <trkpt lat="45.97664" lon="1.36781">
        <ele>609.01</ele>
        <time>2019-11-24T08:50:29.000Z</time>
      </trkpt>
      <trkpt lat="45.97675" lon="1.36771">
        <ele>609.56</ele>
        <time>2019-11-24T08:50:31.000Z</time>
      </trkpt>
      <trkpt lat="45.97682" lon="1.3676">
        <ele>611.05</ele>
        <time>2019-11-24T08:50:33.000Z</time>
      </trkpt>
      <trkpt lat="45.97694" lon="1.36754">
        <ele>612.65</ele>
        <time>2019-11-24T08:50:35.000Z</time>
      </trkpt>
      <trkpt lat="45.97703" lon="1.36756">
        <ele>613.57</ele>
        <time>2019-11-24T08:50:37.000Z</time>
      </trkpt>
      <trkpt lat="45.97712" lon="1.36767">
        <ele>614.09</ele>
        <time>2019-11-24T08:50:39.000Z</time>
      </trkpt>
      <trkpt lat="45.9772" lon="1.3678">
        <ele>613.92</ele>
        <time>2019-11-24T08:50:41.000Z</time>
      </trkpt>
      <trkpt lat="45.97731" lon="1.36794">
        <ele>613.53</ele>
        <time>2019-11-24T08:50:43.000Z</time>
      </trkpt>
      <trkpt lat="45.9774" lon="1.36807">
        <ele>612.96</ele>
        <time>2019-11-24T08:50:45.000Z</time>
      </trkpt>
      <trkpt lat="45.97746" lon="1.36822">
        <ele>612.15</ele>
        <time>2019-11-24T08:50:47.000Z</time>
      </trkpt>
      <trkpt lat="45.97751" lon="1.36836">
        <ele>611.16</ele>
        <time>2019-11-24T08:50:49.000Z</time>
      </trkpt>
      <trkpt lat="45.97757" lon="1.36849">
        <ele>610.27</ele>
        <time>2019-11-24T08:50:51.000Z</time>
      </trkpt>
      <trkpt lat="45.97764" lon="1.36864">
        <ele>609.8</ele>
        <time>2019-11-24T08:50:53.000Z</time>
      </trkpt>
      <trkpt lat="45.97772" lon="1.36877">
        <ele>608.36</ele>
        <time>2019-11-24T08:50:55.000Z</time>
      </trkpt>
      <trkpt lat="45.97779" lon="1.36892">
        <ele>607.75</ele>
        <time>2019-11-24T08:50:58.000Z</time>
      </trkpt>
      <trkpt lat="45.97786" lon="1.36901">
        <ele>607.17</ele>
        <time>2019-11-24T08:51:00.000Z</time>
      </trkpt>
      <trkpt lat="45.97793" lon="1.3691">
        <ele>606.17</ele>
        <time>2019-11-24T08:51:02.000Z</time>
      </trkpt>
      <trkpt lat="45.97803" lon="1.36921">
        <ele>606.04</ele>
        <time>2019-11-24T08:51:05.000Z</time>
      </trkpt>
      <trkpt lat="45.97811" lon="1.36931">
        <ele>605.94</ele>
        <time>2019-11-24T08:51:07.000Z</time>
      </trkpt>
      <trkpt lat="45.97818" lon="1.36947">
        <ele>605.78</ele>
        <time>2019-11-24T08:51:10.000Z</time>
      </trkpt>
      <trkpt lat="45.97815" lon="1.36965">
        <ele>602.51</ele>
        <time>2019-11-24T08:51:13.000Z</time>
      </trkpt>
      <trkpt lat="45.9782" lon="1.36982">
        <ele>600.95</ele>
        <time>2019-11-24T08:51:16.000Z</time>
      </trkpt>
      <trkpt lat="45.97827" lon="1.36994">
        <ele>599.6</ele>
        <time>2019-11-24T08:51:18.000Z</time>
      </trkpt>
      <trkpt lat="45.97836" lon="1.37008">
        <ele>597.72</ele>
        <time>2019-11-24T08:51:20.000Z</time>
      </trkpt>
      <trkpt lat="45.97841" lon="1.37019">
        <ele>596.17</ele>
        <time>2019-11-24T08:51:22.000Z</time>
      </trkpt>
      <trkpt lat="45.9785" lon="1.37018">
        <ele>595.05</ele>
        <time>2019-11-24T08:51:25.000Z</time>
      </trkpt>
      <trkpt lat="45.97856" lon="1.37008">
        <ele>593.46</ele>
        <time>2019-11-24T08:51:28.000Z</time>
      </trkpt>
      <trkpt lat="45.97868" lon="1.37002">
        <ele>591.37</ele>
        <time>2019-11-24T08:51:31.000Z</time>
      </trkpt>
      <trkpt lat="45.97881" lon="1.36996">
        <ele>591.41</ele>
        <time>2019-11-24T08:51:34.000Z</time>
      </trkpt>
      <trkpt lat="45.97889" lon="1.3699">
        <ele>591.54</ele>
        <time>2019-11-24T08:51:37.000Z</time>
      </trkpt>
      <trkpt lat="45.97898" lon="1.36984">
        <ele>591.71</ele>
        <time>2019-11-24T08:51:39.000Z</time>
      </trkpt>
      <trkpt lat="45.97908" lon="1.36977">
        <ele>591.91</ele>
        <time>2019-11-24T08:51:41.000Z</time>
      </trkpt>
      <trkpt lat="45.97917" lon="1.36976">
        <ele>592.98</ele>
        <time>2019-11-24T08:51:43.000Z</time>
      </trkpt>
      <trkpt lat="45.97927" lon="1.36976">
        <ele>594.16</ele>
        <time>2019-11-24T08:51:45.000Z</time>
      </trkpt>
      <trkpt lat="45.97936" lon="1.36976">
        <ele>595.75</ele>
        <time>2019-11-24T08:51:47.000Z</time>
      </trkpt>
      <trkpt lat="45.97948" lon="1.36976">
        <ele>596.55</ele>
        <time>2019-11-24T08:51:50.000Z</time>
      </trkpt>
      <trkpt lat="45.97959" lon="1.36974">
        <ele>597.46</ele>
        <time>2019-11-24T08:51:52.000Z</time>
      </trkpt>
      <trkpt lat="45.97973" lon="1.36972">
        <ele>598.16</ele>
        <time>2019-11-24T08:51:55.000Z</time>
      </trkpt>
      <trkpt lat="45.97983" lon="1.36974">
        <ele>598.2</ele>
        <time>2019-11-24T08:51:57.000Z</time>
      </trkpt>
      <trkpt lat="45.97992" lon="1.36972">
        <ele>598.11</ele>
        <time>2019-11-24T08:51:59.000Z</time>
      </trkpt>
      <trkpt lat="45.98003" lon="1.36969">
        <ele>598.49</ele>
        <time>2019-11-24T08:52:01.000Z</time>
      </trkpt>
      <trkpt lat="45.98012" lon="1.36968">
        <ele>598.7</ele>
        <time>2019-11-24T08:52:03.000Z</time>
      </trkpt>
      <trkpt lat="45.98022" lon="1.36967">
        <ele>598.3</ele>
        <time>2019-11-24T08:52:05.000Z</time>
      </trkpt>
      <trkpt lat="45.98035" lon="1.36958">
        <ele>596.87</ele>
        <time>2019-11-24T08:52:08.000Z</time>
      </trkpt>
      <trkpt lat="45.98043" lon="1.3695">
        <ele>595.71</ele>
        <time>2019-11-24T08:52:10.000Z</time>
      </trkpt>
      <trkpt lat="45.98051" lon="1.36943">
        <ele>594.56</ele>
        <time>2019-11-24T08:52:12.000Z</time>
      </trkpt>
      <trkpt lat="45.98062" lon="1.36937">
        <ele>593.6</ele>
        <time>2019-11-24T08:52:15.000Z</time>
      </trkpt>
      <trkpt lat="45.98071" lon="1.36934">
        <ele>593.7</ele>
        <time>2019-11-24T08:52:17.000Z</time>
      </trkpt>
      <trkpt lat="45.98082" lon="1.36929">
        <ele>594.74</ele>
        <time>2019-11-24T08:52:19.000Z</time>
      </trkpt>
      <trkpt lat="45.98091" lon="1.36927">
        <ele>594.95</ele>
        <time>2019-11-24T08:52:21.000Z</time>
      </trkpt>
      <trkpt lat="45.98103" lon="1.36927">
        <ele>595.35</ele>
        <time>2019-11-24T08:52:25.000Z</time>
      </trkpt>
      <trkpt lat="45.98112" lon="1.3693">
        <ele>595.72</ele>
        <time>2019-11-24T08:52:28.000Z</time>
      </trkpt>
      <trkpt lat="45.98122" lon="1.36936">
        <ele>596.25</ele>
        <time>2019-11-24T08:52:31.000Z</time>
      </trkpt>
      <trkpt lat="45.98133" lon="1.36941">
        <ele>596.92</ele>
        <time>2019-11-24T08:52:34.000Z</time>
      </trkpt>
      <trkpt lat="45.98143" lon="1.36945">
        <ele>597.43</ele>
        <time>2019-11-24T08:52:36.000Z</time>
      </trkpt>
      <trkpt lat="45.98151" lon="1.36952">
        <ele>597.92</ele>
        <time>2019-11-24T08:52:38.000Z</time>
      </trkpt>
      <trkpt lat="45.9816" lon="1.36965">
        <ele>598.31</ele>
        <time>2019-11-24T08:52:40.000Z</time>
      </trkpt>
      <trkpt lat="45.98167" lon="1.36973">
        <ele>598.64</ele>
        <time>2019-11-24T08:52:42.000Z</time>
      </trkpt>
      <trkpt lat="45.98178" lon="1.36984">
        <ele>598.99</ele>
        <time>2019-11-24T08:52:45.000Z</time>
      </trkpt>
      <trkpt lat="45.98187" lon="1.36998">
        <ele>599.5</ele>
        <time>2019-11-24T08:52:47.000Z</time>
      </trkpt>
      <trkpt lat="45.98195" lon="1.37011">
        <ele>599.99</ele>
        <time>2019-11-24T08:52:49.000Z</time>
      </trkpt>
      <trkpt lat="45.98204" lon="1.3702">
        <ele>600.88</ele>
        <time>2019-11-24T08:52:51.000Z</time>
      </trkpt>
      <trkpt lat="45.98214" lon="1.3702">
        <ele>600.92</ele>
        <time>2019-11-24T08:52:53.000Z</time>
      </trkpt>
      <trkpt lat="45.98223" lon="1.37018">
        <ele>600.42</ele>
        <time>2019-11-24T08:52:56.000Z</time>
      </trkpt>
      <trkpt lat="45.98234" lon="1.37017">
        <ele>599.94</ele>
        <time>2019-11-24T08:52:58.000Z</time>
      </trkpt>
      <trkpt lat="45.98245" lon="1.37014">
        <ele>599.38</ele>
        <time>2019-11-24T08:53:00.000Z</time>
      </trkpt>
      <trkpt lat="45.98257" lon="1.3702">
        <ele>598.76</ele>
        <time>2019-11-24T08:53:02.000Z</time>
      </trkpt>
      <trkpt lat="45.98267" lon="1.37026">
        <ele>597.95</ele>
        <time>2019-11-24T08:53:04.000Z</time>
      </trkpt>
      <trkpt lat="45.98276" lon="1.37032">
        <ele>597.15</ele>
        <time>2019-11-24T08:53:06.000Z</time>
      </trkpt>
      <trkpt lat="45.98289" lon="1.37037">
        <ele>594.06</ele>
        <time>2019-11-24T08:53:09.000Z</time>
      </trkpt>
      <trkpt lat="45.98302" lon="1.37045">
        <ele>592.31</ele>
        <time>2019-11-24T08:53:11.000Z</time>
      </trkpt>
      <trkpt lat="45.98313" lon="1.37054">
        <ele>590.42</ele>
        <time>2019-11-24T08:53:13.000Z</time>
      </trkpt>
      <trkpt lat="45.98321" lon="1.37067">
        <ele>589.2</ele>
        <time>2019-11-24T08:53:15.000Z</time>
      </trkpt>
      <trkpt lat="45.98328" lon="1.37088">
        <ele>588.88</ele>
        <time>2019-11-24T08:53:17.000Z</time>
      </trkpt>
      <trkpt lat="45.98333" lon="1.37112">
        <ele>589.35</ele>
        <time>2019-11-24T08:53:19.000Z</time>
      </trkpt>
      <trkpt lat="45.98335" lon="1.37127">
        <ele>589.95</ele>
        <time>2019-11-24T08:53:20.000Z</time>
      </trkpt>
      <trkpt lat="45.98338" lon="1.37153">
        <ele>590.44</ele>
        <time>2019-11-24T08:53:22.000Z</time>
      </trkpt>
      <trkpt lat="45.98337" lon="1.37174">
        <ele>589.66</ele>
        <time>2019-11-24T08:53:24.000Z</time>
      </trkpt>
      <trkpt lat="45.98331" lon="1.37193">
        <ele>589.27</ele>
        <time>2019-11-24T08:53:26.000Z</time>
      </trkpt>
      <trkpt lat="45.98325" lon="1.37205">
        <ele>588.53</ele>
        <time>2019-11-24T08:53:28.000Z</time>
      </trkpt>
      <trkpt lat="45.98318" lon="1.37215">
        <ele>587.87</ele>
        <time>2019-11-24T08:53:30.000Z</time>
      </trkpt>
      <trkpt lat="45.98311" lon="1.37228">
        <ele>588.39</ele>
        <time>2019-11-24T08:53:33.000Z</time>
      </trkpt>
      <trkpt lat="45.98304" lon="1.37241">
        <ele>589.75</ele>
        <time>2019-11-24T08:53:36.000Z</time>
      </trkpt>
      <trkpt lat="45.98298" lon="1.37255">
        <ele>590.33</ele>
        <time>2019-11-24T08:53:39.000Z</time>
      </trkpt>
      <trkpt lat="45.98296" lon="1.37271">
        <ele>590.3</ele>
        <time>2019-11-24T08:53:42.000Z</time>
      </trkpt>
      <trkpt lat="45.98297" lon="1.37286">
        <ele>590.33</ele>
        <time>2019-11-24T08:53:45.000Z</time>
      </trkpt>
      <trkpt lat="45.98301" lon="1.37299">
        <ele>590.42</ele>
        <time>2019-11-24T08:53:48.000Z</time>
      </trkpt>
      <trkpt lat="45.98311" lon="1.37296">
        <ele>590.63</ele>
        <time>2019-11-24T08:53:52.000Z</time>
      </trkpt>
      <trkpt lat="45.98321" lon="1.3729">
        <ele>591.79</ele>
        <time>2019-11-24T08:53:56.000Z</time>
      </trkpt>
      <trkpt lat="45.98327" lon="1.37278">
        <ele>591.93</ele>
        <time>2019-11-24T08:53:58.000Z</time>
      </trkpt>
      <trkpt lat="45.98332" lon="1.37262">
        <ele>592.71</ele>
        <time>2019-11-24T08:54:01.000Z</time>
      </trkpt>
      <trkpt lat="45.98337" lon="1.37247">
        <ele>593.84</ele>
        <time>2019-11-24T08:54:04.000Z</time>
      </trkpt>
      <trkpt lat="45.98347" lon="1.37241">
        <ele>594.6</ele>
        <time>2019-11-24T08:54:08.000Z</time>
      </trkpt>
      <trkpt lat="45.9836" lon="1.37238">
        <ele>595.51</ele>
        <time>2019-11-24T08:54:12.000Z</time>
      </trkpt>
      <trkpt lat="45.98372" lon="1.3723">
        <ele>596.19</ele>
        <time>2019-11-24T08:54:15.000Z</time>
      </trkpt>
      <trkpt lat="45.9838" lon="1.37222">
        <ele>596.55</ele>
        <time>2019-11-24T08:54:17.000Z</time>
      </trkpt>
      <trkpt lat="45.98389" lon="1.37213">
        <ele>598.6</ele>
        <time>2019-11-24T08:54:19.000Z</time>
      </trkpt>
      <trkpt lat="45.98396" lon="1.37203">
        <ele>598.99</ele>
        <time>2019-11-24T08:54:21.000Z</time>
      </trkpt>
      <trkpt lat="45.98403" lon="1.37189">
        <ele>598.87</ele>
        <time>2019-11-24T08:54:23.000Z</time>
      </trkpt>
      <trkpt lat="45.98411" lon="1.37177">
        <ele>597.95</ele>
        <time>2019-11-24T08:54:25.000Z</time>
      </trkpt>
      <trkpt lat="45.98418" lon="1.37168">
        <ele>597.66</ele>
        <time>2019-11-24T08:54:27.000Z</time>
      </trkpt>
      <trkpt lat="45.98428" lon="1.37161">
        <ele>597.65</ele>
        <time>2019-11-24T08:54:30.000Z</time>
      </trkpt>
      <trkpt lat="45.98436" lon="1.37153">
        <ele>597.41</ele>
        <time>2019-11-24T08:54:32.000Z</time>
      </trkpt>
      <trkpt lat="45.98445" lon="1.37148">
        <ele>597.17</ele>
        <time>2019-11-24T08:54:34.000Z</time>
      </trkpt>
      <trkpt lat="45.98455" lon="1.37148">
        <ele>597.19</ele>
        <time>2019-11-24T08:54:36.000Z</time>
      </trkpt>
      <trkpt lat="45.98464" lon="1.37144">
        <ele>597.25</ele>
        <time>2019-11-24T08:54:39.000Z</time>
      </trkpt>
      <trkpt lat="45.98475" lon="1.37147">
        <ele>597.21</ele>
        <time>2019-11-24T08:54:42.000Z</time>
      </trkpt>
      <trkpt lat="45.98484" lon="1.37153">
        <ele>597.19</ele>
        <time>2019-11-24T08:54:44.000Z</time>
      </trkpt>
      <trkpt lat="45.98494" lon="1.37163">
        <ele>597.05</ele>
        <time>2019-11-24T08:54:46.000Z</time>
      </trkpt>
      <trkpt lat="45.98502" lon="1.37175">
        <ele>596.62</ele>
        <time>2019-11-24T08:54:49.000Z</time>
      </trkpt>
      <trkpt lat="45.98508" lon="1.37186">
        <ele>596.08</ele>
        <time>2019-11-24T08:54:52.000Z</time>
      </trkpt>
      <trkpt lat="45.98512" lon="1.37199">
        <ele>595.69</ele>
        <time>2019-11-24T08:54:54.000Z</time>
      </trkpt>
      <trkpt lat="45.98514" lon="1.37215">
        <ele>594.89</ele>
        <time>2019-11-24T08:54:57.000Z</time>
      </trkpt>
      <trkpt lat="45.98516" lon="1.37231">
        <ele>594.01</ele>
        <time>2019-11-24T08:55:00.000Z</time>
      </trkpt>
      <trkpt lat="45.9852" lon="1.37246">
        <ele>593.17</ele>
        <time>2019-11-24T08:55:03.000Z</time>
      </trkpt>
      <trkpt lat="45.98523" lon="1.37258">
        <ele>592.6</ele>
        <time>2019-11-24T08:55:05.000Z</time>
      </trkpt>
      <trkpt lat="45.98522" lon="1.37274">
        <ele>592.01</ele>
        <time>2019-11-24T08:55:07.000Z</time>
      </trkpt>
      <trkpt lat="45.9852" lon="1.37288">
        <ele>591.01</ele>
        <time>2019-11-24T08:55:10.000Z</time>
      </trkpt>
      <trkpt lat="45.98511" lon="1.373">
        <ele>589.89</ele>
        <time>2019-11-24T08:55:13.000Z</time>
      </trkpt>
      <trkpt lat="45.98507" lon="1.37312">
        <ele>589.11</ele>
        <time>2019-11-24T08:55:15.000Z</time>
      </trkpt>
      <trkpt lat="45.98502" lon="1.37324">
        <ele>588.4</ele>
        <time>2019-11-24T08:55:17.000Z</time>
      </trkpt>
      <trkpt lat="45.98495" lon="1.37334">
        <ele>587.69</ele>
        <time>2019-11-24T08:55:19.000Z</time>
      </trkpt>
      <trkpt lat="45.98486" lon="1.37345">
        <ele>587</ele>
        <time>2019-11-24T08:55:21.000Z</time>
      </trkpt>
      <trkpt lat="45.98478" lon="1.37355">
        <ele>586.31</ele>
        <time>2019-11-24T08:55:23.000Z</time>
      </trkpt>
      <trkpt lat="45.9847" lon="1.37364">
        <ele>585.65</ele>
        <time>2019-11-24T08:55:25.000Z</time>
      </trkpt>
      <trkpt lat="45.98481" lon="1.37367">
        <ele>582.94</ele>
        <time>2019-11-24T08:55:33.000Z</time>
      </trkpt>
      <trkpt lat="45.98493" lon="1.37363">
        <ele>581.81</ele>
        <time>2019-11-24T08:55:37.000Z</time>
      </trkpt>
      <trkpt lat="45.98504" lon="1.37359">
        <ele>580.47</ele>
        <time>2019-11-24T08:55:41.000Z</time>
      </trkpt>
      <trkpt lat="45.98512" lon="1.37355">
        <ele>578.85</ele>
        <time>2019-11-24T08:55:44.000Z</time>
      </trkpt>
      <trkpt lat="45.98523" lon="1.37348">
        <ele>577.04</ele>
        <time>2019-11-24T08:55:47.000Z</time>
      </trkpt>
      <trkpt lat="45.98533" lon="1.37347">
        <ele>575.92</ele>
        <time>2019-11-24T08:55:49.000Z</time>
      </trkpt>
      <trkpt lat="45.98545" lon="1.37347">
        <ele>573.87</ele>
        <time>2019-11-24T08:55:53.000Z</time>
      </trkpt>
      <trkpt lat="45.98553" lon="1.37338">
        <ele>571.66</ele>
        <time>2019-11-24T08:55:57.000Z</time>
      </trkpt>
      <trkpt lat="45.98562" lon="1.37325">
        <ele>570</ele>
        <time>2019-11-24T08:56:00.000Z</time>
      </trkpt>
      <trkpt lat="45.98569" lon="1.37316">
        <ele>569</ele>
        <time>2019-11-24T08:56:02.000Z</time>
      </trkpt>
      <trkpt lat="45.98577" lon="1.37303">
        <ele>567.57</ele>
        <time>2019-11-24T08:56:05.000Z</time>
      </trkpt>
      <trkpt lat="45.98584" lon="1.37293">
        <ele>564.13</ele>
        <time>2019-11-24T08:56:11.000Z</time>
      </trkpt>
      <trkpt lat="45.98592" lon="1.37282">
        <ele>561.67</ele>
        <time>2019-11-24T08:56:15.000Z</time>
      </trkpt>
      <trkpt lat="45.986" lon="1.37279">
        <ele>560.21</ele>
        <time>2019-11-24T08:56:18.000Z</time>
      </trkpt>
      <trkpt lat="45.98611" lon="1.37271">
        <ele>558.73</ele>
        <time>2019-11-24T08:56:22.000Z</time>
      </trkpt>
      <trkpt lat="45.98622" lon="1.37266">
        <ele>558.17</ele>
        <time>2019-11-24T08:56:24.000Z</time>
      </trkpt>
      <trkpt lat="45.98632" lon="1.37265">
        <ele>557.68</ele>
        <time>2019-11-24T08:56:26.000Z</time>
      </trkpt>
      <trkpt lat="45.98642" lon="1.3726">
        <ele>556.99</ele>
        <time>2019-11-24T08:56:29.000Z</time>
      </trkpt>
      <trkpt lat="45.9865" lon="1.37255">
        <ele>556.16</ele>
        <time>2019-11-24T08:56:32.000Z</time>
      </trkpt>
      <trkpt lat="45.98656" lon="1.37242">
        <ele>554.55</ele>
        <time>2019-11-24T08:56:37.000Z</time>
      </trkpt>
      <trkpt lat="45.9866" lon="1.37229">
        <ele>552.25</ele>
        <time>2019-11-24T08:56:43.000Z</time>
      </trkpt>
      <trkpt lat="45.98665" lon="1.37218">
        <ele>549.76</ele>
        <time>2019-11-24T08:56:51.000Z</time>
      </trkpt>
      <trkpt lat="45.98666" lon="1.37205">
        <ele>548.66</ele>
        <time>2019-11-24T08:56:56.000Z</time>
      </trkpt>
      <trkpt lat="45.98668" lon="1.37192">
        <ele>547.22</ele>
        <time>2019-11-24T08:57:04.000Z</time>
      </trkpt>
      <trkpt lat="45.98671" lon="1.37178">
        <ele>546.57</ele>
        <time>2019-11-24T08:57:08.000Z</time>
      </trkpt>
      <trkpt lat="45.98673" lon="1.37164">
        <ele>546.04</ele>
        <time>2019-11-24T08:57:14.000Z</time>
      </trkpt>
      <trkpt lat="45.9868" lon="1.37152">
        <ele>546.19</ele>
        <time>2019-11-24T08:57:19.000Z</time>
      </trkpt>
      <trkpt lat="45.98689" lon="1.37144">
        <ele>546.37</ele>
        <time>2019-11-24T08:57:22.000Z</time>
      </trkpt>
      <trkpt lat="45.987" lon="1.37148">
        <ele>546.36</ele>
        <time>2019-11-24T08:57:24.000Z</time>
      </trkpt>
      <trkpt lat="45.98709" lon="1.37149">
        <ele>545.94</ele>
        <time>2019-11-24T08:57:25.000Z</time>
      </trkpt>
      <trkpt lat="45.98723" lon="1.37152">
        <ele>544.5</ele>
        <time>2019-11-24T08:57:27.000Z</time>
      </trkpt>
      <trkpt lat="45.98736" lon="1.37155">
        <ele>543.71</ele>
        <time>2019-11-24T08:57:29.000Z</time>
      </trkpt>
      <trkpt lat="45.98744" lon="1.37161">
        <ele>543.65</ele>
        <time>2019-11-24T08:57:31.000Z</time>
      </trkpt>
      <trkpt lat="45.98755" lon="1.37175">
        <ele>543.49</ele>
        <time>2019-11-24T08:57:34.000Z</time>
      </trkpt>
      <trkpt lat="45.98762" lon="1.37188">
        <ele>543.3</ele>
        <time>2019-11-24T08:57:36.000Z</time>
      </trkpt>
      <trkpt lat="45.98767" lon="1.372">
        <ele>542.92</ele>
        <time>2019-11-24T08:57:39.000Z</time>
      </trkpt>
      <trkpt lat="45.98774" lon="1.3721">
        <ele>542.59</ele>
        <time>2019-11-24T08:57:42.000Z</time>
      </trkpt>
      <trkpt lat="45.98782" lon="1.37219">
        <ele>542.41</ele>
        <time>2019-11-24T08:57:44.000Z</time>
      </trkpt>
      <trkpt lat="45.98791" lon="1.37234">
        <ele>542.33</ele>
        <time>2019-11-24T08:57:47.000Z</time>
      </trkpt>
      <trkpt lat="45.98797" lon="1.37249">
        <ele>542.13</ele>
        <time>2019-11-24T08:57:51.000Z</time>
      </trkpt>
      <trkpt lat="45.98802" lon="1.37262">
        <ele>541.9</ele>
        <time>2019-11-24T08:57:57.000Z</time>
      </trkpt>
      <trkpt lat="45.98811" lon="1.37272">
        <ele>541.7</ele>
        <time>2019-11-24T08:58:02.000Z</time>
      </trkpt>
      <trkpt lat="45.98816" lon="1.37283">
        <ele>541.37</ele>
        <time>2019-11-24T08:58:06.000Z</time>
      </trkpt>
      <trkpt lat="45.98819" lon="1.37298">
        <ele>540.86</ele>
        <time>2019-11-24T08:58:11.000Z</time>
      </trkpt>
      <trkpt lat="45.98826" lon="1.37308">
        <ele>540.51</ele>
        <time>2019-11-24T08:58:14.000Z</time>
      </trkpt>
      <trkpt lat="45.98837" lon="1.37321">
        <ele>539.62</ele>
        <time>2019-11-24T08:58:21.000Z</time>
      </trkpt>
      <trkpt lat="45.98844" lon="1.37328">
        <ele>539.96</ele>
        <time>2019-11-24T08:58:27.000Z</time>
      </trkpt>
      <trkpt lat="45.98855" lon="1.3734">
        <ele>540.99</ele>
        <time>2019-11-24T08:58:32.000Z</time>
      </trkpt>
      <trkpt lat="45.98862" lon="1.37349">
        <ele>542.06</ele>
        <time>2019-11-24T08:58:39.000Z</time>
      </trkpt>
      <trkpt lat="45.98869" lon="1.37358">
        <ele>542.39</ele>
        <time>2019-11-24T08:58:45.000Z</time>
      </trkpt>
      <trkpt lat="45.98878" lon="1.37365">
        <ele>542.8</ele>
        <time>2019-11-24T08:58:54.000Z</time>
      </trkpt>
      <trkpt lat="45.98888" lon="1.37365">
        <ele>543.96</ele>
        <time>2019-11-24T08:59:08.000Z</time>
      </trkpt>
      <trkpt lat="45.98897" lon="1.37362">
        <ele>545.96</ele>
        <time>2019-11-24T08:59:18.000Z</time>
      </trkpt>
      <trkpt lat="45.98907" lon="1.37362">
        <ele>547.43</ele>
        <time>2019-11-24T08:59:26.000Z</time>
      </trkpt>
      <trkpt lat="45.98916" lon="1.3736">
        <ele>548.38</ele>
        <time>2019-11-24T08:59:35.000Z</time>
      </trkpt>
      <trkpt lat="45.98924" lon="1.3735">
        <ele>548.85</ele>
        <time>2019-11-24T08:59:44.000Z</time>
      </trkpt>
      <trkpt lat="45.9893" lon="1.37338">
        <ele>549.66</ele>
        <time>2019-11-24T08:59:52.000Z</time>
      </trkpt>
      <trkpt lat="45.98935" lon="1.37325">
        <ele>550.15</ele>
        <time>2019-11-24T08:59:58.000Z</time>
      </trkpt>
      <trkpt lat="45.98941" lon="1.37315">
        <ele>550.28</ele>
        <time>2019-11-24T09:00:05.000Z</time>
      </trkpt>
      <trkpt lat="45.98952" lon="1.37312">
        <ele>550.42</ele>
        <time>2019-11-24T09:00:10.000Z</time>
      </trkpt>
      <trkpt lat="45.98962" lon="1.37312">
        <ele>550.54</ele>
        <time>2019-11-24T09:00:17.000Z</time>
      </trkpt>
      <trkpt lat="45.98971" lon="1.37312">
        <ele>550.66</ele>
        <time>2019-11-24T09:00:22.000Z</time>
      </trkpt>
      <trkpt lat="45.9898" lon="1.37313">
        <ele>550.71</ele>
        <time>2019-11-24T09:00:26.000Z</time>
      </trkpt>
      <trkpt lat="45.9899" lon="1.37312">
        <ele>550.57</ele>
        <time>2019-11-24T09:00:33.000Z</time>
      </trkpt>
      <trkpt lat="45.98999" lon="1.37308">
        <ele>550.54</ele>
        <time>2019-11-24T09:00:39.000Z</time>
      </trkpt>
      <trkpt lat="45.99008" lon="1.37306">
        <ele>551.34</ele>
        <time>2019-11-24T09:00:47.000Z</time>
      </trkpt>
      <trkpt lat="45.99018" lon="1.37305">
        <ele>552.23</ele>
        <time>2019-11-24T09:00:52.000Z</time>
      </trkpt>
      <trkpt lat="45.99027" lon="1.37306">
        <ele>553.2</ele>
        <time>2019-11-24T09:00:56.000Z</time>
      </trkpt>
      <trkpt lat="45.99037" lon="1.3731">
        <ele>553.82</ele>
        <time>2019-11-24T09:00:59.000Z</time>
      </trkpt>
      <trkpt lat="45.9905" lon="1.37316">
        <ele>554.45</ele>
        <time>2019-11-24T09:01:02.000Z</time>
      </trkpt>
      <trkpt lat="45.99059" lon="1.37327">
        <ele>555.1</ele>
        <time>2019-11-24T09:01:05.000Z</time>
      </trkpt>
      <trkpt lat="45.99067" lon="1.37334">
        <ele>555.33</ele>
        <time>2019-11-24T09:01:06.000Z</time>
      </trkpt>
      <trkpt lat="45.99076" lon="1.37345">
        <ele>555.9</ele>
        <time>2019-11-24T09:01:08.000Z</time>
      </trkpt>
      <trkpt lat="45.99082" lon="1.37358">
        <ele>556.48</ele>
        <time>2019-11-24T09:01:10.000Z</time>
      </trkpt>
      <trkpt lat="45.99094" lon="1.37364">
        <ele>561.69</ele>
        <time>2019-11-24T09:01:13.000Z</time>
      </trkpt>
      <trkpt lat="45.99108" lon="1.3736">
        <ele>564.48</ele>
        <time>2019-11-24T09:01:16.000Z</time>
      </trkpt>
      <trkpt lat="45.9912" lon="1.37356">
        <ele>565.1</ele>
        <time>2019-11-24T09:01:18.000Z</time>
      </trkpt>
      <trkpt lat="45.99132" lon="1.37354">
        <ele>565.72</ele>
        <time>2019-11-24T09:01:20.000Z</time>
      </trkpt>
      <trkpt lat="45.99141" lon="1.37359">
        <ele>566.08</ele>
        <time>2019-11-24T09:01:22.000Z</time>
      </trkpt>
      <trkpt lat="45.99151" lon="1.37366">
        <ele>566.02</ele>
        <time>2019-11-24T09:01:24.000Z</time>
      </trkpt>
      <trkpt lat="45.99164" lon="1.37379">
        <ele>564.9</ele>
        <time>2019-11-24T09:01:27.000Z</time>
      </trkpt>
      <trkpt lat="45.99171" lon="1.37388">
        <ele>562.93</ele>
        <time>2019-11-24T09:01:29.000Z</time>
      </trkpt>
      <trkpt lat="45.99179" lon="1.37394">
        <ele>561.78</ele>
        <time>2019-11-24T09:01:32.000Z</time>
      </trkpt>
      <trkpt lat="45.99191" lon="1.37398">
        <ele>561.52</ele>
        <time>2019-11-24T09:01:35.000Z</time>
      </trkpt>
      <trkpt lat="45.99201" lon="1.37402">
        <ele>561.55</ele>
        <time>2019-11-24T09:01:39.000Z</time>
      </trkpt>
      <trkpt lat="45.99211" lon="1.37403">
        <ele>561.75</ele>
        <time>2019-11-24T09:01:42.000Z</time>
      </trkpt>
      <trkpt lat="45.99222" lon="1.37407">
        <ele>562.19</ele>
        <time>2019-11-24T09:01:45.000Z</time>
      </trkpt>
      <trkpt lat="45.99232" lon="1.37411">
        <ele>563.25</ele>
        <time>2019-11-24T09:01:50.000Z</time>
      </trkpt>
      <trkpt lat="45.99243" lon="1.37413">
        <ele>564.45</ele>
        <time>2019-11-24T09:01:56.000Z</time>
      </trkpt>
      <trkpt lat="45.99253" lon="1.37416">
        <ele>566.52</ele>
        <time>2019-11-24T09:02:03.000Z</time>
      </trkpt>
      <trkpt lat="45.99263" lon="1.37411">
        <ele>568.01</ele>
        <time>2019-11-24T09:02:08.000Z</time>
      </trkpt>
      <trkpt lat="45.99273" lon="1.3741">
        <ele>569.13</ele>
        <time>2019-11-24T09:02:13.000Z</time>
      </trkpt>
      <trkpt lat="45.99283" lon="1.37411">
        <ele>569.85</ele>
        <time>2019-11-24T09:02:18.000Z</time>
      </trkpt>
      <trkpt lat="45.99292" lon="1.37415">
        <ele>570.46</ele>
        <time>2019-11-24T09:02:23.000Z</time>
      </trkpt>
      <trkpt lat="45.99302" lon="1.37417">
        <ele>570.84</ele>
        <time>2019-11-24T09:02:28.000Z</time>
      </trkpt>
      <trkpt lat="45.99311" lon="1.37421">
        <ele>571.68</ele>
        <time>2019-11-24T09:02:34.000Z</time>
      </trkpt>
      <trkpt lat="45.9932" lon="1.37425">
        <ele>572.41</ele>
        <time>2019-11-24T09:02:39.000Z</time>
      </trkpt>
      <trkpt lat="45.9933" lon="1.37424">
        <ele>573.48</ele>
        <time>2019-11-24T09:02:45.000Z</time>
      </trkpt>
      <trkpt lat="45.9934" lon="1.37422">
        <ele>574.53</ele>
        <time>2019-11-24T09:02:51.000Z</time>
      </trkpt>
      <trkpt lat="45.9935" lon="1.37418">
        <ele>575.26</ele>
        <time>2019-11-24T09:02:56.000Z</time>
      </trkpt>
      <trkpt lat="45.9936" lon="1.37414">
        <ele>575.9</ele>
        <time>2019-11-24T09:03:01.000Z</time>
      </trkpt>
      <trkpt lat="45.99369" lon="1.37411">
        <ele>576.51</ele>
        <time>2019-11-24T09:03:06.000Z</time>
      </trkpt>
      <trkpt lat="45.99377" lon="1.37403">
        <ele>576.57</ele>
        <time>2019-11-24T09:03:12.000Z</time>
      </trkpt>
      <trkpt lat="45.99375" lon="1.3739">
        <ele>576.64</ele>
        <time>2019-11-24T09:03:17.000Z</time>
      </trkpt>
      <trkpt lat="45.99373" lon="1.37376">
        <ele>576.85</ele>
        <time>2019-11-24T09:03:22.000Z</time>
      </trkpt>
      <trkpt lat="45.99373" lon="1.37361">
        <ele>577.14</ele>
        <time>2019-11-24T09:03:27.000Z</time>
      </trkpt>
      <trkpt lat="45.9937" lon="1.37347">
        <ele>577.42</ele>
        <time>2019-11-24T09:03:32.000Z</time>
      </trkpt>
      <trkpt lat="45.99367" lon="1.37334">
        <ele>577.79</ele>
        <time>2019-11-24T09:03:37.000Z</time>
      </trkpt>
      <trkpt lat="45.99364" lon="1.37319">
        <ele>578.25</ele>
        <time>2019-11-24T09:03:43.000Z</time>
      </trkpt>
      <trkpt lat="45.99361" lon="1.37305">
        <ele>578.63</ele>
        <time>2019-11-24T09:03:48.000Z</time>
      </trkpt>
      <trkpt lat="45.99356" lon="1.37294">
        <ele>578.92</ele>
        <time>2019-11-24T09:03:52.000Z</time>
      </trkpt>
      <trkpt lat="45.99349" lon="1.37283">
        <ele>579.47</ele>
        <time>2019-11-24T09:03:57.000Z</time>
      </trkpt>
      <trkpt lat="45.99343" lon="1.37271">
        <ele>580.3</ele>
        <time>2019-11-24T09:04:03.000Z</time>
      </trkpt>
      <trkpt lat="45.99339" lon="1.37255">
        <ele>581.06</ele>
        <time>2019-11-24T09:04:08.000Z</time>
      </trkpt>
      <trkpt lat="45.99337" lon="1.3724">
        <ele>581.41</ele>
        <time>2019-11-24T09:04:12.000Z</time>
      </trkpt>
      <trkpt lat="45.99337" lon="1.37224">
        <ele>581.49</ele>
        <time>2019-11-24T09:04:16.000Z</time>
      </trkpt>
      <trkpt lat="45.99338" lon="1.3721">
        <ele>581.42</ele>
        <time>2019-11-24T09:04:19.000Z</time>
      </trkpt>
      <trkpt lat="45.99339" lon="1.37195">
        <ele>581.1</ele>
        <time>2019-11-24T09:04:22.000Z</time>
      </trkpt>
      <trkpt lat="45.99341" lon="1.37182">
        <ele>581.3</ele>
        <time>2019-11-24T09:04:25.000Z</time>
      </trkpt>
      <trkpt lat="45.99344" lon="1.37164">
        <ele>583.79</ele>
        <time>2019-11-24T09:04:29.000Z</time>
      </trkpt>
      <trkpt lat="45.99344" lon="1.37147">
        <ele>584.32</ele>
        <time>2019-11-24T09:04:32.000Z</time>
      </trkpt>
      <trkpt lat="45.99345" lon="1.37132">
        <ele>584.06</ele>
        <time>2019-11-24T09:04:34.000Z</time>
      </trkpt>
      <trkpt lat="45.99343" lon="1.37115">
        <ele>582.06</ele>
        <time>2019-11-24T09:04:37.000Z</time>
      </trkpt>
      <trkpt lat="45.99342" lon="1.37099">
        <ele>581.29</ele>
        <time>2019-11-24T09:04:40.000Z</time>
      </trkpt>
      <trkpt lat="45.99339" lon="1.37083">
        <ele>580.97</ele>
        <time>2019-11-24T09:04:43.000Z</time>
      </trkpt>
      <trkpt lat="45.99336" lon="1.37064">
        <ele>581.42</ele>
        <time>2019-11-24T09:04:46.000Z</time>
      </trkpt>
      <trkpt lat="45.99334" lon="1.37046">
        <ele>583.99</ele>
        <time>2019-11-24T09:04:49.000Z</time>
      </trkpt>
      <trkpt lat="45.9933" lon="1.37028">
        <ele>584.94</ele>
        <time>2019-11-24T09:04:52.000Z</time>
      </trkpt>
      <trkpt lat="45.99326" lon="1.37011">
        <ele>584.72</ele>
        <time>2019-11-24T09:04:55.000Z</time>
      </trkpt>
      <trkpt lat="45.99322" lon="1.36993">
        <ele>584.69</ele>
        <time>2019-11-24T09:04:58.000Z</time>
      </trkpt>
      <trkpt lat="45.99317" lon="1.36977">
        <ele>585.66</ele>
        <time>2019-11-24T09:05:01.000Z</time>
      </trkpt>
      <trkpt lat="45.99312" lon="1.36961">
        <ele>586.71</ele>
        <time>2019-11-24T09:05:04.000Z</time>
      </trkpt>
      <trkpt lat="45.99307" lon="1.36946">
        <ele>587.41</ele>
        <time>2019-11-24T09:05:07.000Z</time>
      </trkpt>
      <trkpt lat="45.99303" lon="1.36931">
        <ele>587.51</ele>
        <time>2019-11-24T09:05:10.000Z</time>
      </trkpt>
      <trkpt lat="45.993" lon="1.36918">
        <ele>588.74</ele>
        <time>2019-11-24T09:05:12.000Z</time>
      </trkpt>
      <trkpt lat="45.99296" lon="1.36905">
        <ele>588.93</ele>
        <time>2019-11-24T09:05:15.000Z</time>
      </trkpt>
      <trkpt lat="45.99285" lon="1.36903">
        <ele>589.48</ele>
        <time>2019-11-24T09:05:26.000Z</time>
      </trkpt>
      <trkpt lat="45.99276" lon="1.36895">
        <ele>589.52</ele>
        <time>2019-11-24T09:05:29.000Z</time>
      </trkpt>
      <trkpt lat="45.99267" lon="1.3689">
        <ele>589.49</ele>
        <time>2019-11-24T09:05:31.000Z</time>
      </trkpt>
      <trkpt lat="45.99259" lon="1.36881">
        <ele>589.07</ele>
        <time>2019-11-24T09:05:33.000Z</time>
      </trkpt>
      <trkpt lat="45.99253" lon="1.3687">
        <ele>588.99</ele>
        <time>2019-11-24T09:05:35.000Z</time>
      </trkpt>
      <trkpt lat="45.99243" lon="1.36857">
        <ele>588.79</ele>
        <time>2019-11-24T09:05:38.000Z</time>
      </trkpt>
      <trkpt lat="45.99236" lon="1.36849">
        <ele>588.73</ele>
        <time>2019-11-24T09:05:40.000Z</time>
      </trkpt>
      <trkpt lat="45.99228" lon="1.36837">
        <ele>588.73</ele>
        <time>2019-11-24T09:05:43.000Z</time>
      </trkpt>
      <trkpt lat="45.99221" lon="1.36829">
        <ele>588.74</ele>
        <time>2019-11-24T09:05:46.000Z</time>
      </trkpt>
      <trkpt lat="45.99211" lon="1.3682">
        <ele>588.63</ele>
        <time>2019-11-24T09:05:49.000Z</time>
      </trkpt>
      <trkpt lat="45.992" lon="1.36811">
        <ele>588.46</ele>
        <time>2019-11-24T09:05:52.000Z</time>
      </trkpt>
      <trkpt lat="45.99191" lon="1.368">
        <ele>588.39</ele>
        <time>2019-11-24T09:05:55.000Z</time>
      </trkpt>
      <trkpt lat="45.99181" lon="1.36791">
        <ele>588.51</ele>
        <time>2019-11-24T09:05:58.000Z</time>
      </trkpt>
      <trkpt lat="45.9917" lon="1.36787">
        <ele>588.8</ele>
        <time>2019-11-24T09:06:02.000Z</time>
      </trkpt>
      <trkpt lat="45.99159" lon="1.36783">
        <ele>589.16</ele>
        <time>2019-11-24T09:06:06.000Z</time>
      </trkpt>
      <trkpt lat="45.99149" lon="1.36776">
        <ele>589.5</ele>
        <time>2019-11-24T09:06:10.000Z</time>
      </trkpt>
      <trkpt lat="45.99141" lon="1.36767">
        <ele>589.87</ele>
        <time>2019-11-24T09:06:14.000Z</time>
      </trkpt>
      <trkpt lat="45.99134" lon="1.36757">
        <ele>590.27</ele>
        <time>2019-11-24T09:06:18.000Z</time>
      </trkpt>
      <trkpt lat="45.99129" lon="1.36746">
        <ele>590.5</ele>
        <time>2019-11-24T09:06:21.000Z</time>
      </trkpt>
      <trkpt lat="45.99122" lon="1.36735">
        <ele>590.79</ele>
        <time>2019-11-24T09:06:25.000Z</time>
      </trkpt>
      <trkpt lat="45.99112" lon="1.3673">
        <ele>591.18</ele>
        <time>2019-11-24T09:06:29.000Z</time>
      </trkpt>
      <trkpt lat="45.99102" lon="1.36724">
        <ele>591.57</ele>
        <time>2019-11-24T09:06:34.000Z</time>
      </trkpt>
      <trkpt lat="45.99093" lon="1.36719">
        <ele>592.38</ele>
        <time>2019-11-24T09:06:40.000Z</time>
      </trkpt>
      <trkpt lat="45.99084" lon="1.36723">
        <ele>593.32</ele>
        <time>2019-11-24T09:06:45.000Z</time>
      </trkpt>
      <trkpt lat="45.99075" lon="1.36727">
        <ele>594.13</ele>
        <time>2019-11-24T09:06:50.000Z</time>
      </trkpt>
      <trkpt lat="45.99064" lon="1.36731">
        <ele>594.72</ele>
        <time>2019-11-24T09:06:54.000Z</time>
      </trkpt>
      <trkpt lat="45.99054" lon="1.3673">
        <ele>595.52</ele>
        <time>2019-11-24T09:07:00.000Z</time>
      </trkpt>
      <trkpt lat="45.99045" lon="1.36723">
        <ele>596.06</ele>
        <time>2019-11-24T09:07:05.000Z</time>
      </trkpt>
      <trkpt lat="45.99035" lon="1.36718">
        <ele>596.46</ele>
        <time>2019-11-24T09:07:11.000Z</time>
      </trkpt>
      <trkpt lat="45.99026" lon="1.36712">
        <ele>597.06</ele>
        <time>2019-11-24T09:07:17.000Z</time>
      </trkpt>
      <trkpt lat="45.99018" lon="1.36707">
        <ele>598.06</ele>
        <time>2019-11-24T09:07:24.000Z</time>
      </trkpt>
      <trkpt lat="45.99008" lon="1.36703">
        <ele>599.44</ele>
        <time>2019-11-24T09:07:32.000Z</time>
      </trkpt>
      <trkpt lat="45.99" lon="1.36694">
        <ele>600.62</ele>
        <time>2019-11-24T09:07:39.000Z</time>
      </trkpt>
      <trkpt lat="45.98989" lon="1.36686">
        <ele>601.62</ele>
        <time>2019-11-24T09:07:44.000Z</time>
      </trkpt>
      <trkpt lat="45.9898" lon="1.3668">
        <ele>602.36</ele>
        <time>2019-11-24T09:07:49.000Z</time>
      </trkpt>
      <trkpt lat="45.98972" lon="1.36673">
        <ele>603.26</ele>
        <time>2019-11-24T09:07:55.000Z</time>
      </trkpt>
      <trkpt lat="45.98964" lon="1.36667">
        <ele>604.1</ele>
        <time>2019-11-24T09:08:01.000Z</time>
      </trkpt>
      <trkpt lat="45.98957" lon="1.36659">
        <ele>604.93</ele>
        <time>2019-11-24T09:08:07.000Z</time>
      </trkpt>
      <trkpt lat="45.98949" lon="1.36651">
        <ele>605.7</ele>
        <time>2019-11-24T09:08:12.000Z</time>
      </trkpt>
      <trkpt lat="45.98942" lon="1.36638">
        <ele>606.53</ele>
        <time>2019-11-24T09:08:17.000Z</time>
      </trkpt>
      <trkpt lat="45.98934" lon="1.36629">
        <ele>607.04</ele>
        <time>2019-11-24T09:08:21.000Z</time>
      </trkpt>
      <trkpt lat="45.98928" lon="1.3662">
        <ele>607.65</ele>
        <time>2019-11-24T09:08:26.000Z</time>
      </trkpt>
      <trkpt lat="45.98917" lon="1.36617">
        <ele>608.36</ele>
        <time>2019-11-24T09:08:32.000Z</time>
      </trkpt>
      <trkpt lat="45.98907" lon="1.36618">
        <ele>608.72</ele>
        <time>2019-11-24T09:08:36.000Z</time>
      </trkpt>
      <trkpt lat="45.98897" lon="1.36617">
        <ele>609.07</ele>
        <time>2019-11-24T09:08:40.000Z</time>
      </trkpt>
      <trkpt lat="45.98887" lon="1.36612">
        <ele>610.28</ele>
        <time>2019-11-24T09:08:47.000Z</time>
      </trkpt>
      <trkpt lat="45.9888" lon="1.36603">
        <ele>610.54</ele>
        <time>2019-11-24T09:08:52.000Z</time>
      </trkpt>
      <trkpt lat="45.98885" lon="1.36591">
        <ele>611.11</ele>
        <time>2019-11-24T09:09:00.000Z</time>
      </trkpt>
      <trkpt lat="45.98897" lon="1.36591">
        <ele>611.27</ele>
        <time>2019-11-24T09:09:04.000Z</time>
      </trkpt>
      <trkpt lat="45.98907" lon="1.36591">
        <ele>611.46</ele>
        <time>2019-11-24T09:09:07.000Z</time>
      </trkpt>
      <trkpt lat="45.98916" lon="1.36592">
        <ele>612.17</ele>
        <time>2019-11-24T09:09:09.000Z</time>
      </trkpt>
      <trkpt lat="45.98927" lon="1.36595">
        <ele>612.44</ele>
        <time>2019-11-24T09:09:12.000Z</time>
      </trkpt>
      <trkpt lat="45.98937" lon="1.366">
        <ele>612.8</ele>
        <time>2019-11-24T09:09:15.000Z</time>
      </trkpt>
      <trkpt lat="45.98948" lon="1.36608">
        <ele>613.04</ele>
        <time>2019-11-24T09:09:19.000Z</time>
      </trkpt>
      <trkpt lat="45.98957" lon="1.36613">
        <ele>613.55</ele>
        <time>2019-11-24T09:09:23.000Z</time>
      </trkpt>
      <trkpt lat="45.98958" lon="1.36599">
        <ele>614.43</ele>
        <time>2019-11-24T09:09:34.000Z</time>
      </trkpt>
      <trkpt lat="45.98953" lon="1.36585">
        <ele>614.62</ele>
        <time>2019-11-24T09:09:38.000Z</time>
      </trkpt>
      <trkpt lat="45.98949" lon="1.36569">
        <ele>614.79</ele>
        <time>2019-11-24T09:09:42.000Z</time>
      </trkpt>
      <trkpt lat="45.98946" lon="1.36557">
        <ele>615</ele>
        <time>2019-11-24T09:09:45.000Z</time>
      </trkpt>
      <trkpt lat="45.98943" lon="1.36544">
        <ele>615.27</ele>
        <time>2019-11-24T09:09:48.000Z</time>
      </trkpt>
      <trkpt lat="45.98939" lon="1.36531">
        <ele>615.58</ele>
        <time>2019-11-24T09:09:51.000Z</time>
      </trkpt>
      <trkpt lat="45.98935" lon="1.36518">
        <ele>615.94</ele>
        <time>2019-11-24T09:09:54.000Z</time>
      </trkpt>
      <trkpt lat="45.98929" lon="1.36507">
        <ele>617.54</ele>
        <time>2019-11-24T09:09:56.000Z</time>
      </trkpt>
      <trkpt lat="45.98922" lon="1.36496">
        <ele>617.94</ele>
        <time>2019-11-24T09:09:58.000Z</time>
      </trkpt>
      <trkpt lat="45.98918" lon="1.36481">
        <ele>618.09</ele>
        <time>2019-11-24T09:10:00.000Z</time>
      </trkpt>
      <trkpt lat="45.98916" lon="1.36466">
        <ele>618.1</ele>
        <time>2019-11-24T09:10:02.000Z</time>
      </trkpt>
      <trkpt lat="45.98916" lon="1.36446">
        <ele>618.17</ele>
        <time>2019-11-24T09:10:05.000Z</time>
      </trkpt>
      <trkpt lat="45.98917" lon="1.3643">
        <ele>618.57</ele>
        <time>2019-11-24T09:10:07.000Z</time>
      </trkpt>
      <trkpt lat="45.98918" lon="1.36417">
        <ele>618.72</ele>
        <time>2019-11-24T09:10:09.000Z</time>
      </trkpt>
      <trkpt lat="45.98919" lon="1.36402">
        <ele>618.57</ele>
        <time>2019-11-24T09:10:11.000Z</time>
      </trkpt>
      <trkpt lat="45.98921" lon="1.36383">
        <ele>618.41</ele>
        <time>2019-11-24T09:10:14.000Z</time>
      </trkpt>
      <trkpt lat="45.98922" lon="1.36369">
        <ele>618.51</ele>
        <time>2019-11-24T09:10:16.000Z</time>
      </trkpt>
      <trkpt lat="45.98921" lon="1.36352">
        <ele>619.05</ele>
        <time>2019-11-24T09:10:19.000Z</time>
      </trkpt>
      <trkpt lat="45.98918" lon="1.36338">
        <ele>619.98</ele>
        <time>2019-11-24T09:10:21.000Z</time>
      </trkpt>
      <trkpt lat="45.98917" lon="1.3632">
        <ele>620.39</ele>
        <time>2019-11-24T09:10:23.000Z</time>
      </trkpt>
      <trkpt lat="45.98914" lon="1.36302">
        <ele>619.43</ele>
        <time>2019-11-24T09:10:25.000Z</time>
      </trkpt>
      <trkpt lat="45.98911" lon="1.36288">
        <ele>618.36</ele>
        <time>2019-11-24T09:10:27.000Z</time>
      </trkpt>
      <trkpt lat="45.98906" lon="1.36274">
        <ele>617.3</ele>
        <time>2019-11-24T09:10:29.000Z</time>
      </trkpt>
      <trkpt lat="45.98902" lon="1.36254">
        <ele>616.3</ele>
        <time>2019-11-24T09:10:31.000Z</time>
      </trkpt>
      <trkpt lat="45.98898" lon="1.36237">
        <ele>615.28</ele>
        <time>2019-11-24T09:10:33.000Z</time>
      </trkpt>
      <trkpt lat="45.98893" lon="1.36221">
        <ele>614.34</ele>
        <time>2019-11-24T09:10:35.000Z</time>
      </trkpt>
      <trkpt lat="45.98889" lon="1.36208">
        <ele>613.62</ele>
        <time>2019-11-24T09:10:37.000Z</time>
      </trkpt>
      <trkpt lat="45.98884" lon="1.36195">
        <ele>612.68</ele>
        <time>2019-11-24T09:10:39.000Z</time>
      </trkpt>
      <trkpt lat="45.98878" lon="1.36183">
        <ele>611.78</ele>
        <time>2019-11-24T09:10:41.000Z</time>
      </trkpt>
      <trkpt lat="45.98867" lon="1.36166">
        <ele>610.26</ele>
        <time>2019-11-24T09:10:44.000Z</time>
      </trkpt>
      <trkpt lat="45.98861" lon="1.36155">
        <ele>609.13</ele>
        <time>2019-11-24T09:10:46.000Z</time>
      </trkpt>
      <trkpt lat="45.98851" lon="1.36142">
        <ele>607.65</ele>
        <time>2019-11-24T09:10:49.000Z</time>
      </trkpt>
      <trkpt lat="45.98848" lon="1.36128">
        <ele>606.95</ele>
        <time>2019-11-24T09:10:51.000Z</time>
      </trkpt>
      <trkpt lat="45.98845" lon="1.36114">
        <ele>606.39</ele>
        <time>2019-11-24T09:10:53.000Z</time>
      </trkpt>
      <trkpt lat="45.98839" lon="1.361">
        <ele>606.47</ele>
        <time>2019-11-24T09:10:55.000Z</time>
      </trkpt>
      <trkpt lat="45.98831" lon="1.36086">
        <ele>606.11</ele>
        <time>2019-11-24T09:10:57.000Z</time>
      </trkpt>
      <trkpt lat="45.9883" lon="1.36069">
        <ele>606.21</ele>
        <time>2019-11-24T09:10:59.000Z</time>
      </trkpt>
      <trkpt lat="45.98834" lon="1.36054">
        <ele>606.73</ele>
        <time>2019-11-24T09:11:01.000Z</time>
      </trkpt>
      <trkpt lat="45.98841" lon="1.36042">
        <ele>606.84</ele>
        <time>2019-11-24T09:11:04.000Z</time>
      </trkpt>
      <trkpt lat="45.98853" lon="1.36037">
        <ele>607.42</ele>
        <time>2019-11-24T09:11:07.000Z</time>
      </trkpt>
      <trkpt lat="45.98862" lon="1.36032">
        <ele>606.86</ele>
        <time>2019-11-24T09:11:09.000Z</time>
      </trkpt>
      <trkpt lat="45.98871" lon="1.36029">
        <ele>605.8</ele>
        <time>2019-11-24T09:11:11.000Z</time>
      </trkpt>
      <trkpt lat="45.98883" lon="1.36021">
        <ele>604.17</ele>
        <time>2019-11-24T09:11:14.000Z</time>
      </trkpt>
      <trkpt lat="45.98896" lon="1.36013">
        <ele>602.55</ele>
        <time>2019-11-24T09:11:17.000Z</time>
      </trkpt>
      <trkpt lat="45.98908" lon="1.36007">
        <ele>602.03</ele>
        <time>2019-11-24T09:11:20.000Z</time>
      </trkpt>
      <trkpt lat="45.98915" lon="1.35998">
        <ele>601.92</ele>
        <time>2019-11-24T09:11:25.000Z</time>
      </trkpt>
      <trkpt lat="45.98922" lon="1.35988">
        <ele>602.3</ele>
        <time>2019-11-24T09:11:32.000Z</time>
      </trkpt>
      <trkpt lat="45.9893" lon="1.35977">
        <ele>602.9</ele>
        <time>2019-11-24T09:11:36.000Z</time>
      </trkpt>
      <trkpt lat="45.98937" lon="1.35969">
        <ele>603.52</ele>
        <time>2019-11-24T09:11:40.000Z</time>
      </trkpt>
      <trkpt lat="45.98945" lon="1.35963">
        <ele>604.27</ele>
        <time>2019-11-24T09:11:45.000Z</time>
      </trkpt>
      <trkpt lat="45.98955" lon="1.35958">
        <ele>604.81</ele>
        <time>2019-11-24T09:11:48.000Z</time>
      </trkpt>
      <trkpt lat="45.98964" lon="1.35953">
        <ele>605.47</ele>
        <time>2019-11-24T09:11:51.000Z</time>
      </trkpt>
      <trkpt lat="45.98973" lon="1.35953">
        <ele>606.12</ele>
        <time>2019-11-24T09:11:55.000Z</time>
      </trkpt>
      <trkpt lat="45.98984" lon="1.35956">
        <ele>607.09</ele>
        <time>2019-11-24T09:12:01.000Z</time>
      </trkpt>
      <trkpt lat="45.98993" lon="1.35959">
        <ele>607.72</ele>
        <time>2019-11-24T09:12:05.000Z</time>
      </trkpt>
      <trkpt lat="45.99003" lon="1.3596">
        <ele>608.08</ele>
        <time>2019-11-24T09:12:09.000Z</time>
      </trkpt>
      <trkpt lat="45.99013" lon="1.35964">
        <ele>608.47</ele>
        <time>2019-11-24T09:12:14.000Z</time>
      </trkpt>
      <trkpt lat="45.99023" lon="1.35966">
        <ele>609.02</ele>
        <time>2019-11-24T09:12:18.000Z</time>
      </trkpt>
      <trkpt lat="45.99033" lon="1.35968">
        <ele>609.63</ele>
        <time>2019-11-24T09:12:22.000Z</time>
      </trkpt>
      <trkpt lat="45.99043" lon="1.35972">
        <ele>610.82</ele>
        <time>2019-11-24T09:12:28.000Z</time>
      </trkpt>
      <trkpt lat="45.99054" lon="1.35974">
        <ele>612.4</ele>
        <time>2019-11-24T09:12:34.000Z</time>
      </trkpt>
      <trkpt lat="45.99063" lon="1.35973">
        <ele>613.28</ele>
        <time>2019-11-24T09:12:38.000Z</time>
      </trkpt>
      <trkpt lat="45.99073" lon="1.3597">
        <ele>614.08</ele>
        <time>2019-11-24T09:12:42.000Z</time>
      </trkpt>
      <trkpt lat="45.99083" lon="1.35965">
        <ele>614.12</ele>
        <time>2019-11-24T09:12:45.000Z</time>
      </trkpt>
      <trkpt lat="45.99096" lon="1.35961">
        <ele>613.9</ele>
        <time>2019-11-24T09:12:47.000Z</time>
      </trkpt>
      <trkpt lat="45.99107" lon="1.35969">
        <ele>613.78</ele>
        <time>2019-11-24T09:12:49.000Z</time>
      </trkpt>
      <trkpt lat="45.99121" lon="1.35973">
        <ele>613.59</ele>
        <time>2019-11-24T09:12:51.000Z</time>
      </trkpt>
      <trkpt lat="45.99131" lon="1.35973">
        <ele>613.62</ele>
        <time>2019-11-24T09:12:53.000Z</time>
      </trkpt>
      <trkpt lat="45.99143" lon="1.35971">
        <ele>613.67</ele>
        <time>2019-11-24T09:12:55.000Z</time>
      </trkpt>
      <trkpt lat="45.99155" lon="1.35973">
        <ele>613.6</ele>
        <time>2019-11-24T09:12:57.000Z</time>
      </trkpt>
      <trkpt lat="45.99166" lon="1.35973">
        <ele>613.46</ele>
        <time>2019-11-24T09:12:59.000Z</time>
      </trkpt>
      <trkpt lat="45.99177" lon="1.35978">
        <ele>613.84</ele>
        <time>2019-11-24T09:13:01.000Z</time>
      </trkpt>
      <trkpt lat="45.99187" lon="1.3598">
        <ele>614.71</ele>
        <time>2019-11-24T09:13:03.000Z</time>
      </trkpt>
      <trkpt lat="45.99197" lon="1.35983">
        <ele>615.22</ele>
        <time>2019-11-24T09:13:05.000Z</time>
      </trkpt>
      <trkpt lat="45.99206" lon="1.35986">
        <ele>616.22</ele>
        <time>2019-11-24T09:13:07.000Z</time>
      </trkpt>
      <trkpt lat="45.99216" lon="1.3599">
        <ele>616.35</ele>
        <time>2019-11-24T09:13:09.000Z</time>
      </trkpt>
      <trkpt lat="45.99228" lon="1.35993">
        <ele>616.05</ele>
        <time>2019-11-24T09:13:12.000Z</time>
      </trkpt>
      <trkpt lat="45.99232" lon="1.35977">
        <ele>615.49</ele>
        <time>2019-11-24T09:13:15.000Z</time>
      </trkpt>
      <trkpt lat="45.99227" lon="1.35962">
        <ele>614.33</ele>
        <time>2019-11-24T09:13:17.000Z</time>
      </trkpt>
      <trkpt lat="45.99225" lon="1.35945">
        <ele>613.06</ele>
        <time>2019-11-24T09:13:19.000Z</time>
      </trkpt>
      <trkpt lat="45.99225" lon="1.35927">
        <ele>611.97</ele>
        <time>2019-11-24T09:13:21.000Z</time>
      </trkpt>
      <trkpt lat="45.99225" lon="1.35906">
        <ele>610.66</ele>
        <time>2019-11-24T09:13:23.000Z</time>
      </trkpt>
      <trkpt lat="45.99225" lon="1.35886">
        <ele>609.87</ele>
        <time>2019-11-24T09:13:25.000Z</time>
      </trkpt>
      <trkpt lat="45.99226" lon="1.35865">
        <ele>608.95</ele>
        <time>2019-11-24T09:13:27.000Z</time>
      </trkpt>
      <trkpt lat="45.99224" lon="1.35845">
        <ele>608.29</ele>
        <time>2019-11-24T09:13:29.000Z</time>
      </trkpt>
      <trkpt lat="45.99224" lon="1.35828">
        <ele>607.7</ele>
        <time>2019-11-24T09:13:31.000Z</time>
      </trkpt>
      <trkpt lat="45.99231" lon="1.35817">
        <ele>607.64</ele>
        <time>2019-11-24T09:13:34.000Z</time>
      </trkpt>
      <trkpt lat="45.99241" lon="1.35818">
        <ele>607.53</ele>
        <time>2019-11-24T09:13:37.000Z</time>
      </trkpt>
      <trkpt lat="45.99254" lon="1.35821">
        <ele>607.96</ele>
        <time>2019-11-24T09:13:40.000Z</time>
      </trkpt>
      <trkpt lat="45.99263" lon="1.35829">
        <ele>608.46</ele>
        <time>2019-11-24T09:13:42.000Z</time>
      </trkpt>
      <trkpt lat="45.99272" lon="1.35839">
        <ele>608.67</ele>
        <time>2019-11-24T09:13:44.000Z</time>
      </trkpt>
      <trkpt lat="45.99281" lon="1.35851">
        <ele>608.8</ele>
        <time>2019-11-24T09:13:47.000Z</time>
      </trkpt>
      <trkpt lat="45.99286" lon="1.35863">
        <ele>608.83</ele>
        <time>2019-11-24T09:13:49.000Z</time>
      </trkpt>
      <trkpt lat="45.99294" lon="1.35877">
        <ele>608.66</ele>
        <time>2019-11-24T09:13:51.000Z</time>
      </trkpt>
      <trkpt lat="45.99302" lon="1.35891">
        <ele>608.92</ele>
        <time>2019-11-24T09:13:53.000Z</time>
      </trkpt>
      <trkpt lat="45.99304" lon="1.35907">
        <ele>609.26</ele>
        <time>2019-11-24T09:13:55.000Z</time>
      </trkpt>
      <trkpt lat="45.99302" lon="1.35926">
        <ele>609.44</ele>
        <time>2019-11-24T09:13:58.000Z</time>
      </trkpt>
      <trkpt lat="45.9931" lon="1.35939">
        <ele>609.48</ele>
        <time>2019-11-24T09:14:01.000Z</time>
      </trkpt>
      <trkpt lat="45.99321" lon="1.35943">
        <ele>609.15</ele>
        <time>2019-11-24T09:14:03.000Z</time>
      </trkpt>
      <trkpt lat="45.99335" lon="1.35942">
        <ele>608.18</ele>
        <time>2019-11-24T09:14:05.000Z</time>
      </trkpt>
      <trkpt lat="45.99345" lon="1.35941">
        <ele>608.04</ele>
        <time>2019-11-24T09:14:07.000Z</time>
      </trkpt>
      <trkpt lat="45.99357" lon="1.35941">
        <ele>607.89</ele>
        <time>2019-11-24T09:14:09.000Z</time>
      </trkpt>
      <trkpt lat="45.99369" lon="1.35942">
        <ele>607.72</ele>
        <time>2019-11-24T09:14:11.000Z</time>
      </trkpt>
      <trkpt lat="45.99379" lon="1.35946">
        <ele>606.69</ele>
        <time>2019-11-24T09:14:13.000Z</time>
      </trkpt>
      <trkpt lat="45.99388" lon="1.35953">
        <ele>606.3</ele>
        <time>2019-11-24T09:14:15.000Z</time>
      </trkpt>
      <trkpt lat="45.99389" lon="1.35937">
        <ele>603.06</ele>
        <time>2019-11-24T09:14:20.000Z</time>
      </trkpt>
      <trkpt lat="45.994" lon="1.35932">
        <ele>601.98</ele>
        <time>2019-11-24T09:14:24.000Z</time>
      </trkpt>
      <trkpt lat="45.99413" lon="1.35933">
        <ele>601.37</ele>
        <time>2019-11-24T09:14:26.000Z</time>
      </trkpt>
      <trkpt lat="45.99423" lon="1.35937">
        <ele>600.09</ele>
        <time>2019-11-24T09:14:30.000Z</time>
      </trkpt>
      <trkpt lat="45.99429" lon="1.35947">
        <ele>599.12</ele>
        <time>2019-11-24T09:14:33.000Z</time>
      </trkpt>
      <trkpt lat="45.99438" lon="1.35956">
        <ele>597.99</ele>
        <time>2019-11-24T09:14:36.000Z</time>
      </trkpt>
      <trkpt lat="45.99446" lon="1.3597">
        <ele>596.43</ele>
        <time>2019-11-24T09:14:39.000Z</time>
      </trkpt>
      <trkpt lat="45.99454" lon="1.3598">
        <ele>594.71</ele>
        <time>2019-11-24T09:14:42.000Z</time>
      </trkpt>
      <trkpt lat="45.99459" lon="1.35993">
        <ele>592.08</ele>
        <time>2019-11-24T09:14:47.000Z</time>
      </trkpt>
      <trkpt lat="45.99462" lon="1.36009">
        <ele>590.56</ele>
        <time>2019-11-24T09:14:50.000Z</time>
      </trkpt>
      <trkpt lat="45.99467" lon="1.36021">
        <ele>588.04</ele>
        <time>2019-11-24T09:14:55.000Z</time>
      </trkpt>
      <trkpt lat="45.99473" lon="1.36031">
        <ele>586.83</ele>
        <time>2019-11-24T09:14:58.000Z</time>
      </trkpt>
      <trkpt lat="45.9948" lon="1.3604">
        <ele>586.18</ele>
        <time>2019-11-24T09:15:00.000Z</time>
      </trkpt>
      <trkpt lat="45.99487" lon="1.36049">
        <ele>585.27</ele>
        <time>2019-11-24T09:15:03.000Z</time>
      </trkpt>
      <trkpt lat="45.99499" lon="1.36062">
        <ele>584.16</ele>
        <time>2019-11-24T09:15:06.000Z</time>
      </trkpt>
      <trkpt lat="45.99509" lon="1.36076">
        <ele>583.58</ele>
        <time>2019-11-24T09:15:08.000Z</time>
      </trkpt>
      <trkpt lat="45.99514" lon="1.36092">
        <ele>583.04</ele>
        <time>2019-11-24T09:15:11.000Z</time>
      </trkpt>
      <trkpt lat="45.99514" lon="1.36109">
        <ele>582.65</ele>
        <time>2019-11-24T09:15:14.000Z</time>
      </trkpt>
      <trkpt lat="45.99515" lon="1.36123">
        <ele>582.91</ele>
        <time>2019-11-24T09:15:16.000Z</time>
      </trkpt>
      <trkpt lat="45.99517" lon="1.36141">
        <ele>584.36</ele>
        <time>2019-11-24T09:15:19.000Z</time>
      </trkpt>
      <trkpt lat="45.99518" lon="1.36158">
        <ele>585.65</ele>
        <time>2019-11-24T09:15:22.000Z</time>
      </trkpt>
      <trkpt lat="45.9952" lon="1.36177">
        <ele>587.27</ele>
        <time>2019-11-24T09:15:25.000Z</time>
      </trkpt>
      <trkpt lat="45.99522" lon="1.36195">
        <ele>587.35</ele>
        <time>2019-11-24T09:15:28.000Z</time>
      </trkpt>
      <trkpt lat="45.99523" lon="1.36209">
        <ele>587.43</ele>
        <time>2019-11-24T09:15:31.000Z</time>
      </trkpt>
      <trkpt lat="45.99522" lon="1.36223">
        <ele>587.49</ele>
        <time>2019-11-24T09:15:35.000Z</time>
      </trkpt>
      <trkpt lat="45.99531" lon="1.36222">
        <ele>582.99</ele>
        <time>2019-11-24T09:15:38.000Z</time>
      </trkpt>
      <trkpt lat="45.9954" lon="1.36221">
        <ele>581.22</ele>
        <time>2019-11-24T09:15:40.000Z</time>
      </trkpt>
      <trkpt lat="45.99553" lon="1.36214">
        <ele>580.25</ele>
        <time>2019-11-24T09:15:42.000Z</time>
      </trkpt>
      <trkpt lat="45.99571" lon="1.36207">
        <ele>578.28</ele>
        <time>2019-11-24T09:15:44.000Z</time>
      </trkpt>
      <trkpt lat="45.9958" lon="1.36199">
        <ele>576.95</ele>
        <time>2019-11-24T09:15:46.000Z</time>
      </trkpt>
      <trkpt lat="45.9959" lon="1.3619">
        <ele>575.44</ele>
        <time>2019-11-24T09:15:49.000Z</time>
      </trkpt>
      <trkpt lat="45.99598" lon="1.36184">
        <ele>575.11</ele>
        <time>2019-11-24T09:15:52.000Z</time>
      </trkpt>
      <trkpt lat="45.99606" lon="1.36175">
        <ele>574.82</ele>
        <time>2019-11-24T09:15:55.000Z</time>
      </trkpt>
      <trkpt lat="45.99615" lon="1.36162">
        <ele>574.56</ele>
        <time>2019-11-24T09:15:58.000Z</time>
      </trkpt>
      <trkpt lat="45.99624" lon="1.36153">
        <ele>574.13</ele>
        <time>2019-11-24T09:16:01.000Z</time>
      </trkpt>
      <trkpt lat="45.99631" lon="1.36141">
        <ele>574.12</ele>
        <time>2019-11-24T09:16:04.000Z</time>
      </trkpt>
      <trkpt lat="45.99638" lon="1.36133">
        <ele>574.1</ele>
        <time>2019-11-24T09:16:07.000Z</time>
      </trkpt>
      <trkpt lat="45.99643" lon="1.36121">
        <ele>574.16</ele>
        <time>2019-11-24T09:16:09.000Z</time>
      </trkpt>
      <trkpt lat="45.99646" lon="1.36109">
        <ele>574.27</ele>
        <time>2019-11-24T09:16:11.000Z</time>
      </trkpt>
      <trkpt lat="45.99648" lon="1.36094">
        <ele>575.4</ele>
        <time>2019-11-24T09:16:13.000Z</time>
      </trkpt>
      <trkpt lat="45.9965" lon="1.36077">
        <ele>576.48</ele>
        <time>2019-11-24T09:16:16.000Z</time>
      </trkpt>
      <trkpt lat="45.99645" lon="1.36062">
        <ele>576.62</ele>
        <time>2019-11-24T09:16:20.000Z</time>
      </trkpt>
      <trkpt lat="45.99637" lon="1.36054">
        <ele>576.69</ele>
        <time>2019-11-24T09:16:23.000Z</time>
      </trkpt>
      <trkpt lat="45.99631" lon="1.3604">
        <ele>576.88</ele>
        <time>2019-11-24T09:16:27.000Z</time>
      </trkpt>
      <trkpt lat="45.99632" lon="1.36027">
        <ele>576.88</ele>
        <time>2019-11-24T09:16:36.000Z</time>
      </trkpt>
      <trkpt lat="45.99639" lon="1.36016">
        <ele>576.96</ele>
        <time>2019-11-24T09:16:44.000Z</time>
      </trkpt>
      <trkpt lat="45.99649" lon="1.36014">
        <ele>577.51</ele>
        <time>2019-11-24T09:16:50.000Z</time>
      </trkpt>
      <trkpt lat="45.99658" lon="1.36015">
        <ele>577.87</ele>
        <time>2019-11-24T09:16:54.000Z</time>
      </trkpt>
      <trkpt lat="45.99667" lon="1.36011">
        <ele>578.76</ele>
        <time>2019-11-24T09:17:00.000Z</time>
      </trkpt>
      <trkpt lat="45.99677" lon="1.36011">
        <ele>579.25</ele>
        <time>2019-11-24T09:17:04.000Z</time>
      </trkpt>
      <trkpt lat="45.99688" lon="1.36011">
        <ele>580.24</ele>
        <time>2019-11-24T09:17:12.000Z</time>
      </trkpt>
      <trkpt lat="45.99697" lon="1.36008">
        <ele>581.35</ele>
        <time>2019-11-24T09:17:18.000Z</time>
      </trkpt>
      <trkpt lat="45.99707" lon="1.36005">
        <ele>582.17</ele>
        <time>2019-11-24T09:17:23.000Z</time>
      </trkpt>
      <trkpt lat="45.99717" lon="1.36002">
        <ele>582.84</ele>
        <time>2019-11-24T09:17:28.000Z</time>
      </trkpt>
      <trkpt lat="45.99726" lon="1.36001">
        <ele>583.52</ele>
        <time>2019-11-24T09:17:35.000Z</time>
      </trkpt>
      <trkpt lat="45.99735" lon="1.35999">
        <ele>583.49</ele>
        <time>2019-11-24T09:17:38.000Z</time>
      </trkpt>
      <trkpt lat="45.99744" lon="1.35993">
        <ele>583.46</ele>
        <time>2019-11-24T09:17:42.000Z</time>
      </trkpt>
      <trkpt lat="45.99755" lon="1.35992">
        <ele>583.32</ele>
        <time>2019-11-24T09:17:45.000Z</time>
      </trkpt>
      <trkpt lat="45.99767" lon="1.35999">
        <ele>583.22</ele>
        <time>2019-11-24T09:17:48.000Z</time>
      </trkpt>
      <trkpt lat="45.99776" lon="1.36004">
        <ele>583.07</ele>
        <time>2019-11-24T09:17:51.000Z</time>
      </trkpt>
      <trkpt lat="45.99789" lon="1.36009">
        <ele>582.98</ele>
        <time>2019-11-24T09:17:56.000Z</time>
      </trkpt>
      <trkpt lat="45.99796" lon="1.36018">
        <ele>582.87</ele>
        <time>2019-11-24T09:17:58.000Z</time>
      </trkpt>
      <trkpt lat="45.99803" lon="1.36028">
        <ele>582.8</ele>
        <time>2019-11-24T09:18:00.000Z</time>
      </trkpt>
      <trkpt lat="45.99808" lon="1.36041">
        <ele>582.37</ele>
        <time>2019-11-24T09:18:03.000Z</time>
      </trkpt>
      <trkpt lat="45.99815" lon="1.36053">
        <ele>581.83</ele>
        <time>2019-11-24T09:18:06.000Z</time>
      </trkpt>
      <trkpt lat="45.99817" lon="1.36069">
        <ele>580.61</ele>
        <time>2019-11-24T09:18:11.000Z</time>
      </trkpt>
      <trkpt lat="45.99818" lon="1.36084">
        <ele>577.82</ele>
        <time>2019-11-24T09:18:14.000Z</time>
      </trkpt>
      <trkpt lat="45.99819" lon="1.36099">
        <ele>577.42</ele>
        <time>2019-11-24T09:18:17.000Z</time>
      </trkpt>
      <trkpt lat="45.99818" lon="1.36117">
        <ele>577.29</ele>
        <time>2019-11-24T09:18:19.000Z</time>
      </trkpt>
      <trkpt lat="45.99817" lon="1.36137">
        <ele>577.64</ele>
        <time>2019-11-24T09:18:22.000Z</time>
      </trkpt>
      <trkpt lat="45.99813" lon="1.36149">
        <ele>578.44</ele>
        <time>2019-11-24T09:18:25.000Z</time>
      </trkpt>
      <trkpt lat="45.99805" lon="1.3616">
        <ele>579.47</ele>
        <time>2019-11-24T09:18:28.000Z</time>
      </trkpt>
      <trkpt lat="45.99798" lon="1.36169">
        <ele>580</ele>
        <time>2019-11-24T09:18:30.000Z</time>
      </trkpt>
      <trkpt lat="45.99792" lon="1.3618">
        <ele>580.68</ele>
        <time>2019-11-24T09:18:33.000Z</time>
      </trkpt>
      <trkpt lat="45.99787" lon="1.36191">
        <ele>582.24</ele>
        <time>2019-11-24T09:18:39.000Z</time>
      </trkpt>
      <trkpt lat="45.9979" lon="1.36204">
        <ele>583.79</ele>
        <time>2019-11-24T09:18:46.000Z</time>
      </trkpt>
      <trkpt lat="45.99789" lon="1.3622">
        <ele>584.72</ele>
        <time>2019-11-24T09:18:50.000Z</time>
      </trkpt>
      <trkpt lat="45.9979" lon="1.36234">
        <ele>585.71</ele>
        <time>2019-11-24T09:18:54.000Z</time>
      </trkpt>
      <trkpt lat="45.99791" lon="1.36249">
        <ele>587.14</ele>
        <time>2019-11-24T09:18:59.000Z</time>
      </trkpt>
      <trkpt lat="45.99793" lon="1.36262">
        <ele>588.23</ele>
        <time>2019-11-24T09:19:03.000Z</time>
      </trkpt>
      <trkpt lat="45.99792" lon="1.36276">
        <ele>589.21</ele>
        <time>2019-11-24T09:19:07.000Z</time>
      </trkpt>
      <trkpt lat="45.99786" lon="1.36288">
        <ele>589.66</ele>
        <time>2019-11-24T09:19:11.000Z</time>
      </trkpt>
      <trkpt lat="45.99781" lon="1.36302">
        <ele>589.62</ele>
        <time>2019-11-24T09:19:15.000Z</time>
      </trkpt>
      <trkpt lat="45.99779" lon="1.36315">
        <ele>589.59</ele>
        <time>2019-11-24T09:19:20.000Z</time>
      </trkpt>
      <trkpt lat="45.99781" lon="1.36328">
        <ele>589.71</ele>
        <time>2019-11-24T09:19:24.000Z</time>
      </trkpt>
      <trkpt lat="45.99776" lon="1.36343">
        <ele>589.69</ele>
        <time>2019-11-24T09:19:27.000Z</time>
      </trkpt>
      <trkpt lat="45.99773" lon="1.36355">
        <ele>589.81</ele>
        <time>2019-11-24T09:19:31.000Z</time>
      </trkpt>
      <trkpt lat="45.99771" lon="1.36369">
        <ele>590.32</ele>
        <time>2019-11-24T09:19:34.000Z</time>
      </trkpt>
      <trkpt lat="45.99773" lon="1.36382">
        <ele>591.2</ele>
        <time>2019-11-24T09:19:38.000Z</time>
      </trkpt>
      <trkpt lat="45.99775" lon="1.36395">
        <ele>592.28</ele>
        <time>2019-11-24T09:19:41.000Z</time>
      </trkpt>
      <trkpt lat="45.99777" lon="1.36412">
        <ele>593.54</ele>
        <time>2019-11-24T09:19:45.000Z</time>
      </trkpt>
      <trkpt lat="45.99781" lon="1.36424">
        <ele>594.44</ele>
        <time>2019-11-24T09:19:49.000Z</time>
      </trkpt>
      <trkpt lat="45.99783" lon="1.36438">
        <ele>595.44</ele>
        <time>2019-11-24T09:19:55.000Z</time>
      </trkpt>
      <trkpt lat="45.99792" lon="1.36446">
        <ele>596.76</ele>
        <time>2019-11-24T09:20:01.000Z</time>
      </trkpt>
      <trkpt lat="45.99801" lon="1.36452">
        <ele>598.45</ele>
        <time>2019-11-24T09:20:14.000Z</time>
      </trkpt>
      <trkpt lat="45.99809" lon="1.36437">
        <ele>599.24</ele>
        <time>2019-11-24T09:20:21.000Z</time>
      </trkpt>
      <trkpt lat="45.99814" lon="1.36426">
        <ele>599.62</ele>
        <time>2019-11-24T09:20:25.000Z</time>
      </trkpt>
      <trkpt lat="45.99824" lon="1.36423">
        <ele>599.82</ele>
        <time>2019-11-24T09:20:33.000Z</time>
      </trkpt>
      <trkpt lat="45.99834" lon="1.36425">
        <ele>601.08</ele>
        <time>2019-11-24T09:20:47.000Z</time>
      </trkpt>
      <trkpt lat="45.99843" lon="1.36415">
        <ele>602.79</ele>
        <time>2019-11-24T09:20:55.000Z</time>
      </trkpt>
      <trkpt lat="45.99849" lon="1.36402">
        <ele>603.68</ele>
        <time>2019-11-24T09:20:59.000Z</time>
      </trkpt>
      <trkpt lat="45.99856" lon="1.36388">
        <ele>604.86</ele>
        <time>2019-11-24T09:21:04.000Z</time>
      </trkpt>
      <trkpt lat="45.99866" lon="1.36384">
        <ele>606.19</ele>
        <time>2019-11-24T09:21:10.000Z</time>
      </trkpt>
      <trkpt lat="45.99875" lon="1.36383">
        <ele>606.76</ele>
        <time>2019-11-24T09:21:14.000Z</time>
      </trkpt>
      <trkpt lat="45.99884" lon="1.3638">
        <ele>608.34</ele>
        <time>2019-11-24T09:21:21.000Z</time>
      </trkpt>
      <trkpt lat="45.99891" lon="1.36369">
        <ele>609.53</ele>
        <time>2019-11-24T09:21:27.000Z</time>
      </trkpt>
      <trkpt lat="45.99898" lon="1.36359">
        <ele>610.38</ele>
        <time>2019-11-24T09:21:32.000Z</time>
      </trkpt>
      <trkpt lat="45.99909" lon="1.36354">
        <ele>611.58</ele>
        <time>2019-11-24T09:21:37.000Z</time>
      </trkpt>
      <trkpt lat="45.99919" lon="1.36354">
        <ele>612.79</ele>
        <time>2019-11-24T09:21:41.000Z</time>
      </trkpt>
      <trkpt lat="45.99929" lon="1.36357">
        <ele>613.68</ele>
        <time>2019-11-24T09:21:47.000Z</time>
      </trkpt>
      <trkpt lat="45.9994" lon="1.36358">
        <ele>613.88</ele>
        <time>2019-11-24T09:21:50.000Z</time>
      </trkpt>
      <trkpt lat="45.99948" lon="1.36364">
        <ele>614.19</ele>
        <time>2019-11-24T09:21:53.000Z</time>
      </trkpt>
      <trkpt lat="45.99958" lon="1.36369">
        <ele>615.18</ele>
        <time>2019-11-24T09:22:00.000Z</time>
      </trkpt>
      <trkpt lat="45.99968" lon="1.36375">
        <ele>615.93</ele>
        <time>2019-11-24T09:22:05.000Z</time>
      </trkpt>
      <trkpt lat="45.99977" lon="1.36377">
        <ele>616.98</ele>
        <time>2019-11-24T09:22:11.000Z</time>
      </trkpt>
      <trkpt lat="45.99988" lon="1.36384">
        <ele>617.75</ele>
        <time>2019-11-24T09:22:14.000Z</time>
      </trkpt>
      <trkpt lat="45.99996" lon="1.36389">
        <ele>618.4</ele>
        <time>2019-11-24T09:22:17.000Z</time>
      </trkpt>
      <trkpt lat="46.00006" lon="1.36395">
        <ele>618.92</ele>
        <time>2019-11-24T09:22:20.000Z</time>
      </trkpt>
      <trkpt lat="46.00016" lon="1.36385">
        <ele>619.35</ele>
        <time>2019-11-24T09:22:25.000Z</time>
      </trkpt>
      <trkpt lat="46.00023" lon="1.36374">
        <ele>619.52</ele>
        <time>2019-11-24T09:22:28.000Z</time>
      </trkpt>
      <trkpt lat="46.00027" lon="1.36361">
        <ele>619.63</ele>
        <time>2019-11-24T09:22:32.000Z</time>
      </trkpt>
      <trkpt lat="46.00027" lon="1.36346">
        <ele>619.64</ele>
        <time>2019-11-24T09:22:36.000Z</time>
      </trkpt>
      <trkpt lat="46.00025" lon="1.36332">
        <ele>619.66</ele>
        <time>2019-11-24T09:22:39.000Z</time>
      </trkpt>
      <trkpt lat="46.0002" lon="1.36316">
        <ele>619.79</ele>
        <time>2019-11-24T09:22:43.000Z</time>
      </trkpt>
      <trkpt lat="46.00026" lon="1.36305">
        <ele>619.76</ele>
        <time>2019-11-24T09:22:47.000Z</time>
      </trkpt>
      <trkpt lat="46.00034" lon="1.36297">
        <ele>619.53</ele>
        <time>2019-11-24T09:22:50.000Z</time>
      </trkpt>
      <trkpt lat="46.00043" lon="1.36291">
        <ele>619.37</ele>
        <time>2019-11-24T09:22:54.000Z</time>
      </trkpt>
      <trkpt lat="46.00053" lon="1.36295">
        <ele>619.32</ele>
        <time>2019-11-24T09:22:58.000Z</time>
      </trkpt>
      <trkpt lat="46.00065" lon="1.36298">
        <ele>619.02</ele>
        <time>2019-11-24T09:23:03.000Z</time>
      </trkpt>
      <trkpt lat="46.00073" lon="1.36302">
        <ele>618.77</ele>
        <time>2019-11-24T09:23:07.000Z</time>
      </trkpt>
      <trkpt lat="46.00083" lon="1.363">
        <ele>618.76</ele>
        <time>2019-11-24T09:23:10.000Z</time>
      </trkpt>
      <trkpt lat="46.00093" lon="1.36296">
        <ele>618.84</ele>
        <time>2019-11-24T09:23:12.000Z</time>
      </trkpt>
      <trkpt lat="46.00102" lon="1.36288">
        <ele>618.9</ele>
        <time>2019-11-24T09:23:15.000Z</time>
      </trkpt>
      <trkpt lat="46.00108" lon="1.36278">
        <ele>618.91</ele>
        <time>2019-11-24T09:23:17.000Z</time>
      </trkpt>
      <trkpt lat="46.00112" lon="1.36265">
        <ele>619.55</ele>
        <time>2019-11-24T09:23:19.000Z</time>
      </trkpt>
      <trkpt lat="46.00124" lon="1.36265">
        <ele>619.54</ele>
        <time>2019-11-24T09:23:22.000Z</time>
      </trkpt>
      <trkpt lat="46.00135" lon="1.36274">
        <ele>619.52</ele>
        <time>2019-11-24T09:23:25.000Z</time>
      </trkpt>
      <trkpt lat="46.00144" lon="1.36276">
        <ele>619.43</ele>
        <time>2019-11-24T09:23:27.000Z</time>
      </trkpt>
      <trkpt lat="46.00157" lon="1.36279">
        <ele>619.15</ele>
        <time>2019-11-24T09:23:30.000Z</time>
      </trkpt>
      <trkpt lat="46.00164" lon="1.36287">
        <ele>618.73</ele>
        <time>2019-11-24T09:23:37.000Z</time>
      </trkpt>
      <trkpt lat="46.00172" lon="1.36298">
        <ele>617.87</ele>
        <time>2019-11-24T09:23:42.000Z</time>
      </trkpt>
      <trkpt lat="46.00174" lon="1.36313">
        <ele>617.38</ele>
        <time>2019-11-24T09:23:46.000Z</time>
      </trkpt>
      <trkpt lat="46.00173" lon="1.36327">
        <ele>616.64</ele>
        <time>2019-11-24T09:24:00.000Z</time>
      </trkpt>
      <trkpt lat="46.00177" lon="1.3634">
        <ele>616.7</ele>
        <time>2019-11-24T09:24:07.000Z</time>
      </trkpt>
      <trkpt lat="46.00177" lon="1.36353">
        <ele>616.67</ele>
        <time>2019-11-24T09:24:12.000Z</time>
      </trkpt>
      <trkpt lat="46.00174" lon="1.36368">
        <ele>615.75</ele>
        <time>2019-11-24T09:24:19.000Z</time>
      </trkpt>
      <trkpt lat="46.00181" lon="1.36377">
        <ele>614.63</ele>
        <time>2019-11-24T09:24:26.000Z</time>
      </trkpt>
      <trkpt lat="46.00191" lon="1.36383">
        <ele>614.01</ele>
        <time>2019-11-24T09:24:33.000Z</time>
      </trkpt>
      <trkpt lat="46.00202" lon="1.36387">
        <ele>613.61</ele>
        <time>2019-11-24T09:24:39.000Z</time>
      </trkpt>
      <trkpt lat="46.00211" lon="1.36393">
        <ele>613.17</ele>
        <time>2019-11-24T09:24:43.000Z</time>
      </trkpt>
      <trkpt lat="46.0022" lon="1.36399">
        <ele>612.88</ele>
        <time>2019-11-24T09:24:46.000Z</time>
      </trkpt>
      <trkpt lat="46.00218" lon="1.36413">
        <ele>612.26</ele>
        <time>2019-11-24T09:24:51.000Z</time>
      </trkpt>
      <trkpt lat="46.00217" lon="1.36427">
        <ele>611.74</ele>
        <time>2019-11-24T09:24:56.000Z</time>
      </trkpt>
      <trkpt lat="46.00218" lon="1.36441">
        <ele>611.54</ele>
        <time>2019-11-24T09:25:02.000Z</time>
      </trkpt>
      <trkpt lat="46.00229" lon="1.36438">
        <ele>612.23</ele>
        <time>2019-11-24T09:25:11.000Z</time>
      </trkpt>
      <trkpt lat="46.00237" lon="1.36433">
        <ele>612.7</ele>
        <time>2019-11-24T09:25:14.000Z</time>
      </trkpt>
      <trkpt lat="46.00247" lon="1.36433">
        <ele>613.25</ele>
        <time>2019-11-24T09:25:17.000Z</time>
      </trkpt>
      <trkpt lat="46.00257" lon="1.36438">
        <ele>613.45</ele>
        <time>2019-11-24T09:25:19.000Z</time>
      </trkpt>
      <trkpt lat="46.00266" lon="1.36446">
        <ele>614.05</ele>
        <time>2019-11-24T09:25:22.000Z</time>
      </trkpt>
      <trkpt lat="46.00267" lon="1.3646">
        <ele>614.49</ele>
        <time>2019-11-24T09:25:25.000Z</time>
      </trkpt>
      <trkpt lat="46.00269" lon="1.36473">
        <ele>614.92</ele>
        <time>2019-11-24T09:25:28.000Z</time>
      </trkpt>
      <trkpt lat="46.00273" lon="1.36486">
        <ele>615.49</ele>
        <time>2019-11-24T09:25:31.000Z</time>
      </trkpt>
      <trkpt lat="46.0028" lon="1.36494">
        <ele>616.33</ele>
        <time>2019-11-24T09:25:35.000Z</time>
      </trkpt>
      <trkpt lat="46.00289" lon="1.36505">
        <ele>616.84</ele>
        <time>2019-11-24T09:25:39.000Z</time>
      </trkpt>
      <trkpt lat="46.003" lon="1.36504">
        <ele>617.19</ele>
        <time>2019-11-24T09:25:45.000Z</time>
      </trkpt>
      <trkpt lat="46.00305" lon="1.36493">
        <ele>617.28</ele>
        <time>2019-11-24T09:25:48.000Z</time>
      </trkpt>
      <trkpt lat="46.00309" lon="1.36479">
        <ele>617.02</ele>
        <time>2019-11-24T09:25:50.000Z</time>
      </trkpt>
      <trkpt lat="46.00314" lon="1.36464">
        <ele>616.86</ele>
        <time>2019-11-24T09:25:52.000Z</time>
      </trkpt>
      <trkpt lat="46.0032" lon="1.36451">
        <ele>616.84</ele>
        <time>2019-11-24T09:25:54.000Z</time>
      </trkpt>
      <trkpt lat="46.00326" lon="1.36441">
        <ele>616.67</ele>
        <time>2019-11-24T09:25:59.000Z</time>
      </trkpt>
      <trkpt lat="46.00336" lon="1.36434">
        <ele>616.52</ele>
        <time>2019-11-24T09:26:01.000Z</time>
      </trkpt>
      <trkpt lat="46.00347" lon="1.36434">
        <ele>616.31</ele>
        <time>2019-11-24T09:26:04.000Z</time>
      </trkpt>
      <trkpt lat="46.00356" lon="1.36437">
        <ele>616.22</ele>
        <time>2019-11-24T09:26:07.000Z</time>
      </trkpt>
      <trkpt lat="46.00366" lon="1.3645">
        <ele>617.14</ele>
        <time>2019-11-24T09:26:09.000Z</time>
      </trkpt>
      <trkpt lat="46.00374" lon="1.36463">
        <ele>618.21</ele>
        <time>2019-11-24T09:26:12.000Z</time>
      </trkpt>
      <trkpt lat="46.00379" lon="1.36474">
        <ele>618.47</ele>
        <time>2019-11-24T09:26:14.000Z</time>
      </trkpt>
      <trkpt lat="46.00385" lon="1.36488">
        <ele>618.82</ele>
        <time>2019-11-24T09:26:16.000Z</time>
      </trkpt>
      <trkpt lat="46.00388" lon="1.36505">
        <ele>621.42</ele>
        <time>2019-11-24T09:26:18.000Z</time>
      </trkpt>
      <trkpt lat="46.00387" lon="1.36527">
        <ele>623.69</ele>
        <time>2019-11-24T09:26:20.000Z</time>
      </trkpt>
      <trkpt lat="46.00387" lon="1.3654">
        <ele>624.17</ele>
        <time>2019-11-24T09:26:21.000Z</time>
      </trkpt>
      <trkpt lat="46.00384" lon="1.36567">
        <ele>623.51</ele>
        <time>2019-11-24T09:26:23.000Z</time>
      </trkpt>
      <trkpt lat="46.00381" lon="1.36582">
        <ele>622.07</ele>
        <time>2019-11-24T09:26:24.000Z</time>
      </trkpt>
      <trkpt lat="46.00382" lon="1.36597">
        <ele>620.56</ele>
        <time>2019-11-24T09:26:26.000Z</time>
      </trkpt>
      <trkpt lat="46.00377" lon="1.36624">
        <ele>619.95</ele>
        <time>2019-11-24T09:26:28.000Z</time>
      </trkpt>
      <trkpt lat="46.00375" lon="1.3664">
        <ele>619.28</ele>
        <time>2019-11-24T09:26:29.000Z</time>
      </trkpt>
      <trkpt lat="46.00371" lon="1.36661">
        <ele>617.91</ele>
        <time>2019-11-24T09:26:31.000Z</time>
      </trkpt>
      <trkpt lat="46.00367" lon="1.36683">
        <ele>616.56</ele>
        <time>2019-11-24T09:26:33.000Z</time>
      </trkpt>
      <trkpt lat="46.00366" lon="1.36696">
        <ele>615.35</ele>
        <time>2019-11-24T09:26:34.000Z</time>
      </trkpt>
      <trkpt lat="46.00365" lon="1.3671">
        <ele>614.49</ele>
        <time>2019-11-24T09:26:35.000Z</time>
      </trkpt>
      <trkpt lat="46.00361" lon="1.3673">
        <ele>613.06</ele>
        <time>2019-11-24T09:26:37.000Z</time>
      </trkpt>
      <trkpt lat="46.00358" lon="1.3675">
        <ele>612.85</ele>
        <time>2019-11-24T09:26:39.000Z</time>
      </trkpt>
      <trkpt lat="46.00352" lon="1.36775">
        <ele>611.38</ele>
        <time>2019-11-24T09:26:41.000Z</time>
      </trkpt>
      <trkpt lat="46.00348" lon="1.36787">
        <ele>610.81</ele>
        <time>2019-11-24T09:26:42.000Z</time>
      </trkpt>
      <trkpt lat="46.00345" lon="1.36807">
        <ele>609.34</ele>
        <time>2019-11-24T09:26:44.000Z</time>
      </trkpt>
      <trkpt lat="46.00341" lon="1.36829">
        <ele>605.78</ele>
        <time>2019-11-24T09:26:46.000Z</time>
      </trkpt>
      <trkpt lat="46.00338" lon="1.36852">
        <ele>602.76</ele>
        <time>2019-11-24T09:26:48.000Z</time>
      </trkpt>
      <trkpt lat="46.00337" lon="1.36876">
        <ele>599.97</ele>
        <time>2019-11-24T09:26:50.000Z</time>
      </trkpt>
      <trkpt lat="46.00336" lon="1.36897">
        <ele>598.69</ele>
        <time>2019-11-24T09:26:52.000Z</time>
      </trkpt>
      <trkpt lat="46.00336" lon="1.36882">
        <ele>593.23</ele>
        <time>2019-11-24T09:27:00.000Z</time>
      </trkpt>
      <trkpt lat="46.00342" lon="1.36869">
        <ele>589.48</ele>
        <time>2019-11-24T09:27:02.000Z</time>
      </trkpt>
      <trkpt lat="46.00349" lon="1.36853">
        <ele>586.44</ele>
        <time>2019-11-24T09:27:04.000Z</time>
      </trkpt>
      <trkpt lat="46.00355" lon="1.36838">
        <ele>584.24</ele>
        <time>2019-11-24T09:27:06.000Z</time>
      </trkpt>
      <trkpt lat="46.00363" lon="1.36826">
        <ele>583.1</ele>
        <time>2019-11-24T09:27:08.000Z</time>
      </trkpt>
      <trkpt lat="46.00374" lon="1.36811">
        <ele>581.97</ele>
        <time>2019-11-24T09:27:10.000Z</time>
      </trkpt>
      <trkpt lat="46.00381" lon="1.36803">
        <ele>580.92</ele>
        <time>2019-11-24T09:27:11.000Z</time>
      </trkpt>
      <trkpt lat="46.00388" lon="1.36794">
        <ele>580.33</ele>
        <time>2019-11-24T09:27:12.000Z</time>
      </trkpt>
      <trkpt lat="46.004" lon="1.36775">
        <ele>578.47</ele>
        <time>2019-11-24T09:27:14.000Z</time>
      </trkpt>
      <trkpt lat="46.00415" lon="1.36762">
        <ele>575.72</ele>
        <time>2019-11-24T09:27:16.000Z</time>
      </trkpt>
      <trkpt lat="46.0043" lon="1.36752">
        <ele>572.8</ele>
        <time>2019-11-24T09:27:18.000Z</time>
      </trkpt>
      <trkpt lat="46.00443" lon="1.36738">
        <ele>570.29</ele>
        <time>2019-11-24T09:27:20.000Z</time>
      </trkpt>
      <trkpt lat="46.00451" lon="1.36725">
        <ele>568.59</ele>
        <time>2019-11-24T09:27:22.000Z</time>
      </trkpt>
      <trkpt lat="46.00461" lon="1.36713">
        <ele>567.29</ele>
        <time>2019-11-24T09:27:24.000Z</time>
      </trkpt>
      <trkpt lat="46.00471" lon="1.36704">
        <ele>566.12</ele>
        <time>2019-11-24T09:27:26.000Z</time>
      </trkpt>
      <trkpt lat="46.00482" lon="1.36693">
        <ele>564.53</ele>
        <time>2019-11-24T09:27:28.000Z</time>
      </trkpt>
      <trkpt lat="46.00496" lon="1.36683">
        <ele>563.41</ele>
        <time>2019-11-24T09:27:30.000Z</time>
      </trkpt>
      <trkpt lat="46.00509" lon="1.36673">
        <ele>561.91</ele>
        <time>2019-11-24T09:27:32.000Z</time>
      </trkpt>
      <trkpt lat="46.00517" lon="1.36663">
        <ele>560.91</ele>
        <time>2019-11-24T09:27:34.000Z</time>
      </trkpt>
      <trkpt lat="46.00526" lon="1.36658">
        <ele>560.62</ele>
        <time>2019-11-24T09:27:37.000Z</time>
      </trkpt>
      <trkpt lat="46.00536" lon="1.36657">
        <ele>560.37</ele>
        <time>2019-11-24T09:27:39.000Z</time>
      </trkpt>
      <trkpt lat="46.00545" lon="1.36655">
        <ele>560.09</ele>
        <time>2019-11-24T09:27:41.000Z</time>
      </trkpt>
      <trkpt lat="46.00557" lon="1.36651">
        <ele>559.73</ele>
        <time>2019-11-24T09:27:44.000Z</time>
      </trkpt>
      <trkpt lat="46.00566" lon="1.36642">
        <ele>559.22</ele>
        <time>2019-11-24T09:27:47.000Z</time>
      </trkpt>
      <trkpt lat="46.00577" lon="1.36637">
        <ele>558.62</ele>
        <time>2019-11-24T09:27:50.000Z</time>
      </trkpt>
      <trkpt lat="46.00592" lon="1.36626">
        <ele>558.16</ele>
        <time>2019-11-24T09:27:52.000Z</time>
      </trkpt>
      <trkpt lat="46.00605" lon="1.36617">
        <ele>553.64</ele>
        <time>2019-11-24T09:27:54.000Z</time>
      </trkpt>
      <trkpt lat="46.00619" lon="1.36609">
        <ele>549.71</ele>
        <time>2019-11-24T09:27:56.000Z</time>
      </trkpt>
      <trkpt lat="46.00635" lon="1.36601">
        <ele>545.96</ele>
        <time>2019-11-24T09:27:58.000Z</time>
      </trkpt>
      <trkpt lat="46.00644" lon="1.36596">
        <ele>544.49</ele>
        <time>2019-11-24T09:27:59.000Z</time>
      </trkpt>
      <trkpt lat="46.00657" lon="1.36595">
        <ele>544.28</ele>
        <time>2019-11-24T09:28:01.000Z</time>
      </trkpt>
      <trkpt lat="46.0067" lon="1.36594">
        <ele>543.8</ele>
        <time>2019-11-24T09:28:04.000Z</time>
      </trkpt>
      <trkpt lat="46.00672" lon="1.36607">
        <ele>542.61</ele>
        <time>2019-11-24T09:28:08.000Z</time>
      </trkpt>
      <trkpt lat="46.00669" lon="1.36621">
        <ele>542.07</ele>
        <time>2019-11-24T09:28:10.000Z</time>
      </trkpt>
      <trkpt lat="46.00664" lon="1.36633">
        <ele>541.52</ele>
        <time>2019-11-24T09:28:12.000Z</time>
      </trkpt>
      <trkpt lat="46.00661" lon="1.36648">
        <ele>540.38</ele>
        <time>2019-11-24T09:28:16.000Z</time>
      </trkpt>
      <trkpt lat="46.00656" lon="1.36663">
        <ele>535.09</ele>
        <time>2019-11-24T09:28:18.000Z</time>
      </trkpt>
      <trkpt lat="46.00649" lon="1.36674">
        <ele>532.92</ele>
        <time>2019-11-24T09:28:20.000Z</time>
      </trkpt>
      <trkpt lat="46.00636" lon="1.36684">
        <ele>532</ele>
        <time>2019-11-24T09:28:22.000Z</time>
      </trkpt>
      <trkpt lat="46.00626" lon="1.36692">
        <ele>531.44</ele>
        <time>2019-11-24T09:28:24.000Z</time>
      </trkpt>
      <trkpt lat="46.00616" lon="1.36704">
        <ele>531.08</ele>
        <time>2019-11-24T09:28:27.000Z</time>
      </trkpt>
      <trkpt lat="46.00605" lon="1.36714">
        <ele>530.97</ele>
        <time>2019-11-24T09:28:30.000Z</time>
      </trkpt>
      <trkpt lat="46.00595" lon="1.36722">
        <ele>531.01</ele>
        <time>2019-11-24T09:28:33.000Z</time>
      </trkpt>
      <trkpt lat="46.00584" lon="1.3673">
        <ele>531.03</ele>
        <time>2019-11-24T09:28:36.000Z</time>
      </trkpt>
      <trkpt lat="46.00574" lon="1.36739">
        <ele>531.24</ele>
        <time>2019-11-24T09:28:40.000Z</time>
      </trkpt>
      <trkpt lat="46.00567" lon="1.36749">
        <ele>531.39</ele>
        <time>2019-11-24T09:28:44.000Z</time>
      </trkpt>
      <trkpt lat="46.00558" lon="1.36758">
        <ele>531.46</ele>
        <time>2019-11-24T09:28:48.000Z</time>
      </trkpt>
      <trkpt lat="46.00547" lon="1.36765">
        <ele>531.37</ele>
        <time>2019-11-24T09:28:51.000Z</time>
      </trkpt>
      <trkpt lat="46.00537" lon="1.36777">
        <ele>531.07</ele>
        <time>2019-11-24T09:28:55.000Z</time>
      </trkpt>
      <trkpt lat="46.00531" lon="1.36787">
        <ele>530.77</ele>
        <time>2019-11-24T09:28:57.000Z</time>
      </trkpt>
      <trkpt lat="46.00524" lon="1.36797">
        <ele>530.31</ele>
        <time>2019-11-24T09:29:00.000Z</time>
      </trkpt>
      <trkpt lat="46.00511" lon="1.36802">
        <ele>529.59</ele>
        <time>2019-11-24T09:29:04.000Z</time>
      </trkpt>
      <trkpt lat="46.00502" lon="1.36799">
        <ele>528.27</ele>
        <time>2019-11-24T09:29:09.000Z</time>
      </trkpt>
      <trkpt lat="46.00496" lon="1.36813">
        <ele>527.45</ele>
        <time>2019-11-24T09:29:12.000Z</time>
      </trkpt>
      <trkpt lat="46.00492" lon="1.36826">
        <ele>525.53</ele>
        <time>2019-11-24T09:29:14.000Z</time>
      </trkpt>
      <trkpt lat="46.00488" lon="1.3684">
        <ele>525.14</ele>
        <time>2019-11-24T09:29:17.000Z</time>
      </trkpt>
      <trkpt lat="46.00486" lon="1.36854">
        <ele>524.81</ele>
        <time>2019-11-24T09:29:20.000Z</time>
      </trkpt>
      <trkpt lat="46.00483" lon="1.36867">
        <ele>524.59</ele>
        <time>2019-11-24T09:29:22.000Z</time>
      </trkpt>
      <trkpt lat="46.00483" lon="1.36884">
        <ele>524.23</ele>
        <time>2019-11-24T09:29:25.000Z</time>
      </trkpt>
      <trkpt lat="46.00486" lon="1.36896">
        <ele>523.95</ele>
        <time>2019-11-24T09:29:28.000Z</time>
      </trkpt>
      <trkpt lat="46.00492" lon="1.36909">
        <ele>524.62</ele>
        <time>2019-11-24T09:29:36.000Z</time>
      </trkpt>
      <trkpt lat="46.00492" lon="1.36926">
        <ele>525.7</ele>
        <time>2019-11-24T09:29:41.000Z</time>
      </trkpt>
      <trkpt lat="46.00491" lon="1.36941">
        <ele>526.7</ele>
        <time>2019-11-24T09:29:45.000Z</time>
      </trkpt>
      <trkpt lat="46.00488" lon="1.36959">
        <ele>527.93</ele>
        <time>2019-11-24T09:29:49.000Z</time>
      </trkpt>
      <trkpt lat="46.00487" lon="1.36975">
        <ele>528.93</ele>
        <time>2019-11-24T09:29:53.000Z</time>
      </trkpt>
      <trkpt lat="46.00481" lon="1.36989">
        <ele>529.31</ele>
        <time>2019-11-24T09:29:56.000Z</time>
      </trkpt>
      <trkpt lat="46.00471" lon="1.36993">
        <ele>530.77</ele>
        <time>2019-11-24T09:30:06.000Z</time>
      </trkpt>
      <trkpt lat="46.00474" lon="1.37006">
        <ele>530.75</ele>
        <time>2019-11-24T09:30:11.000Z</time>
      </trkpt>
      <trkpt lat="46.00472" lon="1.3702">
        <ele>530.41</ele>
        <time>2019-11-24T09:30:15.000Z</time>
      </trkpt>
      <trkpt lat="46.00464" lon="1.37028">
        <ele>528.77</ele>
        <time>2019-11-24T09:30:25.000Z</time>
      </trkpt>
      <trkpt lat="46.00464" lon="1.37041">
        <ele>524.55</ele>
        <time>2019-11-24T09:31:08.000Z</time>
      </trkpt>
      <trkpt lat="46.00459" lon="1.37054">
        <ele>524.64</ele>
        <time>2019-11-24T09:31:17.000Z</time>
      </trkpt>
      <trkpt lat="46.00456" lon="1.37068">
        <ele>524.96</ele>
        <time>2019-11-24T09:31:22.000Z</time>
      </trkpt>
      <trkpt lat="46.00451" lon="1.3708">
        <ele>525.7</ele>
        <time>2019-11-24T09:31:28.000Z</time>
      </trkpt>
      <trkpt lat="46.00447" lon="1.37092">
        <ele>526.37</ele>
        <time>2019-11-24T09:31:33.000Z</time>
      </trkpt>
      <trkpt lat="46.0044" lon="1.37105">
        <ele>527.45</ele>
        <time>2019-11-24T09:31:39.000Z</time>
      </trkpt>
      <trkpt lat="46.00438" lon="1.37119">
        <ele>527.59</ele>
        <time>2019-11-24T09:31:44.000Z</time>
      </trkpt>
      <trkpt lat="46.00434" lon="1.37133">
        <ele>527.75</ele>
        <time>2019-11-24T09:31:52.000Z</time>
      </trkpt>
      <trkpt lat="46.0043" lon="1.37146">
        <ele>528.13</ele>
        <time>2019-11-24T09:31:57.000Z</time>
      </trkpt>
      <trkpt lat="46.00426" lon="1.37161">
        <ele>528.94</ele>
        <time>2019-11-24T09:32:03.000Z</time>
      </trkpt>
      <trkpt lat="46.00419" lon="1.3717">
        <ele>529.39</ele>
        <time>2019-11-24T09:32:06.000Z</time>
      </trkpt>
      <trkpt lat="46.00403" lon="1.37174">
        <ele>530.76</ele>
        <time>2019-11-24T09:32:11.000Z</time>
      </trkpt>
      <trkpt lat="46.00396" lon="1.37184">
        <ele>532.02</ele>
        <time>2019-11-24T09:32:15.000Z</time>
      </trkpt>
      <trkpt lat="46.00389" lon="1.37194">
        <ele>532.77</ele>
        <time>2019-11-24T09:32:19.000Z</time>
      </trkpt>
      <trkpt lat="46.00383" lon="1.37206">
        <ele>533.31</ele>
        <time>2019-11-24T09:32:23.000Z</time>
      </trkpt>
      <trkpt lat="46.00377" lon="1.37217">
        <ele>533.69</ele>
        <time>2019-11-24T09:32:27.000Z</time>
      </trkpt>
      <trkpt lat="46.00372" lon="1.37229">
        <ele>534.25</ele>
        <time>2019-11-24T09:32:33.000Z</time>
      </trkpt>
      <trkpt lat="46.00367" lon="1.37241">
        <ele>535.33</ele>
        <time>2019-11-24T09:32:39.000Z</time>
      </trkpt>
      <trkpt lat="46.00362" lon="1.37254">
        <ele>536.49</ele>
        <time>2019-11-24T09:32:44.000Z</time>
      </trkpt>
      <trkpt lat="46.00355" lon="1.37263">
        <ele>537.42</ele>
        <time>2019-11-24T09:32:49.000Z</time>
      </trkpt>
      <trkpt lat="46.00347" lon="1.3727">
        <ele>538.02</ele>
        <time>2019-11-24T09:32:53.000Z</time>
      </trkpt>
      <trkpt lat="46.00339" lon="1.37279">
        <ele>538.73</ele>
        <time>2019-11-24T09:32:59.000Z</time>
      </trkpt>
      <trkpt lat="46.00333" lon="1.3729">
        <ele>539.34</ele>
        <time>2019-11-24T09:33:04.000Z</time>
      </trkpt>
      <trkpt lat="46.00327" lon="1.37302">
        <ele>540.03</ele>
        <time>2019-11-24T09:33:08.000Z</time>
      </trkpt>
      <trkpt lat="46.0032" lon="1.37316">
        <ele>541.03</ele>
        <time>2019-11-24T09:33:13.000Z</time>
      </trkpt>
      <trkpt lat="46.00317" lon="1.3733">
        <ele>541.27</ele>
        <time>2019-11-24T09:33:17.000Z</time>
      </trkpt>
      <trkpt lat="46.00315" lon="1.37343">
        <ele>541.57</ele>
        <time>2019-11-24T09:33:22.000Z</time>
      </trkpt>
      <trkpt lat="46.00308" lon="1.37355">
        <ele>542.29</ele>
        <time>2019-11-24T09:33:27.000Z</time>
      </trkpt>
      <trkpt lat="46.003" lon="1.37368">
        <ele>543.1</ele>
        <time>2019-11-24T09:33:31.000Z</time>
      </trkpt>
      <trkpt lat="46.00289" lon="1.37379">
        <ele>543.71</ele>
        <time>2019-11-24T09:33:34.000Z</time>
      </trkpt>
      <trkpt lat="46.00281" lon="1.37389">
        <ele>544.2</ele>
        <time>2019-11-24T09:33:37.000Z</time>
      </trkpt>
      <trkpt lat="46.00281" lon="1.37404">
        <ele>545.67</ele>
        <time>2019-11-24T09:33:47.000Z</time>
      </trkpt>
      <trkpt lat="46.00276" lon="1.37419">
        <ele>547.05</ele>
        <time>2019-11-24T09:33:52.000Z</time>
      </trkpt>
      <trkpt lat="46.00272" lon="1.37431">
        <ele>548.13</ele>
        <time>2019-11-24T09:33:55.000Z</time>
      </trkpt>
      <trkpt lat="46.00268" lon="1.37445">
        <ele>549.51</ele>
        <time>2019-11-24T09:33:58.000Z</time>
      </trkpt>
      <trkpt lat="46.00264" lon="1.37458">
        <ele>551.6</ele>
        <time>2019-11-24T09:34:02.000Z</time>
      </trkpt>
      <trkpt lat="46.00261" lon="1.3747">
        <ele>552.57</ele>
        <time>2019-11-24T09:34:04.000Z</time>
      </trkpt>
      <trkpt lat="46.00257" lon="1.37486">
        <ele>553.36</ele>
        <time>2019-11-24T09:34:07.000Z</time>
      </trkpt>
      <trkpt lat="46.00253" lon="1.37502">
        <ele>554.09</ele>
        <time>2019-11-24T09:34:11.000Z</time>
      </trkpt>
      <trkpt lat="46.00248" lon="1.37514">
        <ele>554.85</ele>
        <time>2019-11-24T09:34:15.000Z</time>
      </trkpt>
      <trkpt lat="46.00244" lon="1.37526">
        <ele>555.61</ele>
        <time>2019-11-24T09:34:19.000Z</time>
      </trkpt>
      <trkpt lat="46.00234" lon="1.3753">
        <ele>556.59</ele>
        <time>2019-11-24T09:34:25.000Z</time>
      </trkpt>
      <trkpt lat="46.00226" lon="1.37537">
        <ele>557.62</ele>
        <time>2019-11-24T09:34:31.000Z</time>
      </trkpt>
      <trkpt lat="46.00219" lon="1.37545">
        <ele>558.06</ele>
        <time>2019-11-24T09:34:46.000Z</time>
      </trkpt>
      <trkpt lat="46.00209" lon="1.37549">
        <ele>559</ele>
        <time>2019-11-24T09:34:52.000Z</time>
      </trkpt>
      <trkpt lat="46.002" lon="1.37556">
        <ele>559.69</ele>
        <time>2019-11-24T09:34:56.000Z</time>
      </trkpt>
      <trkpt lat="46.00192" lon="1.37566">
        <ele>560.34</ele>
        <time>2019-11-24T09:35:05.000Z</time>
      </trkpt>
      <trkpt lat="46.00184" lon="1.37573">
        <ele>561.04</ele>
        <time>2019-11-24T09:35:14.000Z</time>
      </trkpt>
      <trkpt lat="46.00178" lon="1.37584">
        <ele>561.79</ele>
        <time>2019-11-24T09:35:22.000Z</time>
      </trkpt>
      <trkpt lat="46.00173" lon="1.37595">
        <ele>562.34</ele>
        <time>2019-11-24T09:35:27.000Z</time>
      </trkpt>
      <trkpt lat="46.00166" lon="1.37603">
        <ele>563.08</ele>
        <time>2019-11-24T09:35:36.000Z</time>
      </trkpt>
      <trkpt lat="46.00156" lon="1.37606">
        <ele>563.34</ele>
        <time>2019-11-24T09:35:41.000Z</time>
      </trkpt>
      <trkpt lat="46.00145" lon="1.37611">
        <ele>563.42</ele>
        <time>2019-11-24T09:35:47.000Z</time>
      </trkpt>
      <trkpt lat="46.00135" lon="1.37614">
        <ele>563.26</ele>
        <time>2019-11-24T09:35:51.000Z</time>
      </trkpt>
      <trkpt lat="46.00126" lon="1.37616">
        <ele>563.01</ele>
        <time>2019-11-24T09:35:59.000Z</time>
      </trkpt>
      <trkpt lat="46.00117" lon="1.37621">
        <ele>563.9</ele>
        <time>2019-11-24T09:36:10.000Z</time>
      </trkpt>
      <trkpt lat="46.00107" lon="1.37621">
        <ele>564.83</ele>
        <time>2019-11-24T09:36:15.000Z</time>
      </trkpt>
      <trkpt lat="46.00098" lon="1.37619">
        <ele>565.81</ele>
        <time>2019-11-24T09:36:19.000Z</time>
      </trkpt>
      <trkpt lat="46.00094" lon="1.37632">
        <ele>568.69</ele>
        <time>2019-11-24T09:36:34.000Z</time>
      </trkpt>
      <trkpt lat="46.00102" lon="1.37648">
        <ele>568.82</ele>
        <time>2019-11-24T09:36:40.000Z</time>
      </trkpt>
      <trkpt lat="46.00111" lon="1.37661">
        <ele>568.87</ele>
        <time>2019-11-24T09:36:43.000Z</time>
      </trkpt>
      <trkpt lat="46.00114" lon="1.37676">
        <ele>568.99</ele>
        <time>2019-11-24T09:36:45.000Z</time>
      </trkpt>
      <trkpt lat="46.00111" lon="1.37692">
        <ele>569.07</ele>
        <time>2019-11-24T09:36:47.000Z</time>
      </trkpt>
      <trkpt lat="46.00106" lon="1.37705">
        <ele>569.11</ele>
        <time>2019-11-24T09:36:49.000Z</time>
      </trkpt>
      <trkpt lat="46.00102" lon="1.3772">
        <ele>569.45</ele>
        <time>2019-11-24T09:36:53.000Z</time>
      </trkpt>
      <trkpt lat="46.00098" lon="1.37732">
        <ele>570.08</ele>
        <time>2019-11-24T09:36:57.000Z</time>
      </trkpt>
      <trkpt lat="46.00098" lon="1.37746">
        <ele>570.78</ele>
        <time>2019-11-24T09:37:03.000Z</time>
      </trkpt>
      <trkpt lat="46.00095" lon="1.37762">
        <ele>571.49</ele>
        <time>2019-11-24T09:37:09.000Z</time>
      </trkpt>
      <trkpt lat="46.0009" lon="1.37774">
        <ele>573.27</ele>
        <time>2019-11-24T09:37:20.000Z</time>
      </trkpt>
      <trkpt lat="46.00083" lon="1.37782">
        <ele>572.83</ele>
        <time>2019-11-24T09:37:27.000Z</time>
      </trkpt>
      <trkpt lat="46.00075" lon="1.37793">
        <ele>573.32</ele>
        <time>2019-11-24T09:37:38.000Z</time>
      </trkpt>
      <trkpt lat="46.0007" lon="1.37805">
        <ele>575.16</ele>
        <time>2019-11-24T09:37:48.000Z</time>
      </trkpt>
      <trkpt lat="46.00066" lon="1.37818">
        <ele>576.28</ele>
        <time>2019-11-24T09:37:54.000Z</time>
      </trkpt>
      <trkpt lat="46.00061" lon="1.37831">
        <ele>577.57</ele>
        <time>2019-11-24T09:38:03.000Z</time>
      </trkpt>
      <trkpt lat="46.00056" lon="1.37842">
        <ele>577.86</ele>
        <time>2019-11-24T09:38:11.000Z</time>
      </trkpt>
      <trkpt lat="46.00051" lon="1.37852">
        <ele>577.6</ele>
        <time>2019-11-24T09:38:17.000Z</time>
      </trkpt>
      <trkpt lat="46.00044" lon="1.37861">
        <ele>576.86</ele>
        <time>2019-11-24T09:38:30.000Z</time>
      </trkpt>
      <trkpt lat="46.00045" lon="1.37874">
        <ele>578.1</ele>
        <time>2019-11-24T09:38:39.000Z</time>
      </trkpt>
      <trkpt lat="46.00036" lon="1.37875">
        <ele>579.15</ele>
        <time>2019-11-24T09:38:52.000Z</time>
      </trkpt>
      <trkpt lat="46.00027" lon="1.37871">
        <ele>579.95</ele>
        <time>2019-11-24T09:38:59.000Z</time>
      </trkpt>
      <trkpt lat="46.00016" lon="1.37873">
        <ele>580.45</ele>
        <time>2019-11-24T09:39:04.000Z</time>
      </trkpt>
      <trkpt lat="46.00005" lon="1.37876">
        <ele>581.3</ele>
        <time>2019-11-24T09:39:10.000Z</time>
      </trkpt>
      <trkpt lat="45.99997" lon="1.37881">
        <ele>581.94</ele>
        <time>2019-11-24T09:39:14.000Z</time>
      </trkpt>
      <trkpt lat="45.99988" lon="1.37885">
        <ele>582.81</ele>
        <time>2019-11-24T09:39:19.000Z</time>
      </trkpt>
      <trkpt lat="45.99979" lon="1.37891">
        <ele>583.54</ele>
        <time>2019-11-24T09:39:23.000Z</time>
      </trkpt>
      <trkpt lat="45.99965" lon="1.37891">
        <ele>586.14</ele>
        <time>2019-11-24T09:39:26.000Z</time>
      </trkpt>
      <trkpt lat="45.99955" lon="1.37888">
        <ele>586.21</ele>
        <time>2019-11-24T09:39:29.000Z</time>
      </trkpt>
      <trkpt lat="45.99946" lon="1.37892">
        <ele>586.46</ele>
        <time>2019-11-24T09:39:38.000Z</time>
      </trkpt>
      <trkpt lat="45.99948" lon="1.37905">
        <ele>588.41</ele>
        <time>2019-11-24T09:40:17.000Z</time>
      </trkpt>
      <trkpt lat="45.99947" lon="1.37889">
        <ele>588.41</ele>
        <time>2019-11-24T09:40:43.000Z</time>
      </trkpt>
      <trkpt lat="45.99946" lon="1.37902">
        <ele>588.61</ele>
        <time>2019-11-24T09:40:49.000Z</time>
      </trkpt>
      <trkpt lat="45.99943" lon="1.37919">
        <ele>588.53</ele>
        <time>2019-11-24T09:40:51.000Z</time>
      </trkpt>
      <trkpt lat="45.99941" lon="1.37906">
        <ele>588.63</ele>
        <time>2019-11-24T09:43:18.000Z</time>
      </trkpt>
      <trkpt lat="45.99941" lon="1.37893">
        <ele>588.92</ele>
        <time>2019-11-24T09:49:13.000Z</time>
      </trkpt>
      <trkpt lat="45.99948" lon="1.37902">
        <ele>587.46</ele>
        <time>2019-11-24T09:49:44.000Z</time>
      </trkpt>
      <trkpt lat="45.99954" lon="1.37913">
        <ele>587.11</ele>
        <time>2019-11-24T09:49:49.000Z</time>
      </trkpt>
      <trkpt lat="45.99963" lon="1.37921">
        <ele>586.22</ele>
        <time>2019-11-24T09:50:01.000Z</time>
      </trkpt>
      <trkpt lat="45.99973" lon="1.37926">
        <ele>586.06</ele>
        <time>2019-11-24T09:50:05.000Z</time>
      </trkpt>
      <trkpt lat="45.99982" lon="1.3793">
        <ele>586.1</ele>
        <time>2019-11-24T09:50:08.000Z</time>
      </trkpt>
      <trkpt lat="45.99991" lon="1.37934">
        <ele>586.45</ele>
        <time>2019-11-24T09:50:12.000Z</time>
      </trkpt>
      <trkpt lat="45.99999" lon="1.37942">
        <ele>587</ele>
        <time>2019-11-24T09:50:16.000Z</time>
      </trkpt>
      <trkpt lat="46.00006" lon="1.37952">
        <ele>587.62</ele>
        <time>2019-11-24T09:50:21.000Z</time>
      </trkpt>
      <trkpt lat="46.00014" lon="1.37961">
        <ele>588.25</ele>
        <time>2019-11-24T09:50:27.000Z</time>
      </trkpt>
      <trkpt lat="46.00023" lon="1.37969">
        <ele>588.65</ele>
        <time>2019-11-24T09:50:34.000Z</time>
      </trkpt>
      <trkpt lat="46.0003" lon="1.37978">
        <ele>589.74</ele>
        <time>2019-11-24T09:50:44.000Z</time>
      </trkpt>
      <trkpt lat="46.00035" lon="1.3799">
        <ele>591.76</ele>
        <time>2019-11-24T09:50:53.000Z</time>
      </trkpt>
      <trkpt lat="46.00041" lon="1.38">
        <ele>594.61</ele>
        <time>2019-11-24T09:51:11.000Z</time>
      </trkpt>
      <trkpt lat="46.00048" lon="1.38009">
        <ele>597.48</ele>
        <time>2019-11-24T09:51:26.000Z</time>
      </trkpt>
      <trkpt lat="46.00053" lon="1.38021">
        <ele>599.55</ele>
        <time>2019-11-24T09:51:37.000Z</time>
      </trkpt>
      <trkpt lat="46.00056" lon="1.38034">
        <ele>601.6</ele>
        <time>2019-11-24T09:51:46.000Z</time>
      </trkpt>
      <trkpt lat="46.00057" lon="1.38047">
        <ele>603.05</ele>
        <time>2019-11-24T09:51:57.000Z</time>
      </trkpt>
      <trkpt lat="46.00055" lon="1.3806">
        <ele>604.04</ele>
        <time>2019-11-24T09:52:10.000Z</time>
      </trkpt>
      <trkpt lat="46.00053" lon="1.38073">
        <ele>604.71</ele>
        <time>2019-11-24T09:52:17.000Z</time>
      </trkpt>
      <trkpt lat="46.00055" lon="1.38087">
        <ele>605</ele>
        <time>2019-11-24T09:52:24.000Z</time>
      </trkpt>
      <trkpt lat="46.00056" lon="1.38102">
        <ele>604.82</ele>
        <time>2019-11-24T09:52:29.000Z</time>
      </trkpt>
      <trkpt lat="46.00058" lon="1.38115">
        <ele>605</ele>
        <time>2019-11-24T09:52:38.000Z</time>
      </trkpt>
      <trkpt lat="46.00059" lon="1.3813">
        <ele>605.97</ele>
        <time>2019-11-24T09:52:43.000Z</time>
      </trkpt>
      <trkpt lat="46.00064" lon="1.38142">
        <ele>606.92</ele>
        <time>2019-11-24T09:52:47.000Z</time>
      </trkpt>
      <trkpt lat="46.00069" lon="1.38155">
        <ele>608.26</ele>
        <time>2019-11-24T09:52:53.000Z</time>
      </trkpt>
      <trkpt lat="46.00074" lon="1.38166">
        <ele>609.32</ele>
        <time>2019-11-24T09:52:58.000Z</time>
      </trkpt>
      <trkpt lat="46.00083" lon="1.38177">
        <ele>610.42</ele>
        <time>2019-11-24T09:53:03.000Z</time>
      </trkpt>
      <trkpt lat="46.00092" lon="1.38188">
        <ele>611.29</ele>
        <time>2019-11-24T09:53:06.000Z</time>
      </trkpt>
      <trkpt lat="46.00099" lon="1.38198">
        <ele>617.41</ele>
        <time>2019-11-24T09:53:08.000Z</time>
      </trkpt>
      <trkpt lat="46.0011" lon="1.38212">
        <ele>620.14</ele>
        <time>2019-11-24T09:53:10.000Z</time>
      </trkpt>
      <trkpt lat="46.00119" lon="1.38224">
        <ele>622.31</ele>
        <time>2019-11-24T09:53:12.000Z</time>
      </trkpt>
      <trkpt lat="46.00127" lon="1.38231">
        <ele>622.63</ele>
        <time>2019-11-24T09:53:14.000Z</time>
      </trkpt>
      <trkpt lat="46.00137" lon="1.38233">
        <ele>623</ele>
        <time>2019-11-24T09:53:16.000Z</time>
      </trkpt>
      <trkpt lat="46.00146" lon="1.38236">
        <ele>625</ele>
        <time>2019-11-24T09:53:18.000Z</time>
      </trkpt>
      <trkpt lat="46.00161" lon="1.38238">
        <ele>625</ele>
        <time>2019-11-24T09:53:21.000Z</time>
      </trkpt>
      <trkpt lat="46.0017" lon="1.38236">
        <ele>624.88</ele>
        <time>2019-11-24T09:53:23.000Z</time>
      </trkpt>
      <trkpt lat="46.00182" lon="1.38234">
        <ele>624.6</ele>
        <time>2019-11-24T09:53:28.000Z</time>
      </trkpt>
      <trkpt lat="46.00192" lon="1.38232">
        <ele>624.39</ele>
        <time>2019-11-24T09:53:30.000Z</time>
      </trkpt>
      <trkpt lat="46.00203" lon="1.38232">
        <ele>624.15</ele>
        <time>2019-11-24T09:53:32.000Z</time>
      </trkpt>
      <trkpt lat="46.00213" lon="1.38236">
        <ele>623.8</ele>
        <time>2019-11-24T09:53:35.000Z</time>
      </trkpt>
      <trkpt lat="46.00225" lon="1.38242">
        <ele>623.14</ele>
        <time>2019-11-24T09:53:39.000Z</time>
      </trkpt>
      <trkpt lat="46.00231" lon="1.38257">
        <ele>622.98</ele>
        <time>2019-11-24T09:53:41.000Z</time>
      </trkpt>
      <trkpt lat="46.00234" lon="1.38273">
        <ele>622.87</ele>
        <time>2019-11-24T09:53:43.000Z</time>
      </trkpt>
      <trkpt lat="46.00236" lon="1.3829">
        <ele>622.78</ele>
        <time>2019-11-24T09:53:46.000Z</time>
      </trkpt>
      <trkpt lat="46.00237" lon="1.38303">
        <ele>622.89</ele>
        <time>2019-11-24T09:53:49.000Z</time>
      </trkpt>
      <trkpt lat="46.00234" lon="1.38318">
        <ele>623.16</ele>
        <time>2019-11-24T09:53:53.000Z</time>
      </trkpt>
      <trkpt lat="46.00232" lon="1.38332">
        <ele>623.24</ele>
        <time>2019-11-24T09:53:56.000Z</time>
      </trkpt>
      <trkpt lat="46.0023" lon="1.38345">
        <ele>623.65</ele>
        <time>2019-11-24T09:54:01.000Z</time>
      </trkpt>
      <trkpt lat="46.00232" lon="1.38359">
        <ele>624.37</ele>
        <time>2019-11-24T09:54:08.000Z</time>
      </trkpt>
      <trkpt lat="46.00234" lon="1.38372">
        <ele>624.7</ele>
        <time>2019-11-24T09:54:11.000Z</time>
      </trkpt>
      <trkpt lat="46.00234" lon="1.38385">
        <ele>625.16</ele>
        <time>2019-11-24T09:54:15.000Z</time>
      </trkpt>
      <trkpt lat="46.00232" lon="1.38399">
        <ele>625.82</ele>
        <time>2019-11-24T09:54:20.000Z</time>
      </trkpt>
      <trkpt lat="46.00231" lon="1.38414">
        <ele>626.25</ele>
        <time>2019-11-24T09:54:24.000Z</time>
      </trkpt>
      <trkpt lat="46.0023" lon="1.38428">
        <ele>626.51</ele>
        <time>2019-11-24T09:54:29.000Z</time>
      </trkpt>
      <trkpt lat="46.00228" lon="1.38443">
        <ele>626.83</ele>
        <time>2019-11-24T09:54:33.000Z</time>
      </trkpt>
      <trkpt lat="46.00228" lon="1.38456">
        <ele>627.37</ele>
        <time>2019-11-24T09:54:37.000Z</time>
      </trkpt>
      <trkpt lat="46.00223" lon="1.38468">
        <ele>628</ele>
        <time>2019-11-24T09:54:42.000Z</time>
      </trkpt>
      <trkpt lat="46.0022" lon="1.3848">
        <ele>628.68</ele>
        <time>2019-11-24T09:54:47.000Z</time>
      </trkpt>
      <trkpt lat="46.00217" lon="1.38496">
        <ele>629.68</ele>
        <time>2019-11-24T09:55:07.000Z</time>
      </trkpt>
      <trkpt lat="46.00219" lon="1.38513">
        <ele>630.13</ele>
        <time>2019-11-24T09:55:11.000Z</time>
      </trkpt>
      <trkpt lat="46.00222" lon="1.38528">
        <ele>630.33</ele>
        <time>2019-11-24T09:55:14.000Z</time>
      </trkpt>
      <trkpt lat="46.00224" lon="1.38546">
        <ele>630.61</ele>
        <time>2019-11-24T09:55:17.000Z</time>
      </trkpt>
      <trkpt lat="46.00224" lon="1.3856">
        <ele>630.94</ele>
        <time>2019-11-24T09:55:20.000Z</time>
      </trkpt>
      <trkpt lat="46.00228" lon="1.38573">
        <ele>631.38</ele>
        <time>2019-11-24T09:55:23.000Z</time>
      </trkpt>
      <trkpt lat="46.00236" lon="1.38586">
        <ele>631.88</ele>
        <time>2019-11-24T09:55:26.000Z</time>
      </trkpt>
      <trkpt lat="46.00242" lon="1.38596">
        <ele>633.57</ele>
        <time>2019-11-24T09:55:28.000Z</time>
      </trkpt>
      <trkpt lat="46.0025" lon="1.38606">
        <ele>634.94</ele>
        <time>2019-11-24T09:55:30.000Z</time>
      </trkpt>
      <trkpt lat="46.00259" lon="1.38619">
        <ele>635.06</ele>
        <time>2019-11-24T09:55:32.000Z</time>
      </trkpt>
      <trkpt lat="46.00263" lon="1.38634">
        <ele>635.24</ele>
        <time>2019-11-24T09:55:34.000Z</time>
      </trkpt>
      <trkpt lat="46.00269" lon="1.38645">
        <ele>635.13</ele>
        <time>2019-11-24T09:55:39.000Z</time>
      </trkpt>
      <trkpt lat="46.00277" lon="1.38651">
        <ele>634.4</ele>
        <time>2019-11-24T09:55:46.000Z</time>
      </trkpt>
      <trkpt lat="46.00288" lon="1.38648">
        <ele>633.95</ele>
        <time>2019-11-24T09:55:50.000Z</time>
      </trkpt>
      <trkpt lat="46.00297" lon="1.38645">
        <ele>633.43</ele>
        <time>2019-11-24T09:55:53.000Z</time>
      </trkpt>
      <trkpt lat="46.00307" lon="1.38642">
        <ele>632.77</ele>
        <time>2019-11-24T09:55:57.000Z</time>
      </trkpt>
      <trkpt lat="46.00317" lon="1.38636">
        <ele>632.07</ele>
        <time>2019-11-24T09:56:01.000Z</time>
      </trkpt>
      <trkpt lat="46.00325" lon="1.38629">
        <ele>631.41</ele>
        <time>2019-11-24T09:56:04.000Z</time>
      </trkpt>
      <trkpt lat="46.00332" lon="1.38618">
        <ele>630.08</ele>
        <time>2019-11-24T09:56:11.000Z</time>
      </trkpt>
      <trkpt lat="46.00339" lon="1.38608">
        <ele>628.79</ele>
        <time>2019-11-24T09:56:18.000Z</time>
      </trkpt>
      <trkpt lat="46.00346" lon="1.38597">
        <ele>627.69</ele>
        <time>2019-11-24T09:56:24.000Z</time>
      </trkpt>
      <trkpt lat="46.00351" lon="1.38585">
        <ele>626.62</ele>
        <time>2019-11-24T09:56:29.000Z</time>
      </trkpt>
      <trkpt lat="46.00356" lon="1.38573">
        <ele>625.16</ele>
        <time>2019-11-24T09:56:36.000Z</time>
      </trkpt>
      <trkpt lat="46.00361" lon="1.38563">
        <ele>624.43</ele>
        <time>2019-11-24T09:56:41.000Z</time>
      </trkpt>
      <trkpt lat="46.00369" lon="1.38553">
        <ele>624.19</ele>
        <time>2019-11-24T09:56:49.000Z</time>
      </trkpt>
      <trkpt lat="46.00371" lon="1.3854">
        <ele>624.54</ele>
        <time>2019-11-24T09:56:56.000Z</time>
      </trkpt>
      <trkpt lat="46.00378" lon="1.38529">
        <ele>624.69</ele>
        <time>2019-11-24T09:57:00.000Z</time>
      </trkpt>
      <trkpt lat="46.00384" lon="1.38517">
        <ele>624.98</ele>
        <time>2019-11-24T09:57:06.000Z</time>
      </trkpt>
      <trkpt lat="46.0039" lon="1.38505">
        <ele>625.1</ele>
        <time>2019-11-24T09:57:12.000Z</time>
      </trkpt>
      <trkpt lat="46.00398" lon="1.38495">
        <ele>625.09</ele>
        <time>2019-11-24T09:57:20.000Z</time>
      </trkpt>
      <trkpt lat="46.00403" lon="1.38484">
        <ele>625.23</ele>
        <time>2019-11-24T09:57:25.000Z</time>
      </trkpt>
      <trkpt lat="46.0041" lon="1.38474">
        <ele>625.77</ele>
        <time>2019-11-24T09:57:31.000Z</time>
      </trkpt>
      <trkpt lat="46.00415" lon="1.38462">
        <ele>626.52</ele>
        <time>2019-11-24T09:57:37.000Z</time>
      </trkpt>
      <trkpt lat="46.00418" lon="1.38448">
        <ele>627.23</ele>
        <time>2019-11-24T09:57:42.000Z</time>
      </trkpt>
      <trkpt lat="46.00421" lon="1.38434">
        <ele>627.99</ele>
        <time>2019-11-24T09:57:47.000Z</time>
      </trkpt>
      <trkpt lat="46.00423" lon="1.38421">
        <ele>628.88</ele>
        <time>2019-11-24T09:57:51.000Z</time>
      </trkpt>
      <trkpt lat="46.00429" lon="1.38404">
        <ele>629.92</ele>
        <time>2019-11-24T09:57:55.000Z</time>
      </trkpt>
      <trkpt lat="46.00435" lon="1.38393">
        <ele>630.51</ele>
        <time>2019-11-24T09:57:58.000Z</time>
      </trkpt>
      <trkpt lat="46.00442" lon="1.38379">
        <ele>630.83</ele>
        <time>2019-11-24T09:58:01.000Z</time>
      </trkpt>
      <trkpt lat="46.00449" lon="1.38367">
        <ele>631</ele>
        <time>2019-11-24T09:58:05.000Z</time>
      </trkpt>
      <trkpt lat="46.00456" lon="1.38354">
        <ele>630.98</ele>
        <time>2019-11-24T09:58:09.000Z</time>
      </trkpt>
      <trkpt lat="46.00463" lon="1.38343">
        <ele>630.82</ele>
        <time>2019-11-24T09:58:14.000Z</time>
      </trkpt>
      <trkpt lat="46.0047" lon="1.38335">
        <ele>630.67</ele>
        <time>2019-11-24T09:58:20.000Z</time>
      </trkpt>
      <trkpt lat="46.00478" lon="1.38328">
        <ele>631.58</ele>
        <time>2019-11-24T09:58:28.000Z</time>
      </trkpt>
      <trkpt lat="46.00485" lon="1.38317">
        <ele>633.4</ele>
        <time>2019-11-24T09:58:37.000Z</time>
      </trkpt>
      <trkpt lat="46.0049" lon="1.38305">
        <ele>635.55</ele>
        <time>2019-11-24T09:58:46.000Z</time>
      </trkpt>
      <trkpt lat="46.00496" lon="1.38293">
        <ele>637.38</ele>
        <time>2019-11-24T09:58:56.000Z</time>
      </trkpt>
      <trkpt lat="46.00507" lon="1.38295">
        <ele>639.81</ele>
        <time>2019-11-24T09:59:04.000Z</time>
      </trkpt>
      <trkpt lat="46.00516" lon="1.3829">
        <ele>642.34</ele>
        <time>2019-11-24T09:59:10.000Z</time>
      </trkpt>
      <trkpt lat="46.00525" lon="1.38287">
        <ele>645.52</ele>
        <time>2019-11-24T09:59:19.000Z</time>
      </trkpt>
      <trkpt lat="46.00533" lon="1.38276">
        <ele>646.91</ele>
        <time>2019-11-24T09:59:25.000Z</time>
      </trkpt>
      <trkpt lat="46.00536" lon="1.38263">
        <ele>649.78</ele>
        <time>2019-11-24T09:59:36.000Z</time>
      </trkpt>
      <trkpt lat="46.00539" lon="1.38251">
        <ele>652.47</ele>
        <time>2019-11-24T09:59:45.000Z</time>
      </trkpt>
      <trkpt lat="46.00542" lon="1.38237">
        <ele>654.53</ele>
        <time>2019-11-24T09:59:52.000Z</time>
      </trkpt>
      <trkpt lat="46.00546" lon="1.38224">
        <ele>656.4</ele>
        <time>2019-11-24T09:59:59.000Z</time>
      </trkpt>
      <trkpt lat="46.00554" lon="1.38213">
        <ele>657.5</ele>
        <time>2019-11-24T10:00:04.000Z</time>
      </trkpt>
      <trkpt lat="46.0056" lon="1.38202">
        <ele>657.92</ele>
        <time>2019-11-24T10:00:09.000Z</time>
      </trkpt>
      <trkpt lat="46.00567" lon="1.38193">
        <ele>657.82</ele>
        <time>2019-11-24T10:00:14.000Z</time>
      </trkpt>
      <trkpt lat="46.00576" lon="1.38185">
        <ele>657.7</ele>
        <time>2019-11-24T10:00:19.000Z</time>
      </trkpt>
      <trkpt lat="46.00584" lon="1.38177">
        <ele>657.66</ele>
        <time>2019-11-24T10:00:23.000Z</time>
      </trkpt>
      <trkpt lat="46.00592" lon="1.38168">
        <ele>657.47</ele>
        <time>2019-11-24T10:00:28.000Z</time>
      </trkpt>
      <trkpt lat="46.00601" lon="1.3816">
        <ele>657.34</ele>
        <time>2019-11-24T10:00:34.000Z</time>
      </trkpt>
      <trkpt lat="46.00607" lon="1.38151">
        <ele>657.33</ele>
        <time>2019-11-24T10:00:40.000Z</time>
      </trkpt>
      <trkpt lat="46.00613" lon="1.38137">
        <ele>657.52</ele>
        <time>2019-11-24T10:00:45.000Z</time>
      </trkpt>
      <trkpt lat="46.00616" lon="1.38123">
        <ele>657.54</ele>
        <time>2019-11-24T10:00:49.000Z</time>
      </trkpt>
      <trkpt lat="46.0062" lon="1.38111">
        <ele>657.51</ele>
        <time>2019-11-24T10:00:52.000Z</time>
      </trkpt>
      <trkpt lat="46.00624" lon="1.38096">
        <ele>657.4</ele>
        <time>2019-11-24T10:00:55.000Z</time>
      </trkpt>
      <trkpt lat="46.00629" lon="1.38082">
        <ele>656.86</ele>
        <time>2019-11-24T10:00:58.000Z</time>
      </trkpt>
      <trkpt lat="46.00634" lon="1.38066">
        <ele>656.68</ele>
        <time>2019-11-24T10:01:01.000Z</time>
      </trkpt>
      <trkpt lat="46.00639" lon="1.38053">
        <ele>656.58</ele>
        <time>2019-11-24T10:01:03.000Z</time>
      </trkpt>
      <trkpt lat="46.00644" lon="1.3804">
        <ele>656.1</ele>
        <time>2019-11-24T10:01:05.000Z</time>
      </trkpt>
      <trkpt lat="46.00649" lon="1.38027">
        <ele>655.55</ele>
        <time>2019-11-24T10:01:07.000Z</time>
      </trkpt>
      <trkpt lat="46.00655" lon="1.38012">
        <ele>654.81</ele>
        <time>2019-11-24T10:01:10.000Z</time>
      </trkpt>
      <trkpt lat="46.0066" lon="1.37995">
        <ele>654.05</ele>
        <time>2019-11-24T10:01:13.000Z</time>
      </trkpt>
      <trkpt lat="46.00665" lon="1.37977">
        <ele>653.93</ele>
        <time>2019-11-24T10:01:16.000Z</time>
      </trkpt>
      <trkpt lat="46.00667" lon="1.37963">
        <ele>653.91</ele>
        <time>2019-11-24T10:01:18.000Z</time>
      </trkpt>
      <trkpt lat="46.00671" lon="1.37948">
        <ele>653.81</ele>
        <time>2019-11-24T10:01:21.000Z</time>
      </trkpt>
      <trkpt lat="46.00683" lon="1.37952">
        <ele>653.81</ele>
        <time>2019-11-24T10:01:25.000Z</time>
      </trkpt>
      <trkpt lat="46.00694" lon="1.37955">
        <ele>653.87</ele>
        <time>2019-11-24T10:01:28.000Z</time>
      </trkpt>
      <trkpt lat="46.00705" lon="1.37962">
        <ele>654.62</ele>
        <time>2019-11-24T10:01:31.000Z</time>
      </trkpt>
      <trkpt lat="46.00717" lon="1.37969">
        <ele>656.07</ele>
        <time>2019-11-24T10:01:34.000Z</time>
      </trkpt>
      <trkpt lat="46.00728" lon="1.37971">
        <ele>657.64</ele>
        <time>2019-11-24T10:01:37.000Z</time>
      </trkpt>
      <trkpt lat="46.00741" lon="1.37967">
        <ele>659.36</ele>
        <time>2019-11-24T10:01:40.000Z</time>
      </trkpt>
      <trkpt lat="46.00752" lon="1.37962">
        <ele>660.88</ele>
        <time>2019-11-24T10:01:43.000Z</time>
      </trkpt>
      <trkpt lat="46.00759" lon="1.37973">
        <ele>663.23</ele>
        <time>2019-11-24T10:01:55.000Z</time>
      </trkpt>
      <trkpt lat="46.00758" lon="1.37989">
        <ele>663.93</ele>
        <time>2019-11-24T10:01:58.000Z</time>
      </trkpt>
      <trkpt lat="46.00754" lon="1.38001">
        <ele>667.64</ele>
        <time>2019-11-24T10:02:07.000Z</time>
      </trkpt>
      <trkpt lat="46.00751" lon="1.38013">
        <ele>670.08</ele>
        <time>2019-11-24T10:02:16.000Z</time>
      </trkpt>
      <trkpt lat="46.00744" lon="1.38024">
        <ele>671.91</ele>
        <time>2019-11-24T10:02:24.000Z</time>
      </trkpt>
      <trkpt lat="46.00736" lon="1.38032">
        <ele>673.71</ele>
        <time>2019-11-24T10:02:32.000Z</time>
      </trkpt>
      <trkpt lat="46.00725" lon="1.38032">
        <ele>674.19</ele>
        <time>2019-11-24T10:02:34.000Z</time>
      </trkpt>
      <trkpt lat="46.00717" lon="1.3804">
        <ele>675.45</ele>
        <time>2019-11-24T10:02:42.000Z</time>
      </trkpt>
      <trkpt lat="46.00711" lon="1.3805">
        <ele>676.51</ele>
        <time>2019-11-24T10:02:49.000Z</time>
      </trkpt>
      <trkpt lat="46.00707" lon="1.38062">
        <ele>676.48</ele>
        <time>2019-11-24T10:02:54.000Z</time>
      </trkpt>
      <trkpt lat="46.00701" lon="1.38074">
        <ele>676.04</ele>
        <time>2019-11-24T10:03:00.000Z</time>
      </trkpt>
      <trkpt lat="46.00696" lon="1.38086">
        <ele>676.12</ele>
        <time>2019-11-24T10:03:13.000Z</time>
      </trkpt>
      <trkpt lat="46.00695" lon="1.38099">
        <ele>676.2</ele>
        <time>2019-11-24T10:03:18.000Z</time>
      </trkpt>
      <trkpt lat="46.00692" lon="1.38112">
        <ele>675.76</ele>
        <time>2019-11-24T10:03:28.000Z</time>
      </trkpt>
      <trkpt lat="46.00685" lon="1.38122">
        <ele>675.95</ele>
        <time>2019-11-24T10:03:33.000Z</time>
      </trkpt>
      <trkpt lat="46.00683" lon="1.38136">
        <ele>676.57</ele>
        <time>2019-11-24T10:03:38.000Z</time>
      </trkpt>
      <trkpt lat="46.00681" lon="1.38151">
        <ele>676.98</ele>
        <time>2019-11-24T10:03:43.000Z</time>
      </trkpt>
      <trkpt lat="46.00674" lon="1.38164">
        <ele>677.13</ele>
        <time>2019-11-24T10:03:48.000Z</time>
      </trkpt>
      <trkpt lat="46.00679" lon="1.38176">
        <ele>676.62</ele>
        <time>2019-11-24T10:04:00.000Z</time>
      </trkpt>
      <trkpt lat="46.00688" lon="1.38176">
        <ele>676</ele>
        <time>2019-11-24T10:04:05.000Z</time>
      </trkpt>
      <trkpt lat="46.00695" lon="1.38189">
        <ele>676</ele>
        <time>2019-11-24T10:04:11.000Z</time>
      </trkpt>
      <trkpt lat="46.00697" lon="1.38204">
        <ele>676.48</ele>
        <time>2019-11-24T10:04:16.000Z</time>
      </trkpt>
      <trkpt lat="46.00697" lon="1.38219">
        <ele>677.46</ele>
        <time>2019-11-24T10:04:22.000Z</time>
      </trkpt>
      <trkpt lat="46.00701" lon="1.38231">
        <ele>678.3</ele>
        <time>2019-11-24T10:04:28.000Z</time>
      </trkpt>
      <trkpt lat="46.00704" lon="1.38244">
        <ele>679.12</ele>
        <time>2019-11-24T10:04:34.000Z</time>
      </trkpt>
      <trkpt lat="46.00702" lon="1.38259">
        <ele>680.09</ele>
        <time>2019-11-24T10:04:39.000Z</time>
      </trkpt>
      <trkpt lat="46.00697" lon="1.38274">
        <ele>680.73</ele>
        <time>2019-11-24T10:04:43.000Z</time>
      </trkpt>
      <trkpt lat="46.00695" lon="1.38288">
        <ele>681.09</ele>
        <time>2019-11-24T10:04:48.000Z</time>
      </trkpt>
      <trkpt lat="46.00702" lon="1.38296">
        <ele>681.56</ele>
        <time>2019-11-24T10:04:52.000Z</time>
      </trkpt>
      <trkpt lat="46.0071" lon="1.38305">
        <ele>682.09</ele>
        <time>2019-11-24T10:04:55.000Z</time>
      </trkpt>
      <trkpt lat="46.00713" lon="1.38319">
        <ele>682.46</ele>
        <time>2019-11-24T10:04:57.000Z</time>
      </trkpt>
      <trkpt lat="46.00712" lon="1.38332">
        <ele>682.76</ele>
        <time>2019-11-24T10:04:59.000Z</time>
      </trkpt>
      <trkpt lat="46.00713" lon="1.38345">
        <ele>683.1</ele>
        <time>2019-11-24T10:05:02.000Z</time>
      </trkpt>
      <trkpt lat="46.00716" lon="1.38359">
        <ele>683.38</ele>
        <time>2019-11-24T10:05:06.000Z</time>
      </trkpt>
      <trkpt lat="46.00723" lon="1.38371">
        <ele>683.29</ele>
        <time>2019-11-24T10:05:09.000Z</time>
      </trkpt>
      <trkpt lat="46.00732" lon="1.38378">
        <ele>683.1</ele>
        <time>2019-11-24T10:05:13.000Z</time>
      </trkpt>
      <trkpt lat="46.00743" lon="1.38383">
        <ele>682.95</ele>
        <time>2019-11-24T10:05:16.000Z</time>
      </trkpt>
      <trkpt lat="46.00753" lon="1.38385">
        <ele>682.53</ele>
        <time>2019-11-24T10:05:20.000Z</time>
      </trkpt>
      <trkpt lat="46.00759" lon="1.38395">
        <ele>681.48</ele>
        <time>2019-11-24T10:05:26.000Z</time>
      </trkpt>
      <trkpt lat="46.00765" lon="1.38408">
        <ele>680.62</ele>
        <time>2019-11-24T10:05:30.000Z</time>
      </trkpt>
      <trkpt lat="46.00774" lon="1.38408">
        <ele>679.36</ele>
        <time>2019-11-24T10:05:36.000Z</time>
      </trkpt>
      <trkpt lat="46.00779" lon="1.38422">
        <ele>678.59</ele>
        <time>2019-11-24T10:05:40.000Z</time>
      </trkpt>
      <trkpt lat="46.00789" lon="1.38421">
        <ele>675.76</ele>
        <time>2019-11-24T10:05:49.000Z</time>
      </trkpt>
      <trkpt lat="46.00798" lon="1.38418">
        <ele>674.93</ele>
        <time>2019-11-24T10:05:51.000Z</time>
      </trkpt>
      <trkpt lat="46.00807" lon="1.38424">
        <ele>673.6</ele>
        <time>2019-11-24T10:05:55.000Z</time>
      </trkpt>
      <trkpt lat="46.00813" lon="1.38433">
        <ele>669.89</ele>
        <time>2019-11-24T10:06:04.000Z</time>
      </trkpt>
      <trkpt lat="46.00817" lon="1.38447">
        <ele>668.62</ele>
        <time>2019-11-24T10:06:08.000Z</time>
      </trkpt>
      <trkpt lat="46.00825" lon="1.38458">
        <ele>663.28</ele>
        <time>2019-11-24T10:06:22.000Z</time>
      </trkpt>
      <trkpt lat="46.00832" lon="1.38446">
        <ele>659.78</ele>
        <time>2019-11-24T10:06:31.000Z</time>
      </trkpt>
      <trkpt lat="46.0084" lon="1.38433">
        <ele>658.93</ele>
        <time>2019-11-24T10:06:33.000Z</time>
      </trkpt>
      <trkpt lat="46.0085" lon="1.38426">
        <ele>657.55</ele>
        <time>2019-11-24T10:06:37.000Z</time>
      </trkpt>
      <trkpt lat="46.00856" lon="1.38417">
        <ele>655.88</ele>
        <time>2019-11-24T10:06:42.000Z</time>
      </trkpt>
      <trkpt lat="46.00865" lon="1.38421">
        <ele>654.32</ele>
        <time>2019-11-24T10:06:48.000Z</time>
      </trkpt>
      <trkpt lat="46.00873" lon="1.3843">
        <ele>653.41</ele>
        <time>2019-11-24T10:06:53.000Z</time>
      </trkpt>
      <trkpt lat="46.00875" lon="1.38446">
        <ele>652.25</ele>
        <time>2019-11-24T10:06:57.000Z</time>
      </trkpt>
      <trkpt lat="46.00877" lon="1.38461">
        <ele>650.96</ele>
        <time>2019-11-24T10:07:00.000Z</time>
      </trkpt>
      <trkpt lat="46.0088" lon="1.38475">
        <ele>648.87</ele>
        <time>2019-11-24T10:07:04.000Z</time>
      </trkpt>
      <trkpt lat="46.00882" lon="1.38488">
        <ele>647.17</ele>
        <time>2019-11-24T10:07:07.000Z</time>
      </trkpt>
      <trkpt lat="46.00882" lon="1.38501">
        <ele>645.19</ele>
        <time>2019-11-24T10:07:10.000Z</time>
      </trkpt>
      <trkpt lat="46.00888" lon="1.38513">
        <ele>642.51</ele>
        <time>2019-11-24T10:07:14.000Z</time>
      </trkpt>
      <trkpt lat="46.00891" lon="1.38532">
        <ele>640.63</ele>
        <time>2019-11-24T10:07:18.000Z</time>
      </trkpt>
      <trkpt lat="46.0089" lon="1.38546">
        <ele>638.75</ele>
        <time>2019-11-24T10:07:21.000Z</time>
      </trkpt>
      <trkpt lat="46.00889" lon="1.38561">
        <ele>636.5</ele>
        <time>2019-11-24T10:07:25.000Z</time>
      </trkpt>
      <trkpt lat="46.00885" lon="1.38576">
        <ele>635.08</ele>
        <time>2019-11-24T10:07:29.000Z</time>
      </trkpt>
      <trkpt lat="46.00878" lon="1.38589">
        <ele>633.43</ele>
        <time>2019-11-24T10:07:34.000Z</time>
      </trkpt>
      <trkpt lat="46.00873" lon="1.38599">
        <ele>632.49</ele>
        <time>2019-11-24T10:07:37.000Z</time>
      </trkpt>
      <trkpt lat="46.00865" lon="1.38607">
        <ele>631.77</ele>
        <time>2019-11-24T10:07:40.000Z</time>
      </trkpt>
      <trkpt lat="46.00856" lon="1.38617">
        <ele>631.12</ele>
        <time>2019-11-24T10:07:44.000Z</time>
      </trkpt>
      <trkpt lat="46.00847" lon="1.38621">
        <ele>630.72</ele>
        <time>2019-11-24T10:07:47.000Z</time>
      </trkpt>
      <trkpt lat="46.0084" lon="1.38633">
        <ele>630.33</ele>
        <time>2019-11-24T10:07:53.000Z</time>
      </trkpt>
      <trkpt lat="46.00833" lon="1.38642">
        <ele>630.46</ele>
        <time>2019-11-24T10:07:58.000Z</time>
      </trkpt>
      <trkpt lat="46.00826" lon="1.3865">
        <ele>630.36</ele>
        <time>2019-11-24T10:08:03.000Z</time>
      </trkpt>
      <trkpt lat="46.00822" lon="1.38664">
        <ele>629.81</ele>
        <time>2019-11-24T10:08:08.000Z</time>
      </trkpt>
      <trkpt lat="46.0082" lon="1.38678">
        <ele>628.54</ele>
        <time>2019-11-24T10:08:13.000Z</time>
      </trkpt>
      <trkpt lat="46.0082" lon="1.38692">
        <ele>627.24</ele>
        <time>2019-11-24T10:08:18.000Z</time>
      </trkpt>
      <trkpt lat="46.00818" lon="1.38706">
        <ele>626.34</ele>
        <time>2019-11-24T10:08:23.000Z</time>
      </trkpt>
      <trkpt lat="46.00816" lon="1.38721">
        <ele>625.23</ele>
        <time>2019-11-24T10:08:29.000Z</time>
      </trkpt>
      <trkpt lat="46.00814" lon="1.38735">
        <ele>624.81</ele>
        <time>2019-11-24T10:08:34.000Z</time>
      </trkpt>
      <trkpt lat="46.00812" lon="1.38751">
        <ele>624.88</ele>
        <time>2019-11-24T10:08:39.000Z</time>
      </trkpt>
      <trkpt lat="46.00812" lon="1.38767">
        <ele>624.81</ele>
        <time>2019-11-24T10:08:44.000Z</time>
      </trkpt>
      <trkpt lat="46.00802" lon="1.38774">
        <ele>624.82</ele>
        <time>2019-11-24T10:08:54.000Z</time>
      </trkpt>
      <trkpt lat="46.00791" lon="1.38775">
        <ele>624.5</ele>
        <time>2019-11-24T10:08:59.000Z</time>
      </trkpt>
      <trkpt lat="46.00779" lon="1.38776">
        <ele>624.41</ele>
        <time>2019-11-24T10:09:02.000Z</time>
      </trkpt>
      <trkpt lat="46.00768" lon="1.38778">
        <ele>624.82</ele>
        <time>2019-11-24T10:09:07.000Z</time>
      </trkpt>
      <trkpt lat="46.00759" lon="1.38783">
        <ele>625.16</ele>
        <time>2019-11-24T10:09:11.000Z</time>
      </trkpt>
      <trkpt lat="46.00751" lon="1.38791">
        <ele>625.13</ele>
        <time>2019-11-24T10:09:16.000Z</time>
      </trkpt>
      <trkpt lat="46.00745" lon="1.38804">
        <ele>624.5</ele>
        <time>2019-11-24T10:09:21.000Z</time>
      </trkpt>
      <trkpt lat="46.0074" lon="1.38816">
        <ele>623.61</ele>
        <time>2019-11-24T10:09:25.000Z</time>
      </trkpt>
      <trkpt lat="46.00737" lon="1.3883">
        <ele>622.87</ele>
        <time>2019-11-24T10:09:29.000Z</time>
      </trkpt>
      <trkpt lat="46.00731" lon="1.38842">
        <ele>622.37</ele>
        <time>2019-11-24T10:09:34.000Z</time>
      </trkpt>
      <trkpt lat="46.00728" lon="1.38855">
        <ele>622.34</ele>
        <time>2019-11-24T10:09:39.000Z</time>
      </trkpt>
      <trkpt lat="46.00725" lon="1.3887">
        <ele>622.22</ele>
        <time>2019-11-24T10:09:45.000Z</time>
      </trkpt>
      <trkpt lat="46.00734" lon="1.38876">
        <ele>622.52</ele>
        <time>2019-11-24T10:10:00.000Z</time>
      </trkpt>
      <trkpt lat="46.00743" lon="1.38873">
        <ele>623.32</ele>
        <time>2019-11-24T10:10:06.000Z</time>
      </trkpt>
      <trkpt lat="46.00753" lon="1.38884">
        <ele>624.53</ele>
        <time>2019-11-24T10:10:10.000Z</time>
      </trkpt>
      <trkpt lat="46.00759" lon="1.38899">
        <ele>625.93</ele>
        <time>2019-11-24T10:10:13.000Z</time>
      </trkpt>
      <trkpt lat="46.00761" lon="1.38915">
        <ele>627.77</ele>
        <time>2019-11-24T10:10:17.000Z</time>
      </trkpt>
      <trkpt lat="46.00762" lon="1.3893">
        <ele>629.3</ele>
        <time>2019-11-24T10:10:21.000Z</time>
      </trkpt>
      <trkpt lat="46.0076" lon="1.38942">
        <ele>630.44</ele>
        <time>2019-11-24T10:10:25.000Z</time>
      </trkpt>
      <trkpt lat="46.00758" lon="1.38955">
        <ele>631.56</ele>
        <time>2019-11-24T10:10:31.000Z</time>
      </trkpt>
      <trkpt lat="46.00757" lon="1.3897">
        <ele>632.31</ele>
        <time>2019-11-24T10:10:37.000Z</time>
      </trkpt>
      <trkpt lat="46.00754" lon="1.38983">
        <ele>632.92</ele>
        <time>2019-11-24T10:10:43.000Z</time>
      </trkpt>
      <trkpt lat="46.0075" lon="1.38997">
        <ele>633.82</ele>
        <time>2019-11-24T10:10:49.000Z</time>
      </trkpt>
      <trkpt lat="46.00748" lon="1.39011">
        <ele>635.35</ele>
        <time>2019-11-24T10:10:57.000Z</time>
      </trkpt>
      <trkpt lat="46.00746" lon="1.39023">
        <ele>637.1</ele>
        <time>2019-11-24T10:11:04.000Z</time>
      </trkpt>
      <trkpt lat="46.00739" lon="1.39032">
        <ele>638.68</ele>
        <time>2019-11-24T10:11:10.000Z</time>
      </trkpt>
      <trkpt lat="46.00735" lon="1.39045">
        <ele>640.26</ele>
        <time>2019-11-24T10:11:16.000Z</time>
      </trkpt>
      <trkpt lat="46.00732" lon="1.39058">
        <ele>641.65</ele>
        <time>2019-11-24T10:11:21.000Z</time>
      </trkpt>
      <trkpt lat="46.00731" lon="1.39071">
        <ele>643.48</ele>
        <time>2019-11-24T10:11:29.000Z</time>
      </trkpt>
      <trkpt lat="46.00723" lon="1.39078">
        <ele>645.25</ele>
        <time>2019-11-24T10:11:39.000Z</time>
      </trkpt>
      <trkpt lat="46.00715" lon="1.39083">
        <ele>646.49</ele>
        <time>2019-11-24T10:11:45.000Z</time>
      </trkpt>
      <trkpt lat="46.00708" lon="1.39092">
        <ele>648.8</ele>
        <time>2019-11-24T10:11:57.000Z</time>
      </trkpt>
      <trkpt lat="46.007" lon="1.39102">
        <ele>649.95</ele>
        <time>2019-11-24T10:12:06.000Z</time>
      </trkpt>
      <trkpt lat="46.00699" lon="1.39118">
        <ele>650.73</ele>
        <time>2019-11-24T10:12:11.000Z</time>
      </trkpt>
      <trkpt lat="46.00698" lon="1.39135">
        <ele>652.01</ele>
        <time>2019-11-24T10:12:16.000Z</time>
      </trkpt>
      <trkpt lat="46.00693" lon="1.39149">
        <ele>653.24</ele>
        <time>2019-11-24T10:12:20.000Z</time>
      </trkpt>
      <trkpt lat="46.00688" lon="1.39164">
        <ele>654.1</ele>
        <time>2019-11-24T10:12:23.000Z</time>
      </trkpt>
      <trkpt lat="46.00683" lon="1.39175">
        <ele>655.04</ele>
        <time>2019-11-24T10:12:26.000Z</time>
      </trkpt>
      <trkpt lat="46.00676" lon="1.39188">
        <ele>655.94</ele>
        <time>2019-11-24T10:12:29.000Z</time>
      </trkpt>
      <trkpt lat="46.00667" lon="1.39197">
        <ele>657.1</ele>
        <time>2019-11-24T10:12:33.000Z</time>
      </trkpt>
      <trkpt lat="46.00659" lon="1.39206">
        <ele>658.27</ele>
        <time>2019-11-24T10:12:38.000Z</time>
      </trkpt>
      <trkpt lat="46.00651" lon="1.39212">
        <ele>659.24</ele>
        <time>2019-11-24T10:12:44.000Z</time>
      </trkpt>
      <trkpt lat="46.00643" lon="1.3922">
        <ele>660.01</ele>
        <time>2019-11-24T10:12:50.000Z</time>
      </trkpt>
      <trkpt lat="46.00635" lon="1.39232">
        <ele>660.72</ele>
        <time>2019-11-24T10:12:55.000Z</time>
      </trkpt>
      <trkpt lat="46.00629" lon="1.39243">
        <ele>661.22</ele>
        <time>2019-11-24T10:12:59.000Z</time>
      </trkpt>
      <trkpt lat="46.00623" lon="1.39254">
        <ele>661.63</ele>
        <time>2019-11-24T10:13:03.000Z</time>
      </trkpt>
      <trkpt lat="46.00614" lon="1.39262">
        <ele>662.07</ele>
        <time>2019-11-24T10:13:07.000Z</time>
      </trkpt>
      <trkpt lat="46.00607" lon="1.3927">
        <ele>662.49</ele>
        <time>2019-11-24T10:13:10.000Z</time>
      </trkpt>
      <trkpt lat="46.00597" lon="1.39278">
        <ele>663.19</ele>
        <time>2019-11-24T10:13:14.000Z</time>
      </trkpt>
      <trkpt lat="46.00586" lon="1.39283">
        <ele>663.79</ele>
        <time>2019-11-24T10:13:17.000Z</time>
      </trkpt>
      <trkpt lat="46.00574" lon="1.39285">
        <ele>664.41</ele>
        <time>2019-11-24T10:13:21.000Z</time>
      </trkpt>
      <trkpt lat="46.00556" lon="1.3928">
        <ele>664.41</ele>
        <time>2019-11-24T10:13:23.000Z</time>
      </trkpt>
      <trkpt lat="46.00545" lon="1.39277">
        <ele>664.28</ele>
        <time>2019-11-24T10:13:25.000Z</time>
      </trkpt>
      <trkpt lat="46.00533" lon="1.39277">
        <ele>663.72</ele>
        <time>2019-11-24T10:13:29.000Z</time>
      </trkpt>
      <trkpt lat="46.00521" lon="1.39274">
        <ele>663.44</ele>
        <time>2019-11-24T10:13:32.000Z</time>
      </trkpt>
      <trkpt lat="46.00512" lon="1.39275">
        <ele>663.68</ele>
        <time>2019-11-24T10:13:36.000Z</time>
      </trkpt>
      <trkpt lat="46.00501" lon="1.39274">
        <ele>664.36</ele>
        <time>2019-11-24T10:13:40.000Z</time>
      </trkpt>
      <trkpt lat="46.00491" lon="1.39273">
        <ele>664.93</ele>
        <time>2019-11-24T10:13:44.000Z</time>
      </trkpt>
      <trkpt lat="46.0048" lon="1.3927">
        <ele>665.26</ele>
        <time>2019-11-24T10:13:48.000Z</time>
      </trkpt>
      <trkpt lat="46.00469" lon="1.39271">
        <ele>665.33</ele>
        <time>2019-11-24T10:13:52.000Z</time>
      </trkpt>
      <trkpt lat="46.00456" lon="1.39273">
        <ele>665.32</ele>
        <time>2019-11-24T10:13:55.000Z</time>
      </trkpt>
      <trkpt lat="46.00446" lon="1.39273">
        <ele>665.31</ele>
        <time>2019-11-24T10:13:57.000Z</time>
      </trkpt>
      <trkpt lat="46.00429" lon="1.39279">
        <ele>665.27</ele>
        <time>2019-11-24T10:14:00.000Z</time>
      </trkpt>
      <trkpt lat="46.00416" lon="1.39286">
        <ele>665.33</ele>
        <time>2019-11-24T10:14:02.000Z</time>
      </trkpt>
      <trkpt lat="46.00404" lon="1.39287">
        <ele>665.26</ele>
        <time>2019-11-24T10:14:05.000Z</time>
      </trkpt>
      <trkpt lat="46.00395" lon="1.39284">
        <ele>664.83</ele>
        <time>2019-11-24T10:14:10.000Z</time>
      </trkpt>
      <trkpt lat="46.00406" lon="1.3928">
        <ele>664.35</ele>
        <time>2019-11-24T10:14:17.000Z</time>
      </trkpt>
      <trkpt lat="46.00416" lon="1.39278">
        <ele>664.74</ele>
        <time>2019-11-24T10:14:21.000Z</time>
      </trkpt>
      <trkpt lat="46.00428" lon="1.39274">
        <ele>665.16</ele>
        <time>2019-11-24T10:14:24.000Z</time>
      </trkpt>
      <trkpt lat="46.00437" lon="1.39274">
        <ele>665.46</ele>
        <time>2019-11-24T10:14:26.000Z</time>
      </trkpt>
      <trkpt lat="46.0045" lon="1.39274">
        <ele>665.87</ele>
        <time>2019-11-24T10:14:29.000Z</time>
      </trkpt>
      <trkpt lat="46.00461" lon="1.3928">
        <ele>666.3</ele>
        <time>2019-11-24T10:14:32.000Z</time>
      </trkpt>
      <trkpt lat="46.00474" lon="1.39281">
        <ele>666.58</ele>
        <time>2019-11-24T10:14:35.000Z</time>
      </trkpt>
      <trkpt lat="46.00485" lon="1.39283">
        <ele>666.82</ele>
        <time>2019-11-24T10:14:38.000Z</time>
      </trkpt>
      <trkpt lat="46.00494" lon="1.3929">
        <ele>667.2</ele>
        <time>2019-11-24T10:14:41.000Z</time>
      </trkpt>
      <trkpt lat="46.00503" lon="1.39298">
        <ele>667.4</ele>
        <time>2019-11-24T10:14:43.000Z</time>
      </trkpt>
      <trkpt lat="46.00513" lon="1.39304">
        <ele>667.64</ele>
        <time>2019-11-24T10:14:46.000Z</time>
      </trkpt>
      <trkpt lat="46.00522" lon="1.39312">
        <ele>667.88</ele>
        <time>2019-11-24T10:14:49.000Z</time>
      </trkpt>
      <trkpt lat="46.00532" lon="1.39317">
        <ele>668.13</ele>
        <time>2019-11-24T10:14:52.000Z</time>
      </trkpt>
      <trkpt lat="46.00542" lon="1.39319">
        <ele>668.38</ele>
        <time>2019-11-24T10:14:55.000Z</time>
      </trkpt>
      <trkpt lat="46.00552" lon="1.39323">
        <ele>668.8</ele>
        <time>2019-11-24T10:14:58.000Z</time>
      </trkpt>
      <trkpt lat="46.00562" lon="1.39333">
        <ele>670.29</ele>
        <time>2019-11-24T10:15:01.000Z</time>
      </trkpt>
      <trkpt lat="46.00572" lon="1.39341">
        <ele>670.74</ele>
        <time>2019-11-24T10:15:04.000Z</time>
      </trkpt>
      <trkpt lat="46.00581" lon="1.39346">
        <ele>671.14</ele>
        <time>2019-11-24T10:15:06.000Z</time>
      </trkpt>
      <trkpt lat="46.00591" lon="1.39353">
        <ele>673.51</ele>
        <time>2019-11-24T10:15:09.000Z</time>
      </trkpt>
      <trkpt lat="46.00602" lon="1.3936">
        <ele>675.51</ele>
        <time>2019-11-24T10:15:12.000Z</time>
      </trkpt>
      <trkpt lat="46.00609" lon="1.3937">
        <ele>675.86</ele>
        <time>2019-11-24T10:15:14.000Z</time>
      </trkpt>
      <trkpt lat="46.00615" lon="1.3938">
        <ele>676.14</ele>
        <time>2019-11-24T10:15:17.000Z</time>
      </trkpt>
      <trkpt lat="46.00625" lon="1.39392">
        <ele>676.22</ele>
        <time>2019-11-24T10:15:20.000Z</time>
      </trkpt>
      <trkpt lat="46.00637" lon="1.394">
        <ele>676.06</ele>
        <time>2019-11-24T10:15:23.000Z</time>
      </trkpt>
      <trkpt lat="46.00645" lon="1.39413">
        <ele>675.83</ele>
        <time>2019-11-24T10:15:25.000Z</time>
      </trkpt>
      <trkpt lat="46.00651" lon="1.39422">
        <ele>675.29</ele>
        <time>2019-11-24T10:15:28.000Z</time>
      </trkpt>
      <trkpt lat="46.0066" lon="1.39432">
        <ele>673.82</ele>
        <time>2019-11-24T10:15:34.000Z</time>
      </trkpt>
      <trkpt lat="46.00671" lon="1.39437">
        <ele>673.08</ele>
        <time>2019-11-24T10:15:38.000Z</time>
      </trkpt>
      <trkpt lat="46.00681" lon="1.39437">
        <ele>672.03</ele>
        <time>2019-11-24T10:15:43.000Z</time>
      </trkpt>
      <trkpt lat="46.00691" lon="1.39442">
        <ele>671.18</ele>
        <time>2019-11-24T10:15:48.000Z</time>
      </trkpt>
      <trkpt lat="46.00699" lon="1.39451">
        <ele>670.84</ele>
        <time>2019-11-24T10:15:53.000Z</time>
      </trkpt>
      <trkpt lat="46.00708" lon="1.39456">
        <ele>670.27</ele>
        <time>2019-11-24T10:15:59.000Z</time>
      </trkpt>
      <trkpt lat="46.00717" lon="1.39462">
        <ele>668.75</ele>
        <time>2019-11-24T10:16:08.000Z</time>
      </trkpt>
      <trkpt lat="46.00725" lon="1.39471">
        <ele>667.99</ele>
        <time>2019-11-24T10:16:15.000Z</time>
      </trkpt>
      <trkpt lat="46.0073" lon="1.39485">
        <ele>667.81</ele>
        <time>2019-11-24T10:16:21.000Z</time>
      </trkpt>
      <trkpt lat="46.00732" lon="1.39498">
        <ele>667.16</ele>
        <time>2019-11-24T10:16:27.000Z</time>
      </trkpt>
      <trkpt lat="46.00726" lon="1.39509">
        <ele>666.06</ele>
        <time>2019-11-24T10:16:37.000Z</time>
      </trkpt>
      <trkpt lat="46.00725" lon="1.39522">
        <ele>665.95</ele>
        <time>2019-11-24T10:16:46.000Z</time>
      </trkpt>
      <trkpt lat="46.00733" lon="1.39531">
        <ele>666.04</ele>
        <time>2019-11-24T10:16:53.000Z</time>
      </trkpt>
      <trkpt lat="46.00739" lon="1.39543">
        <ele>666.42</ele>
        <time>2019-11-24T10:16:56.000Z</time>
      </trkpt>
      <trkpt lat="46.00747" lon="1.39552">
        <ele>666.91</ele>
        <time>2019-11-24T10:17:00.000Z</time>
      </trkpt>
      <trkpt lat="46.00753" lon="1.39562">
        <ele>667.1</ele>
        <time>2019-11-24T10:17:02.000Z</time>
      </trkpt>
      <trkpt lat="46.00758" lon="1.39576">
        <ele>667.27</ele>
        <time>2019-11-24T10:17:04.000Z</time>
      </trkpt>
      <trkpt lat="46.00767" lon="1.3959">
        <ele>667.88</ele>
        <time>2019-11-24T10:17:07.000Z</time>
      </trkpt>
      <trkpt lat="46.00771" lon="1.39603">
        <ele>668.02</ele>
        <time>2019-11-24T10:17:10.000Z</time>
      </trkpt>
      <trkpt lat="46.00778" lon="1.39618">
        <ele>669.2</ele>
        <time>2019-11-24T10:17:13.000Z</time>
      </trkpt>
      <trkpt lat="46.00783" lon="1.39631">
        <ele>669.53</ele>
        <time>2019-11-24T10:17:15.000Z</time>
      </trkpt>
      <trkpt lat="46.00789" lon="1.39643">
        <ele>671.71</ele>
        <time>2019-11-24T10:17:17.000Z</time>
      </trkpt>
      <trkpt lat="46.00796" lon="1.39658">
        <ele>672</ele>
        <time>2019-11-24T10:17:19.000Z</time>
      </trkpt>
      <trkpt lat="46.008" lon="1.39672">
        <ele>673.09</ele>
        <time>2019-11-24T10:17:21.000Z</time>
      </trkpt>
      <trkpt lat="46.00805" lon="1.39686">
        <ele>673.25</ele>
        <time>2019-11-24T10:17:23.000Z</time>
      </trkpt>
      <trkpt lat="46.00809" lon="1.39702">
        <ele>673.37</ele>
        <time>2019-11-24T10:17:26.000Z</time>
      </trkpt>
      <trkpt lat="46.00813" lon="1.39715">
        <ele>673.42</ele>
        <time>2019-11-24T10:17:28.000Z</time>
      </trkpt>
      <trkpt lat="46.00819" lon="1.39728">
        <ele>673.38</ele>
        <time>2019-11-24T10:17:31.000Z</time>
      </trkpt>
      <trkpt lat="46.00825" lon="1.39742">
        <ele>673</ele>
        <time>2019-11-24T10:17:34.000Z</time>
      </trkpt>
      <trkpt lat="46.00831" lon="1.39754">
        <ele>673.04</ele>
        <time>2019-11-24T10:17:36.000Z</time>
      </trkpt>
      <trkpt lat="46.00835" lon="1.39768">
        <ele>673.22</ele>
        <time>2019-11-24T10:17:38.000Z</time>
      </trkpt>
      <trkpt lat="46.00841" lon="1.39786">
        <ele>672.64</ele>
        <time>2019-11-24T10:17:41.000Z</time>
      </trkpt>
      <trkpt lat="46.00846" lon="1.398">
        <ele>671.87</ele>
        <time>2019-11-24T10:17:43.000Z</time>
      </trkpt>
      <trkpt lat="46.00851" lon="1.39813">
        <ele>671.26</ele>
        <time>2019-11-24T10:17:45.000Z</time>
      </trkpt>
      <trkpt lat="46.00859" lon="1.39827">
        <ele>671.16</ele>
        <time>2019-11-24T10:17:48.000Z</time>
      </trkpt>
      <trkpt lat="46.00868" lon="1.39835">
        <ele>671.17</ele>
        <time>2019-11-24T10:17:53.000Z</time>
      </trkpt>
      <trkpt lat="46.00875" lon="1.39844">
        <ele>671.23</ele>
        <time>2019-11-24T10:17:56.000Z</time>
      </trkpt>
      <trkpt lat="46.00883" lon="1.39855">
        <ele>671.58</ele>
        <time>2019-11-24T10:18:01.000Z</time>
      </trkpt>
      <trkpt lat="46.00888" lon="1.39867">
        <ele>672.3</ele>
        <time>2019-11-24T10:18:05.000Z</time>
      </trkpt>
      <trkpt lat="46.00894" lon="1.39877">
        <ele>673.51</ele>
        <time>2019-11-24T10:18:10.000Z</time>
      </trkpt>
      <trkpt lat="46.00905" lon="1.39881">
        <ele>674.74</ele>
        <time>2019-11-24T10:18:15.000Z</time>
      </trkpt>
      <trkpt lat="46.00916" lon="1.39877">
        <ele>675.87</ele>
        <time>2019-11-24T10:18:19.000Z</time>
      </trkpt>
      <trkpt lat="46.00921" lon="1.39892">
        <ele>676.84</ele>
        <time>2019-11-24T10:18:22.000Z</time>
      </trkpt>
      <trkpt lat="46.00928" lon="1.39903">
        <ele>678.43</ele>
        <time>2019-11-24T10:18:27.000Z</time>
      </trkpt>
      <trkpt lat="46.00934" lon="1.39914">
        <ele>679.24</ele>
        <time>2019-11-24T10:18:30.000Z</time>
      </trkpt>
      <trkpt lat="46.0094" lon="1.39926">
        <ele>679.88</ele>
        <time>2019-11-24T10:18:33.000Z</time>
      </trkpt>
      <trkpt lat="46.00945" lon="1.39937">
        <ele>680.68</ele>
        <time>2019-11-24T10:18:38.000Z</time>
      </trkpt>
      <trkpt lat="46.00952" lon="1.39949">
        <ele>681.12</ele>
        <time>2019-11-24T10:18:41.000Z</time>
      </trkpt>
      <trkpt lat="46.00959" lon="1.39962">
        <ele>681.61</ele>
        <time>2019-11-24T10:18:44.000Z</time>
      </trkpt>
      <trkpt lat="46.00963" lon="1.39981">
        <ele>681.94</ele>
        <time>2019-11-24T10:18:47.000Z</time>
      </trkpt>
      <trkpt lat="46.00964" lon="1.39996">
        <ele>682.14</ele>
        <time>2019-11-24T10:18:50.000Z</time>
      </trkpt>
      <trkpt lat="46.00964" lon="1.40014">
        <ele>682.14</ele>
        <time>2019-11-24T10:18:53.999Z</time>
      </trkpt>
      <trkpt lat="46.00968" lon="1.4003">
        <ele>681.9</ele>
        <time>2019-11-24T10:18:56.999Z</time>
      </trkpt>
      <trkpt lat="46.00972" lon="1.40045">
        <ele>681.64</ele>
        <time>2019-11-24T10:18:59.999Z</time>
      </trkpt>
      <trkpt lat="46.00977" lon="1.4006">
        <ele>678.97</ele>
        <time>2019-11-24T10:19:02.999Z</time>
      </trkpt>
      <trkpt lat="46.00982" lon="1.40083">
        <ele>677.01</ele>
        <time>2019-11-24T10:19:04.999Z</time>
      </trkpt>
      <trkpt lat="46.00982" lon="1.40096">
        <ele>676.36</ele>
        <time>2019-11-24T10:19:05.999Z</time>
      </trkpt>
      <trkpt lat="46.00987" lon="1.40113">
        <ele>675.42</ele>
        <time>2019-11-24T10:19:07.999Z</time>
      </trkpt>
      <trkpt lat="46.00992" lon="1.40129">
        <ele>673.16</ele>
        <time>2019-11-24T10:19:10.999Z</time>
      </trkpt>
      <trkpt lat="46.00993" lon="1.40145">
        <ele>673.15</ele>
        <time>2019-11-24T10:19:12.999Z</time>
      </trkpt>
      <trkpt lat="46.00994" lon="1.40163">
        <ele>673.31</ele>
        <time>2019-11-24T10:19:15.999Z</time>
      </trkpt>
      <trkpt lat="46.00999" lon="1.40176">
        <ele>674.55</ele>
        <time>2019-11-24T10:19:18.999Z</time>
      </trkpt>
      <trkpt lat="46.0101" lon="1.40181">
        <ele>675.11</ele>
        <time>2019-11-24T10:19:22.999Z</time>
      </trkpt>
      <trkpt lat="46.01018" lon="1.40195">
        <ele>675.49</ele>
        <time>2019-11-24T10:19:24.999Z</time>
      </trkpt>
      <trkpt lat="46.01023" lon="1.40208">
        <ele>675.84</ele>
        <time>2019-11-24T10:19:26.999Z</time>
      </trkpt>
      <trkpt lat="46.01034" lon="1.40213">
        <ele>676.34</ele>
        <time>2019-11-24T10:19:30.999Z</time>
      </trkpt>
      <trkpt lat="46.01043" lon="1.40216">
        <ele>676.62</ele>
        <time>2019-11-24T10:19:33.999Z</time>
      </trkpt>
      <trkpt lat="46.01056" lon="1.40223">
        <ele>677.18</ele>
        <time>2019-11-24T10:19:37.999Z</time>
      </trkpt>
      <trkpt lat="46.01066" lon="1.40232">
        <ele>677.63</ele>
        <time>2019-11-24T10:19:39.999Z</time>
      </trkpt>
      <trkpt lat="46.01078" lon="1.40238">
        <ele>678.35</ele>
        <time>2019-11-24T10:19:42.999Z</time>
      </trkpt>
      <trkpt lat="46.0109" lon="1.40245">
        <ele>678.76</ele>
        <time>2019-11-24T10:19:44.999Z</time>
      </trkpt>
      <trkpt lat="46.01101" lon="1.40246">
        <ele>679.43</ele>
        <time>2019-11-24T10:19:46.999Z</time>
      </trkpt>
      <trkpt lat="46.0111" lon="1.40247">
        <ele>679.44</ele>
        <time>2019-11-24T10:19:48.999Z</time>
      </trkpt>
      <trkpt lat="46.0112" lon="1.4025">
        <ele>679.09</ele>
        <time>2019-11-24T10:19:51.999Z</time>
      </trkpt>
      <trkpt lat="46.01129" lon="1.40252">
        <ele>678.23</ele>
        <time>2019-11-24T10:19:55.999Z</time>
      </trkpt>
      <trkpt lat="46.01138" lon="1.40255">
        <ele>674.99</ele>
        <time>2019-11-24T10:19:58.999Z</time>
      </trkpt>
      <trkpt lat="46.01149" lon="1.40256">
        <ele>671.31</ele>
        <time>2019-11-24T10:20:00.999Z</time>
      </trkpt>
      <trkpt lat="46.0116" lon="1.40255">
        <ele>671.06</ele>
        <time>2019-11-24T10:20:02.999Z</time>
      </trkpt>
      <trkpt lat="46.0117" lon="1.40256">
        <ele>670.82</ele>
        <time>2019-11-24T10:20:04.999Z</time>
      </trkpt>
      <trkpt lat="46.01183" lon="1.40257">
        <ele>670.4</ele>
        <time>2019-11-24T10:20:08.999Z</time>
      </trkpt>
      <trkpt lat="46.01193" lon="1.40261">
        <ele>670</ele>
        <time>2019-11-24T10:20:11.999Z</time>
      </trkpt>
      <trkpt lat="46.01201" lon="1.40267">
        <ele>669.71</ele>
        <time>2019-11-24T10:20:13.999Z</time>
      </trkpt>
      <trkpt lat="46.01206" lon="1.4028">
        <ele>669.29</ele>
        <time>2019-11-24T10:20:15.999Z</time>
      </trkpt>
      <trkpt lat="46.01216" lon="1.4029">
        <ele>668.41</ele>
        <time>2019-11-24T10:20:18.999Z</time>
      </trkpt>
      <trkpt lat="46.01223" lon="1.40302">
        <ele>667.66</ele>
        <time>2019-11-24T10:20:20.999Z</time>
      </trkpt>
      <trkpt lat="46.01232" lon="1.4031">
        <ele>666.3</ele>
        <time>2019-11-24T10:20:23.999Z</time>
      </trkpt>
      <trkpt lat="46.01242" lon="1.40319">
        <ele>664.77</ele>
        <time>2019-11-24T10:20:26.999Z</time>
      </trkpt>
      <trkpt lat="46.01248" lon="1.40327">
        <ele>662.98</ele>
        <time>2019-11-24T10:20:30.999Z</time>
      </trkpt>
      <trkpt lat="46.01253" lon="1.40341">
        <ele>661.77</ele>
        <time>2019-11-24T10:20:33.999Z</time>
      </trkpt>
      <trkpt lat="46.01254" lon="1.40356">
        <ele>660.83</ele>
        <time>2019-11-24T10:20:35.999Z</time>
      </trkpt>
      <trkpt lat="46.01255" lon="1.40369">
        <ele>659.65</ele>
        <time>2019-11-24T10:20:37.999Z</time>
      </trkpt>
      <trkpt lat="46.01256" lon="1.40393">
        <ele>647.41</ele>
        <time>2019-11-24T10:20:40.999Z</time>
      </trkpt>
      <trkpt lat="46.01256" lon="1.40409">
        <ele>639.5</ele>
        <time>2019-11-24T10:20:42.999Z</time>
      </trkpt>
      <trkpt lat="46.01259" lon="1.40428">
        <ele>633.53</ele>
        <time>2019-11-24T10:20:44.999Z</time>
      </trkpt>
      <trkpt lat="46.01264" lon="1.4044">
        <ele>627.75</ele>
        <time>2019-11-24T10:20:47.999Z</time>
      </trkpt>
      <trkpt lat="46.01274" lon="1.40449">
        <ele>627.39</ele>
        <time>2019-11-24T10:20:52.999Z</time>
      </trkpt>
      <trkpt lat="46.0128" lon="1.40466">
        <ele>627.41</ele>
        <time>2019-11-24T10:20:55.999Z</time>
      </trkpt>
      <trkpt lat="46.01287" lon="1.40474">
        <ele>627.77</ele>
        <time>2019-11-24T10:20:59.999Z</time>
      </trkpt>
      <trkpt lat="46.01293" lon="1.40484">
        <ele>628.67</ele>
        <time>2019-11-24T10:21:04.999Z</time>
      </trkpt>
      <trkpt lat="46.01299" lon="1.40495">
        <ele>630.63</ele>
        <time>2019-11-24T10:21:12.999Z</time>
      </trkpt>
      <trkpt lat="46.01301" lon="1.40508">
        <ele>631.71</ele>
        <time>2019-11-24T10:21:16.999Z</time>
      </trkpt>
      <trkpt lat="46.01302" lon="1.40523">
        <ele>632.28</ele>
        <time>2019-11-24T10:21:18.999Z</time>
      </trkpt>
      <trkpt lat="46.01301" lon="1.40537">
        <ele>633.16</ele>
        <time>2019-11-24T10:21:21.999Z</time>
      </trkpt>
      <trkpt lat="46.01299" lon="1.40552">
        <ele>633.83</ele>
        <time>2019-11-24T10:21:24.999Z</time>
      </trkpt>
      <trkpt lat="46.013" lon="1.40565">
        <ele>634.43</ele>
        <time>2019-11-24T10:21:28.999Z</time>
      </trkpt>
      <trkpt lat="46.01301" lon="1.40578">
        <ele>634.93</ele>
        <time>2019-11-24T10:21:33.999Z</time>
      </trkpt>
      <trkpt lat="46.01303" lon="1.40594">
        <ele>635.02</ele>
        <time>2019-11-24T10:21:38.999Z</time>
      </trkpt>
      <trkpt lat="46.0131" lon="1.40603">
        <ele>635.26</ele>
        <time>2019-11-24T10:21:47.999Z</time>
      </trkpt>
      <trkpt lat="46.01319" lon="1.40606">
        <ele>635.56</ele>
        <time>2019-11-24T10:21:54.999Z</time>
      </trkpt>
      <trkpt lat="46.01327" lon="1.40614">
        <ele>635.6</ele>
        <time>2019-11-24T10:21:58.999Z</time>
      </trkpt>
      <trkpt lat="46.01336" lon="1.4062">
        <ele>635.63</ele>
        <time>2019-11-24T10:22:02.999Z</time>
      </trkpt>
      <trkpt lat="46.01345" lon="1.40622">
        <ele>635.76</ele>
        <time>2019-11-24T10:22:08.999Z</time>
      </trkpt>
      <trkpt lat="46.01356" lon="1.40626">
        <ele>636.28</ele>
        <time>2019-11-24T10:22:14.999Z</time>
      </trkpt>
      <trkpt lat="46.01362" lon="1.40639">
        <ele>636.57</ele>
        <time>2019-11-24T10:22:18.999Z</time>
      </trkpt>
      <trkpt lat="46.01362" lon="1.40654">
        <ele>636.57</ele>
        <time>2019-11-24T10:22:21.999Z</time>
      </trkpt>
      <trkpt lat="46.01361" lon="1.40667">
        <ele>636.56</ele>
        <time>2019-11-24T10:22:24.999Z</time>
      </trkpt>
      <trkpt lat="46.01362" lon="1.40681">
        <ele>636.5</ele>
        <time>2019-11-24T10:22:29.999Z</time>
      </trkpt>
      <trkpt lat="46.01359" lon="1.40695">
        <ele>636.49</ele>
        <time>2019-11-24T10:22:34.999Z</time>
      </trkpt>
      <trkpt lat="46.01359" lon="1.40711">
        <ele>636.32</ele>
        <time>2019-11-24T10:22:39.999Z</time>
      </trkpt>
      <trkpt lat="46.01357" lon="1.40724">
        <ele>636.05</ele>
        <time>2019-11-24T10:22:43.999Z</time>
      </trkpt>
      <trkpt lat="46.01353" lon="1.40737">
        <ele>635.86</ele>
        <time>2019-11-24T10:22:48.999Z</time>
      </trkpt>
      <trkpt lat="46.01348" lon="1.4075">
        <ele>636.03</ele>
        <time>2019-11-24T10:22:53.999Z</time>
      </trkpt>
      <trkpt lat="46.01345" lon="1.40763">
        <ele>636.32</ele>
        <time>2019-11-24T10:22:57.999Z</time>
      </trkpt>
      <trkpt lat="46.01344" lon="1.40778">
        <ele>636.41</ele>
        <time>2019-11-24T10:23:02.999Z</time>
      </trkpt>
      <trkpt lat="46.01341" lon="1.40795">
        <ele>636.16</ele>
        <time>2019-11-24T10:23:06.999Z</time>
      </trkpt>
      <trkpt lat="46.01337" lon="1.40806">
        <ele>635.92</ele>
        <time>2019-11-24T10:23:09.999Z</time>
      </trkpt>
      <trkpt lat="46.01333" lon="1.40819">
        <ele>635.52</ele>
        <time>2019-11-24T10:23:13.999Z</time>
      </trkpt>
      <trkpt lat="46.0133" lon="1.40831">
        <ele>635.83</ele>
        <time>2019-11-24T10:23:20.999Z</time>
      </trkpt>
      <trkpt lat="46.01324" lon="1.40843">
        <ele>637.27</ele>
        <time>2019-11-24T10:23:26.999Z</time>
      </trkpt>
      <trkpt lat="46.01316" lon="1.40852">
        <ele>638.77</ele>
        <time>2019-11-24T10:23:30.999Z</time>
      </trkpt>
      <trkpt lat="46.01308" lon="1.40858">
        <ele>640.54</ele>
        <time>2019-11-24T10:23:37.999Z</time>
      </trkpt>
      <trkpt lat="46.01298" lon="1.40862">
        <ele>640.7</ele>
        <time>2019-11-24T10:23:41.999Z</time>
      </trkpt>
      <trkpt lat="46.01291" lon="1.40872">
        <ele>640.47</ele>
        <time>2019-11-24T10:23:45.999Z</time>
      </trkpt>
      <trkpt lat="46.01286" lon="1.40888">
        <ele>640.26</ele>
        <time>2019-11-24T10:23:48.999Z</time>
      </trkpt>
      <trkpt lat="46.01279" lon="1.40899">
        <ele>640.43</ele>
        <time>2019-11-24T10:23:51.999Z</time>
      </trkpt>
      <trkpt lat="46.01272" lon="1.40911">
        <ele>640.78</ele>
        <time>2019-11-24T10:23:54.999Z</time>
      </trkpt>
      <trkpt lat="46.01271" lon="1.40925">
        <ele>641.36</ele>
        <time>2019-11-24T10:23:59.999Z</time>
      </trkpt>
      <trkpt lat="46.01267" lon="1.40941">
        <ele>641.86</ele>
        <time>2019-11-24T10:24:03.999Z</time>
      </trkpt>
      <trkpt lat="46.01261" lon="1.40952">
        <ele>642.15</ele>
        <time>2019-11-24T10:24:05.999Z</time>
      </trkpt>
      <trkpt lat="46.01255" lon="1.40964">
        <ele>643.54</ele>
        <time>2019-11-24T10:24:07.999Z</time>
      </trkpt>
      <trkpt lat="46.01247" lon="1.40979">
        <ele>645.01</ele>
        <time>2019-11-24T10:24:09.999Z</time>
      </trkpt>
      <trkpt lat="46.0124" lon="1.40988">
        <ele>645.41</ele>
        <time>2019-11-24T10:24:11.999Z</time>
      </trkpt>
      <trkpt lat="46.01234" lon="1.40998">
        <ele>645.43</ele>
        <time>2019-11-24T10:24:13.999Z</time>
      </trkpt>
      <trkpt lat="46.0123" lon="1.41016">
        <ele>645.57</ele>
        <time>2019-11-24T10:24:15.999Z</time>
      </trkpt>
      <trkpt lat="46.01225" lon="1.41034">
        <ele>647.16</ele>
        <time>2019-11-24T10:24:17.999Z</time>
      </trkpt>
      <trkpt lat="46.01226" lon="1.41054">
        <ele>649.7</ele>
        <time>2019-11-24T10:24:20.999Z</time>
      </trkpt>
      <trkpt lat="46.01223" lon="1.41071">
        <ele>649.76</ele>
        <time>2019-11-24T10:24:22.999Z</time>
      </trkpt>
      <trkpt lat="46.01227" lon="1.41087">
        <ele>649.61</ele>
        <time>2019-11-24T10:24:27.999Z</time>
      </trkpt>
      <trkpt lat="46.0123" lon="1.411">
        <ele>649.52</ele>
        <time>2019-11-24T10:24:28.999Z</time>
      </trkpt>
      <trkpt lat="46.01236" lon="1.41117">
        <ele>649.26</ele>
        <time>2019-11-24T10:24:30.999Z</time>
      </trkpt>
      <trkpt lat="46.0124" lon="1.41129">
        <ele>648.99</ele>
        <time>2019-11-24T10:24:33.999Z</time>
      </trkpt>
      <trkpt lat="46.01244" lon="1.41146">
        <ele>648.84</ele>
        <time>2019-11-24T10:24:35.999Z</time>
      </trkpt>
      <trkpt lat="46.01244" lon="1.41165">
        <ele>648.35</ele>
        <time>2019-11-24T10:24:37.999Z</time>
      </trkpt>
      <trkpt lat="46.01245" lon="1.4118">
        <ele>647.51</ele>
        <time>2019-11-24T10:24:39.999Z</time>
      </trkpt>
      <trkpt lat="46.01246" lon="1.41196">
        <ele>646.15</ele>
        <time>2019-11-24T10:24:41.999Z</time>
      </trkpt>
      <trkpt lat="46.01245" lon="1.41209">
        <ele>645.83</ele>
        <time>2019-11-24T10:24:43.999Z</time>
      </trkpt>
      <trkpt lat="46.01244" lon="1.4123">
        <ele>646.15</ele>
        <time>2019-11-24T10:24:45.999Z</time>
      </trkpt>
      <trkpt lat="46.01244" lon="1.41244">
        <ele>646.22</ele>
        <time>2019-11-24T10:24:47.999Z</time>
      </trkpt>
      <trkpt lat="46.01236" lon="1.41257">
        <ele>646.14</ele>
        <time>2019-11-24T10:24:50.999Z</time>
      </trkpt>
      <trkpt lat="46.01234" lon="1.41273">
        <ele>646</ele>
        <time>2019-11-24T10:24:55.999Z</time>
      </trkpt>
      <trkpt lat="46.01238" lon="1.41287">
        <ele>645.58</ele>
        <time>2019-11-24T10:24:59.999Z</time>
      </trkpt>
      <trkpt lat="46.01247" lon="1.41288">
        <ele>641.41</ele>
        <time>2019-11-24T10:25:01.999Z</time>
      </trkpt>
      <trkpt lat="46.01259" lon="1.41289">
        <ele>637.57</ele>
        <time>2019-11-24T10:25:03.999Z</time>
      </trkpt>
      <trkpt lat="46.01272" lon="1.41286">
        <ele>634</ele>
        <time>2019-11-24T10:25:05.999Z</time>
      </trkpt>
      <trkpt lat="46.0129" lon="1.41283">
        <ele>630.47</ele>
        <time>2019-11-24T10:25:07.999Z</time>
      </trkpt>
      <trkpt lat="46.01303" lon="1.41277">
        <ele>627.65</ele>
        <time>2019-11-24T10:25:09.999Z</time>
      </trkpt>
      <trkpt lat="46.01314" lon="1.41265">
        <ele>626.01</ele>
        <time>2019-11-24T10:25:11.999Z</time>
      </trkpt>
      <trkpt lat="46.01324" lon="1.41252">
        <ele>625.05</ele>
        <time>2019-11-24T10:25:13.999Z</time>
      </trkpt>
      <trkpt lat="46.01336" lon="1.4124">
        <ele>624.05</ele>
        <time>2019-11-24T10:25:15.999Z</time>
      </trkpt>
      <trkpt lat="46.01346" lon="1.41228">
        <ele>623.8</ele>
        <time>2019-11-24T10:25:17.999Z</time>
      </trkpt>
      <trkpt lat="46.01355" lon="1.41212">
        <ele>623.32</ele>
        <time>2019-11-24T10:25:19.999Z</time>
      </trkpt>
      <trkpt lat="46.01361" lon="1.41194">
        <ele>622.83</ele>
        <time>2019-11-24T10:25:21.999Z</time>
      </trkpt>
      <trkpt lat="46.0137" lon="1.41177">
        <ele>622.22</ele>
        <time>2019-11-24T10:25:23.999Z</time>
      </trkpt>
      <trkpt lat="46.01377" lon="1.41159">
        <ele>622.33</ele>
        <time>2019-11-24T10:25:25.999Z</time>
      </trkpt>
      <trkpt lat="46.01386" lon="1.41144">
        <ele>622.6</ele>
        <time>2019-11-24T10:25:27.999Z</time>
      </trkpt>
      <trkpt lat="46.01396" lon="1.41133">
        <ele>622.83</ele>
        <time>2019-11-24T10:25:29.999Z</time>
      </trkpt>
      <trkpt lat="46.01406" lon="1.41126">
        <ele>623.25</ele>
        <time>2019-11-24T10:25:31.999Z</time>
      </trkpt>
      <trkpt lat="46.01418" lon="1.41123">
        <ele>623.56</ele>
        <time>2019-11-24T10:25:33.999Z</time>
      </trkpt>
      <trkpt lat="46.01428" lon="1.41123">
        <ele>623.93</ele>
        <time>2019-11-24T10:25:35.999Z</time>
      </trkpt>
      <trkpt lat="46.01437" lon="1.41124">
        <ele>625.09</ele>
        <time>2019-11-24T10:25:38.999Z</time>
      </trkpt>
      <trkpt lat="46.01446" lon="1.41132">
        <ele>626.76</ele>
        <time>2019-11-24T10:25:41.999Z</time>
      </trkpt>
      <trkpt lat="46.01458" lon="1.41146">
        <ele>628.4</ele>
        <time>2019-11-24T10:25:43.999Z</time>
      </trkpt>
      <trkpt lat="46.01468" lon="1.4116">
        <ele>629.26</ele>
        <time>2019-11-24T10:25:45.999Z</time>
      </trkpt>
      <trkpt lat="46.01471" lon="1.41174">
        <ele>628.68</ele>
        <time>2019-11-24T10:25:46.999Z</time>
      </trkpt>
      <trkpt lat="46.01471" lon="1.41188">
        <ele>627.55</ele>
        <time>2019-11-24T10:25:47.999Z</time>
      </trkpt>
      <trkpt lat="46.0147" lon="1.41207">
        <ele>627.24</ele>
        <time>2019-11-24T10:25:49.999Z</time>
      </trkpt>
      <trkpt lat="46.01466" lon="1.4122">
        <ele>624.92</ele>
        <time>2019-11-24T10:25:51.999Z</time>
      </trkpt>
      <trkpt lat="46.01465" lon="1.41233">
        <ele>620.09</ele>
        <time>2019-11-24T10:25:53.999Z</time>
      </trkpt>
      <trkpt lat="46.01468" lon="1.41252">
        <ele>617.52</ele>
        <time>2019-11-24T10:25:56.999Z</time>
      </trkpt>
      <trkpt lat="46.01472" lon="1.41269">
        <ele>616.4</ele>
        <time>2019-11-24T10:25:58.999Z</time>
      </trkpt>
      <trkpt lat="46.01484" lon="1.41273">
        <ele>616.2</ele>
        <time>2019-11-24T10:26:03.999Z</time>
      </trkpt>
      <trkpt lat="46.01494" lon="1.41274">
        <ele>616.93</ele>
        <time>2019-11-24T10:26:05.999Z</time>
      </trkpt>
      <trkpt lat="46.01506" lon="1.41277">
        <ele>618.29</ele>
        <time>2019-11-24T10:26:07.999Z</time>
      </trkpt>
      <trkpt lat="46.01516" lon="1.4129">
        <ele>619.03</ele>
        <time>2019-11-24T10:26:09.999Z</time>
      </trkpt>
      <trkpt lat="46.01515" lon="1.41309">
        <ele>620.01</ele>
        <time>2019-11-24T10:26:11.999Z</time>
      </trkpt>
      <trkpt lat="46.0151" lon="1.41327">
        <ele>620.53</ele>
        <time>2019-11-24T10:26:13.999Z</time>
      </trkpt>
      <trkpt lat="46.01503" lon="1.41345">
        <ele>619.22</ele>
        <time>2019-11-24T10:26:15.999Z</time>
      </trkpt>
      <trkpt lat="46.01498" lon="1.41363">
        <ele>617.41</ele>
        <time>2019-11-24T10:26:17.999Z</time>
      </trkpt>
      <trkpt lat="46.01499" lon="1.41378">
        <ele>615.8</ele>
        <time>2019-11-24T10:26:19.999Z</time>
      </trkpt>
      <trkpt lat="46.01499" lon="1.41397">
        <ele>614.31</ele>
        <time>2019-11-24T10:26:21.999Z</time>
      </trkpt>
      <trkpt lat="46.01498" lon="1.41417">
        <ele>613.42</ele>
        <time>2019-11-24T10:26:24.999Z</time>
      </trkpt>
      <trkpt lat="46.01495" lon="1.41433">
        <ele>613.14</ele>
        <time>2019-11-24T10:26:27.999Z</time>
      </trkpt>
      <trkpt lat="46.01491" lon="1.41447">
        <ele>612.81</ele>
        <time>2019-11-24T10:26:30.999Z</time>
      </trkpt>
      <trkpt lat="46.01485" lon="1.41459">
        <ele>612.54</ele>
        <time>2019-11-24T10:26:33.999Z</time>
      </trkpt>
      <trkpt lat="46.0148" lon="1.4147">
        <ele>612.31</ele>
        <time>2019-11-24T10:26:36.999Z</time>
      </trkpt>
      <trkpt lat="46.01475" lon="1.41484">
        <ele>612.09</ele>
        <time>2019-11-24T10:26:40.999Z</time>
      </trkpt>
      <trkpt lat="46.0147" lon="1.41498">
        <ele>611.89</ele>
        <time>2019-11-24T10:26:44.999Z</time>
      </trkpt>
      <trkpt lat="46.01465" lon="1.41511">
        <ele>611.52</ele>
        <time>2019-11-24T10:26:49.999Z</time>
      </trkpt>
      <trkpt lat="46.01459" lon="1.41524">
        <ele>610.97</ele>
        <time>2019-11-24T10:26:55.999Z</time>
      </trkpt>
      <trkpt lat="46.01455" lon="1.41537">
        <ele>610.51</ele>
        <time>2019-11-24T10:27:00.999Z</time>
      </trkpt>
      <trkpt lat="46.01452" lon="1.4155">
        <ele>609.88</ele>
        <time>2019-11-24T10:27:06.999Z</time>
      </trkpt>
      <trkpt lat="46.01449" lon="1.41562">
        <ele>609.15</ele>
        <time>2019-11-24T10:27:12.999Z</time>
      </trkpt>
      <trkpt lat="46.01445" lon="1.41574">
        <ele>608.67</ele>
        <time>2019-11-24T10:27:18.999Z</time>
      </trkpt>
      <trkpt lat="46.01442" lon="1.41587">
        <ele>608.14</ele>
        <time>2019-11-24T10:27:25.999Z</time>
      </trkpt>
      <trkpt lat="46.0144" lon="1.41601">
        <ele>607.45</ele>
        <time>2019-11-24T10:27:33.999Z</time>
      </trkpt>
      <trkpt lat="46.0144" lon="1.41614">
        <ele>606.91</ele>
        <time>2019-11-24T10:27:40.999Z</time>
      </trkpt>
      <trkpt lat="46.01439" lon="1.41629">
        <ele>607.9</ele>
        <time>2019-11-24T10:27:53.999Z</time>
      </trkpt>
      <trkpt lat="46.01436" lon="1.41641">
        <ele>608.3</ele>
        <time>2019-11-24T10:27:58.999Z</time>
      </trkpt>
      <trkpt lat="46.01434" lon="1.41656">
        <ele>608.47</ele>
        <time>2019-11-24T10:28:02.999Z</time>
      </trkpt>
      <trkpt lat="46.01429" lon="1.41668">
        <ele>608.42</ele>
        <time>2019-11-24T10:28:06.999Z</time>
      </trkpt>
      <trkpt lat="46.01426" lon="1.41681">
        <ele>608.34</ele>
        <time>2019-11-24T10:28:09.999Z</time>
      </trkpt>
      <trkpt lat="46.01422" lon="1.41695">
        <ele>608.27</ele>
        <time>2019-11-24T10:28:13.999Z</time>
      </trkpt>
      <trkpt lat="46.01419" lon="1.41707">
        <ele>608.36</ele>
        <time>2019-11-24T10:28:18.999Z</time>
      </trkpt>
      <trkpt lat="46.01417" lon="1.41722">
        <ele>609.07</ele>
        <time>2019-11-24T10:28:24.999Z</time>
      </trkpt>
      <trkpt lat="46.01419" lon="1.41738">
        <ele>609.94</ele>
        <time>2019-11-24T10:28:28.999Z</time>
      </trkpt>
      <trkpt lat="46.01421" lon="1.41751">
        <ele>610.79</ele>
        <time>2019-11-24T10:28:31.999Z</time>
      </trkpt>
      <trkpt lat="46.01422" lon="1.41767">
        <ele>612.17</ele>
        <time>2019-11-24T10:28:35.999Z</time>
      </trkpt>
      <trkpt lat="46.01423" lon="1.41784">
        <ele>613.22</ele>
        <time>2019-11-24T10:28:38.999Z</time>
      </trkpt>
      <trkpt lat="46.01422" lon="1.41801">
        <ele>614.3</ele>
        <time>2019-11-24T10:28:41.999Z</time>
      </trkpt>
      <trkpt lat="46.01423" lon="1.41815">
        <ele>614.89</ele>
        <time>2019-11-24T10:28:43.999Z</time>
      </trkpt>
      <trkpt lat="46.01424" lon="1.4183">
        <ele>615.54</ele>
        <time>2019-11-24T10:28:46.999Z</time>
      </trkpt>
      <trkpt lat="46.01424" lon="1.41845">
        <ele>616.01</ele>
        <time>2019-11-24T10:28:50.999Z</time>
      </trkpt>
      <trkpt lat="46.01425" lon="1.41859">
        <ele>616.53</ele>
        <time>2019-11-24T10:28:54.999Z</time>
      </trkpt>
      <trkpt lat="46.01424" lon="1.41872">
        <ele>617.63</ele>
        <time>2019-11-24T10:29:00.999Z</time>
      </trkpt>
      <trkpt lat="46.01424" lon="1.41886">
        <ele>619.04</ele>
        <time>2019-11-24T10:29:06.999Z</time>
      </trkpt>
      <trkpt lat="46.01425" lon="1.419">
        <ele>620.53</ele>
        <time>2019-11-24T10:29:12.999Z</time>
      </trkpt>
      <trkpt lat="46.01425" lon="1.41915">
        <ele>621.35</ele>
        <time>2019-11-24T10:29:17.999Z</time>
      </trkpt>
      <trkpt lat="46.01424" lon="1.41928">
        <ele>622.04</ele>
        <time>2019-11-24T10:29:21.999Z</time>
      </trkpt>
      <trkpt lat="46.01421" lon="1.4194">
        <ele>622.93</ele>
        <time>2019-11-24T10:29:25.999Z</time>
      </trkpt>
      <trkpt lat="46.01417" lon="1.41956">
        <ele>623.88</ele>
        <time>2019-11-24T10:29:30.999Z</time>
      </trkpt>
      <trkpt lat="46.01413" lon="1.41972">
        <ele>624.46</ele>
        <time>2019-11-24T10:29:34.999Z</time>
      </trkpt>
      <trkpt lat="46.01409" lon="1.41985">
        <ele>625.09</ele>
        <time>2019-11-24T10:29:38.999Z</time>
      </trkpt>
      <trkpt lat="46.01405" lon="1.41998">
        <ele>625.77</ele>
        <time>2019-11-24T10:29:43.999Z</time>
      </trkpt>
      <trkpt lat="46.014" lon="1.42009">
        <ele>626.47</ele>
        <time>2019-11-24T10:29:48.999Z</time>
      </trkpt>
      <trkpt lat="46.01396" lon="1.42021">
        <ele>627.02</ele>
        <time>2019-11-24T10:29:53.999Z</time>
      </trkpt>
      <trkpt lat="46.01393" lon="1.42034">
        <ele>627.32</ele>
        <time>2019-11-24T10:30:00.999Z</time>
      </trkpt>
      <trkpt lat="46.01398" lon="1.42046">
        <ele>627.88</ele>
        <time>2019-11-24T10:30:13.999Z</time>
      </trkpt>
      <trkpt lat="46.01408" lon="1.42051">
        <ele>628.35</ele>
        <time>2019-11-24T10:30:19.999Z</time>
      </trkpt>
      <trkpt lat="46.01416" lon="1.42056">
        <ele>628.79</ele>
        <time>2019-11-24T10:30:24.999Z</time>
      </trkpt>
      <trkpt lat="46.01425" lon="1.42062">
        <ele>629.48</ele>
        <time>2019-11-24T10:30:29.999Z</time>
      </trkpt>
      <trkpt lat="46.01434" lon="1.42068">
        <ele>630.22</ele>
        <time>2019-11-24T10:30:34.999Z</time>
      </trkpt>
      <trkpt lat="46.01441" lon="1.42083">
        <ele>631.03</ele>
        <time>2019-11-24T10:30:39.999Z</time>
      </trkpt>
      <trkpt lat="46.01443" lon="1.42098">
        <ele>631.65</ele>
        <time>2019-11-24T10:30:42.999Z</time>
      </trkpt>
      <trkpt lat="46.01444" lon="1.42116">
        <ele>632.65</ele>
        <time>2019-11-24T10:30:46.999Z</time>
      </trkpt>
      <trkpt lat="46.01445" lon="1.42131">
        <ele>633.64</ele>
        <time>2019-11-24T10:30:50.999Z</time>
      </trkpt>
      <trkpt lat="46.01443" lon="1.42148">
        <ele>634.5</ele>
        <time>2019-11-24T10:30:54.999Z</time>
      </trkpt>
      <trkpt lat="46.0144" lon="1.42165">
        <ele>635.46</ele>
        <time>2019-11-24T10:30:58.999Z</time>
      </trkpt>
      <trkpt lat="46.01434" lon="1.42177">
        <ele>636.59</ele>
        <time>2019-11-24T10:31:03.999Z</time>
      </trkpt>
      <trkpt lat="46.01428" lon="1.42194">
        <ele>637.48</ele>
        <time>2019-11-24T10:31:07.999Z</time>
      </trkpt>
      <trkpt lat="46.01425" lon="1.42206">
        <ele>638.02</ele>
        <time>2019-11-24T10:31:10.999Z</time>
      </trkpt>
      <trkpt lat="46.01423" lon="1.42219">
        <ele>638.68</ele>
        <time>2019-11-24T10:31:14.999Z</time>
      </trkpt>
      <trkpt lat="46.01422" lon="1.42233">
        <ele>638.88</ele>
        <time>2019-11-24T10:31:17.999Z</time>
      </trkpt>
      <trkpt lat="46.01421" lon="1.42246">
        <ele>638.87</ele>
        <time>2019-11-24T10:31:20.999Z</time>
      </trkpt>
      <trkpt lat="46.01421" lon="1.42261">
        <ele>638.73</ele>
        <time>2019-11-24T10:31:24.999Z</time>
      </trkpt>
      <trkpt lat="46.01419" lon="1.42276">
        <ele>638.87</ele>
        <time>2019-11-24T10:31:30.999Z</time>
      </trkpt>
      <trkpt lat="46.01419" lon="1.42291">
        <ele>639.23</ele>
        <time>2019-11-24T10:31:33.999Z</time>
      </trkpt>
      <trkpt lat="46.01418" lon="1.42304">
        <ele>640.07</ele>
        <time>2019-11-24T10:31:38.999Z</time>
      </trkpt>
      <trkpt lat="46.01418" lon="1.42319">
        <ele>640.6</ele>
        <time>2019-11-24T10:31:41.999Z</time>
      </trkpt>
      <trkpt lat="46.0142" lon="1.42334">
        <ele>641.11</ele>
        <time>2019-11-24T10:31:45.999Z</time>
      </trkpt>
      <trkpt lat="46.01422" lon="1.42351">
        <ele>641.25</ele>
        <time>2019-11-24T10:31:48.999Z</time>
      </trkpt>
      <trkpt lat="46.01423" lon="1.42369">
        <ele>641.39</ele>
        <time>2019-11-24T10:31:52.999Z</time>
      </trkpt>
      <trkpt lat="46.01424" lon="1.42383">
        <ele>641.44</ele>
        <time>2019-11-24T10:31:55.999Z</time>
      </trkpt>
      <trkpt lat="46.01422" lon="1.42399">
        <ele>641.91</ele>
        <time>2019-11-24T10:32:01.999Z</time>
      </trkpt>
      <trkpt lat="46.01418" lon="1.42413">
        <ele>642.17</ele>
        <time>2019-11-24T10:32:05.999Z</time>
      </trkpt>
      <trkpt lat="46.01413" lon="1.42426">
        <ele>642.38</ele>
        <time>2019-11-24T10:32:09.999Z</time>
      </trkpt>
      <trkpt lat="46.01408" lon="1.42439">
        <ele>642.5</ele>
        <time>2019-11-24T10:32:13.999Z</time>
      </trkpt>
      <trkpt lat="46.01405" lon="1.42453">
        <ele>642.68</ele>
        <time>2019-11-24T10:32:17.999Z</time>
      </trkpt>
      <trkpt lat="46.014" lon="1.42467">
        <ele>643.24</ele>
        <time>2019-11-24T10:32:21.999Z</time>
      </trkpt>
      <trkpt lat="46.01394" lon="1.4248">
        <ele>644.12</ele>
        <time>2019-11-24T10:32:25.999Z</time>
      </trkpt>
      <trkpt lat="46.01386" lon="1.42488">
        <ele>644.99</ele>
        <time>2019-11-24T10:32:28.999Z</time>
      </trkpt>
      <trkpt lat="46.01378" lon="1.42497">
        <ele>646.5</ele>
        <time>2019-11-24T10:32:33.999Z</time>
      </trkpt>
      <trkpt lat="46.01369" lon="1.42507">
        <ele>647.41</ele>
        <time>2019-11-24T10:32:36.999Z</time>
      </trkpt>
      <trkpt lat="46.01364" lon="1.42518">
        <ele>648.25</ele>
        <time>2019-11-24T10:32:39.999Z</time>
      </trkpt>
      <trkpt lat="46.01356" lon="1.42526">
        <ele>649.04</ele>
        <time>2019-11-24T10:32:42.999Z</time>
      </trkpt>
      <trkpt lat="46.01345" lon="1.42532">
        <ele>649.59</ele>
        <time>2019-11-24T10:32:44.999Z</time>
      </trkpt>
      <trkpt lat="46.01337" lon="1.42527">
        <ele>650.17</ele>
        <time>2019-11-24T10:32:47.999Z</time>
      </trkpt>
      <trkpt lat="46.01327" lon="1.42533">
        <ele>649.79</ele>
        <time>2019-11-24T10:32:54.999Z</time>
      </trkpt>
      <trkpt lat="46.01321" lon="1.42545">
        <ele>649</ele>
        <time>2019-11-24T10:32:59.999Z</time>
      </trkpt>
      <trkpt lat="46.01314" lon="1.42556">
        <ele>647.96</ele>
        <time>2019-11-24T10:33:03.999Z</time>
      </trkpt>
      <trkpt lat="46.01308" lon="1.42566">
        <ele>646.85</ele>
        <time>2019-11-24T10:33:07.999Z</time>
      </trkpt>
      <trkpt lat="46.01301" lon="1.42576">
        <ele>645.79</ele>
        <time>2019-11-24T10:33:13.999Z</time>
      </trkpt>
      <trkpt lat="46.01291" lon="1.42581">
        <ele>645.13</ele>
        <time>2019-11-24T10:33:18.999Z</time>
      </trkpt>
      <trkpt lat="46.01282" lon="1.42589">
        <ele>645.03</ele>
        <time>2019-11-24T10:33:21.999Z</time>
      </trkpt>
      <trkpt lat="46.01274" lon="1.42598">
        <ele>645.22</ele>
        <time>2019-11-24T10:33:26.999Z</time>
      </trkpt>
      <trkpt lat="46.01267" lon="1.42611">
        <ele>645.8</ele>
        <time>2019-11-24T10:33:32.999Z</time>
      </trkpt>
      <trkpt lat="46.01261" lon="1.42622">
        <ele>646.82</ele>
        <time>2019-11-24T10:33:40.999Z</time>
      </trkpt>
      <trkpt lat="46.01253" lon="1.42629">
        <ele>648.61</ele>
        <time>2019-11-24T10:33:53.999Z</time>
      </trkpt>
      <trkpt lat="46.01244" lon="1.42624">
        <ele>649.55</ele>
        <time>2019-11-24T10:34:06.999Z</time>
      </trkpt>
      <trkpt lat="46.01251" lon="1.42633">
        <ele>651.35</ele>
        <time>2019-11-24T10:34:21.999Z</time>
      </trkpt>
      <trkpt lat="46.01255" lon="1.42646">
        <ele>652.97</ele>
        <time>2019-11-24T10:34:28.999Z</time>
      </trkpt>
      <trkpt lat="46.01259" lon="1.42658">
        <ele>655.28</ele>
        <time>2019-11-24T10:34:36.999Z</time>
      </trkpt>
      <trkpt lat="46.01261" lon="1.42672">
        <ele>657.25</ele>
        <time>2019-11-24T10:34:42.999Z</time>
      </trkpt>
      <trkpt lat="46.01264" lon="1.42685">
        <ele>659.11</ele>
        <time>2019-11-24T10:34:48.999Z</time>
      </trkpt>
      <trkpt lat="46.01267" lon="1.42698">
        <ele>661.07</ele>
        <time>2019-11-24T10:34:55.999Z</time>
      </trkpt>
      <trkpt lat="46.01271" lon="1.42713">
        <ele>662.26</ele>
        <time>2019-11-24T10:35:00.999Z</time>
      </trkpt>
      <trkpt lat="46.01273" lon="1.42727">
        <ele>662.73</ele>
        <time>2019-11-24T10:35:03.999Z</time>
      </trkpt>
      <trkpt lat="46.01275" lon="1.42742">
        <ele>663.09</ele>
        <time>2019-11-24T10:35:07.999Z</time>
      </trkpt>
      <trkpt lat="46.01278" lon="1.42756">
        <ele>663.46</ele>
        <time>2019-11-24T10:35:11.999Z</time>
      </trkpt>
      <trkpt lat="46.0128" lon="1.42769">
        <ele>663.87</ele>
        <time>2019-11-24T10:35:15.999Z</time>
      </trkpt>
      <trkpt lat="46.01283" lon="1.42782">
        <ele>664.22</ele>
        <time>2019-11-24T10:35:18.999Z</time>
      </trkpt>
      <trkpt lat="46.01287" lon="1.42797">
        <ele>664.5</ele>
        <time>2019-11-24T10:35:21.999Z</time>
      </trkpt>
      <trkpt lat="46.01289" lon="1.4281">
        <ele>664.81</ele>
        <time>2019-11-24T10:35:25.999Z</time>
      </trkpt>
      <trkpt lat="46.01293" lon="1.42825">
        <ele>665.1</ele>
        <time>2019-11-24T10:35:29.999Z</time>
      </trkpt>
      <trkpt lat="46.01295" lon="1.42839">
        <ele>665.15</ele>
        <time>2019-11-24T10:35:31.999Z</time>
      </trkpt>
      <trkpt lat="46.01294" lon="1.42853">
        <ele>664.68</ele>
        <time>2019-11-24T10:35:33.999Z</time>
      </trkpt>
      <trkpt lat="46.01292" lon="1.42868">
        <ele>662.93</ele>
        <time>2019-11-24T10:35:35.999Z</time>
      </trkpt>
      <trkpt lat="46.0129" lon="1.42885">
        <ele>660.83</ele>
        <time>2019-11-24T10:35:37.999Z</time>
      </trkpt>
      <trkpt lat="46.01287" lon="1.429">
        <ele>659.7</ele>
        <time>2019-11-24T10:35:39.999Z</time>
      </trkpt>
      <trkpt lat="46.0128" lon="1.42912">
        <ele>659.45</ele>
        <time>2019-11-24T10:35:41.999Z</time>
      </trkpt>
      <trkpt lat="46.01274" lon="1.42923">
        <ele>659.77</ele>
        <time>2019-11-24T10:35:43.999Z</time>
      </trkpt>
      <trkpt lat="46.01264" lon="1.42935">
        <ele>660.29</ele>
        <time>2019-11-24T10:35:46.999Z</time>
      </trkpt>
      <trkpt lat="46.01252" lon="1.42945">
        <ele>660.63</ele>
        <time>2019-11-24T10:35:49.999Z</time>
      </trkpt>
      <trkpt lat="46.01243" lon="1.42951">
        <ele>660.87</ele>
        <time>2019-11-24T10:35:51.999Z</time>
      </trkpt>
      <trkpt lat="46.01234" lon="1.42958">
        <ele>661.04</ele>
        <time>2019-11-24T10:35:53.999Z</time>
      </trkpt>
      <trkpt lat="46.01226" lon="1.42966">
        <ele>661.17</ele>
        <time>2019-11-24T10:35:55.999Z</time>
      </trkpt>
      <trkpt lat="46.01217" lon="1.42974">
        <ele>661.83</ele>
        <time>2019-11-24T10:35:57.999Z</time>
      </trkpt>
      <trkpt lat="46.01207" lon="1.42979">
        <ele>662.8</ele>
        <time>2019-11-24T10:35:59.999Z</time>
      </trkpt>
      <trkpt lat="46.01197" lon="1.42983">
        <ele>663.32</ele>
        <time>2019-11-24T10:36:01.999Z</time>
      </trkpt>
      <trkpt lat="46.01185" lon="1.42981">
        <ele>663.73</ele>
        <time>2019-11-24T10:36:03.999Z</time>
      </trkpt>
      <trkpt lat="46.01171" lon="1.42979">
        <ele>664.1</ele>
        <time>2019-11-24T10:36:05.999Z</time>
      </trkpt>
      <trkpt lat="46.01158" lon="1.42977">
        <ele>664.36</ele>
        <time>2019-11-24T10:36:07.999Z</time>
      </trkpt>
      <trkpt lat="46.01148" lon="1.42975">
        <ele>663.89</ele>
        <time>2019-11-24T10:36:09.999Z</time>
      </trkpt>
      <trkpt lat="46.01137" lon="1.42975">
        <ele>663.44</ele>
        <time>2019-11-24T10:36:11.999Z</time>
      </trkpt>
      <trkpt lat="46.01127" lon="1.42976">
        <ele>663.47</ele>
        <time>2019-11-24T10:36:14.999Z</time>
      </trkpt>
      <trkpt lat="46.01116" lon="1.42979">
        <ele>663.59</ele>
        <time>2019-11-24T10:36:18.999Z</time>
      </trkpt>
      <trkpt lat="46.01107" lon="1.42984">
        <ele>663.74</ele>
        <time>2019-11-24T10:36:21.999Z</time>
      </trkpt>
      <trkpt lat="46.01098" lon="1.42989">
        <ele>663.98</ele>
        <time>2019-11-24T10:36:24.999Z</time>
      </trkpt>
      <trkpt lat="46.01089" lon="1.42995">
        <ele>664.21</ele>
        <time>2019-11-24T10:36:27.999Z</time>
      </trkpt>
      <trkpt lat="46.01077" lon="1.43">
        <ele>664.49</ele>
        <time>2019-11-24T10:36:30.999Z</time>
      </trkpt>
      <trkpt lat="46.01067" lon="1.42999">
        <ele>665.48</ele>
        <time>2019-11-24T10:36:42.999Z</time>
      </trkpt>
      <trkpt lat="46.0106" lon="1.4299">
        <ele>666.8</ele>
        <time>2019-11-24T10:37:10.999Z</time>
      </trkpt>
      <trkpt lat="46.01053" lon="1.42981">
        <ele>667.12</ele>
        <time>2019-11-24T10:37:36.999Z</time>
      </trkpt>
      <trkpt lat="46.01054" lon="1.42967">
        <ele>666.22</ele>
        <time>2019-11-24T10:37:46.999Z</time>
      </trkpt>
      <trkpt lat="46.01052" lon="1.42981">
        <ele>650.35</ele>
        <time>2019-11-24T10:41:31.999Z</time>
      </trkpt>
      <trkpt lat="46.01047" lon="1.42993">
        <ele>654.64</ele>
        <time>2019-11-24T10:43:05.999Z</time>
      </trkpt>
      <trkpt lat="46.0104" lon="1.43004">
        <ele>654.96</ele>
        <time>2019-11-24T10:43:09.999Z</time>
      </trkpt>
      <trkpt lat="46.01033" lon="1.43017">
        <ele>655.11</ele>
        <time>2019-11-24T10:43:13.999Z</time>
      </trkpt>
      <trkpt lat="46.01029" lon="1.43031">
        <ele>655.11</ele>
        <time>2019-11-24T10:43:16.999Z</time>
      </trkpt>
      <trkpt lat="46.01025" lon="1.43046">
        <ele>654.99</ele>
        <time>2019-11-24T10:43:19.999Z</time>
      </trkpt>
      <trkpt lat="46.0102" lon="1.43059">
        <ele>654.92</ele>
        <time>2019-11-24T10:43:22.999Z</time>
      </trkpt>
      <trkpt lat="46.01014" lon="1.43072">
        <ele>654.93</ele>
        <time>2019-11-24T10:43:25.999Z</time>
      </trkpt>
      <trkpt lat="46.01011" lon="1.43085">
        <ele>655.01</ele>
        <time>2019-11-24T10:43:28.999Z</time>
      </trkpt>
      <trkpt lat="46.01011" lon="1.431">
        <ele>655.11</ele>
        <time>2019-11-24T10:43:31.999Z</time>
      </trkpt>
      <trkpt lat="46.01012" lon="1.43115">
        <ele>655.15</ele>
        <time>2019-11-24T10:43:34.999Z</time>
      </trkpt>
      <trkpt lat="46.01013" lon="1.43131">
        <ele>654.85</ele>
        <time>2019-11-24T10:43:37.999Z</time>
      </trkpt>
      <trkpt lat="46.01013" lon="1.43147">
        <ele>654.74</ele>
        <time>2019-11-24T10:43:40.999Z</time>
      </trkpt>
      <trkpt lat="46.01012" lon="1.43162">
        <ele>654.61</ele>
        <time>2019-11-24T10:43:43.999Z</time>
      </trkpt>
      <trkpt lat="46.0101" lon="1.43175">
        <ele>654.4</ele>
        <time>2019-11-24T10:43:46.999Z</time>
      </trkpt>
      <trkpt lat="46.01008" lon="1.43191">
        <ele>654.22</ele>
        <time>2019-11-24T10:43:50.999Z</time>
      </trkpt>
      <trkpt lat="46.01004" lon="1.43203">
        <ele>654.14</ele>
        <time>2019-11-24T10:43:54.999Z</time>
      </trkpt>
      <trkpt lat="46.01" lon="1.43214">
        <ele>654.12</ele>
        <time>2019-11-24T10:43:58.999Z</time>
      </trkpt>
      <trkpt lat="46.00994" lon="1.43227">
        <ele>654.08</ele>
        <time>2019-11-24T10:44:03.999Z</time>
      </trkpt>
      <trkpt lat="46.00989" lon="1.43239">
        <ele>654.41</ele>
        <time>2019-11-24T10:44:09.999Z</time>
      </trkpt>
      <trkpt lat="46.00984" lon="1.43252">
        <ele>655.02</ele>
        <time>2019-11-24T10:44:15.999Z</time>
      </trkpt>
      <trkpt lat="46.00979" lon="1.43263">
        <ele>655.52</ele>
        <time>2019-11-24T10:44:20.999Z</time>
      </trkpt>
      <trkpt lat="46.00972" lon="1.43277">
        <ele>655.89</ele>
        <time>2019-11-24T10:44:25.999Z</time>
      </trkpt>
      <trkpt lat="46.00966" lon="1.4329">
        <ele>656.29</ele>
        <time>2019-11-24T10:44:29.999Z</time>
      </trkpt>
      <trkpt lat="46.00961" lon="1.43302">
        <ele>657.24</ele>
        <time>2019-11-24T10:44:35.999Z</time>
      </trkpt>
      <trkpt lat="46.00961" lon="1.43315">
        <ele>658.01</ele>
        <time>2019-11-24T10:44:40.999Z</time>
      </trkpt>
      <trkpt lat="46.00963" lon="1.43329">
        <ele>658.56</ele>
        <time>2019-11-24T10:44:46.999Z</time>
      </trkpt>
      <trkpt lat="46.00967" lon="1.4334">
        <ele>658.92</ele>
        <time>2019-11-24T10:44:51.999Z</time>
      </trkpt>
      <trkpt lat="46.00972" lon="1.43352">
        <ele>659.24</ele>
        <time>2019-11-24T10:44:57.999Z</time>
      </trkpt>
      <trkpt lat="46.0098" lon="1.43361">
        <ele>659.46</ele>
        <time>2019-11-24T10:45:02.999Z</time>
      </trkpt>
      <trkpt lat="46.00986" lon="1.43373">
        <ele>659.53</ele>
        <time>2019-11-24T10:45:06.999Z</time>
      </trkpt>
      <trkpt lat="46.00991" lon="1.43385">
        <ele>659.59</ele>
        <time>2019-11-24T10:45:09.999Z</time>
      </trkpt>
      <trkpt lat="46.00995" lon="1.434">
        <ele>659.76</ele>
        <time>2019-11-24T10:45:13.999Z</time>
      </trkpt>
      <trkpt lat="46.00997" lon="1.43412">
        <ele>660.03</ele>
        <time>2019-11-24T10:45:16.999Z</time>
      </trkpt>
      <trkpt lat="46.00999" lon="1.43428">
        <ele>660.31</ele>
        <time>2019-11-24T10:45:19.999Z</time>
      </trkpt>
      <trkpt lat="46.00998" lon="1.43442">
        <ele>660.6</ele>
        <time>2019-11-24T10:45:22.999Z</time>
      </trkpt>
      <trkpt lat="46.00997" lon="1.43455">
        <ele>660.77</ele>
        <time>2019-11-24T10:45:25.999Z</time>
      </trkpt>
      <trkpt lat="46.00995" lon="1.43471">
        <ele>660.76</ele>
        <time>2019-11-24T10:45:29.999Z</time>
      </trkpt>
      <trkpt lat="46.00992" lon="1.43484">
        <ele>660.76</ele>
        <time>2019-11-24T10:45:32.999Z</time>
      </trkpt>
      <trkpt lat="46.0099" lon="1.43499">
        <ele>661.01</ele>
        <time>2019-11-24T10:45:36.999Z</time>
      </trkpt>
      <trkpt lat="46.00988" lon="1.43514">
        <ele>661.42</ele>
        <time>2019-11-24T10:45:40.999Z</time>
      </trkpt>
      <trkpt lat="46.00982" lon="1.43524">
        <ele>662.13</ele>
        <time>2019-11-24T10:45:45.999Z</time>
      </trkpt>
      <trkpt lat="46.00973" lon="1.4353">
        <ele>663.16</ele>
        <time>2019-11-24T10:45:51.999Z</time>
      </trkpt>
      <trkpt lat="46.00965" lon="1.43538">
        <ele>664.74</ele>
        <time>2019-11-24T10:45:57.999Z</time>
      </trkpt>
      <trkpt lat="46.00956" lon="1.43547">
        <ele>665.68</ele>
        <time>2019-11-24T10:46:01.999Z</time>
      </trkpt>
      <trkpt lat="46.00947" lon="1.43554">
        <ele>666.71</ele>
        <time>2019-11-24T10:46:05.999Z</time>
      </trkpt>
      <trkpt lat="46.00937" lon="1.43564">
        <ele>667.7</ele>
        <time>2019-11-24T10:46:09.999Z</time>
      </trkpt>
      <trkpt lat="46.00929" lon="1.43572">
        <ele>669.11</ele>
        <time>2019-11-24T10:46:16.999Z</time>
      </trkpt>
      <trkpt lat="46.00921" lon="1.43578">
        <ele>670.52</ele>
        <time>2019-11-24T10:46:25.999Z</time>
      </trkpt>
      <trkpt lat="46.0091" lon="1.43587">
        <ele>671.87</ele>
        <time>2019-11-24T10:46:33.999Z</time>
      </trkpt>
      <trkpt lat="46.00903" lon="1.43596">
        <ele>672.6</ele>
        <time>2019-11-24T10:46:38.999Z</time>
      </trkpt>
      <trkpt lat="46.00894" lon="1.436">
        <ele>674.64</ele>
        <time>2019-11-24T10:46:47.999Z</time>
      </trkpt>
      <trkpt lat="46.00888" lon="1.4361">
        <ele>676.38</ele>
        <time>2019-11-24T10:46:52.999Z</time>
      </trkpt>
      <trkpt lat="46.00883" lon="1.43621">
        <ele>678.65</ele>
        <time>2019-11-24T10:46:58.999Z</time>
      </trkpt>
      <trkpt lat="46.00873" lon="1.43631">
        <ele>680.59</ele>
        <time>2019-11-24T10:47:04.999Z</time>
      </trkpt>
      <trkpt lat="46.00866" lon="1.43641">
        <ele>681.36</ele>
        <time>2019-11-24T10:47:08.999Z</time>
      </trkpt>
      <trkpt lat="46.00857" lon="1.43653">
        <ele>681.99</ele>
        <time>2019-11-24T10:47:13.999Z</time>
      </trkpt>
      <trkpt lat="46.00849" lon="1.43659">
        <ele>682.56</ele>
        <time>2019-11-24T10:47:16.999Z</time>
      </trkpt>
      <trkpt lat="46.00841" lon="1.43665">
        <ele>683.21</ele>
        <time>2019-11-24T10:47:19.999Z</time>
      </trkpt>
      <trkpt lat="46.00833" lon="1.43675">
        <ele>683.94</ele>
        <time>2019-11-24T10:47:22.999Z</time>
      </trkpt>
      <trkpt lat="46.00825" lon="1.43682">
        <ele>685.31</ele>
        <time>2019-11-24T10:47:27.999Z</time>
      </trkpt>
      <trkpt lat="46.00819" lon="1.43693">
        <ele>686.58</ele>
        <time>2019-11-24T10:47:33.999Z</time>
      </trkpt>
      <trkpt lat="46.0081" lon="1.43702">
        <ele>687.67</ele>
        <time>2019-11-24T10:47:39.999Z</time>
      </trkpt>
      <trkpt lat="46.00801" lon="1.43708">
        <ele>688.81</ele>
        <time>2019-11-24T10:47:45.999Z</time>
      </trkpt>
      <trkpt lat="46.0079" lon="1.43714">
        <ele>689.75</ele>
        <time>2019-11-24T10:47:49.999Z</time>
      </trkpt>
      <trkpt lat="46.00778" lon="1.43716">
        <ele>690.78</ele>
        <time>2019-11-24T10:47:52.999Z</time>
      </trkpt>
      <trkpt lat="46.00766" lon="1.43719">
        <ele>691.93</ele>
        <time>2019-11-24T10:47:55.999Z</time>
      </trkpt>
      <trkpt lat="46.00754" lon="1.43724">
        <ele>693.05</ele>
        <time>2019-11-24T10:47:58.999Z</time>
      </trkpt>
      <trkpt lat="46.00744" lon="1.43724">
        <ele>693.77</ele>
        <time>2019-11-24T10:48:00.999Z</time>
      </trkpt>
      <trkpt lat="46.00735" lon="1.43726">
        <ele>694.5</ele>
        <time>2019-11-24T10:48:02.999Z</time>
      </trkpt>
      <trkpt lat="46.00724" lon="1.43731">
        <ele>695.52</ele>
        <time>2019-11-24T10:48:05.999Z</time>
      </trkpt>
      <trkpt lat="46.00713" lon="1.43737">
        <ele>696.31</ele>
        <time>2019-11-24T10:48:08.999Z</time>
      </trkpt>
      <trkpt lat="46.00705" lon="1.43745">
        <ele>697.27</ele>
        <time>2019-11-24T10:48:13.999Z</time>
      </trkpt>
      <trkpt lat="46.00696" lon="1.43747">
        <ele>698.51</ele>
        <time>2019-11-24T10:48:18.999Z</time>
      </trkpt>
      <trkpt lat="46.00686" lon="1.43746">
        <ele>699.18</ele>
        <time>2019-11-24T10:48:21.999Z</time>
      </trkpt>
      <trkpt lat="46.00676" lon="1.43745">
        <ele>700.34</ele>
        <time>2019-11-24T10:48:26.999Z</time>
      </trkpt>
      <trkpt lat="46.00666" lon="1.4375">
        <ele>701.88</ele>
        <time>2019-11-24T10:48:30.999Z</time>
      </trkpt>
      <trkpt lat="46.00656" lon="1.43755">
        <ele>703.63</ele>
        <time>2019-11-24T10:48:34.999Z</time>
      </trkpt>
      <trkpt lat="46.00644" lon="1.43759">
        <ele>705.72</ele>
        <time>2019-11-24T10:48:39.999Z</time>
      </trkpt>
      <trkpt lat="46.00634" lon="1.43766">
        <ele>707.56</ele>
        <time>2019-11-24T10:48:44.999Z</time>
      </trkpt>
      <trkpt lat="46.00626" lon="1.43774">
        <ele>709.1</ele>
        <time>2019-11-24T10:48:49.999Z</time>
      </trkpt>
      <trkpt lat="46.00619" lon="1.43784">
        <ele>711.07</ele>
        <time>2019-11-24T10:48:56.999Z</time>
      </trkpt>
      <trkpt lat="46.00614" lon="1.43797">
        <ele>713.06</ele>
        <time>2019-11-24T10:49:04.999Z</time>
      </trkpt>
      <trkpt lat="46.00611" lon="1.43811">
        <ele>713.77</ele>
        <time>2019-11-24T10:49:10.999Z</time>
      </trkpt>
      <trkpt lat="46.00606" lon="1.43822">
        <ele>714.54</ele>
        <time>2019-11-24T10:49:18.999Z</time>
      </trkpt>
      <trkpt lat="46.006" lon="1.43831">
        <ele>715</ele>
        <time>2019-11-24T10:49:22.999Z</time>
      </trkpt>
      <trkpt lat="46.00592" lon="1.4384">
        <ele>715.31</ele>
        <time>2019-11-24T10:49:25.999Z</time>
      </trkpt>
      <trkpt lat="46.00585" lon="1.43849">
        <ele>716.98</ele>
        <time>2019-11-24T10:49:27.999Z</time>
      </trkpt>
      <trkpt lat="46.00569" lon="1.43866">
        <ele>716.87</ele>
        <time>2019-11-24T10:49:29.999Z</time>
      </trkpt>
      <trkpt lat="46.0056" lon="1.43883">
        <ele>712.83</ele>
        <time>2019-11-24T10:49:31.999Z</time>
      </trkpt>
      <trkpt lat="46.00551" lon="1.43899">
        <ele>712.27</ele>
        <time>2019-11-24T10:49:32.999Z</time>
      </trkpt>
      <trkpt lat="46.00544" lon="1.43908">
        <ele>712.02</ele>
        <time>2019-11-24T10:49:33.999Z</time>
      </trkpt>
      <trkpt lat="46.00537" lon="1.4392">
        <ele>711.28</ele>
        <time>2019-11-24T10:49:35.999Z</time>
      </trkpt>
      <trkpt lat="46.00535" lon="1.43936">
        <ele>709.59</ele>
        <time>2019-11-24T10:49:39.999Z</time>
      </trkpt>
      <trkpt lat="46.00533" lon="1.43952">
        <ele>709.46</ele>
        <time>2019-11-24T10:49:44.999Z</time>
      </trkpt>
      <trkpt lat="46.00533" lon="1.4397">
        <ele>709.27</ele>
        <time>2019-11-24T10:49:49.999Z</time>
      </trkpt>
      <trkpt lat="46.00534" lon="1.43986">
        <ele>708.75</ele>
        <time>2019-11-24T10:49:53.999Z</time>
      </trkpt>
      <trkpt lat="46.00536" lon="1.44001">
        <ele>707.94</ele>
        <time>2019-11-24T10:49:58.999Z</time>
      </trkpt>
      <trkpt lat="46.00536" lon="1.44014">
        <ele>706.75</ele>
        <time>2019-11-24T10:50:06.999Z</time>
      </trkpt>
      <trkpt lat="46.00529" lon="1.44023">
        <ele>705.87</ele>
        <time>2019-11-24T10:50:21.999Z</time>
      </trkpt>
      <trkpt lat="46.00519" lon="1.44026">
        <ele>705.9</ele>
        <time>2019-11-24T10:50:26.999Z</time>
      </trkpt>
      <trkpt lat="46.00509" lon="1.44038">
        <ele>706.03</ele>
        <time>2019-11-24T10:50:29.999Z</time>
      </trkpt>
      <trkpt lat="46.00502" lon="1.44047">
        <ele>706.09</ele>
        <time>2019-11-24T10:50:31.999Z</time>
      </trkpt>
      <trkpt lat="46.00491" lon="1.44047">
        <ele>705.71</ele>
        <time>2019-11-24T10:50:37.999Z</time>
      </trkpt>
      <trkpt lat="46.00482" lon="1.44053">
        <ele>704.89</ele>
        <time>2019-11-24T10:50:41.999Z</time>
      </trkpt>
      <trkpt lat="46.00475" lon="1.44063">
        <ele>703.76</ele>
        <time>2019-11-24T10:50:45.999Z</time>
      </trkpt>
      <trkpt lat="46.00472" lon="1.44076">
        <ele>702.01</ele>
        <time>2019-11-24T10:50:51.999Z</time>
      </trkpt>
      <trkpt lat="46.0047" lon="1.44091">
        <ele>700.38</ele>
        <time>2019-11-24T10:50:57.999Z</time>
      </trkpt>
      <trkpt lat="46.00465" lon="1.44105">
        <ele>699.21</ele>
        <time>2019-11-24T10:51:01.999Z</time>
      </trkpt>
      <trkpt lat="46.00455" lon="1.44111">
        <ele>697.57</ele>
        <time>2019-11-24T10:51:05.999Z</time>
      </trkpt>
      <trkpt lat="46.00454" lon="1.44125">
        <ele>695.06</ele>
        <time>2019-11-24T10:51:11.999Z</time>
      </trkpt>
      <trkpt lat="46.0045" lon="1.44136">
        <ele>693.08</ele>
        <time>2019-11-24T10:51:17.999Z</time>
      </trkpt>
      <trkpt lat="46.00445" lon="1.44149">
        <ele>691.58</ele>
        <time>2019-11-24T10:51:22.999Z</time>
      </trkpt>
      <trkpt lat="46.0044" lon="1.44163">
        <ele>689.19</ele>
        <time>2019-11-24T10:51:29.999Z</time>
      </trkpt>
      <trkpt lat="46.00436" lon="1.44174">
        <ele>688.5</ele>
        <time>2019-11-24T10:51:31.999Z</time>
      </trkpt>
      <trkpt lat="46.00426" lon="1.44179">
        <ele>686.5</ele>
        <time>2019-11-24T10:51:36.999Z</time>
      </trkpt>
      <trkpt lat="46.00415" lon="1.44179">
        <ele>683.67</ele>
        <time>2019-11-24T10:51:42.999Z</time>
      </trkpt>
      <trkpt lat="46.00406" lon="1.44188">
        <ele>680.64</ele>
        <time>2019-11-24T10:51:48.999Z</time>
      </trkpt>
      <trkpt lat="46.004" lon="1.442">
        <ele>678.45</ele>
        <time>2019-11-24T10:51:53.999Z</time>
      </trkpt>
      <trkpt lat="46.00396" lon="1.44217">
        <ele>676.56</ele>
        <time>2019-11-24T10:51:57.999Z</time>
      </trkpt>
      <trkpt lat="46.00386" lon="1.44222">
        <ele>674.95</ele>
        <time>2019-11-24T10:52:00.999Z</time>
      </trkpt>
      <trkpt lat="46.00377" lon="1.44229">
        <ele>672.67</ele>
        <time>2019-11-24T10:52:04.999Z</time>
      </trkpt>
      <trkpt lat="46.00367" lon="1.44231">
        <ele>669.21</ele>
        <time>2019-11-24T10:52:10.999Z</time>
      </trkpt>
      <trkpt lat="46.00355" lon="1.44223">
        <ele>662.35</ele>
        <time>2019-11-24T10:52:14.999Z</time>
      </trkpt>
      <trkpt lat="46.00345" lon="1.44217">
        <ele>658.04</ele>
        <time>2019-11-24T10:52:16.999Z</time>
      </trkpt>
      <trkpt lat="46.00333" lon="1.44211">
        <ele>656.97</ele>
        <time>2019-11-24T10:52:19.999Z</time>
      </trkpt>
      <trkpt lat="46.00322" lon="1.44205">
        <ele>655.83</ele>
        <time>2019-11-24T10:52:22.999Z</time>
      </trkpt>
      <trkpt lat="46.00308" lon="1.44196">
        <ele>654.97</ele>
        <time>2019-11-24T10:52:25.999Z</time>
      </trkpt>
      <trkpt lat="46.00299" lon="1.4419">
        <ele>654.51</ele>
        <time>2019-11-24T10:52:27.999Z</time>
      </trkpt>
      <trkpt lat="46.00291" lon="1.44183">
        <ele>654.08</ele>
        <time>2019-11-24T10:52:29.999Z</time>
      </trkpt>
      <trkpt lat="46.00282" lon="1.44178">
        <ele>653.64</ele>
        <time>2019-11-24T10:52:32.999Z</time>
      </trkpt>
      <trkpt lat="46.00284" lon="1.4416">
        <ele>653.08</ele>
        <time>2019-11-24T10:52:35.999Z</time>
      </trkpt>
      <trkpt lat="46.00281" lon="1.44146">
        <ele>652.02</ele>
        <time>2019-11-24T10:52:40.999Z</time>
      </trkpt>
      <trkpt lat="46.00276" lon="1.44159">
        <ele>650.03</ele>
        <time>2019-11-24T10:52:46.999Z</time>
      </trkpt>
      <trkpt lat="46.00267" lon="1.44165">
        <ele>646.36</ele>
        <time>2019-11-24T10:52:54.999Z</time>
      </trkpt>
      <trkpt lat="46.00257" lon="1.44169">
        <ele>643.96</ele>
        <time>2019-11-24T10:52:58.999Z</time>
      </trkpt>
      <trkpt lat="46.00248" lon="1.44176">
        <ele>639.28</ele>
        <time>2019-11-24T10:53:06.999Z</time>
      </trkpt>
      <trkpt lat="46.00242" lon="1.44192">
        <ele>637.12</ele>
        <time>2019-11-24T10:53:10.999Z</time>
      </trkpt>
      <trkpt lat="46.00235" lon="1.44208">
        <ele>635.9</ele>
        <time>2019-11-24T10:53:12.999Z</time>
      </trkpt>
      <trkpt lat="46.00228" lon="1.4422">
        <ele>633.3</ele>
        <time>2019-11-24T10:53:16.999Z</time>
      </trkpt>
      <trkpt lat="46.00218" lon="1.44226">
        <ele>630.75</ele>
        <time>2019-11-24T10:53:20.999Z</time>
      </trkpt>
      <trkpt lat="46.00207" lon="1.44224">
        <ele>627.78</ele>
        <time>2019-11-24T10:53:25.999Z</time>
      </trkpt>
      <trkpt lat="46.00198" lon="1.4422">
        <ele>626.2</ele>
        <time>2019-11-24T10:53:28.999Z</time>
      </trkpt>
      <trkpt lat="46.00187" lon="1.44219">
        <ele>624.7</ele>
        <time>2019-11-24T10:53:31.999Z</time>
      </trkpt>
      <trkpt lat="46.00176" lon="1.44229">
        <ele>622.26</ele>
        <time>2019-11-24T10:53:36.999Z</time>
      </trkpt>
      <trkpt lat="46.00169" lon="1.44239">
        <ele>619.02</ele>
        <time>2019-11-24T10:53:42.999Z</time>
      </trkpt>
      <trkpt lat="46.00162" lon="1.44248">
        <ele>616.77</ele>
        <time>2019-11-24T10:53:46.999Z</time>
      </trkpt>
      <trkpt lat="46.00149" lon="1.44251">
        <ele>614.2</ele>
        <time>2019-11-24T10:53:50.999Z</time>
      </trkpt>
      <trkpt lat="46.00141" lon="1.44259">
        <ele>606.82</ele>
        <time>2019-11-24T10:53:52.999Z</time>
      </trkpt>
      <trkpt lat="46.00132" lon="1.44265">
        <ele>599.53</ele>
        <time>2019-11-24T10:53:54.999Z</time>
      </trkpt>
      <trkpt lat="46.00132" lon="1.4428">
        <ele>588.72</ele>
        <time>2019-11-24T10:53:56.999Z</time>
      </trkpt>
      <trkpt lat="46.00134" lon="1.44296">
        <ele>584.7</ele>
        <time>2019-11-24T10:53:59.999Z</time>
      </trkpt>
      <trkpt lat="46.00136" lon="1.4431">
        <ele>583.69</ele>
        <time>2019-11-24T10:54:02.999Z</time>
      </trkpt>
      <trkpt lat="46.00134" lon="1.44325">
        <ele>582.44</ele>
        <time>2019-11-24T10:54:06.999Z</time>
      </trkpt>
      <trkpt lat="46.00125" lon="1.4433">
        <ele>581.05</ele>
        <time>2019-11-24T10:54:10.999Z</time>
      </trkpt>
      <trkpt lat="46.00117" lon="1.44335">
        <ele>579.51</ele>
        <time>2019-11-24T10:54:15.999Z</time>
      </trkpt>
      <trkpt lat="46.00106" lon="1.44331">
        <ele>578.63</ele>
        <time>2019-11-24T10:54:18.999Z</time>
      </trkpt>
      <trkpt lat="46.00095" lon="1.4432">
        <ele>577.77</ele>
        <time>2019-11-24T10:54:21.999Z</time>
      </trkpt>
      <trkpt lat="46.00083" lon="1.44316">
        <ele>575.37</ele>
        <time>2019-11-24T10:54:23.999Z</time>
      </trkpt>
      <trkpt lat="46.00068" lon="1.44308">
        <ele>572.94</ele>
        <time>2019-11-24T10:54:25.999Z</time>
      </trkpt>
      <trkpt lat="46.00057" lon="1.44301">
        <ele>572.68</ele>
        <time>2019-11-24T10:54:28.999Z</time>
      </trkpt>
      <trkpt lat="46.00041" lon="1.44289">
        <ele>573.6</ele>
        <time>2019-11-24T10:54:30.999Z</time>
      </trkpt>
      <trkpt lat="46.00033" lon="1.44283">
        <ele>574.71</ele>
        <time>2019-11-24T10:54:31.999Z</time>
      </trkpt>
      <trkpt lat="46.00023" lon="1.44278">
        <ele>576.02</ele>
        <time>2019-11-24T10:54:32.999Z</time>
      </trkpt>
      <trkpt lat="46.00013" lon="1.44273">
        <ele>579.29</ele>
        <time>2019-11-24T10:54:35.999Z</time>
      </trkpt>
      <trkpt lat="46.00003" lon="1.44268">
        <ele>580.96</ele>
        <time>2019-11-24T10:54:37.999Z</time>
      </trkpt>
      <trkpt lat="45.99993" lon="1.44262">
        <ele>581.16</ele>
        <time>2019-11-24T10:54:39.999Z</time>
      </trkpt>
      <trkpt lat="45.99984" lon="1.44258">
        <ele>581.37</ele>
        <time>2019-11-24T10:54:41.999Z</time>
      </trkpt>
      <trkpt lat="45.99975" lon="1.44253">
        <ele>581.53</ele>
        <time>2019-11-24T10:54:43.999Z</time>
      </trkpt>
      <trkpt lat="45.99966" lon="1.44248">
        <ele>581.71</ele>
        <time>2019-11-24T10:54:45.999Z</time>
      </trkpt>
      <trkpt lat="45.99954" lon="1.4424">
        <ele>582.01</ele>
        <time>2019-11-24T10:54:47.999Z</time>
      </trkpt>
      <trkpt lat="45.99945" lon="1.44231">
        <ele>582.36</ele>
        <time>2019-11-24T10:54:49.999Z</time>
      </trkpt>
      <trkpt lat="45.99934" lon="1.44224">
        <ele>582.67</ele>
        <time>2019-11-24T10:54:51.999Z</time>
      </trkpt>
      <trkpt lat="45.99926" lon="1.44216">
        <ele>584.69</ele>
        <time>2019-11-24T10:54:54.999Z</time>
      </trkpt>
      <trkpt lat="45.99918" lon="1.44209">
        <ele>586.13</ele>
        <time>2019-11-24T10:54:56.999Z</time>
      </trkpt>
      <trkpt lat="45.99912" lon="1.44196">
        <ele>589.11</ele>
        <time>2019-11-24T10:54:58.999Z</time>
      </trkpt>
      <trkpt lat="45.99911" lon="1.44175">
        <ele>589.64</ele>
        <time>2019-11-24T10:55:01.999Z</time>
      </trkpt>
      <trkpt lat="45.99912" lon="1.44159">
        <ele>589.66</ele>
        <time>2019-11-24T10:55:04.999Z</time>
      </trkpt>
      <trkpt lat="45.99909" lon="1.44146">
        <ele>589.62</ele>
        <time>2019-11-24T10:55:06.999Z</time>
      </trkpt>
      <trkpt lat="45.99907" lon="1.4413">
        <ele>589.6</ele>
        <time>2019-11-24T10:55:09.999Z</time>
      </trkpt>
      <trkpt lat="45.99905" lon="1.44117">
        <ele>589.99</ele>
        <time>2019-11-24T10:55:12.999Z</time>
      </trkpt>
      <trkpt lat="45.9991" lon="1.44107">
        <ele>590.54</ele>
        <time>2019-11-24T10:55:14.999Z</time>
      </trkpt>
      <trkpt lat="45.99906" lon="1.44095">
        <ele>592</ele>
        <time>2019-11-24T10:55:19.999Z</time>
      </trkpt>
      <trkpt lat="45.99893" lon="1.4409">
        <ele>592.62</ele>
        <time>2019-11-24T10:55:22.999Z</time>
      </trkpt>
      <trkpt lat="45.99885" lon="1.4408">
        <ele>593.07</ele>
        <time>2019-11-24T10:55:25.999Z</time>
      </trkpt>
      <trkpt lat="45.99874" lon="1.4407">
        <ele>593.28</ele>
        <time>2019-11-24T10:55:29.999Z</time>
      </trkpt>
      <trkpt lat="45.99862" lon="1.44068">
        <ele>593.3</ele>
        <time>2019-11-24T10:55:31.999Z</time>
      </trkpt>
      <trkpt lat="45.99847" lon="1.44065">
        <ele>593.26</ele>
        <time>2019-11-24T10:55:33.999Z</time>
      </trkpt>
      <trkpt lat="45.99833" lon="1.44061">
        <ele>592.8</ele>
        <time>2019-11-24T10:55:34.999Z</time>
      </trkpt>
      <trkpt lat="45.9982" lon="1.44059">
        <ele>592.13</ele>
        <time>2019-11-24T10:55:35.999Z</time>
      </trkpt>
      <trkpt lat="45.99805" lon="1.44049">
        <ele>590.08</ele>
        <time>2019-11-24T10:55:37.999Z</time>
      </trkpt>
      <trkpt lat="45.99793" lon="1.44046">
        <ele>588.69</ele>
        <time>2019-11-24T10:55:38.999Z</time>
      </trkpt>
      <trkpt lat="45.99778" lon="1.44044">
        <ele>587.15</ele>
        <time>2019-11-24T10:55:39.999Z</time>
      </trkpt>
      <trkpt lat="45.99768" lon="1.4404">
        <ele>585.33</ele>
        <time>2019-11-24T10:55:40.999Z</time>
      </trkpt>
      <trkpt lat="45.99755" lon="1.44038">
        <ele>583.73</ele>
        <time>2019-11-24T10:55:41.999Z</time>
      </trkpt>
      <trkpt lat="45.99746" lon="1.44035">
        <ele>582.44</ele>
        <time>2019-11-24T10:55:42.999Z</time>
      </trkpt>
      <trkpt lat="45.99741" lon="1.44022">
        <ele>581.81</ele>
        <time>2019-11-24T10:55:45.999Z</time>
      </trkpt>
      <trkpt lat="45.99732" lon="1.44002">
        <ele>581.63</ele>
        <time>2019-11-24T10:55:47.999Z</time>
      </trkpt>
      <trkpt lat="45.99732" lon="1.43981">
        <ele>581.21</ele>
        <time>2019-11-24T10:55:49.999Z</time>
      </trkpt>
      <trkpt lat="45.99738" lon="1.43965">
        <ele>579.79</ele>
        <time>2019-11-24T10:55:52.999Z</time>
      </trkpt>
      <trkpt lat="45.99745" lon="1.43953">
        <ele>577.58</ele>
        <time>2019-11-24T10:55:55.999Z</time>
      </trkpt>
      <trkpt lat="45.99751" lon="1.43942">
        <ele>574.93</ele>
        <time>2019-11-24T10:55:58.999Z</time>
      </trkpt>
      <trkpt lat="45.99757" lon="1.43931">
        <ele>572.05</ele>
        <time>2019-11-24T10:56:01.999Z</time>
      </trkpt>
      <trkpt lat="45.99765" lon="1.43919">
        <ele>567.93</ele>
        <time>2019-11-24T10:56:05.999Z</time>
      </trkpt>
      <trkpt lat="45.99773" lon="1.43907">
        <ele>563.74</ele>
        <time>2019-11-24T10:56:09.999Z</time>
      </trkpt>
      <trkpt lat="45.99779" lon="1.43894">
        <ele>559.53</ele>
        <time>2019-11-24T10:56:13.999Z</time>
      </trkpt>
      <trkpt lat="45.99785" lon="1.43881">
        <ele>555.41</ele>
        <time>2019-11-24T10:56:17.999Z</time>
      </trkpt>
      <trkpt lat="45.99793" lon="1.43869">
        <ele>550.64</ele>
        <time>2019-11-24T10:56:22.999Z</time>
      </trkpt>
      <trkpt lat="45.998" lon="1.43862">
        <ele>547.24</ele>
        <time>2019-11-24T10:56:26.999Z</time>
      </trkpt>
      <trkpt lat="45.99809" lon="1.43857">
        <ele>543.03</ele>
        <time>2019-11-24T10:56:32.999Z</time>
      </trkpt>
      <trkpt lat="45.9982" lon="1.43858">
        <ele>539.71</ele>
        <time>2019-11-24T10:56:39.999Z</time>
      </trkpt>
      <trkpt lat="45.99829" lon="1.43862">
        <ele>538.29</ele>
        <time>2019-11-24T10:56:43.999Z</time>
      </trkpt>
      <trkpt lat="45.99839" lon="1.43865">
        <ele>537.12</ele>
        <time>2019-11-24T10:56:47.999Z</time>
      </trkpt>
      <trkpt lat="45.99848" lon="1.43866">
        <ele>536.08</ele>
        <time>2019-11-24T10:56:52.999Z</time>
      </trkpt>
      <trkpt lat="45.99858" lon="1.43868">
        <ele>535.15</ele>
        <time>2019-11-24T10:56:57.999Z</time>
      </trkpt>
      <trkpt lat="45.99867" lon="1.43865">
        <ele>533.49</ele>
        <time>2019-11-24T10:57:00.999Z</time>
      </trkpt>
      <trkpt lat="45.99876" lon="1.43858">
        <ele>531.89</ele>
        <time>2019-11-24T10:57:02.999Z</time>
      </trkpt>
      <trkpt lat="45.99885" lon="1.43846">
        <ele>531.03</ele>
        <time>2019-11-24T10:57:04.999Z</time>
      </trkpt>
      <trkpt lat="45.99894" lon="1.43827">
        <ele>530.66</ele>
        <time>2019-11-24T10:57:06.999Z</time>
      </trkpt>
      <trkpt lat="45.99902" lon="1.43807">
        <ele>530.52</ele>
        <time>2019-11-24T10:57:08.999Z</time>
      </trkpt>
      <trkpt lat="45.99911" lon="1.43787">
        <ele>528.2</ele>
        <time>2019-11-24T10:57:10.999Z</time>
      </trkpt>
      <trkpt lat="45.99918" lon="1.43771">
        <ele>526.09</ele>
        <time>2019-11-24T10:57:12.999Z</time>
      </trkpt>
      <trkpt lat="45.99922" lon="1.43757">
        <ele>525</ele>
        <time>2019-11-24T10:57:14.999Z</time>
      </trkpt>
      <trkpt lat="45.99926" lon="1.43744">
        <ele>523.45</ele>
        <time>2019-11-24T10:57:16.999Z</time>
      </trkpt>
      <trkpt lat="45.99931" lon="1.43731">
        <ele>522.05</ele>
        <time>2019-11-24T10:57:18.999Z</time>
      </trkpt>
      <trkpt lat="45.99934" lon="1.43714">
        <ele>521.95</ele>
        <time>2019-11-24T10:57:21.999Z</time>
      </trkpt>
      <trkpt lat="45.99924" lon="1.4371">
        <ele>522.52</ele>
        <time>2019-11-24T10:57:31.999Z</time>
      </trkpt>
      <trkpt lat="45.99914" lon="1.43706">
        <ele>525.2</ele>
        <time>2019-11-24T10:57:39.999Z</time>
      </trkpt>
      <trkpt lat="45.99905" lon="1.43699">
        <ele>528.44</ele>
        <time>2019-11-24T10:57:49.999Z</time>
      </trkpt>
      <trkpt lat="45.99894" lon="1.437">
        <ele>530.15</ele>
        <time>2019-11-24T10:57:57.999Z</time>
      </trkpt>
      <trkpt lat="45.99888" lon="1.43689">
        <ele>530.9</ele>
        <time>2019-11-24T10:58:01.999Z</time>
      </trkpt>
      <trkpt lat="45.99879" lon="1.43678">
        <ele>531.52</ele>
        <time>2019-11-24T10:58:05.999Z</time>
      </trkpt>
      <trkpt lat="45.99871" lon="1.43669">
        <ele>531.91</ele>
        <time>2019-11-24T10:58:09.999Z</time>
      </trkpt>
      <trkpt lat="45.99863" lon="1.43659">
        <ele>532.61</ele>
        <time>2019-11-24T10:58:15.999Z</time>
      </trkpt>
      <trkpt lat="45.99853" lon="1.43652">
        <ele>533.75</ele>
        <time>2019-11-24T10:58:23.999Z</time>
      </trkpt>
      <trkpt lat="45.99846" lon="1.43644">
        <ele>534.3</ele>
        <time>2019-11-24T10:58:28.999Z</time>
      </trkpt>
      <trkpt lat="45.99836" lon="1.43639">
        <ele>535.02</ele>
        <time>2019-11-24T10:58:40.999Z</time>
      </trkpt>
      <trkpt lat="45.99829" lon="1.43624">
        <ele>535.08</ele>
        <time>2019-11-24T10:58:44.999Z</time>
      </trkpt>
      <trkpt lat="45.99822" lon="1.43613">
        <ele>534.65</ele>
        <time>2019-11-24T10:58:48.999Z</time>
      </trkpt>
      <trkpt lat="45.99825" lon="1.436">
        <ele>533.51</ele>
        <time>2019-11-24T10:59:10.999Z</time>
      </trkpt>
      <trkpt lat="45.99833" lon="1.43592">
        <ele>535.28</ele>
        <time>2019-11-24T10:59:21.999Z</time>
      </trkpt>
      <trkpt lat="45.99836" lon="1.4358">
        <ele>540.87</ele>
        <time>2019-11-24T10:59:38.999Z</time>
      </trkpt>
      <trkpt lat="45.99834" lon="1.43565">
        <ele>543.87</ele>
        <time>2019-11-24T10:59:45.999Z</time>
      </trkpt>
      <trkpt lat="45.99836" lon="1.43552">
        <ele>545.45</ele>
        <time>2019-11-24T10:59:49.999Z</time>
      </trkpt>
      <trkpt lat="45.99839" lon="1.43539">
        <ele>547.33</ele>
        <time>2019-11-24T10:59:54.999Z</time>
      </trkpt>
      <trkpt lat="45.99846" lon="1.43527">
        <ele>548.92</ele>
        <time>2019-11-24T10:59:59.999Z</time>
      </trkpt>
      <trkpt lat="45.99852" lon="1.43515">
        <ele>550.26</ele>
        <time>2019-11-24T11:00:05.999Z</time>
      </trkpt>
      <trkpt lat="45.99857" lon="1.43501">
        <ele>550.91</ele>
        <time>2019-11-24T11:00:10.999Z</time>
      </trkpt>
      <trkpt lat="45.99862" lon="1.43489">
        <ele>551.16</ele>
        <time>2019-11-24T11:00:14.999Z</time>
      </trkpt>
      <trkpt lat="45.99868" lon="1.43475">
        <ele>551.34</ele>
        <time>2019-11-24T11:00:19.999Z</time>
      </trkpt>
      <trkpt lat="45.99871" lon="1.43463">
        <ele>551.43</ele>
        <time>2019-11-24T11:00:23.999Z</time>
      </trkpt>
      <trkpt lat="45.99875" lon="1.43448">
        <ele>551.73</ele>
        <time>2019-11-24T11:00:29.999Z</time>
      </trkpt>
      <trkpt lat="45.99878" lon="1.43434">
        <ele>552.15</ele>
        <time>2019-11-24T11:00:35.999Z</time>
      </trkpt>
      <trkpt lat="45.99884" lon="1.43423">
        <ele>552.54</ele>
        <time>2019-11-24T11:00:41.999Z</time>
      </trkpt>
      <trkpt lat="45.99888" lon="1.4341">
        <ele>553.09</ele>
        <time>2019-11-24T11:00:49.999Z</time>
      </trkpt>
      <trkpt lat="45.99892" lon="1.43398">
        <ele>553.5</ele>
        <time>2019-11-24T11:00:55.999Z</time>
      </trkpt>
      <trkpt lat="45.99897" lon="1.43387">
        <ele>553.99</ele>
        <time>2019-11-24T11:01:01.999Z</time>
      </trkpt>
      <trkpt lat="45.99903" lon="1.43376">
        <ele>554.85</ele>
        <time>2019-11-24T11:01:09.999Z</time>
      </trkpt>
      <trkpt lat="45.99909" lon="1.43365">
        <ele>555.35</ele>
        <time>2019-11-24T11:01:14.999Z</time>
      </trkpt>
      <trkpt lat="45.99915" lon="1.43353">
        <ele>555.84</ele>
        <time>2019-11-24T11:01:19.999Z</time>
      </trkpt>
      <trkpt lat="45.99924" lon="1.43344">
        <ele>556.4</ele>
        <time>2019-11-24T11:01:23.999Z</time>
      </trkpt>
      <trkpt lat="45.99929" lon="1.43334">
        <ele>557.42</ele>
        <time>2019-11-24T11:01:27.999Z</time>
      </trkpt>
      <trkpt lat="45.99933" lon="1.43322">
        <ele>558.44</ele>
        <time>2019-11-24T11:01:31.999Z</time>
      </trkpt>
      <trkpt lat="45.99941" lon="1.43312">
        <ele>559.34</ele>
        <time>2019-11-24T11:01:35.999Z</time>
      </trkpt>
      <trkpt lat="45.9995" lon="1.43304">
        <ele>560.29</ele>
        <time>2019-11-24T11:01:40.999Z</time>
      </trkpt>
      <trkpt lat="45.99959" lon="1.43296">
        <ele>560.89</ele>
        <time>2019-11-24T11:01:44.999Z</time>
      </trkpt>
      <trkpt lat="45.99968" lon="1.4329">
        <ele>561.42</ele>
        <time>2019-11-24T11:01:48.999Z</time>
      </trkpt>
      <trkpt lat="45.99979" lon="1.43285">
        <ele>561.79</ele>
        <time>2019-11-24T11:01:51.999Z</time>
      </trkpt>
      <trkpt lat="45.99988" lon="1.43288">
        <ele>561.92</ele>
        <time>2019-11-24T11:01:53.999Z</time>
      </trkpt>
      <trkpt lat="45.99998" lon="1.43285">
        <ele>561.77</ele>
        <time>2019-11-24T11:01:57.999Z</time>
      </trkpt>
      <trkpt lat="46.00007" lon="1.43282">
        <ele>561.62</ele>
        <time>2019-11-24T11:02:01.999Z</time>
      </trkpt>
      <trkpt lat="46.00018" lon="1.43281">
        <ele>561.31</ele>
        <time>2019-11-24T11:02:04.999Z</time>
      </trkpt>
      <trkpt lat="46.00027" lon="1.43279">
        <ele>560.82</ele>
        <time>2019-11-24T11:02:07.999Z</time>
      </trkpt>
      <trkpt lat="46.00036" lon="1.43284">
        <ele>560.97</ele>
        <time>2019-11-24T11:02:12.999Z</time>
      </trkpt>
      <trkpt lat="46.00044" lon="1.43278">
        <ele>563.82</ele>
        <time>2019-11-24T11:02:25.999Z</time>
      </trkpt>
      <trkpt lat="46.00039" lon="1.43267">
        <ele>567.66</ele>
        <time>2019-11-24T11:02:39.999Z</time>
      </trkpt>
      <trkpt lat="46.00036" lon="1.4325">
        <ele>569.74</ele>
        <time>2019-11-24T11:02:46.999Z</time>
      </trkpt>
      <trkpt lat="46.00037" lon="1.43237">
        <ele>570.48</ele>
        <time>2019-11-24T11:02:48.999Z</time>
      </trkpt>
      <trkpt lat="46.00041" lon="1.43223">
        <ele>571.38</ele>
        <time>2019-11-24T11:02:52.999Z</time>
      </trkpt>
      <trkpt lat="46.0004" lon="1.4321">
        <ele>572.02</ele>
        <time>2019-11-24T11:02:56.999Z</time>
      </trkpt>
      <trkpt lat="46.00036" lon="1.43197">
        <ele>572.65</ele>
        <time>2019-11-24T11:03:00.999Z</time>
      </trkpt>
      <trkpt lat="46.00039" lon="1.43183">
        <ele>573.11</ele>
        <time>2019-11-24T11:03:04.999Z</time>
      </trkpt>
      <trkpt lat="46.00043" lon="1.43169">
        <ele>573.37</ele>
        <time>2019-11-24T11:03:07.999Z</time>
      </trkpt>
      <trkpt lat="46.00048" lon="1.43154">
        <ele>573.64</ele>
        <time>2019-11-24T11:03:10.999Z</time>
      </trkpt>
      <trkpt lat="46.00053" lon="1.4314">
        <ele>573.9</ele>
        <time>2019-11-24T11:03:13.999Z</time>
      </trkpt>
      <trkpt lat="46.00058" lon="1.43129">
        <ele>574.13</ele>
        <time>2019-11-24T11:03:16.999Z</time>
      </trkpt>
      <trkpt lat="46.00071" lon="1.43131">
        <ele>574.82</ele>
        <time>2019-11-24T11:03:21.999Z</time>
      </trkpt>
      <trkpt lat="46.00067" lon="1.43118">
        <ele>575.8</ele>
        <time>2019-11-24T11:03:26.999Z</time>
      </trkpt>
      <trkpt lat="46.00059" lon="1.43107">
        <ele>576.86</ele>
        <time>2019-11-24T11:03:30.999Z</time>
      </trkpt>
      <trkpt lat="46.00051" lon="1.43099">
        <ele>577.38</ele>
        <time>2019-11-24T11:03:33.999Z</time>
      </trkpt>
      <trkpt lat="46.00043" lon="1.43091">
        <ele>577.81</ele>
        <time>2019-11-24T11:03:36.999Z</time>
      </trkpt>
      <trkpt lat="46.00036" lon="1.43081">
        <ele>578.52</ele>
        <time>2019-11-24T11:03:43.999Z</time>
      </trkpt>
      <trkpt lat="46.00027" lon="1.43072">
        <ele>578.92</ele>
        <time>2019-11-24T11:03:49.999Z</time>
      </trkpt>
      <trkpt lat="46.00019" lon="1.43065">
        <ele>579.8</ele>
        <time>2019-11-24T11:03:57.999Z</time>
      </trkpt>
      <trkpt lat="46.0001" lon="1.43068">
        <ele>582.78</ele>
        <time>2019-11-24T11:04:23.999Z</time>
      </trkpt>
      <trkpt lat="46.00001" lon="1.43076">
        <ele>583.65</ele>
        <time>2019-11-24T11:04:29.999Z</time>
      </trkpt>
      <trkpt lat="45.99993" lon="1.43082">
        <ele>584.49</ele>
        <time>2019-11-24T11:04:33.999Z</time>
      </trkpt>
      <trkpt lat="45.99994" lon="1.43098">
        <ele>588.85</ele>
        <time>2019-11-24T11:04:51.999Z</time>
      </trkpt>
      <trkpt lat="45.99991" lon="1.43113">
        <ele>588.96</ele>
        <time>2019-11-24T11:04:54.999Z</time>
      </trkpt>
      <trkpt lat="45.99984" lon="1.43123">
        <ele>588.82</ele>
        <time>2019-11-24T11:04:58.999Z</time>
      </trkpt>
      <trkpt lat="45.99977" lon="1.43133">
        <ele>588.56</ele>
        <time>2019-11-24T11:05:00.999Z</time>
      </trkpt>
      <trkpt lat="45.9997" lon="1.43142">
        <ele>587.54</ele>
        <time>2019-11-24T11:05:04.999Z</time>
      </trkpt>
      <trkpt lat="45.99961" lon="1.4315">
        <ele>584.67</ele>
        <time>2019-11-24T11:05:15.999Z</time>
      </trkpt>
      <trkpt lat="45.99952" lon="1.43153">
        <ele>583.1</ele>
        <time>2019-11-24T11:05:20.999Z</time>
      </trkpt>
      <trkpt lat="45.9994" lon="1.4315">
        <ele>581.67</ele>
        <time>2019-11-24T11:05:26.999Z</time>
      </trkpt>
      <trkpt lat="45.99929" lon="1.43147">
        <ele>580.94</ele>
        <time>2019-11-24T11:05:30.999Z</time>
      </trkpt>
      <trkpt lat="45.9992" lon="1.43144">
        <ele>580.27</ele>
        <time>2019-11-24T11:05:36.999Z</time>
      </trkpt>
      <trkpt lat="45.9991" lon="1.43139">
        <ele>579.87</ele>
        <time>2019-11-24T11:05:41.999Z</time>
      </trkpt>
      <trkpt lat="45.99901" lon="1.43134">
        <ele>579.48</ele>
        <time>2019-11-24T11:05:46.999Z</time>
      </trkpt>
      <trkpt lat="45.99892" lon="1.43134">
        <ele>578.64</ele>
        <time>2019-11-24T11:05:55.999Z</time>
      </trkpt>
      <trkpt lat="45.99882" lon="1.43134">
        <ele>578.07</ele>
        <time>2019-11-24T11:06:01.999Z</time>
      </trkpt>
      <trkpt lat="45.99873" lon="1.43133">
        <ele>576.49</ele>
        <time>2019-11-24T11:06:17.999Z</time>
      </trkpt>
      <trkpt lat="45.99864" lon="1.43129">
        <ele>575.97</ele>
        <time>2019-11-24T11:06:23.999Z</time>
      </trkpt>
      <trkpt lat="45.99855" lon="1.43133">
        <ele>574.86</ele>
        <time>2019-11-24T11:06:29.999Z</time>
      </trkpt>
      <trkpt lat="45.99844" lon="1.43139">
        <ele>573.65</ele>
        <time>2019-11-24T11:06:34.999Z</time>
      </trkpt>
      <trkpt lat="45.99836" lon="1.43145">
        <ele>571.93</ele>
        <time>2019-11-24T11:06:44.999Z</time>
      </trkpt>
      <trkpt lat="45.99828" lon="1.43151">
        <ele>571.42</ele>
        <time>2019-11-24T11:06:47.999Z</time>
      </trkpt>
      <trkpt lat="45.99818" lon="1.43153">
        <ele>570.88</ele>
        <time>2019-11-24T11:06:50.999Z</time>
      </trkpt>
      <trkpt lat="45.9981" lon="1.43161">
        <ele>570.26</ele>
        <time>2019-11-24T11:06:53.999Z</time>
      </trkpt>
      <trkpt lat="45.99804" lon="1.43171">
        <ele>569.67</ele>
        <time>2019-11-24T11:06:56.999Z</time>
      </trkpt>
      <trkpt lat="45.99791" lon="1.43178">
        <ele>566.36</ele>
        <time>2019-11-24T11:06:58.999Z</time>
      </trkpt>
      <trkpt lat="45.99775" lon="1.43184">
        <ele>563.81</ele>
        <time>2019-11-24T11:07:00.999Z</time>
      </trkpt>
      <trkpt lat="45.99762" lon="1.43187">
        <ele>563.2</ele>
        <time>2019-11-24T11:07:01.999Z</time>
      </trkpt>
      <trkpt lat="45.99753" lon="1.4319">
        <ele>562.74</ele>
        <time>2019-11-24T11:07:02.999Z</time>
      </trkpt>
      <trkpt lat="45.99742" lon="1.43192">
        <ele>562.94</ele>
        <time>2019-11-24T11:07:03.999Z</time>
      </trkpt>
      <trkpt lat="45.99726" lon="1.43198">
        <ele>563.71</ele>
        <time>2019-11-24T11:07:05.999Z</time>
      </trkpt>
      <trkpt lat="45.99717" lon="1.43202">
        <ele>564.85</ele>
        <time>2019-11-24T11:07:06.999Z</time>
      </trkpt>
      <trkpt lat="45.99701" lon="1.43203">
        <ele>566.16</ele>
        <time>2019-11-24T11:07:08.999Z</time>
      </trkpt>
      <trkpt lat="45.9969" lon="1.43202">
        <ele>566.52</ele>
        <time>2019-11-24T11:07:10.999Z</time>
      </trkpt>
      <trkpt lat="45.9968" lon="1.43202">
        <ele>570.14</ele>
        <time>2019-11-24T11:07:13.999Z</time>
      </trkpt>
      <trkpt lat="45.99667" lon="1.43196">
        <ele>570.9</ele>
        <time>2019-11-24T11:07:16.999Z</time>
      </trkpt>
      <trkpt lat="45.99657" lon="1.43191">
        <ele>571.48</ele>
        <time>2019-11-24T11:07:19.999Z</time>
      </trkpt>
      <trkpt lat="45.99647" lon="1.43191">
        <ele>571.91</ele>
        <time>2019-11-24T11:07:21.999Z</time>
      </trkpt>
      <trkpt lat="45.99632" lon="1.43189">
        <ele>575.46</ele>
        <time>2019-11-24T11:07:22.999Z</time>
      </trkpt>
      <trkpt lat="45.9962" lon="1.43184">
        <ele>575.8</ele>
        <time>2019-11-24T11:07:23.999Z</time>
      </trkpt>
      <trkpt lat="45.99609" lon="1.43191">
        <ele>576.35</ele>
        <time>2019-11-24T11:07:27.999Z</time>
      </trkpt>
      <trkpt lat="45.99593" lon="1.43192">
        <ele>576.81</ele>
        <time>2019-11-24T11:07:29.999Z</time>
      </trkpt>
      <trkpt lat="45.99577" lon="1.43192">
        <ele>576.03</ele>
        <time>2019-11-24T11:07:31.999Z</time>
      </trkpt>
      <trkpt lat="45.99563" lon="1.43192">
        <ele>573.44</ele>
        <time>2019-11-24T11:07:33.999Z</time>
      </trkpt>
      <trkpt lat="45.99549" lon="1.43194">
        <ele>572.38</ele>
        <time>2019-11-24T11:07:35.999Z</time>
      </trkpt>
      <trkpt lat="45.99537" lon="1.43194">
        <ele>572.22</ele>
        <time>2019-11-24T11:07:36.999Z</time>
      </trkpt>
      <trkpt lat="45.99529" lon="1.43201">
        <ele>570.83</ele>
        <time>2019-11-24T11:07:38.999Z</time>
      </trkpt>
      <trkpt lat="45.99513" lon="1.43206">
        <ele>567.2</ele>
        <time>2019-11-24T11:07:40.999Z</time>
      </trkpt>
      <trkpt lat="45.99503" lon="1.43209">
        <ele>565.74</ele>
        <time>2019-11-24T11:07:41.999Z</time>
      </trkpt>
      <trkpt lat="45.99492" lon="1.43215">
        <ele>560.95</ele>
        <time>2019-11-24T11:07:44.999Z</time>
      </trkpt>
      <trkpt lat="45.99481" lon="1.43217">
        <ele>557.65</ele>
        <time>2019-11-24T11:07:46.999Z</time>
      </trkpt>
      <trkpt lat="45.99467" lon="1.43222">
        <ele>553.98</ele>
        <time>2019-11-24T11:07:49.999Z</time>
      </trkpt>
      <trkpt lat="45.99457" lon="1.43221">
        <ele>553.33</ele>
        <time>2019-11-24T11:07:50.999Z</time>
      </trkpt>
      <trkpt lat="45.99446" lon="1.4322">
        <ele>551.48</ele>
        <time>2019-11-24T11:07:52.999Z</time>
      </trkpt>
      <trkpt lat="45.99436" lon="1.43214">
        <ele>551.56</ele>
        <time>2019-11-24T11:07:53.999Z</time>
      </trkpt>
      <trkpt lat="45.99422" lon="1.43208">
        <ele>552.82</ele>
        <time>2019-11-24T11:07:55.999Z</time>
      </trkpt>
      <trkpt lat="45.99406" lon="1.43203">
        <ele>553.44</ele>
        <time>2019-11-24T11:07:56.999Z</time>
      </trkpt>
      <trkpt lat="45.99393" lon="1.432">
        <ele>554.72</ele>
        <time>2019-11-24T11:07:58.999Z</time>
      </trkpt>
      <trkpt lat="45.99374" lon="1.43194">
        <ele>555.72</ele>
        <time>2019-11-24T11:08:00.999Z</time>
      </trkpt>
      <trkpt lat="45.99364" lon="1.43192">
        <ele>556.54</ele>
        <time>2019-11-24T11:08:01.999Z</time>
      </trkpt>
      <trkpt lat="45.99352" lon="1.43178">
        <ele>558.3</ele>
        <time>2019-11-24T11:08:04.999Z</time>
      </trkpt>
      <trkpt lat="45.99344" lon="1.43169">
        <ele>558.84</ele>
        <time>2019-11-24T11:08:06.999Z</time>
      </trkpt>
      <trkpt lat="45.99341" lon="1.43152">
        <ele>559.41</ele>
        <time>2019-11-24T11:08:08.999Z</time>
      </trkpt>
      <trkpt lat="45.99336" lon="1.43137">
        <ele>559.87</ele>
        <time>2019-11-24T11:08:09.999Z</time>
      </trkpt>
      <trkpt lat="45.99328" lon="1.43123">
        <ele>560.79</ele>
        <time>2019-11-24T11:08:11.999Z</time>
      </trkpt>
      <trkpt lat="45.99322" lon="1.43108">
        <ele>561.71</ele>
        <time>2019-11-24T11:08:13.999Z</time>
      </trkpt>
      <trkpt lat="45.99313" lon="1.43089">
        <ele>562.71</ele>
        <time>2019-11-24T11:08:15.999Z</time>
      </trkpt>
      <trkpt lat="45.99305" lon="1.43078">
        <ele>571.76</ele>
        <time>2019-11-24T11:08:17.999Z</time>
      </trkpt>
      <trkpt lat="45.99293" lon="1.43062">
        <ele>581.46</ele>
        <time>2019-11-24T11:08:19.999Z</time>
      </trkpt>
      <trkpt lat="45.99287" lon="1.4305">
        <ele>585.6</ele>
        <time>2019-11-24T11:08:20.999Z</time>
      </trkpt>
      <trkpt lat="45.99279" lon="1.43028">
        <ele>586.4</ele>
        <time>2019-11-24T11:08:22.999Z</time>
      </trkpt>
      <trkpt lat="45.99274" lon="1.43012">
        <ele>589.55</ele>
        <time>2019-11-24T11:08:24.999Z</time>
      </trkpt>
      <trkpt lat="45.99272" lon="1.42999">
        <ele>591.19</ele>
        <time>2019-11-24T11:08:27.999Z</time>
      </trkpt>
      <trkpt lat="45.99268" lon="1.42987">
        <ele>590.99</ele>
        <time>2019-11-24T11:08:30.999Z</time>
      </trkpt>
      <trkpt lat="45.99259" lon="1.42979">
        <ele>590.89</ele>
        <time>2019-11-24T11:08:33.999Z</time>
      </trkpt>
      <trkpt lat="45.9925" lon="1.4297">
        <ele>590.69</ele>
        <time>2019-11-24T11:08:36.999Z</time>
      </trkpt>
      <trkpt lat="45.99248" lon="1.42955">
        <ele>590.49</ele>
        <time>2019-11-24T11:08:38.999Z</time>
      </trkpt>
      <trkpt lat="45.99253" lon="1.4294">
        <ele>590.19</ele>
        <time>2019-11-24T11:08:40.999Z</time>
      </trkpt>
      <trkpt lat="45.99244" lon="1.42939">
        <ele>589.54</ele>
        <time>2019-11-24T11:08:43.999Z</time>
      </trkpt>
      <trkpt lat="45.99232" lon="1.42935">
        <ele>588.72</ele>
        <time>2019-11-24T11:08:45.999Z</time>
      </trkpt>
      <trkpt lat="45.99223" lon="1.42939">
        <ele>587.67</ele>
        <time>2019-11-24T11:08:47.999Z</time>
      </trkpt>
      <trkpt lat="45.99211" lon="1.42942">
        <ele>585.91</ele>
        <time>2019-11-24T11:08:50.999Z</time>
      </trkpt>
      <trkpt lat="45.992" lon="1.42942">
        <ele>583.91</ele>
        <time>2019-11-24T11:08:53.999Z</time>
      </trkpt>
      <trkpt lat="45.99193" lon="1.42932">
        <ele>582.08</ele>
        <time>2019-11-24T11:08:56.999Z</time>
      </trkpt>
      <trkpt lat="45.99186" lon="1.4292">
        <ele>580.29</ele>
        <time>2019-11-24T11:08:59.999Z</time>
      </trkpt>
      <trkpt lat="45.9918" lon="1.42908">
        <ele>578.56</ele>
        <time>2019-11-24T11:09:02.999Z</time>
      </trkpt>
      <trkpt lat="45.99173" lon="1.42896">
        <ele>576.41</ele>
        <time>2019-11-24T11:09:06.999Z</time>
      </trkpt>
      <trkpt lat="45.99167" lon="1.42886">
        <ele>574.97</ele>
        <time>2019-11-24T11:09:09.999Z</time>
      </trkpt>
      <trkpt lat="45.99175" lon="1.42897">
        <ele>570.58</ele>
        <time>2019-11-24T11:09:20.999Z</time>
      </trkpt>
      <trkpt lat="45.9918" lon="1.42908">
        <ele>569.96</ele>
        <time>2019-11-24T11:09:23.999Z</time>
      </trkpt>
      <trkpt lat="45.99184" lon="1.42924">
        <ele>568.31</ele>
        <time>2019-11-24T11:09:26.999Z</time>
      </trkpt>
      <trkpt lat="45.99186" lon="1.42939">
        <ele>568.72</ele>
        <time>2019-11-24T11:09:29.999Z</time>
      </trkpt>
      <trkpt lat="45.99186" lon="1.42958">
        <ele>569.51</ele>
        <time>2019-11-24T11:09:32.999Z</time>
      </trkpt>
      <trkpt lat="45.99185" lon="1.42973">
        <ele>570.1</ele>
        <time>2019-11-24T11:09:34.999Z</time>
      </trkpt>
      <trkpt lat="45.99183" lon="1.42989">
        <ele>571.19</ele>
        <time>2019-11-24T11:09:37.999Z</time>
      </trkpt>
      <trkpt lat="45.99181" lon="1.43008">
        <ele>576.67</ele>
        <time>2019-11-24T11:09:40.999Z</time>
      </trkpt>
      <trkpt lat="45.99179" lon="1.43021">
        <ele>581.21</ele>
        <time>2019-11-24T11:09:42.999Z</time>
      </trkpt>
      <trkpt lat="45.99178" lon="1.4304">
        <ele>582.45</ele>
        <time>2019-11-24T11:09:45.999Z</time>
      </trkpt>
      <trkpt lat="45.99172" lon="1.43052">
        <ele>583.42</ele>
        <time>2019-11-24T11:09:47.999Z</time>
      </trkpt>
      <trkpt lat="45.99161" lon="1.43066">
        <ele>584.41</ele>
        <time>2019-11-24T11:09:49.999Z</time>
      </trkpt>
      <trkpt lat="45.99153" lon="1.43081">
        <ele>585.32</ele>
        <time>2019-11-24T11:09:51.999Z</time>
      </trkpt>
      <trkpt lat="45.99143" lon="1.43093">
        <ele>586.02</ele>
        <time>2019-11-24T11:09:53.999Z</time>
      </trkpt>
      <trkpt lat="45.99133" lon="1.43101">
        <ele>586.57</ele>
        <time>2019-11-24T11:09:55.999Z</time>
      </trkpt>
      <trkpt lat="45.99126" lon="1.43116">
        <ele>587.38</ele>
        <time>2019-11-24T11:09:58.999Z</time>
      </trkpt>
      <trkpt lat="45.99118" lon="1.43129">
        <ele>587.93</ele>
        <time>2019-11-24T11:10:00.999Z</time>
      </trkpt>
      <trkpt lat="45.99112" lon="1.43142">
        <ele>588.41</ele>
        <time>2019-11-24T11:10:02.999Z</time>
      </trkpt>
      <trkpt lat="45.99106" lon="1.43152">
        <ele>588.79</ele>
        <time>2019-11-24T11:10:04.999Z</time>
      </trkpt>
      <trkpt lat="45.99099" lon="1.43163">
        <ele>589.07</ele>
        <time>2019-11-24T11:10:06.999Z</time>
      </trkpt>
      <trkpt lat="45.99094" lon="1.43175">
        <ele>589.36</ele>
        <time>2019-11-24T11:10:08.999Z</time>
      </trkpt>
      <trkpt lat="45.99089" lon="1.4319">
        <ele>589.63</ele>
        <time>2019-11-24T11:10:11.999Z</time>
      </trkpt>
      <trkpt lat="45.99082" lon="1.43201">
        <ele>589.77</ele>
        <time>2019-11-24T11:10:14.999Z</time>
      </trkpt>
      <trkpt lat="45.99074" lon="1.43211">
        <ele>589.81</ele>
        <time>2019-11-24T11:10:17.999Z</time>
      </trkpt>
      <trkpt lat="45.99067" lon="1.43223">
        <ele>589.65</ele>
        <time>2019-11-24T11:10:20.999Z</time>
      </trkpt>
      <trkpt lat="45.9906" lon="1.43233">
        <ele>589.43</ele>
        <time>2019-11-24T11:10:24.999Z</time>
      </trkpt>
      <trkpt lat="45.99052" lon="1.43239">
        <ele>589.18</ele>
        <time>2019-11-24T11:10:27.999Z</time>
      </trkpt>
      <trkpt lat="45.99042" lon="1.43247">
        <ele>588.71</ele>
        <time>2019-11-24T11:10:29.999Z</time>
      </trkpt>
      <trkpt lat="45.99033" lon="1.43252">
        <ele>587.95</ele>
        <time>2019-11-24T11:10:31.999Z</time>
      </trkpt>
      <trkpt lat="45.99023" lon="1.43258">
        <ele>585.63</ele>
        <time>2019-11-24T11:10:36.999Z</time>
      </trkpt>
      <trkpt lat="45.99014" lon="1.43262">
        <ele>583.31</ele>
        <time>2019-11-24T11:10:42.999Z</time>
      </trkpt>
      <trkpt lat="45.99003" lon="1.43264">
        <ele>581.96</ele>
        <time>2019-11-24T11:10:46.999Z</time>
      </trkpt>
      <trkpt lat="45.98993" lon="1.43265">
        <ele>581.37</ele>
        <time>2019-11-24T11:10:48.999Z</time>
      </trkpt>
      <trkpt lat="45.98983" lon="1.43266">
        <ele>580.99</ele>
        <time>2019-11-24T11:10:50.999Z</time>
      </trkpt>
      <trkpt lat="45.98973" lon="1.43268">
        <ele>580.69</ele>
        <time>2019-11-24T11:10:52.999Z</time>
      </trkpt>
      <trkpt lat="45.98963" lon="1.43268">
        <ele>580.37</ele>
        <time>2019-11-24T11:10:54.999Z</time>
      </trkpt>
      <trkpt lat="45.98953" lon="1.43269">
        <ele>579.95</ele>
        <time>2019-11-24T11:10:56.999Z</time>
      </trkpt>
      <trkpt lat="45.98942" lon="1.43269">
        <ele>579.47</ele>
        <time>2019-11-24T11:10:58.999Z</time>
      </trkpt>
      <trkpt lat="45.98932" lon="1.4327">
        <ele>578.89</ele>
        <time>2019-11-24T11:11:00.999Z</time>
      </trkpt>
      <trkpt lat="45.98921" lon="1.43271">
        <ele>578.2</ele>
        <time>2019-11-24T11:11:02.999Z</time>
      </trkpt>
      <trkpt lat="45.98911" lon="1.43273">
        <ele>576.7</ele>
        <time>2019-11-24T11:11:07.999Z</time>
      </trkpt>
      <trkpt lat="45.98904" lon="1.43281">
        <ele>575.21</ele>
        <time>2019-11-24T11:11:13.999Z</time>
      </trkpt>
      <trkpt lat="45.98894" lon="1.43284">
        <ele>574.08</ele>
        <time>2019-11-24T11:11:25.999Z</time>
      </trkpt>
      <trkpt lat="45.98887" lon="1.43277">
        <ele>573.86</ele>
        <time>2019-11-24T11:11:32.999Z</time>
      </trkpt>
      <trkpt lat="45.98877" lon="1.43273">
        <ele>573.72</ele>
        <time>2019-11-24T11:11:38.999Z</time>
      </trkpt>
      <trkpt lat="45.98867" lon="1.43269">
        <ele>573.62</ele>
        <time>2019-11-24T11:11:43.999Z</time>
      </trkpt>
      <trkpt lat="45.98855" lon="1.43264">
        <ele>573.3</ele>
        <time>2019-11-24T11:11:48.999Z</time>
      </trkpt>
      <trkpt lat="45.98842" lon="1.43261">
        <ele>573.26</ele>
        <time>2019-11-24T11:11:51.999Z</time>
      </trkpt>
      <trkpt lat="45.9883" lon="1.43257">
        <ele>573.44</ele>
        <time>2019-11-24T11:11:54.999Z</time>
      </trkpt>
      <trkpt lat="45.98821" lon="1.4325">
        <ele>573.65</ele>
        <time>2019-11-24T11:11:56.999Z</time>
      </trkpt>
      <trkpt lat="45.9881" lon="1.43243">
        <ele>574.03</ele>
        <time>2019-11-24T11:11:59.999Z</time>
      </trkpt>
      <trkpt lat="45.98796" lon="1.43232">
        <ele>575.89</ele>
        <time>2019-11-24T11:12:02.999Z</time>
      </trkpt>
      <trkpt lat="45.98781" lon="1.43224">
        <ele>578.19</ele>
        <time>2019-11-24T11:12:04.999Z</time>
      </trkpt>
      <trkpt lat="45.98771" lon="1.43219">
        <ele>578.44</ele>
        <time>2019-11-24T11:12:06.999Z</time>
      </trkpt>
      <trkpt lat="45.98758" lon="1.43211">
        <ele>579.92</ele>
        <time>2019-11-24T11:12:08.999Z</time>
      </trkpt>
      <trkpt lat="45.9875" lon="1.43207">
        <ele>580.43</ele>
        <time>2019-11-24T11:12:09.999Z</time>
      </trkpt>
      <trkpt lat="45.98739" lon="1.432">
        <ele>581.53</ele>
        <time>2019-11-24T11:12:11.999Z</time>
      </trkpt>
      <trkpt lat="45.98723" lon="1.43189">
        <ele>582.42</ele>
        <time>2019-11-24T11:12:14.999Z</time>
      </trkpt>
      <trkpt lat="45.98714" lon="1.43183">
        <ele>582.33</ele>
        <time>2019-11-24T11:12:15.999Z</time>
      </trkpt>
      <trkpt lat="45.98706" lon="1.43175">
        <ele>582.38</ele>
        <time>2019-11-24T11:12:17.999Z</time>
      </trkpt>
      <trkpt lat="45.98696" lon="1.43167">
        <ele>582.49</ele>
        <time>2019-11-24T11:12:20.999Z</time>
      </trkpt>
      <trkpt lat="45.98687" lon="1.43159">
        <ele>582.88</ele>
        <time>2019-11-24T11:12:23.999Z</time>
      </trkpt>
      <trkpt lat="45.98674" lon="1.43149">
        <ele>583.45</ele>
        <time>2019-11-24T11:12:26.999Z</time>
      </trkpt>
      <trkpt lat="45.98664" lon="1.43141">
        <ele>584.07</ele>
        <time>2019-11-24T11:12:29.999Z</time>
      </trkpt>
      <trkpt lat="45.98654" lon="1.43135">
        <ele>584.68</ele>
        <time>2019-11-24T11:12:32.999Z</time>
      </trkpt>
      <trkpt lat="45.98644" lon="1.43126">
        <ele>585.14</ele>
        <time>2019-11-24T11:12:35.999Z</time>
      </trkpt>
      <trkpt lat="45.98634" lon="1.43118">
        <ele>585.56</ele>
        <time>2019-11-24T11:12:38.999Z</time>
      </trkpt>
      <trkpt lat="45.98621" lon="1.43109">
        <ele>586</ele>
        <time>2019-11-24T11:12:41.999Z</time>
      </trkpt>
      <trkpt lat="45.98612" lon="1.43103">
        <ele>586.44</ele>
        <time>2019-11-24T11:12:43.999Z</time>
      </trkpt>
      <trkpt lat="45.98605" lon="1.43094">
        <ele>587.1</ele>
        <time>2019-11-24T11:12:46.999Z</time>
      </trkpt>
      <trkpt lat="45.98594" lon="1.43085">
        <ele>589.74</ele>
        <time>2019-11-24T11:12:49.999Z</time>
      </trkpt>
      <trkpt lat="45.98583" lon="1.43076">
        <ele>590.14</ele>
        <time>2019-11-24T11:12:51.999Z</time>
      </trkpt>
      <trkpt lat="45.98573" lon="1.43061">
        <ele>593.71</ele>
        <time>2019-11-24T11:12:53.999Z</time>
      </trkpt>
      <trkpt lat="45.98568" lon="1.43039">
        <ele>595.63</ele>
        <time>2019-11-24T11:12:55.999Z</time>
      </trkpt>
      <trkpt lat="45.98558" lon="1.43014">
        <ele>596.05</ele>
        <time>2019-11-24T11:12:57.999Z</time>
      </trkpt>
      <trkpt lat="45.98553" lon="1.43002">
        <ele>597.12</ele>
        <time>2019-11-24T11:12:58.999Z</time>
      </trkpt>
      <trkpt lat="45.98543" lon="1.42986">
        <ele>598.22</ele>
        <time>2019-11-24T11:13:00.999Z</time>
      </trkpt>
      <trkpt lat="45.98528" lon="1.4297">
        <ele>598.94</ele>
        <time>2019-11-24T11:13:03.999Z</time>
      </trkpt>
      <trkpt lat="45.98516" lon="1.42956">
        <ele>598.43</ele>
        <time>2019-11-24T11:13:05.999Z</time>
      </trkpt>
      <trkpt lat="45.98508" lon="1.42948">
        <ele>598.29</ele>
        <time>2019-11-24T11:13:06.999Z</time>
      </trkpt>
      <trkpt lat="45.9849" lon="1.42931">
        <ele>597.36</ele>
        <time>2019-11-24T11:13:09.999Z</time>
      </trkpt>
      <trkpt lat="45.98479" lon="1.42917">
        <ele>592.68</ele>
        <time>2019-11-24T11:13:12.999Z</time>
      </trkpt>
      <trkpt lat="45.98472" lon="1.42906">
        <ele>592.12</ele>
        <time>2019-11-24T11:13:14.999Z</time>
      </trkpt>
      <trkpt lat="45.9846" lon="1.42899">
        <ele>591.2</ele>
        <time>2019-11-24T11:13:16.999Z</time>
      </trkpt>
      <trkpt lat="45.98449" lon="1.42894">
        <ele>585.89</ele>
        <time>2019-11-24T11:13:17.999Z</time>
      </trkpt>
      <trkpt lat="45.9844" lon="1.42884">
        <ele>581.2</ele>
        <time>2019-11-24T11:13:19.999Z</time>
      </trkpt>
      <trkpt lat="45.98424" lon="1.42874">
        <ele>577.28</ele>
        <time>2019-11-24T11:13:21.999Z</time>
      </trkpt>
      <trkpt lat="45.98408" lon="1.42859">
        <ele>574.09</ele>
        <time>2019-11-24T11:13:23.999Z</time>
      </trkpt>
      <trkpt lat="45.98396" lon="1.42845">
        <ele>569.98</ele>
        <time>2019-11-24T11:13:25.999Z</time>
      </trkpt>
      <trkpt lat="45.98386" lon="1.42833">
        <ele>569.12</ele>
        <time>2019-11-24T11:13:27.999Z</time>
      </trkpt>
      <trkpt lat="45.98377" lon="1.42821">
        <ele>569.53</ele>
        <time>2019-11-24T11:13:29.999Z</time>
      </trkpt>
      <trkpt lat="45.98367" lon="1.4281">
        <ele>570.88</ele>
        <time>2019-11-24T11:13:31.999Z</time>
      </trkpt>
      <trkpt lat="45.98359" lon="1.42792">
        <ele>572.11</ele>
        <time>2019-11-24T11:13:33.999Z</time>
      </trkpt>
      <trkpt lat="45.98354" lon="1.42772">
        <ele>572.29</ele>
        <time>2019-11-24T11:13:35.999Z</time>
      </trkpt>
      <trkpt lat="45.9835" lon="1.42756">
        <ele>574.29</ele>
        <time>2019-11-24T11:13:37.999Z</time>
      </trkpt>
      <trkpt lat="45.98343" lon="1.4273">
        <ele>576.32</ele>
        <time>2019-11-24T11:13:39.999Z</time>
      </trkpt>
      <trkpt lat="45.98339" lon="1.42706">
        <ele>576.92</ele>
        <time>2019-11-24T11:13:41.999Z</time>
      </trkpt>
      <trkpt lat="45.98336" lon="1.42688">
        <ele>576.95</ele>
        <time>2019-11-24T11:13:43.999Z</time>
      </trkpt>
      <trkpt lat="45.98332" lon="1.42664">
        <ele>576.71</ele>
        <time>2019-11-24T11:13:45.999Z</time>
      </trkpt>
      <trkpt lat="45.9833" lon="1.42643">
        <ele>573.57</ele>
        <time>2019-11-24T11:13:47.999Z</time>
      </trkpt>
      <trkpt lat="45.98327" lon="1.42625">
        <ele>571.31</ele>
        <time>2019-11-24T11:13:50.999Z</time>
      </trkpt>
      <trkpt lat="45.98325" lon="1.42606">
        <ele>567.98</ele>
        <time>2019-11-24T11:13:52.999Z</time>
      </trkpt>
      <trkpt lat="45.98323" lon="1.42585">
        <ele>565.57</ele>
        <time>2019-11-24T11:13:54.999Z</time>
      </trkpt>
      <trkpt lat="45.98325" lon="1.42565">
        <ele>564.39</ele>
        <time>2019-11-24T11:13:56.999Z</time>
      </trkpt>
      <trkpt lat="45.98325" lon="1.42546">
        <ele>563.88</ele>
        <time>2019-11-24T11:13:58.999Z</time>
      </trkpt>
      <trkpt lat="45.98327" lon="1.42522">
        <ele>562.36</ele>
        <time>2019-11-24T11:14:00.999Z</time>
      </trkpt>
      <trkpt lat="45.98329" lon="1.42504">
        <ele>560.7</ele>
        <time>2019-11-24T11:14:01.999Z</time>
      </trkpt>
      <trkpt lat="45.98331" lon="1.42488">
        <ele>558.16</ele>
        <time>2019-11-24T11:14:02.999Z</time>
      </trkpt>
      <trkpt lat="45.98334" lon="1.42476">
        <ele>556.12</ele>
        <time>2019-11-24T11:14:03.999Z</time>
      </trkpt>
      <trkpt lat="45.98339" lon="1.42461">
        <ele>551.92</ele>
        <time>2019-11-24T11:14:05.999Z</time>
      </trkpt>
      <trkpt lat="45.98339" lon="1.42447">
        <ele>550.28</ele>
        <time>2019-11-24T11:14:08.999Z</time>
      </trkpt>
      <trkpt lat="45.98338" lon="1.42431">
        <ele>549.88</ele>
        <time>2019-11-24T11:14:11.999Z</time>
      </trkpt>
      <trkpt lat="45.98337" lon="1.42416">
        <ele>549.58</ele>
        <time>2019-11-24T11:14:13.999Z</time>
      </trkpt>
      <trkpt lat="45.98333" lon="1.42396">
        <ele>546.04</ele>
        <time>2019-11-24T11:14:15.999Z</time>
      </trkpt>
      <trkpt lat="45.9833" lon="1.42381">
        <ele>543.96</ele>
        <time>2019-11-24T11:14:17.999Z</time>
      </trkpt>
      <trkpt lat="45.98323" lon="1.4237">
        <ele>543.36</ele>
        <time>2019-11-24T11:14:19.999Z</time>
      </trkpt>
      <trkpt lat="45.98314" lon="1.42362">
        <ele>543.09</ele>
        <time>2019-11-24T11:14:21.999Z</time>
      </trkpt>
      <trkpt lat="45.98304" lon="1.42349">
        <ele>544.85</ele>
        <time>2019-11-24T11:14:23.999Z</time>
      </trkpt>
      <trkpt lat="45.98295" lon="1.42335">
        <ele>546.98</ele>
        <time>2019-11-24T11:14:25.999Z</time>
      </trkpt>
      <trkpt lat="45.98289" lon="1.4232">
        <ele>550.13</ele>
        <time>2019-11-24T11:14:27.999Z</time>
      </trkpt>
      <trkpt lat="45.98285" lon="1.42306">
        <ele>551.66</ele>
        <time>2019-11-24T11:14:29.999Z</time>
      </trkpt>
      <trkpt lat="45.98279" lon="1.42291">
        <ele>552.92</ele>
        <time>2019-11-24T11:14:32.999Z</time>
      </trkpt>
      <trkpt lat="45.98269" lon="1.4228">
        <ele>557.52</ele>
        <time>2019-11-24T11:14:34.999Z</time>
      </trkpt>
      <trkpt lat="45.9826" lon="1.42259">
        <ele>561.35</ele>
        <time>2019-11-24T11:14:36.999Z</time>
      </trkpt>
      <trkpt lat="45.98256" lon="1.42246">
        <ele>563.51</ele>
        <time>2019-11-24T11:14:37.999Z</time>
      </trkpt>
      <trkpt lat="45.9825" lon="1.42226">
        <ele>565.95</ele>
        <time>2019-11-24T11:14:38.999Z</time>
      </trkpt>
      <trkpt lat="45.98247" lon="1.4221">
        <ele>567.67</ele>
        <time>2019-11-24T11:14:39.999Z</time>
      </trkpt>
      <trkpt lat="45.98244" lon="1.42191">
        <ele>568.7</ele>
        <time>2019-11-24T11:14:40.999Z</time>
      </trkpt>
      <trkpt lat="45.98241" lon="1.42161">
        <ele>569.63</ele>
        <time>2019-11-24T11:14:42.999Z</time>
      </trkpt>
      <trkpt lat="45.98242" lon="1.42145">
        <ele>569.1</ele>
        <time>2019-11-24T11:14:43.999Z</time>
      </trkpt>
      <trkpt lat="45.98244" lon="1.42124">
        <ele>567.16</ele>
        <time>2019-11-24T11:14:44.999Z</time>
      </trkpt>
      <trkpt lat="45.98248" lon="1.42107">
        <ele>566.89</ele>
        <time>2019-11-24T11:14:45.999Z</time>
      </trkpt>
      <trkpt lat="45.98255" lon="1.42087">
        <ele>565.92</ele>
        <time>2019-11-24T11:14:47.999Z</time>
      </trkpt>
      <trkpt lat="45.98262" lon="1.42078">
        <ele>563.72</ele>
        <time>2019-11-24T11:14:50.999Z</time>
      </trkpt>
      <trkpt lat="45.98271" lon="1.42074">
        <ele>551.86</ele>
        <time>2019-11-24T11:16:09.999Z</time>
      </trkpt>
      <trkpt lat="45.98276" lon="1.42086">
        <ele>546.33</ele>
        <time>2019-11-24T11:16:23.999Z</time>
      </trkpt>
      <trkpt lat="45.98267" lon="1.42091">
        <ele>534.94</ele>
        <time>2019-11-24T11:16:44.999Z</time>
      </trkpt>
      <trkpt lat="45.98258" lon="1.42096">
        <ele>532.69</ele>
        <time>2019-11-24T11:16:48.999Z</time>
      </trkpt>
      <trkpt lat="45.98249" lon="1.42098">
        <ele>531.14</ele>
        <time>2019-11-24T11:16:51.999Z</time>
      </trkpt>
      <trkpt lat="45.98237" lon="1.42101">
        <ele>530.04</ele>
        <time>2019-11-24T11:16:53.999Z</time>
      </trkpt>
      <trkpt lat="45.98227" lon="1.42109">
        <ele>528.93</ele>
        <time>2019-11-24T11:16:55.999Z</time>
      </trkpt>
      <trkpt lat="45.98219" lon="1.4212">
        <ele>527.5</ele>
        <time>2019-11-24T11:16:58.999Z</time>
      </trkpt>
      <trkpt lat="45.98209" lon="1.42124">
        <ele>526.36</ele>
        <time>2019-11-24T11:17:01.999Z</time>
      </trkpt>
      <trkpt lat="45.98196" lon="1.42125">
        <ele>522.31</ele>
        <time>2019-11-24T11:17:02.999Z</time>
      </trkpt>
      <trkpt lat="45.98173" lon="1.42126">
        <ele>515.87</ele>
        <time>2019-11-24T11:17:04.999Z</time>
      </trkpt>
      <trkpt lat="45.9815" lon="1.42124">
        <ele>511.92</ele>
        <time>2019-11-24T11:17:06.999Z</time>
      </trkpt>
      <trkpt lat="45.98139" lon="1.42121">
        <ele>510.09</ele>
        <time>2019-11-24T11:17:07.999Z</time>
      </trkpt>
      <trkpt lat="45.98129" lon="1.4212">
        <ele>507.83</ele>
        <time>2019-11-24T11:17:08.999Z</time>
      </trkpt>
      <trkpt lat="45.98115" lon="1.42113">
        <ele>504.65</ele>
        <time>2019-11-24T11:17:10.999Z</time>
      </trkpt>
      <trkpt lat="45.98104" lon="1.42104">
        <ele>503.1</ele>
        <time>2019-11-24T11:17:12.999Z</time>
      </trkpt>
      <trkpt lat="45.98087" lon="1.42098">
        <ele>502.17</ele>
        <time>2019-11-24T11:17:13.999Z</time>
      </trkpt>
      <trkpt lat="45.98074" lon="1.42092">
        <ele>501.38</ele>
        <time>2019-11-24T11:17:14.999Z</time>
      </trkpt>
      <trkpt lat="45.98059" lon="1.42088">
        <ele>498.87</ele>
        <time>2019-11-24T11:17:16.999Z</time>
      </trkpt>
      <trkpt lat="45.98044" lon="1.42082">
        <ele>500.99</ele>
        <time>2019-11-24T11:17:18.999Z</time>
      </trkpt>
      <trkpt lat="45.98035" lon="1.4207">
        <ele>505.37</ele>
        <time>2019-11-24T11:17:20.999Z</time>
      </trkpt>
      <trkpt lat="45.9803" lon="1.42059">
        <ele>510.45</ele>
        <time>2019-11-24T11:17:23.999Z</time>
      </trkpt>
      <trkpt lat="45.98021" lon="1.42046">
        <ele>513.07</ele>
        <time>2019-11-24T11:17:26.999Z</time>
      </trkpt>
      <trkpt lat="45.98019" lon="1.42032">
        <ele>507.84</ele>
        <time>2019-11-24T11:17:28.999Z</time>
      </trkpt>
      <trkpt lat="45.98013" lon="1.42045">
        <ele>497.47</ele>
        <time>2019-11-24T11:17:32.999Z</time>
      </trkpt>
      <trkpt lat="45.98012" lon="1.42059">
        <ele>495.3</ele>
        <time>2019-11-24T11:17:35.999Z</time>
      </trkpt>
      <trkpt lat="45.98003" lon="1.42059">
        <ele>492.35</ele>
        <time>2019-11-24T11:17:39.999Z</time>
      </trkpt>
      <trkpt lat="45.97992" lon="1.42048">
        <ele>487.91</ele>
        <time>2019-11-24T11:17:41.999Z</time>
      </trkpt>
      <trkpt lat="45.97983" lon="1.42037">
        <ele>485.17</ele>
        <time>2019-11-24T11:17:43.999Z</time>
      </trkpt>
      <trkpt lat="45.97981" lon="1.4202">
        <ele>483.73</ele>
        <time>2019-11-24T11:17:45.999Z</time>
      </trkpt>
      <trkpt lat="45.97984" lon="1.41998">
        <ele>482.33</ele>
        <time>2019-11-24T11:17:47.999Z</time>
      </trkpt>
      <trkpt lat="45.97986" lon="1.41974">
        <ele>480.94</ele>
        <time>2019-11-24T11:17:49.999Z</time>
      </trkpt>
      <trkpt lat="45.97985" lon="1.4195">
        <ele>478.94</ele>
        <time>2019-11-24T11:17:51.999Z</time>
      </trkpt>
      <trkpt lat="45.97981" lon="1.41926">
        <ele>477.18</ele>
        <time>2019-11-24T11:17:53.999Z</time>
      </trkpt>
      <trkpt lat="45.9798" lon="1.41913">
        <ele>476.26</ele>
        <time>2019-11-24T11:17:54.999Z</time>
      </trkpt>
      <trkpt lat="45.97981" lon="1.41889">
        <ele>474.26</ele>
        <time>2019-11-24T11:17:56.999Z</time>
      </trkpt>
      <trkpt lat="45.97979" lon="1.41872">
        <ele>473.04</ele>
        <time>2019-11-24T11:17:58.999Z</time>
      </trkpt>
      <trkpt lat="45.97975" lon="1.41861">
        <ele>472.83</ele>
        <time>2019-11-24T11:18:01.999Z</time>
      </trkpt>
      <trkpt lat="45.97965" lon="1.41858">
        <ele>469.61</ele>
        <time>2019-11-24T11:18:03.999Z</time>
      </trkpt>
      <trkpt lat="45.97954" lon="1.41854">
        <ele>466.58</ele>
        <time>2019-11-24T11:18:05.999Z</time>
      </trkpt>
      <trkpt lat="45.97941" lon="1.41847">
        <ele>463.97</ele>
        <time>2019-11-24T11:18:07.999Z</time>
      </trkpt>
      <trkpt lat="45.97924" lon="1.4184">
        <ele>463.18</ele>
        <time>2019-11-24T11:18:09.999Z</time>
      </trkpt>
      <trkpt lat="45.97915" lon="1.41837">
        <ele>463.53</ele>
        <time>2019-11-24T11:18:10.999Z</time>
      </trkpt>
      <trkpt lat="45.979" lon="1.41832">
        <ele>463.11</ele>
        <time>2019-11-24T11:18:12.999Z</time>
      </trkpt>
      <trkpt lat="45.97885" lon="1.41825">
        <ele>463.2</ele>
        <time>2019-11-24T11:18:14.999Z</time>
      </trkpt>
      <trkpt lat="45.9787" lon="1.41818">
        <ele>462.61</ele>
        <time>2019-11-24T11:18:16.999Z</time>
      </trkpt>
      <trkpt lat="45.97854" lon="1.41812">
        <ele>461.34</ele>
        <time>2019-11-24T11:18:18.999Z</time>
      </trkpt>
      <trkpt lat="45.97838" lon="1.4182">
        <ele>460.7</ele>
        <time>2019-11-24T11:18:20.999Z</time>
      </trkpt>
      <trkpt lat="45.9783" lon="1.41841">
        <ele>460.23</ele>
        <time>2019-11-24T11:18:22.999Z</time>
      </trkpt>
      <trkpt lat="45.97823" lon="1.41862">
        <ele>459.04</ele>
        <time>2019-11-24T11:18:24.999Z</time>
      </trkpt>
      <trkpt lat="45.97814" lon="1.41881">
        <ele>456.89</ele>
        <time>2019-11-24T11:18:26.999Z</time>
      </trkpt>
      <trkpt lat="45.97803" lon="1.41897">
        <ele>455.13</ele>
        <time>2019-11-24T11:18:28.999Z</time>
      </trkpt>
      <trkpt lat="45.97792" lon="1.41902">
        <ele>452.65</ele>
        <time>2019-11-24T11:18:31.999Z</time>
      </trkpt>
      <trkpt lat="45.97783" lon="1.41896">
        <ele>451.77</ele>
        <time>2019-11-24T11:18:34.999Z</time>
      </trkpt>
      <trkpt lat="45.97772" lon="1.41901">
        <ele>450.57</ele>
        <time>2019-11-24T11:18:37.999Z</time>
      </trkpt>
      <trkpt lat="45.97763" lon="1.41907">
        <ele>450.5</ele>
        <time>2019-11-24T11:18:41.999Z</time>
      </trkpt>
      <trkpt lat="45.97753" lon="1.41912">
        <ele>450.92</ele>
        <time>2019-11-24T11:18:47.999Z</time>
      </trkpt>
      <trkpt lat="45.97743" lon="1.41912">
        <ele>451.23</ele>
        <time>2019-11-24T11:18:50.999Z</time>
      </trkpt>
      <trkpt lat="45.97732" lon="1.41911">
        <ele>451.73</ele>
        <time>2019-11-24T11:18:54.999Z</time>
      </trkpt>
      <trkpt lat="45.97723" lon="1.41908">
        <ele>452.31</ele>
        <time>2019-11-24T11:18:57.999Z</time>
      </trkpt>
      <trkpt lat="45.97712" lon="1.41904">
        <ele>453.12</ele>
        <time>2019-11-24T11:19:01.999Z</time>
      </trkpt>
      <trkpt lat="45.977" lon="1.41897">
        <ele>453.77</ele>
        <time>2019-11-24T11:19:04.999Z</time>
      </trkpt>
      <trkpt lat="45.97696" lon="1.41879">
        <ele>454.62</ele>
        <time>2019-11-24T11:19:07.999Z</time>
      </trkpt>
      <trkpt lat="45.97695" lon="1.41863">
        <ele>455.39</ele>
        <time>2019-11-24T11:19:10.999Z</time>
      </trkpt>
      <trkpt lat="45.97695" lon="1.41846">
        <ele>455.86</ele>
        <time>2019-11-24T11:19:13.999Z</time>
      </trkpt>
      <trkpt lat="45.97694" lon="1.41828">
        <ele>457.24</ele>
        <time>2019-11-24T11:19:16.999Z</time>
      </trkpt>
      <trkpt lat="45.97694" lon="1.41814">
        <ele>458.09</ele>
        <time>2019-11-24T11:19:18.999Z</time>
      </trkpt>
      <trkpt lat="45.97695" lon="1.41798">
        <ele>459.06</ele>
        <time>2019-11-24T11:19:20.999Z</time>
      </trkpt>
      <trkpt lat="45.97697" lon="1.41776">
        <ele>459.1</ele>
        <time>2019-11-24T11:19:22.999Z</time>
      </trkpt>
      <trkpt lat="45.977" lon="1.41753">
        <ele>458.82</ele>
        <time>2019-11-24T11:19:24.999Z</time>
      </trkpt>
      <trkpt lat="45.97703" lon="1.4174">
        <ele>458.32</ele>
        <time>2019-11-24T11:19:25.999Z</time>
      </trkpt>
      <trkpt lat="45.97705" lon="1.41726">
        <ele>457.91</ele>
        <time>2019-11-24T11:19:26.999Z</time>
      </trkpt>
      <trkpt lat="45.97708" lon="1.41712">
        <ele>457.15</ele>
        <time>2019-11-24T11:19:27.999Z</time>
      </trkpt>
      <trkpt lat="45.97711" lon="1.41699">
        <ele>455.86</ele>
        <time>2019-11-24T11:19:28.999Z</time>
      </trkpt>
      <trkpt lat="45.97713" lon="1.41685">
        <ele>454.59</ele>
        <time>2019-11-24T11:19:29.999Z</time>
      </trkpt>
      <trkpt lat="45.97714" lon="1.41671">
        <ele>453.87</ele>
        <time>2019-11-24T11:19:30.999Z</time>
      </trkpt>
      <trkpt lat="45.97716" lon="1.41658">
        <ele>453.06</ele>
        <time>2019-11-24T11:19:31.999Z</time>
      </trkpt>
      <trkpt lat="45.9772" lon="1.41644">
        <ele>452.12</ele>
        <time>2019-11-24T11:19:32.999Z</time>
      </trkpt>
      <trkpt lat="45.97722" lon="1.4163">
        <ele>451.16</ele>
        <time>2019-11-24T11:19:33.999Z</time>
      </trkpt>
      <trkpt lat="45.97723" lon="1.41617">
        <ele>450.25</ele>
        <time>2019-11-24T11:19:34.999Z</time>
      </trkpt>
      <trkpt lat="45.97724" lon="1.41604">
        <ele>449.2</ele>
        <time>2019-11-24T11:19:35.999Z</time>
      </trkpt>
      <trkpt lat="45.97726" lon="1.41591">
        <ele>448.5</ele>
        <time>2019-11-24T11:19:36.999Z</time>
      </trkpt>
      <trkpt lat="45.97729" lon="1.41578">
        <ele>448.34</ele>
        <time>2019-11-24T11:19:37.999Z</time>
      </trkpt>
      <trkpt lat="45.9773" lon="1.41565">
        <ele>448.12</ele>
        <time>2019-11-24T11:19:38.999Z</time>
      </trkpt>
      <trkpt lat="45.97733" lon="1.41552">
        <ele>447.58</ele>
        <time>2019-11-24T11:19:39.999Z</time>
      </trkpt>
      <trkpt lat="45.97735" lon="1.41539">
        <ele>447.44</ele>
        <time>2019-11-24T11:19:40.999Z</time>
      </trkpt>
      <trkpt lat="45.97736" lon="1.41526">
        <ele>447.28</ele>
        <time>2019-11-24T11:19:41.999Z</time>
      </trkpt>
      <trkpt lat="45.97737" lon="1.41513">
        <ele>447.11</ele>
        <time>2019-11-24T11:19:42.999Z</time>
      </trkpt>
      <trkpt lat="45.9774" lon="1.415">
        <ele>446.92</ele>
        <time>2019-11-24T11:19:43.999Z</time>
      </trkpt>
      <trkpt lat="45.97744" lon="1.41487">
        <ele>446.55</ele>
        <time>2019-11-24T11:19:44.999Z</time>
      </trkpt>
      <trkpt lat="45.97748" lon="1.41475">
        <ele>445.52</ele>
        <time>2019-11-24T11:19:45.999Z</time>
      </trkpt>
      <trkpt lat="45.97753" lon="1.41463">
        <ele>444.58</ele>
        <time>2019-11-24T11:19:46.999Z</time>
      </trkpt>
      <trkpt lat="45.97758" lon="1.41451">
        <ele>443.62</ele>
        <time>2019-11-24T11:19:47.999Z</time>
      </trkpt>
      <trkpt lat="45.97762" lon="1.41439">
        <ele>442.64</ele>
        <time>2019-11-24T11:19:48.999Z</time>
      </trkpt>
      <trkpt lat="45.97774" lon="1.41419">
        <ele>441.4</ele>
        <time>2019-11-24T11:19:50.999Z</time>
      </trkpt>
      <trkpt lat="45.9778" lon="1.4141">
        <ele>440.84</ele>
        <time>2019-11-24T11:19:51.999Z</time>
      </trkpt>
      <trkpt lat="45.97792" lon="1.41391">
        <ele>439.53</ele>
        <time>2019-11-24T11:19:53.999Z</time>
      </trkpt>
      <trkpt lat="45.97804" lon="1.41374">
        <ele>439.46</ele>
        <time>2019-11-24T11:19:55.999Z</time>
      </trkpt>
      <trkpt lat="45.97814" lon="1.41358">
        <ele>438.77</ele>
        <time>2019-11-24T11:19:57.999Z</time>
      </trkpt>
      <trkpt lat="45.97823" lon="1.41342">
        <ele>438.41</ele>
        <time>2019-11-24T11:19:59.999Z</time>
      </trkpt>
      <trkpt lat="45.97832" lon="1.41326">
        <ele>437.86</ele>
        <time>2019-11-24T11:20:01.999Z</time>
      </trkpt>
      <trkpt lat="45.9784" lon="1.41307">
        <ele>436.28</ele>
        <time>2019-11-24T11:20:03.999Z</time>
      </trkpt>
      <trkpt lat="45.97848" lon="1.41288">
        <ele>435.34</ele>
        <time>2019-11-24T11:20:05.999Z</time>
      </trkpt>
      <trkpt lat="45.97857" lon="1.41268">
        <ele>434.63</ele>
        <time>2019-11-24T11:20:07.999Z</time>
      </trkpt>
      <trkpt lat="45.97859" lon="1.41247">
        <ele>434.43</ele>
        <time>2019-11-24T11:20:09.999Z</time>
      </trkpt>
      <trkpt lat="45.9786" lon="1.41228">
        <ele>434.32</ele>
        <time>2019-11-24T11:20:11.999Z</time>
      </trkpt>
      <trkpt lat="45.9786" lon="1.41215">
        <ele>434.14</ele>
        <time>2019-11-24T11:20:14.999Z</time>
      </trkpt>
      <trkpt lat="45.97852" lon="1.41207">
        <ele>435.83</ele>
        <time>2019-11-24T11:20:17.999Z</time>
      </trkpt>
      <trkpt lat="45.97841" lon="1.41198">
        <ele>436.28</ele>
        <time>2019-11-24T11:20:21.999Z</time>
      </trkpt>
      <trkpt lat="45.97831" lon="1.41191">
        <ele>436.81</ele>
        <time>2019-11-24T11:20:26.999Z</time>
      </trkpt>
      <trkpt lat="45.97818" lon="1.41187">
        <ele>437.11</ele>
        <time>2019-11-24T11:20:32.999Z</time>
      </trkpt>
      <trkpt lat="45.97808" lon="1.41188">
        <ele>436.78</ele>
        <time>2019-11-24T11:20:38.999Z</time>
      </trkpt>
      <trkpt lat="45.97799" lon="1.41193">
        <ele>436.15</ele>
        <time>2019-11-24T11:20:42.999Z</time>
      </trkpt>
      <trkpt lat="45.9779" lon="1.41198">
        <ele>435</ele>
        <time>2019-11-24T11:20:52.999Z</time>
      </trkpt>
      <trkpt lat="45.97781" lon="1.41202">
        <ele>434.77</ele>
        <time>2019-11-24T11:21:00.999Z</time>
      </trkpt>
      <trkpt lat="45.97771" lon="1.41204">
        <ele>434.62</ele>
        <time>2019-11-24T11:21:06.999Z</time>
      </trkpt>
      <trkpt lat="45.9776" lon="1.41206">
        <ele>434.71</ele>
        <time>2019-11-24T11:21:10.999Z</time>
      </trkpt>
      <trkpt lat="45.97747" lon="1.41206">
        <ele>435.28</ele>
        <time>2019-11-24T11:21:13.999Z</time>
      </trkpt>
      <trkpt lat="45.97736" lon="1.41209">
        <ele>436.05</ele>
        <time>2019-11-24T11:21:16.999Z</time>
      </trkpt>
      <trkpt lat="45.97727" lon="1.4121">
        <ele>437.5</ele>
        <time>2019-11-24T11:21:20.999Z</time>
      </trkpt>
      <trkpt lat="45.97713" lon="1.41212">
        <ele>438.25</ele>
        <time>2019-11-24T11:21:22.999Z</time>
      </trkpt>
      <trkpt lat="45.97702" lon="1.41212">
        <ele>438.54</ele>
        <time>2019-11-24T11:21:23.999Z</time>
      </trkpt>
      <trkpt lat="45.97686" lon="1.41208">
        <ele>439.12</ele>
        <time>2019-11-24T11:21:25.999Z</time>
      </trkpt>
      <trkpt lat="45.97672" lon="1.41207">
        <ele>439.81</ele>
        <time>2019-11-24T11:21:27.999Z</time>
      </trkpt>
      <trkpt lat="45.97661" lon="1.41207">
        <ele>440.91</ele>
        <time>2019-11-24T11:21:30.999Z</time>
      </trkpt>
      <trkpt lat="45.97648" lon="1.41206">
        <ele>441.53</ele>
        <time>2019-11-24T11:21:32.999Z</time>
      </trkpt>
      <trkpt lat="45.97636" lon="1.41207">
        <ele>442</ele>
        <time>2019-11-24T11:21:34.999Z</time>
      </trkpt>
      <trkpt lat="45.97625" lon="1.41206">
        <ele>443.31</ele>
        <time>2019-11-24T11:21:38.999Z</time>
      </trkpt>
      <trkpt lat="45.97616" lon="1.41206">
        <ele>444.55</ele>
        <time>2019-11-24T11:21:41.999Z</time>
      </trkpt>
      <trkpt lat="45.97606" lon="1.41208">
        <ele>445.43</ele>
        <time>2019-11-24T11:21:43.999Z</time>
      </trkpt>
      <trkpt lat="45.97596" lon="1.41208">
        <ele>446.26</ele>
        <time>2019-11-24T11:21:45.999Z</time>
      </trkpt>
      <trkpt lat="45.97587" lon="1.41217">
        <ele>446.95</ele>
        <time>2019-11-24T11:21:47.999Z</time>
      </trkpt>
      <trkpt lat="45.97579" lon="1.41225">
        <ele>447.64</ele>
        <time>2019-11-24T11:21:49.999Z</time>
      </trkpt>
      <trkpt lat="45.97571" lon="1.4123">
        <ele>448.63</ele>
        <time>2019-11-24T11:21:52.999Z</time>
      </trkpt>
      <trkpt lat="45.97563" lon="1.41237">
        <ele>449.27</ele>
        <time>2019-11-24T11:21:54.999Z</time>
      </trkpt>
      <trkpt lat="45.97551" lon="1.4125">
        <ele>451.32</ele>
        <time>2019-11-24T11:21:56.999Z</time>
      </trkpt>
      <trkpt lat="45.97543" lon="1.4126">
        <ele>451.53</ele>
        <time>2019-11-24T11:21:58.999Z</time>
      </trkpt>
      <trkpt lat="45.97533" lon="1.41269">
        <ele>452.08</ele>
        <time>2019-11-24T11:22:07.999Z</time>
      </trkpt>
      <trkpt lat="45.9752" lon="1.41276">
        <ele>452.4</ele>
        <time>2019-11-24T11:22:09.999Z</time>
      </trkpt>
      <trkpt lat="45.9751" lon="1.41275">
        <ele>452.84</ele>
        <time>2019-11-24T11:22:11.999Z</time>
      </trkpt>
      <trkpt lat="45.97502" lon="1.41282">
        <ele>454.47</ele>
        <time>2019-11-24T11:22:17.999Z</time>
      </trkpt>
      <trkpt lat="45.97495" lon="1.41291">
        <ele>455.82</ele>
        <time>2019-11-24T11:22:23.999Z</time>
      </trkpt>
      <trkpt lat="45.97486" lon="1.41299">
        <ele>457.5</ele>
        <time>2019-11-24T11:22:29.999Z</time>
      </trkpt>
      <trkpt lat="45.97471" lon="1.41302">
        <ele>458.18</ele>
        <time>2019-11-24T11:22:32.999Z</time>
      </trkpt>
      <trkpt lat="45.97461" lon="1.41307">
        <ele>459.24</ele>
        <time>2019-11-24T11:22:36.999Z</time>
      </trkpt>
      <trkpt lat="45.97454" lon="1.41318">
        <ele>459.64</ele>
        <time>2019-11-24T11:22:39.999Z</time>
      </trkpt>
      <trkpt lat="45.97447" lon="1.41326">
        <ele>459.43</ele>
        <time>2019-11-24T11:22:42.999Z</time>
      </trkpt>
      <trkpt lat="45.97437" lon="1.41324">
        <ele>459.13</ele>
        <time>2019-11-24T11:22:46.999Z</time>
      </trkpt>
      <trkpt lat="45.97428" lon="1.41315">
        <ele>458.62</ele>
        <time>2019-11-24T11:22:49.999Z</time>
      </trkpt>
      <trkpt lat="45.9742" lon="1.41308">
        <ele>457.54</ele>
        <time>2019-11-24T11:22:53.999Z</time>
      </trkpt>
      <trkpt lat="45.97415" lon="1.41294">
        <ele>456.19</ele>
        <time>2019-11-24T11:22:57.999Z</time>
      </trkpt>
      <trkpt lat="45.97413" lon="1.41281">
        <ele>455.73</ele>
        <time>2019-11-24T11:22:59.999Z</time>
      </trkpt>
      <trkpt lat="45.9742" lon="1.41267">
        <ele>454.91</ele>
        <time>2019-11-24T11:23:02.999Z</time>
      </trkpt>
      <trkpt lat="45.97415" lon="1.41255">
        <ele>453.36</ele>
        <time>2019-11-24T11:23:06.999Z</time>
      </trkpt>
      <trkpt lat="45.97409" lon="1.41243">
        <ele>452.26</ele>
        <time>2019-11-24T11:23:09.999Z</time>
      </trkpt>
      <trkpt lat="45.97398" lon="1.4123">
        <ele>451.89</ele>
        <time>2019-11-24T11:23:12.999Z</time>
      </trkpt>
      <trkpt lat="45.974" lon="1.41212">
        <ele>451.98</ele>
        <time>2019-11-24T11:23:14.999Z</time>
      </trkpt>
      <trkpt lat="45.97403" lon="1.41196">
        <ele>451.94</ele>
        <time>2019-11-24T11:23:16.999Z</time>
      </trkpt>
      <trkpt lat="45.97408" lon="1.41185">
        <ele>451.61</ele>
        <time>2019-11-24T11:23:21.999Z</time>
      </trkpt>
      <trkpt lat="45.97409" lon="1.41164">
        <ele>450</ele>
        <time>2019-11-24T11:23:24.999Z</time>
      </trkpt>
      <trkpt lat="45.97414" lon="1.41152">
        <ele>449.8</ele>
        <time>2019-11-24T11:23:26.999Z</time>
      </trkpt>
      <trkpt lat="45.97419" lon="1.4114">
        <ele>449.35</ele>
        <time>2019-11-24T11:23:28.999Z</time>
      </trkpt>
      <trkpt lat="45.97427" lon="1.4113">
        <ele>447.4</ele>
        <time>2019-11-24T11:23:33.999Z</time>
      </trkpt>
      <trkpt lat="45.97437" lon="1.41127">
        <ele>445.59</ele>
        <time>2019-11-24T11:23:37.999Z</time>
      </trkpt>
      <trkpt lat="45.97446" lon="1.41126">
        <ele>444.25</ele>
        <time>2019-11-24T11:23:40.999Z</time>
      </trkpt>
      <trkpt lat="45.97456" lon="1.41126">
        <ele>443.04</ele>
        <time>2019-11-24T11:23:43.999Z</time>
      </trkpt>
      <trkpt lat="45.97466" lon="1.41129">
        <ele>441.75</ele>
        <time>2019-11-24T11:23:46.999Z</time>
      </trkpt>
      <trkpt lat="45.97476" lon="1.41127">
        <ele>435.73</ele>
        <time>2019-11-24T11:23:49.999Z</time>
      </trkpt>
      <trkpt lat="45.97486" lon="1.41127">
        <ele>427.96</ele>
        <time>2019-11-24T11:23:51.999Z</time>
      </trkpt>
      <trkpt lat="45.97495" lon="1.41119">
        <ele>422.44</ele>
        <time>2019-11-24T11:23:54.999Z</time>
      </trkpt>
      <trkpt lat="45.97504" lon="1.41115">
        <ele>421.83</ele>
        <time>2019-11-24T11:23:57.999Z</time>
      </trkpt>
      <trkpt lat="45.97515" lon="1.41109">
        <ele>419.52</ele>
        <time>2019-11-24T11:24:00.999Z</time>
      </trkpt>
      <trkpt lat="45.97523" lon="1.41097">
        <ele>417.17</ele>
        <time>2019-11-24T11:24:03.999Z</time>
      </trkpt>
      <trkpt lat="45.97536" lon="1.41092">
        <ele>416.6</ele>
        <time>2019-11-24T11:24:06.999Z</time>
      </trkpt>
      <trkpt lat="45.97544" lon="1.41081">
        <ele>415.14</ele>
        <time>2019-11-24T11:24:08.999Z</time>
      </trkpt>
      <trkpt lat="45.97549" lon="1.41067">
        <ele>413.83</ele>
        <time>2019-11-24T11:24:10.999Z</time>
      </trkpt>
      <trkpt lat="45.97556" lon="1.41057">
        <ele>412.2</ele>
        <time>2019-11-24T11:24:13.999Z</time>
      </trkpt>
      <trkpt lat="45.97566" lon="1.41051">
        <ele>412.28</ele>
        <time>2019-11-24T11:24:16.999Z</time>
      </trkpt>
      <trkpt lat="45.97579" lon="1.41049">
        <ele>412.41</ele>
        <time>2019-11-24T11:24:19.999Z</time>
      </trkpt>
      <trkpt lat="45.97584" lon="1.41036">
        <ele>412.63</ele>
        <time>2019-11-24T11:24:21.999Z</time>
      </trkpt>
      <trkpt lat="45.97588" lon="1.41021">
        <ele>413.76</ele>
        <time>2019-11-24T11:24:23.999Z</time>
      </trkpt>
      <trkpt lat="45.97593" lon="1.41003">
        <ele>414.31</ele>
        <time>2019-11-24T11:24:26.999Z</time>
      </trkpt>
      <trkpt lat="45.97597" lon="1.40992">
        <ele>414.52</ele>
        <time>2019-11-24T11:24:28.999Z</time>
      </trkpt>
      <trkpt lat="45.976" lon="1.40979">
        <ele>414.44</ele>
        <time>2019-11-24T11:24:31.999Z</time>
      </trkpt>
      <trkpt lat="45.97599" lon="1.40965">
        <ele>414.02</ele>
        <time>2019-11-24T11:24:36.999Z</time>
      </trkpt>
      <trkpt lat="45.97597" lon="1.40949">
        <ele>413.59</ele>
        <time>2019-11-24T11:24:41.999Z</time>
      </trkpt>
      <trkpt lat="45.97589" lon="1.40934">
        <ele>413.17</ele>
        <time>2019-11-24T11:24:45.999Z</time>
      </trkpt>
      <trkpt lat="45.97584" lon="1.40922">
        <ele>413.05</ele>
        <time>2019-11-24T11:24:48.999Z</time>
      </trkpt>
      <trkpt lat="45.9758" lon="1.40908">
        <ele>413.35</ele>
        <time>2019-11-24T11:24:52.999Z</time>
      </trkpt>
      <trkpt lat="45.97572" lon="1.40895">
        <ele>413.84</ele>
        <time>2019-11-24T11:24:56.999Z</time>
      </trkpt>
      <trkpt lat="45.97563" lon="1.40886">
        <ele>415.05</ele>
        <time>2019-11-24T11:25:00.999Z</time>
      </trkpt>
      <trkpt lat="45.9755" lon="1.40884">
        <ele>415.69</ele>
        <time>2019-11-24T11:25:02.999Z</time>
      </trkpt>
      <trkpt lat="45.97541" lon="1.4088">
        <ele>416.27</ele>
        <time>2019-11-24T11:25:04.999Z</time>
      </trkpt>
      <trkpt lat="45.97532" lon="1.40879">
        <ele>419.62</ele>
        <time>2019-11-24T11:25:06.999Z</time>
      </trkpt>
      <trkpt lat="45.97522" lon="1.40875">
        <ele>423.78</ele>
        <time>2019-11-24T11:25:09.999Z</time>
      </trkpt>
      <trkpt lat="45.97509" lon="1.40877">
        <ele>426</ele>
        <time>2019-11-24T11:25:12.999Z</time>
      </trkpt>
      <trkpt lat="45.975" lon="1.40868">
        <ele>427.09</ele>
        <time>2019-11-24T11:25:14.999Z</time>
      </trkpt>
      <trkpt lat="45.9749" lon="1.40863">
        <ele>428.57</ele>
        <time>2019-11-24T11:25:17.999Z</time>
      </trkpt>
      <trkpt lat="45.97481" lon="1.40867">
        <ele>430.31</ele>
        <time>2019-11-24T11:25:20.999Z</time>
      </trkpt>
      <trkpt lat="45.97469" lon="1.4087">
        <ele>430.9</ele>
        <time>2019-11-24T11:25:24.999Z</time>
      </trkpt>
      <trkpt lat="45.97459" lon="1.4087">
        <ele>431.5</ele>
        <time>2019-11-24T11:25:28.999Z</time>
      </trkpt>
      <trkpt lat="45.97449" lon="1.40867">
        <ele>431.96</ele>
        <time>2019-11-24T11:25:31.999Z</time>
      </trkpt>
      <trkpt lat="45.97442" lon="1.40857">
        <ele>432.42</ele>
        <time>2019-11-24T11:25:33.999Z</time>
      </trkpt>
      <trkpt lat="45.97435" lon="1.40843">
        <ele>433.28</ele>
        <time>2019-11-24T11:25:36.999Z</time>
      </trkpt>
      <trkpt lat="45.97429" lon="1.40831">
        <ele>434.07</ele>
        <time>2019-11-24T11:25:39.999Z</time>
      </trkpt>
      <trkpt lat="45.97418" lon="1.40824">
        <ele>436.36</ele>
        <time>2019-11-24T11:25:43.999Z</time>
      </trkpt>
      <trkpt lat="45.97408" lon="1.40819">
        <ele>437.03</ele>
        <time>2019-11-24T11:25:47.999Z</time>
      </trkpt>
      <trkpt lat="45.97397" lon="1.40809">
        <ele>441.22</ele>
        <time>2019-11-24T11:25:50.999Z</time>
      </trkpt>
      <trkpt lat="45.97388" lon="1.40797">
        <ele>441.83</ele>
        <time>2019-11-24T11:25:53.999Z</time>
      </trkpt>
      <trkpt lat="45.97386" lon="1.40779">
        <ele>442.57</ele>
        <time>2019-11-24T11:25:56.999Z</time>
      </trkpt>
      <trkpt lat="45.97384" lon="1.40766">
        <ele>443.43</ele>
        <time>2019-11-24T11:26:00.999Z</time>
      </trkpt>
      <trkpt lat="45.97383" lon="1.40748">
        <ele>444.64</ele>
        <time>2019-11-24T11:26:04.999Z</time>
      </trkpt>
      <trkpt lat="45.97378" lon="1.40736">
        <ele>445.49</ele>
        <time>2019-11-24T11:26:07.999Z</time>
      </trkpt>
      <trkpt lat="45.9737" lon="1.40729">
        <ele>445.66</ele>
        <time>2019-11-24T11:26:12.999Z</time>
      </trkpt>
      <trkpt lat="45.97367" lon="1.40745">
        <ele>442.27</ele>
        <time>2019-11-24T11:26:20.999Z</time>
      </trkpt>
      <trkpt lat="45.97361" lon="1.40759">
        <ele>440.25</ele>
        <time>2019-11-24T11:26:24.999Z</time>
      </trkpt>
      <trkpt lat="45.97348" lon="1.40767">
        <ele>439.02</ele>
        <time>2019-11-24T11:26:27.999Z</time>
      </trkpt>
      <trkpt lat="45.97338" lon="1.40771">
        <ele>438.27</ele>
        <time>2019-11-24T11:26:29.999Z</time>
      </trkpt>
      <trkpt lat="45.97329" lon="1.4078">
        <ele>437.39</ele>
        <time>2019-11-24T11:26:32.999Z</time>
      </trkpt>
      <trkpt lat="45.97329" lon="1.40795">
        <ele>436.53</ele>
        <time>2019-11-24T11:26:35.999Z</time>
      </trkpt>
      <trkpt lat="45.9732" lon="1.40802">
        <ele>435.89</ele>
        <time>2019-11-24T11:26:37.999Z</time>
      </trkpt>
      <trkpt lat="45.97304" lon="1.40803">
        <ele>435.17</ele>
        <time>2019-11-24T11:26:39.999Z</time>
      </trkpt>
      <trkpt lat="45.97292" lon="1.408">
        <ele>434.45</ele>
        <time>2019-11-24T11:26:41.999Z</time>
      </trkpt>
      <trkpt lat="45.97283" lon="1.40789">
        <ele>433.31</ele>
        <time>2019-11-24T11:26:44.999Z</time>
      </trkpt>
      <trkpt lat="45.97275" lon="1.40779">
        <ele>431.87</ele>
        <time>2019-11-24T11:26:48.999Z</time>
      </trkpt>
      <trkpt lat="45.97267" lon="1.40773">
        <ele>430.44</ele>
        <time>2019-11-24T11:26:54.999Z</time>
      </trkpt>
      <trkpt lat="45.97256" lon="1.40769">
        <ele>430.33</ele>
        <time>2019-11-24T11:26:56.999Z</time>
      </trkpt>
      <trkpt lat="45.97247" lon="1.40769">
        <ele>430.24</ele>
        <time>2019-11-24T11:26:58.999Z</time>
      </trkpt>
      <trkpt lat="45.97236" lon="1.40761">
        <ele>430.37</ele>
        <time>2019-11-24T11:27:00.999Z</time>
      </trkpt>
      <trkpt lat="45.97226" lon="1.40755">
        <ele>430.85</ele>
        <time>2019-11-24T11:27:04.999Z</time>
      </trkpt>
      <trkpt lat="45.97216" lon="1.40754">
        <ele>431.14</ele>
        <time>2019-11-24T11:27:07.999Z</time>
      </trkpt>
      <trkpt lat="45.97207" lon="1.40756">
        <ele>431.41</ele>
        <time>2019-11-24T11:27:11.999Z</time>
      </trkpt>
      <trkpt lat="45.97197" lon="1.40759">
        <ele>431.75</ele>
        <time>2019-11-24T11:27:14.999Z</time>
      </trkpt>
      <trkpt lat="45.97185" lon="1.40757">
        <ele>432.09</ele>
        <time>2019-11-24T11:27:17.999Z</time>
      </trkpt>
      <trkpt lat="45.9717" lon="1.40755">
        <ele>432.29</ele>
        <time>2019-11-24T11:27:20.999Z</time>
      </trkpt>
      <trkpt lat="45.97158" lon="1.4075">
        <ele>432.64</ele>
        <time>2019-11-24T11:27:23.999Z</time>
      </trkpt>
      <trkpt lat="45.97149" lon="1.4074">
        <ele>433.03</ele>
        <time>2019-11-24T11:27:26.999Z</time>
      </trkpt>
      <trkpt lat="45.97148" lon="1.40725">
        <ele>433.06</ele>
        <time>2019-11-24T11:27:29.999Z</time>
      </trkpt>
      <trkpt lat="45.97148" lon="1.40711">
        <ele>432.87</ele>
        <time>2019-11-24T11:27:32.999Z</time>
      </trkpt>
      <trkpt lat="45.97153" lon="1.40694">
        <ele>432.15</ele>
        <time>2019-11-24T11:27:36.999Z</time>
      </trkpt>
      <trkpt lat="45.97156" lon="1.40678">
        <ele>431.25</ele>
        <time>2019-11-24T11:27:39.999Z</time>
      </trkpt>
      <trkpt lat="45.97159" lon="1.40664">
        <ele>430.17</ele>
        <time>2019-11-24T11:27:42.999Z</time>
      </trkpt>
      <trkpt lat="45.9716" lon="1.40649">
        <ele>429.43</ele>
        <time>2019-11-24T11:27:44.999Z</time>
      </trkpt>
      <trkpt lat="45.97161" lon="1.40635">
        <ele>428.85</ele>
        <time>2019-11-24T11:27:46.999Z</time>
      </trkpt>
      <trkpt lat="45.97167" lon="1.4062">
        <ele>427.74</ele>
        <time>2019-11-24T11:27:51.999Z</time>
      </trkpt>
      <trkpt lat="45.97173" lon="1.40608">
        <ele>426.99</ele>
        <time>2019-11-24T11:27:54.999Z</time>
      </trkpt>
      <trkpt lat="45.97179" lon="1.40597">
        <ele>423.99</ele>
        <time>2019-11-24T11:27:56.999Z</time>
      </trkpt>
      <trkpt lat="45.97182" lon="1.40583">
        <ele>423.46</ele>
        <time>2019-11-24T11:27:58.999Z</time>
      </trkpt>
      <trkpt lat="45.97191" lon="1.40578">
        <ele>422.58</ele>
        <time>2019-11-24T11:28:01.999Z</time>
      </trkpt>
      <trkpt lat="45.97202" lon="1.40569">
        <ele>421.39</ele>
        <time>2019-11-24T11:28:06.999Z</time>
      </trkpt>
      <trkpt lat="45.9721" lon="1.40562">
        <ele>420.83</ele>
        <time>2019-11-24T11:28:09.999Z</time>
      </trkpt>
      <trkpt lat="45.97221" lon="1.40557">
        <ele>420.4</ele>
        <time>2019-11-24T11:28:13.999Z</time>
      </trkpt>
      <trkpt lat="45.97228" lon="1.40548">
        <ele>420.47</ele>
        <time>2019-11-24T11:28:19.999Z</time>
      </trkpt>
      <trkpt lat="45.9723" lon="1.40534">
        <ele>420.92</ele>
        <time>2019-11-24T11:28:23.999Z</time>
      </trkpt>
      <trkpt lat="45.97233" lon="1.40521">
        <ele>421.53</ele>
        <time>2019-11-24T11:28:27.999Z</time>
      </trkpt>
      <trkpt lat="45.97239" lon="1.40509">
        <ele>422.28</ele>
        <time>2019-11-24T11:28:31.999Z</time>
      </trkpt>
      <trkpt lat="45.97245" lon="1.40494">
        <ele>422.88</ele>
        <time>2019-11-24T11:28:35.999Z</time>
      </trkpt>
      <trkpt lat="45.97252" lon="1.40477">
        <ele>423.26</ele>
        <time>2019-11-24T11:28:38.999Z</time>
      </trkpt>
      <trkpt lat="45.97257" lon="1.40466">
        <ele>423.59</ele>
        <time>2019-11-24T11:28:40.999Z</time>
      </trkpt>
      <trkpt lat="45.97266" lon="1.40453">
        <ele>424.12</ele>
        <time>2019-11-24T11:28:43.999Z</time>
      </trkpt>
      <trkpt lat="45.97271" lon="1.4044">
        <ele>424.91</ele>
        <time>2019-11-24T11:28:47.999Z</time>
      </trkpt>
      <trkpt lat="45.97274" lon="1.40423">
        <ele>425.37</ele>
        <time>2019-11-24T11:28:50.999Z</time>
      </trkpt>
      <trkpt lat="45.97278" lon="1.40408">
        <ele>425.68</ele>
        <time>2019-11-24T11:28:53.999Z</time>
      </trkpt>
      <trkpt lat="45.97282" lon="1.40396">
        <ele>425.85</ele>
        <time>2019-11-24T11:28:56.999Z</time>
      </trkpt>
      <trkpt lat="45.97279" lon="1.40381">
        <ele>426.89</ele>
        <time>2019-11-24T11:29:03.999Z</time>
      </trkpt>
      <trkpt lat="45.97281" lon="1.40363">
        <ele>427.75</ele>
        <time>2019-11-24T11:29:07.999Z</time>
      </trkpt>
      <trkpt lat="45.97284" lon="1.40351">
        <ele>428.44</ele>
        <time>2019-11-24T11:29:10.999Z</time>
      </trkpt>
      <trkpt lat="45.97281" lon="1.40335">
        <ele>430.21</ele>
        <time>2019-11-24T11:29:17.999Z</time>
      </trkpt>
      <trkpt lat="45.97277" lon="1.40321">
        <ele>431.21</ele>
        <time>2019-11-24T11:29:21.999Z</time>
      </trkpt>
      <trkpt lat="45.97271" lon="1.40307">
        <ele>432.31</ele>
        <time>2019-11-24T11:29:25.999Z</time>
      </trkpt>
      <trkpt lat="45.97269" lon="1.40284">
        <ele>433.62</ele>
        <time>2019-11-24T11:29:29.999Z</time>
      </trkpt>
      <trkpt lat="45.97273" lon="1.4026">
        <ele>434.36</ele>
        <time>2019-11-24T11:29:32.999Z</time>
      </trkpt>
      <trkpt lat="45.97276" lon="1.40242">
        <ele>434.21</ele>
        <time>2019-11-24T11:29:36.999Z</time>
      </trkpt>
      <trkpt lat="45.97276" lon="1.40229">
        <ele>433.78</ele>
        <time>2019-11-24T11:29:38.999Z</time>
      </trkpt>
      <trkpt lat="45.9727" lon="1.40213">
        <ele>432.93</ele>
        <time>2019-11-24T11:29:41.999Z</time>
      </trkpt>
      <trkpt lat="45.97262" lon="1.402">
        <ele>431.13</ele>
        <time>2019-11-24T11:29:47.999Z</time>
      </trkpt>
      <trkpt lat="45.97257" lon="1.40187">
        <ele>430.27</ele>
        <time>2019-11-24T11:29:51.999Z</time>
      </trkpt>
      <trkpt lat="45.97254" lon="1.40175">
        <ele>429.49</ele>
        <time>2019-11-24T11:29:56.999Z</time>
      </trkpt>
      <trkpt lat="45.97249" lon="1.40163">
        <ele>428.69</ele>
        <time>2019-11-24T11:30:02.999Z</time>
      </trkpt>
      <trkpt lat="45.97244" lon="1.4015">
        <ele>428</ele>
        <time>2019-11-24T11:30:08.999Z</time>
      </trkpt>
      <trkpt lat="45.97236" lon="1.40141">
        <ele>431.06</ele>
        <time>2019-11-24T11:30:33.999Z</time>
      </trkpt>
      <trkpt lat="45.97234" lon="1.40154">
        <ele>430.4</ele>
        <time>2019-11-24T11:31:08.999Z</time>
      </trkpt>
      <trkpt lat="45.97234" lon="1.40169">
        <ele>430.52</ele>
        <time>2019-11-24T11:31:14.999Z</time>
      </trkpt>
      <trkpt lat="45.9723" lon="1.40181">
        <ele>429.74</ele>
        <time>2019-11-24T11:31:22.999Z</time>
      </trkpt>
      <trkpt lat="45.97223" lon="1.4019">
        <ele>428.68</ele>
        <time>2019-11-24T11:31:30.999Z</time>
      </trkpt>
      <trkpt lat="45.97216" lon="1.40199">
        <ele>427.54</ele>
        <time>2019-11-24T11:31:35.999Z</time>
      </trkpt>
      <trkpt lat="45.9721" lon="1.40209">
        <ele>425.96</ele>
        <time>2019-11-24T11:31:43.999Z</time>
      </trkpt>
      <trkpt lat="45.97207" lon="1.40223">
        <ele>426.02</ele>
        <time>2019-11-24T11:31:49.999Z</time>
      </trkpt>
      <trkpt lat="45.97203" lon="1.40237">
        <ele>426.44</ele>
        <time>2019-11-24T11:31:53.999Z</time>
      </trkpt>
      <trkpt lat="45.972" lon="1.40253">
        <ele>426.73</ele>
        <time>2019-11-24T11:31:57.999Z</time>
      </trkpt>
      <trkpt lat="45.97197" lon="1.40266">
        <ele>427.21</ele>
        <time>2019-11-24T11:32:00.999Z</time>
      </trkpt>
      <trkpt lat="45.97191" lon="1.40281">
        <ele>428.14</ele>
        <time>2019-11-24T11:32:03.999Z</time>
      </trkpt>
      <trkpt lat="45.97175" lon="1.40293">
        <ele>428.85</ele>
        <time>2019-11-24T11:32:05.999Z</time>
      </trkpt>
      <trkpt lat="45.97165" lon="1.40305">
        <ele>429.56</ele>
        <time>2019-11-24T11:32:07.999Z</time>
      </trkpt>
      <trkpt lat="45.97158" lon="1.40317">
        <ele>430.31</ele>
        <time>2019-11-24T11:32:09.999Z</time>
      </trkpt>
      <trkpt lat="45.97151" lon="1.40333">
        <ele>431.62</ele>
        <time>2019-11-24T11:32:12.999Z</time>
      </trkpt>
      <trkpt lat="45.97145" lon="1.40347">
        <ele>432.4</ele>
        <time>2019-11-24T11:32:14.999Z</time>
      </trkpt>
      <trkpt lat="45.9714" lon="1.4036">
        <ele>433.75</ele>
        <time>2019-11-24T11:32:17.999Z</time>
      </trkpt>
      <trkpt lat="45.97134" lon="1.40373">
        <ele>435.15</ele>
        <time>2019-11-24T11:32:20.999Z</time>
      </trkpt>
      <trkpt lat="45.97128" lon="1.40388">
        <ele>436.49</ele>
        <time>2019-11-24T11:32:23.999Z</time>
      </trkpt>
      <trkpt lat="45.97126" lon="1.40402">
        <ele>437.98</ele>
        <time>2019-11-24T11:32:26.999Z</time>
      </trkpt>
      <trkpt lat="45.97121" lon="1.40418">
        <ele>440.1</ele>
        <time>2019-11-24T11:32:30.999Z</time>
      </trkpt>
      <trkpt lat="45.97116" lon="1.40432">
        <ele>441.52</ele>
        <time>2019-11-24T11:32:33.999Z</time>
      </trkpt>
      <trkpt lat="45.97109" lon="1.40445">
        <ele>442.95</ele>
        <time>2019-11-24T11:32:36.999Z</time>
      </trkpt>
      <trkpt lat="45.97105" lon="1.40457">
        <ele>444.39</ele>
        <time>2019-11-24T11:32:39.999Z</time>
      </trkpt>
      <trkpt lat="45.971" lon="1.40469">
        <ele>445.73</ele>
        <time>2019-11-24T11:32:42.999Z</time>
      </trkpt>
      <trkpt lat="45.97094" lon="1.40481">
        <ele>446.64</ele>
        <time>2019-11-24T11:32:45.999Z</time>
      </trkpt>
      <trkpt lat="45.97089" lon="1.40498">
        <ele>447.42</ele>
        <time>2019-11-24T11:32:48.999Z</time>
      </trkpt>
      <trkpt lat="45.97082" lon="1.40508">
        <ele>447.86</ele>
        <time>2019-11-24T11:32:50.999Z</time>
      </trkpt>
      <trkpt lat="45.97077" lon="1.40527">
        <ele>448.43</ele>
        <time>2019-11-24T11:32:53.999Z</time>
      </trkpt>
      <trkpt lat="45.97073" lon="1.40539">
        <ele>448.78</ele>
        <time>2019-11-24T11:32:55.999Z</time>
      </trkpt>
      <trkpt lat="45.9707" lon="1.40558">
        <ele>452.98</ele>
        <time>2019-11-24T11:32:58.999Z</time>
      </trkpt>
      <trkpt lat="45.97064" lon="1.40573">
        <ele>455.32</ele>
        <time>2019-11-24T11:33:00.999Z</time>
      </trkpt>
      <trkpt lat="45.97053" lon="1.40583">
        <ele>457.6</ele>
        <time>2019-11-24T11:33:02.999Z</time>
      </trkpt>
      <trkpt lat="45.97045" lon="1.40591">
        <ele>457.76</ele>
        <time>2019-11-24T11:33:03.999Z</time>
      </trkpt>
      <trkpt lat="45.97033" lon="1.40607">
        <ele>458.05</ele>
        <time>2019-11-24T11:33:05.999Z</time>
      </trkpt>
      <trkpt lat="45.97024" lon="1.40626">
        <ele>459.07</ele>
        <time>2019-11-24T11:33:07.999Z</time>
      </trkpt>
      <trkpt lat="45.97016" lon="1.40642">
        <ele>458.76</ele>
        <time>2019-11-24T11:33:09.999Z</time>
      </trkpt>
      <trkpt lat="45.9701" lon="1.40653">
        <ele>458.22</ele>
        <time>2019-11-24T11:33:10.999Z</time>
      </trkpt>
      <trkpt lat="45.97003" lon="1.40666">
        <ele>457.25</ele>
        <time>2019-11-24T11:33:11.999Z</time>
      </trkpt>
      <trkpt lat="45.96998" lon="1.40677">
        <ele>456.74</ele>
        <time>2019-11-24T11:33:12.999Z</time>
      </trkpt>
      <trkpt lat="45.96988" lon="1.40693">
        <ele>454.84</ele>
        <time>2019-11-24T11:33:14.999Z</time>
      </trkpt>
      <trkpt lat="45.9698" lon="1.40703">
        <ele>454.46</ele>
        <time>2019-11-24T11:33:16.999Z</time>
      </trkpt>
      <trkpt lat="45.9697" lon="1.40706">
        <ele>453.76</ele>
        <time>2019-11-24T11:33:18.999Z</time>
      </trkpt>
      <trkpt lat="45.96957" lon="1.40704">
        <ele>453.01</ele>
        <time>2019-11-24T11:33:20.999Z</time>
      </trkpt>
      <trkpt lat="45.96948" lon="1.40707">
        <ele>451.77</ele>
        <time>2019-11-24T11:33:23.999Z</time>
      </trkpt>
      <trkpt lat="45.9694" lon="1.40717">
        <ele>450.54</ele>
        <time>2019-11-24T11:33:26.999Z</time>
      </trkpt>
      <trkpt lat="45.96936" lon="1.40729">
        <ele>449.25</ele>
        <time>2019-11-24T11:33:29.999Z</time>
      </trkpt>
      <trkpt lat="45.96932" lon="1.40741">
        <ele>447.56</ele>
        <time>2019-11-24T11:33:33.999Z</time>
      </trkpt>
      <trkpt lat="45.96926" lon="1.40753">
        <ele>446.36</ele>
        <time>2019-11-24T11:33:36.999Z</time>
      </trkpt>
      <trkpt lat="45.96918" lon="1.40767">
        <ele>445.2</ele>
        <time>2019-11-24T11:33:39.999Z</time>
      </trkpt>
      <trkpt lat="45.96904" lon="1.40776">
        <ele>444.19</ele>
        <time>2019-11-24T11:33:42.999Z</time>
      </trkpt>
      <trkpt lat="45.9689" lon="1.40781">
        <ele>441.03</ele>
        <time>2019-11-24T11:33:44.999Z</time>
      </trkpt>
      <trkpt lat="45.96879" lon="1.40787">
        <ele>440.61</ele>
        <time>2019-11-24T11:33:46.999Z</time>
      </trkpt>
      <trkpt lat="45.96867" lon="1.40792">
        <ele>440.03</ele>
        <time>2019-11-24T11:33:49.999Z</time>
      </trkpt>
      <trkpt lat="45.96856" lon="1.40793">
        <ele>439.62</ele>
        <time>2019-11-24T11:33:52.999Z</time>
      </trkpt>
      <trkpt lat="45.96845" lon="1.40794">
        <ele>439.19</ele>
        <time>2019-11-24T11:33:55.999Z</time>
      </trkpt>
      <trkpt lat="45.96836" lon="1.40797">
        <ele>438.56</ele>
        <time>2019-11-24T11:33:59.999Z</time>
      </trkpt>
      <trkpt lat="45.96827" lon="1.40802">
        <ele>437.91</ele>
        <time>2019-11-24T11:34:02.999Z</time>
      </trkpt>
      <trkpt lat="45.96819" lon="1.40806">
        <ele>437.26</ele>
        <time>2019-11-24T11:34:05.999Z</time>
      </trkpt>
      <trkpt lat="45.96809" lon="1.40808">
        <ele>436.36</ele>
        <time>2019-11-24T11:34:08.999Z</time>
      </trkpt>
      <trkpt lat="45.96798" lon="1.40813">
        <ele>435.02</ele>
        <time>2019-11-24T11:34:12.999Z</time>
      </trkpt>
      <trkpt lat="45.96788" lon="1.40814">
        <ele>433.76</ele>
        <time>2019-11-24T11:34:16.999Z</time>
      </trkpt>
      <trkpt lat="45.96776" lon="1.40816">
        <ele>432.29</ele>
        <time>2019-11-24T11:34:22.999Z</time>
      </trkpt>
      <trkpt lat="45.96766" lon="1.40816">
        <ele>431.51</ele>
        <time>2019-11-24T11:34:25.999Z</time>
      </trkpt>
      <trkpt lat="45.96756" lon="1.40815">
        <ele>430.06</ele>
        <time>2019-11-24T11:34:29.999Z</time>
      </trkpt>
      <trkpt lat="45.96745" lon="1.4081">
        <ele>428.96</ele>
        <time>2019-11-24T11:34:32.999Z</time>
      </trkpt>
      <trkpt lat="45.96733" lon="1.40804">
        <ele>427.74</ele>
        <time>2019-11-24T11:34:36.999Z</time>
      </trkpt>
      <trkpt lat="45.96721" lon="1.40797">
        <ele>427.09</ele>
        <time>2019-11-24T11:34:39.999Z</time>
      </trkpt>
      <trkpt lat="45.9671" lon="1.40791">
        <ele>426.69</ele>
        <time>2019-11-24T11:34:42.999Z</time>
      </trkpt>
      <trkpt lat="45.96699" lon="1.40778">
        <ele>426.59</ele>
        <time>2019-11-24T11:34:45.999Z</time>
      </trkpt>
      <trkpt lat="45.96693" lon="1.40766">
        <ele>426.63</ele>
        <time>2019-11-24T11:34:47.999Z</time>
      </trkpt>
      <trkpt lat="45.96685" lon="1.40751">
        <ele>426.78</ele>
        <time>2019-11-24T11:34:50.999Z</time>
      </trkpt>
      <trkpt lat="45.9668" lon="1.4074">
        <ele>427.65</ele>
        <time>2019-11-24T11:34:52.999Z</time>
      </trkpt>
      <trkpt lat="45.96671" lon="1.40725">
        <ele>429.09</ele>
        <time>2019-11-24T11:34:55.999Z</time>
      </trkpt>
      <trkpt lat="45.96667" lon="1.40712">
        <ele>429.2</ele>
        <time>2019-11-24T11:34:57.999Z</time>
      </trkpt>
      <trkpt lat="45.9666" lon="1.40696">
        <ele>428.89</ele>
        <time>2019-11-24T11:35:00.999Z</time>
      </trkpt>
      <trkpt lat="45.96653" lon="1.40681">
        <ele>428.63</ele>
        <time>2019-11-24T11:35:03.999Z</time>
      </trkpt>
      <trkpt lat="45.9665" lon="1.40669">
        <ele>428.91</ele>
        <time>2019-11-24T11:35:06.999Z</time>
      </trkpt>
      <trkpt lat="45.96644" lon="1.40654">
        <ele>429.39</ele>
        <time>2019-11-24T11:35:09.999Z</time>
      </trkpt>
      <trkpt lat="45.9664" lon="1.40641">
        <ele>429.96</ele>
        <time>2019-11-24T11:35:12.999Z</time>
      </trkpt>
      <trkpt lat="45.96636" lon="1.40628">
        <ele>430.53</ele>
        <time>2019-11-24T11:35:15.999Z</time>
      </trkpt>
      <trkpt lat="45.96631" lon="1.40614">
        <ele>431.21</ele>
        <time>2019-11-24T11:35:19.999Z</time>
      </trkpt>
      <trkpt lat="45.96623" lon="1.40604">
        <ele>432.04</ele>
        <time>2019-11-24T11:35:25.999Z</time>
      </trkpt>
      <trkpt lat="45.96614" lon="1.40602">
        <ele>432.92</ele>
        <time>2019-11-24T11:35:31.999Z</time>
      </trkpt>
      <trkpt lat="45.96604" lon="1.40598">
        <ele>434.11</ele>
        <time>2019-11-24T11:35:37.999Z</time>
      </trkpt>
      <trkpt lat="45.96594" lon="1.40596">
        <ele>435.2</ele>
        <time>2019-11-24T11:35:43.999Z</time>
      </trkpt>
      <trkpt lat="45.96584" lon="1.40593">
        <ele>436.05</ele>
        <time>2019-11-24T11:35:49.999Z</time>
      </trkpt>
      <trkpt lat="45.96575" lon="1.40585">
        <ele>436.92</ele>
        <time>2019-11-24T11:35:54.999Z</time>
      </trkpt>
      <trkpt lat="45.96564" lon="1.4058">
        <ele>438.11</ele>
        <time>2019-11-24T11:36:00.999Z</time>
      </trkpt>
      <trkpt lat="45.96555" lon="1.40575">
        <ele>439.18</ele>
        <time>2019-11-24T11:36:05.999Z</time>
      </trkpt>
      <trkpt lat="45.96545" lon="1.4057">
        <ele>440.23</ele>
        <time>2019-11-24T11:36:10.999Z</time>
      </trkpt>
      <trkpt lat="45.96537" lon="1.40564">
        <ele>441.22</ele>
        <time>2019-11-24T11:36:15.999Z</time>
      </trkpt>
      <trkpt lat="45.96528" lon="1.40558">
        <ele>441.9</ele>
        <time>2019-11-24T11:36:19.999Z</time>
      </trkpt>
      <trkpt lat="45.96519" lon="1.40552">
        <ele>442.51</ele>
        <time>2019-11-24T11:36:23.999Z</time>
      </trkpt>
      <trkpt lat="45.9651" lon="1.40549">
        <ele>443.85</ele>
        <time>2019-11-24T11:36:26.999Z</time>
      </trkpt>
      <trkpt lat="45.965" lon="1.40545">
        <ele>445.41</ele>
        <time>2019-11-24T11:36:28.999Z</time>
      </trkpt>
      <trkpt lat="45.9649" lon="1.40541">
        <ele>446.5</ele>
        <time>2019-11-24T11:36:30.999Z</time>
      </trkpt>
      <trkpt lat="45.96477" lon="1.40538">
        <ele>446.84</ele>
        <time>2019-11-24T11:36:32.999Z</time>
      </trkpt>
      <trkpt lat="45.96462" lon="1.40534">
        <ele>446.03</ele>
        <time>2019-11-24T11:36:34.999Z</time>
      </trkpt>
      <trkpt lat="45.96447" lon="1.40532">
        <ele>444.57</ele>
        <time>2019-11-24T11:36:36.999Z</time>
      </trkpt>
      <trkpt lat="45.96429" lon="1.40527">
        <ele>443.74</ele>
        <time>2019-11-24T11:36:38.999Z</time>
      </trkpt>
      <trkpt lat="45.9642" lon="1.40524">
        <ele>443.39</ele>
        <time>2019-11-24T11:36:39.999Z</time>
      </trkpt>
      <trkpt lat="45.9641" lon="1.40519">
        <ele>443.23</ele>
        <time>2019-11-24T11:36:40.999Z</time>
      </trkpt>
      <trkpt lat="45.964" lon="1.40512">
        <ele>443.27</ele>
        <time>2019-11-24T11:36:41.999Z</time>
      </trkpt>
      <trkpt lat="45.9639" lon="1.40504">
        <ele>443.33</ele>
        <time>2019-11-24T11:36:42.999Z</time>
      </trkpt>
      <trkpt lat="45.96381" lon="1.40493">
        <ele>443.32</ele>
        <time>2019-11-24T11:36:43.999Z</time>
      </trkpt>
      <trkpt lat="45.96374" lon="1.40482">
        <ele>443.2</ele>
        <time>2019-11-24T11:36:44.999Z</time>
      </trkpt>
      <trkpt lat="45.96367" lon="1.40471">
        <ele>442.92</ele>
        <time>2019-11-24T11:36:45.999Z</time>
      </trkpt>
      <trkpt lat="45.96357" lon="1.40455">
        <ele>442.23</ele>
        <time>2019-11-24T11:36:47.999Z</time>
      </trkpt>
      <trkpt lat="45.96349" lon="1.40442">
        <ele>441.34</ele>
        <time>2019-11-24T11:36:49.999Z</time>
      </trkpt>
      <trkpt lat="45.96342" lon="1.40435">
        <ele>440.63</ele>
        <time>2019-11-24T11:36:51.999Z</time>
      </trkpt>
      <trkpt lat="45.96332" lon="1.40434">
        <ele>439.7</ele>
        <time>2019-11-24T11:36:53.999Z</time>
      </trkpt>
      <trkpt lat="45.96321" lon="1.40429">
        <ele>438.21</ele>
        <time>2019-11-24T11:36:55.999Z</time>
      </trkpt>
      <trkpt lat="45.9631" lon="1.40424">
        <ele>436.48</ele>
        <time>2019-11-24T11:36:57.999Z</time>
      </trkpt>
      <trkpt lat="45.96298" lon="1.4042">
        <ele>434.12</ele>
        <time>2019-11-24T11:36:59.999Z</time>
      </trkpt>
      <trkpt lat="45.96285" lon="1.4042">
        <ele>431.54</ele>
        <time>2019-11-24T11:37:01.999Z</time>
      </trkpt>
      <trkpt lat="45.9627" lon="1.4042">
        <ele>428.93</ele>
        <time>2019-11-24T11:37:03.999Z</time>
      </trkpt>
      <trkpt lat="45.96256" lon="1.40424">
        <ele>427.43</ele>
        <time>2019-11-24T11:37:05.999Z</time>
      </trkpt>
      <trkpt lat="45.96242" lon="1.40428">
        <ele>427.03</ele>
        <time>2019-11-24T11:37:07.999Z</time>
      </trkpt>
      <trkpt lat="45.96228" lon="1.40434">
        <ele>426.97</ele>
        <time>2019-11-24T11:37:09.999Z</time>
      </trkpt>
      <trkpt lat="45.96215" lon="1.40442">
        <ele>426.6</ele>
        <time>2019-11-24T11:37:11.999Z</time>
      </trkpt>
      <trkpt lat="45.962" lon="1.4045">
        <ele>426.32</ele>
        <time>2019-11-24T11:37:13.999Z</time>
      </trkpt>
      <trkpt lat="45.96185" lon="1.40458">
        <ele>425.09</ele>
        <time>2019-11-24T11:37:15.999Z</time>
      </trkpt>
      <trkpt lat="45.96176" lon="1.40461">
        <ele>424.36</ele>
        <time>2019-11-24T11:37:16.999Z</time>
      </trkpt>
      <trkpt lat="45.96166" lon="1.40464">
        <ele>423.77</ele>
        <time>2019-11-24T11:37:17.999Z</time>
      </trkpt>
      <trkpt lat="45.96156" lon="1.40467">
        <ele>423.27</ele>
        <time>2019-11-24T11:37:18.999Z</time>
      </trkpt>
      <trkpt lat="45.96147" lon="1.4047">
        <ele>422.82</ele>
        <time>2019-11-24T11:37:19.999Z</time>
      </trkpt>
      <trkpt lat="45.96137" lon="1.40473">
        <ele>422.63</ele>
        <time>2019-11-24T11:37:20.999Z</time>
      </trkpt>
      <trkpt lat="45.96127" lon="1.40478">
        <ele>422.77</ele>
        <time>2019-11-24T11:37:21.999Z</time>
      </trkpt>
      <trkpt lat="45.96118" lon="1.40483">
        <ele>422.83</ele>
        <time>2019-11-24T11:37:22.999Z</time>
      </trkpt>
      <trkpt lat="45.96109" lon="1.40486">
        <ele>422.85</ele>
        <time>2019-11-24T11:37:23.999Z</time>
      </trkpt>
      <trkpt lat="45.96093" lon="1.40493">
        <ele>422.87</ele>
        <time>2019-11-24T11:37:25.999Z</time>
      </trkpt>
      <trkpt lat="45.96078" lon="1.40498">
        <ele>423.12</ele>
        <time>2019-11-24T11:37:27.999Z</time>
      </trkpt>
      <trkpt lat="45.96064" lon="1.40504">
        <ele>423.28</ele>
        <time>2019-11-24T11:37:29.999Z</time>
      </trkpt>
      <trkpt lat="45.96052" lon="1.40508">
        <ele>423.09</ele>
        <time>2019-11-24T11:37:31.999Z</time>
      </trkpt>
      <trkpt lat="45.9604" lon="1.40512">
        <ele>423.07</ele>
        <time>2019-11-24T11:37:33.999Z</time>
      </trkpt>
      <trkpt lat="45.9603" lon="1.40517">
        <ele>422.8</ele>
        <time>2019-11-24T11:37:35.999Z</time>
      </trkpt>
      <trkpt lat="45.96018" lon="1.4052">
        <ele>422.21</ele>
        <time>2019-11-24T11:37:37.999Z</time>
      </trkpt>
      <trkpt lat="45.96007" lon="1.40517">
        <ele>421.65</ele>
        <time>2019-11-24T11:37:39.999Z</time>
      </trkpt>
      <trkpt lat="45.95999" lon="1.40505">
        <ele>421.58</ele>
        <time>2019-11-24T11:37:41.999Z</time>
      </trkpt>
      <trkpt lat="45.95994" lon="1.40492">
        <ele>421.75</ele>
        <time>2019-11-24T11:37:43.999Z</time>
      </trkpt>
      <trkpt lat="45.95989" lon="1.40477">
        <ele>421.33</ele>
        <time>2019-11-24T11:37:45.999Z</time>
      </trkpt>
      <trkpt lat="45.95985" lon="1.40465">
        <ele>421.11</ele>
        <time>2019-11-24T11:37:47.999Z</time>
      </trkpt>
      <trkpt lat="45.95981" lon="1.40452">
        <ele>420.98</ele>
        <time>2019-11-24T11:37:49.999Z</time>
      </trkpt>
      <trkpt lat="45.95977" lon="1.4044">
        <ele>420.76</ele>
        <time>2019-11-24T11:37:51.999Z</time>
      </trkpt>
      <trkpt lat="45.95973" lon="1.40427">
        <ele>420.72</ele>
        <time>2019-11-24T11:37:53.999Z</time>
      </trkpt>
      <trkpt lat="45.95968" lon="1.40415">
        <ele>420.36</ele>
        <time>2019-11-24T11:37:55.999Z</time>
      </trkpt>
      <trkpt lat="45.95963" lon="1.40403">
        <ele>419.59</ele>
        <time>2019-11-24T11:37:57.999Z</time>
      </trkpt>
      <trkpt lat="45.95958" lon="1.40392">
        <ele>418.97</ele>
        <time>2019-11-24T11:37:59.999Z</time>
      </trkpt>
      <trkpt lat="45.95954" lon="1.4038">
        <ele>418.04</ele>
        <time>2019-11-24T11:38:01.999Z</time>
      </trkpt>
      <trkpt lat="45.95948" lon="1.40364">
        <ele>417.07</ele>
        <time>2019-11-24T11:38:04.999Z</time>
      </trkpt>
      <trkpt lat="45.95942" lon="1.40348">
        <ele>416.8</ele>
        <time>2019-11-24T11:38:07.999Z</time>
      </trkpt>
      <trkpt lat="45.95937" lon="1.40332">
        <ele>416.99</ele>
        <time>2019-11-24T11:38:10.999Z</time>
      </trkpt>
      <trkpt lat="45.95931" lon="1.40317">
        <ele>417</ele>
        <time>2019-11-24T11:38:13.999Z</time>
      </trkpt>
      <trkpt lat="45.95925" lon="1.40302">
        <ele>417.31</ele>
        <time>2019-11-24T11:38:16.999Z</time>
      </trkpt>
      <trkpt lat="45.95919" lon="1.40287">
        <ele>417.28</ele>
        <time>2019-11-24T11:38:19.999Z</time>
      </trkpt>
      <trkpt lat="45.95912" lon="1.40272">
        <ele>417.66</ele>
        <time>2019-11-24T11:38:22.999Z</time>
      </trkpt>
      <trkpt lat="45.95908" lon="1.40258">
        <ele>417.77</ele>
        <time>2019-11-24T11:38:25.999Z</time>
      </trkpt>
      <trkpt lat="45.95917" lon="1.40246">
        <ele>418.35</ele>
        <time>2019-11-24T11:38:28.999Z</time>
      </trkpt>
      <trkpt lat="45.95925" lon="1.40238">
        <ele>418.83</ele>
        <time>2019-11-24T11:38:30.999Z</time>
      </trkpt>
      <trkpt lat="45.95932" lon="1.40229">
        <ele>418.67</ele>
        <time>2019-11-24T11:38:32.999Z</time>
      </trkpt>
      <trkpt lat="45.9594" lon="1.40223">
        <ele>418.47</ele>
        <time>2019-11-24T11:38:34.999Z</time>
      </trkpt>
      <trkpt lat="45.95952" lon="1.40216">
        <ele>417.95</ele>
        <time>2019-11-24T11:38:37.999Z</time>
      </trkpt>
      <trkpt lat="45.95961" lon="1.40208">
        <ele>417.87</ele>
        <time>2019-11-24T11:38:40.999Z</time>
      </trkpt>
      <trkpt lat="45.9597" lon="1.402">
        <ele>417.7</ele>
        <time>2019-11-24T11:38:44.999Z</time>
      </trkpt>
      <trkpt lat="45.95968" lon="1.40186">
        <ele>417.73</ele>
        <time>2019-11-24T11:38:50.999Z</time>
      </trkpt>
      <trkpt lat="45.95962" lon="1.40174">
        <ele>418.77</ele>
        <time>2019-11-24T11:38:53.999Z</time>
      </trkpt>
      <trkpt lat="45.95955" lon="1.40163">
        <ele>419.64</ele>
        <time>2019-11-24T11:38:55.999Z</time>
      </trkpt>
      <trkpt lat="45.9595" lon="1.40152">
        <ele>420.68</ele>
        <time>2019-11-24T11:38:57.999Z</time>
      </trkpt>
      <trkpt lat="45.95943" lon="1.40141">
        <ele>421.25</ele>
        <time>2019-11-24T11:38:59.999Z</time>
      </trkpt>
      <trkpt lat="45.95937" lon="1.40129">
        <ele>421.38</ele>
        <time>2019-11-24T11:39:01.999Z</time>
      </trkpt>
      <trkpt lat="45.95931" lon="1.40119">
        <ele>421.52</ele>
        <time>2019-11-24T11:39:03.999Z</time>
      </trkpt>
      <trkpt lat="45.95925" lon="1.40108">
        <ele>421.72</ele>
        <time>2019-11-24T11:39:05.999Z</time>
      </trkpt>
      <trkpt lat="45.9592" lon="1.40097">
        <ele>421.8</ele>
        <time>2019-11-24T11:39:07.999Z</time>
      </trkpt>
      <trkpt lat="45.95912" lon="1.40082">
        <ele>421.48</ele>
        <time>2019-11-24T11:39:10.999Z</time>
      </trkpt>
      <trkpt lat="45.95904" lon="1.40068">
        <ele>421.29</ele>
        <time>2019-11-24T11:39:13.999Z</time>
      </trkpt>
      <trkpt lat="45.95895" lon="1.40058">
        <ele>420.92</ele>
        <time>2019-11-24T11:39:16.999Z</time>
      </trkpt>
      <trkpt lat="45.95888" lon="1.40048">
        <ele>420.82</ele>
        <time>2019-11-24T11:39:20.999Z</time>
      </trkpt>
      <trkpt lat="45.95882" lon="1.40036">
        <ele>420.79</ele>
        <time>2019-11-24T11:39:25.999Z</time>
      </trkpt>
      <trkpt lat="45.95882" lon="1.40022">
        <ele>420.92</ele>
        <time>2019-11-24T11:39:28.999Z</time>
      </trkpt>
      <trkpt lat="45.95883" lon="1.40008">
        <ele>421.15</ele>
        <time>2019-11-24T11:39:31.999Z</time>
      </trkpt>
      <trkpt lat="45.95884" lon="1.39994">
        <ele>421.47</ele>
        <time>2019-11-24T11:39:34.999Z</time>
      </trkpt>
      <trkpt lat="45.95884" lon="1.39977">
        <ele>421.75</ele>
        <time>2019-11-24T11:39:37.999Z</time>
      </trkpt>
      <trkpt lat="45.95883" lon="1.39964">
        <ele>421.86</ele>
        <time>2019-11-24T11:39:39.999Z</time>
      </trkpt>
      <trkpt lat="45.95884" lon="1.39947">
        <ele>421.93</ele>
        <time>2019-11-24T11:39:42.999Z</time>
      </trkpt>
      <trkpt lat="45.95886" lon="1.39932">
        <ele>421.95</ele>
        <time>2019-11-24T11:39:45.999Z</time>
      </trkpt>
      <trkpt lat="45.95884" lon="1.39916">
        <ele>421.99</ele>
        <time>2019-11-24T11:39:49.999Z</time>
      </trkpt>
      <trkpt lat="45.95881" lon="1.39904">
        <ele>422.12</ele>
        <time>2019-11-24T11:39:53.999Z</time>
      </trkpt>
      <trkpt lat="45.95878" lon="1.39889">
        <ele>422.35</ele>
        <time>2019-11-24T11:39:57.999Z</time>
      </trkpt>
      <trkpt lat="45.95878" lon="1.39874">
        <ele>422.74</ele>
        <time>2019-11-24T11:40:01.999Z</time>
      </trkpt>
      <trkpt lat="45.95878" lon="1.39858">
        <ele>423.13</ele>
        <time>2019-11-24T11:40:05.999Z</time>
      </trkpt>
      <trkpt lat="45.95879" lon="1.39842">
        <ele>423.59</ele>
        <time>2019-11-24T11:40:09.999Z</time>
      </trkpt>
      <trkpt lat="45.95883" lon="1.39827">
        <ele>424.01</ele>
        <time>2019-11-24T11:40:13.999Z</time>
      </trkpt>
      <trkpt lat="45.95889" lon="1.39815">
        <ele>424.34</ele>
        <time>2019-11-24T11:40:17.999Z</time>
      </trkpt>
      <trkpt lat="45.95893" lon="1.39803">
        <ele>424.78</ele>
        <time>2019-11-24T11:40:22.999Z</time>
      </trkpt>
      <trkpt lat="45.95888" lon="1.39792">
        <ele>425.26</ele>
        <time>2019-11-24T11:40:27.999Z</time>
      </trkpt>
      <trkpt lat="45.95879" lon="1.39783">
        <ele>425.74</ele>
        <time>2019-11-24T11:40:31.999Z</time>
      </trkpt>
      <trkpt lat="45.95869" lon="1.39778">
        <ele>426.37</ele>
        <time>2019-11-24T11:40:36.999Z</time>
      </trkpt>
      <trkpt lat="45.9586" lon="1.39775">
        <ele>426.9</ele>
        <time>2019-11-24T11:40:39.999Z</time>
      </trkpt>
      <trkpt lat="45.95851" lon="1.39769">
        <ele>427.76</ele>
        <time>2019-11-24T11:40:42.999Z</time>
      </trkpt>
      <trkpt lat="45.95844" lon="1.39758">
        <ele>428.69</ele>
        <time>2019-11-24T11:40:45.999Z</time>
      </trkpt>
      <trkpt lat="45.95845" lon="1.39744">
        <ele>429.41</ele>
        <time>2019-11-24T11:40:48.999Z</time>
      </trkpt>
      <trkpt lat="45.95854" lon="1.39742">
        <ele>430.2</ele>
        <time>2019-11-24T11:41:40.999Z</time>
      </trkpt>
    </trkseg>
  </trk>
</gpx>